<?xml version='1.0' encoding='UTF-8'?><gpx version="1.1" creator="JPX - https://github.com/jenetics/jpx" xmlns="http://www.topografix.com/GPX/1/1"><trk><trkseg><trkpt lat="40.7527434" lon="-3.7840622"><ele>920.5999999999999</ele><time>2026-05-04T07:30:00.648Z</time></trkpt><trkpt lat="40.7527057" lon="-3.7838996"><ele>920.1999999999999</ele><time>2026-05-04T07:30:02.649Z</time></trkpt><trkpt lat="40.7526839" lon="-3.7837921"><ele>919.8000000000001</ele><time>2026-05-04T07:30:03.648Z</time></trkpt><trkpt lat="40.7526574" lon="-3.7836866"><ele>919.4000000000001</ele><time>2026-05-04T07:30:04.649Z</time></trkpt><trkpt lat="40.7526383" lon="-3.7835939"><ele>919.0</ele><time>2026-05-04T07:30:05.648Z</time></trkpt><trkpt lat="40.7526109" lon="-3.7834619"><ele>918.9999999999999</ele><time>2026-05-04T07:30:07.648Z</time></trkpt><trkpt lat="40.7525924" lon="-3.7833413"><ele>919.0</ele><time>2026-05-04T07:30:09.649Z</time></trkpt><trkpt lat="40.7525683" lon="-3.7832048"><ele>919.0</ele><time>2026-05-04T07:30:11.648Z</time></trkpt><trkpt lat="40.7525889" lon="-3.7831025"><ele>919.0</ele><time>2026-05-04T07:30:13.648Z</time></trkpt><trkpt lat="40.7526704" lon="-3.7830398"><ele>918.9999999999999</ele><time>2026-05-04T07:30:15.648Z</time></trkpt><trkpt lat="40.7527334" lon="-3.7830091"><ele>919.0</ele><time>2026-05-04T07:30:16.648Z</time></trkpt><trkpt lat="40.7527998" lon="-3.7829692"><ele>919.2</ele><time>2026-05-04T07:30:17.648Z</time></trkpt><trkpt lat="40.7528643" lon="-3.7829337"><ele>919.4000000000001</ele><time>2026-05-04T07:30:18.648Z</time></trkpt><trkpt lat="40.7529682" lon="-3.7829015"><ele>919.6</ele><time>2026-05-04T07:30:20.648Z</time></trkpt><trkpt lat="40.7530476" lon="-3.7829521"><ele>919.8</ele><time>2026-05-04T07:30:22.648Z</time></trkpt><trkpt lat="40.753079" lon="-3.7831135"><ele>920.0</ele><time>2026-05-04T07:30:24.648Z</time></trkpt><trkpt lat="40.7530898" lon="-3.7832214"><ele>920.0000000000001</ele><time>2026-05-04T07:30:25.648Z</time></trkpt><trkpt lat="40.7530995" lon="-3.7833147"><ele>920.0</ele><time>2026-05-04T07:30:26.648Z</time></trkpt><trkpt lat="40.7531284" lon="-3.7834729"><ele>920.0</ele><time>2026-05-04T07:30:28.648Z</time></trkpt><trkpt lat="40.7531449" lon="-3.7835602"><ele>920.0</ele><time>2026-05-04T07:30:29.648Z</time></trkpt><trkpt lat="40.7531604" lon="-3.7836517"><ele>920.0000000000001</ele><time>2026-05-04T07:30:30.648Z</time></trkpt><trkpt lat="40.7531889" lon="-3.783743"><ele>920.0</ele><time>2026-05-04T07:30:31.648Z</time></trkpt><trkpt lat="40.7532133" lon="-3.7838342"><ele>920.1666666666667</ele><time>2026-05-04T07:30:32.649Z</time></trkpt><trkpt lat="40.7532431" lon="-3.7839302"><ele>920.3333333333334</ele><time>2026-05-04T07:30:33.648Z</time></trkpt><trkpt lat="40.7532792" lon="-3.7840258"><ele>920.5</ele><time>2026-05-04T07:30:34.648Z</time></trkpt><trkpt lat="40.7533148" lon="-3.7841233"><ele>920.6666666666667</ele><time>2026-05-04T07:30:35.648Z</time></trkpt><trkpt lat="40.753345" lon="-3.7842281"><ele>920.8333333333334</ele><time>2026-05-04T07:30:36.648Z</time></trkpt><trkpt lat="40.7533687" lon="-3.7843165"><ele>921.0</ele><time>2026-05-04T07:30:37.648Z</time></trkpt><trkpt lat="40.7534096" lon="-3.7844439"><ele>921.0</ele><time>2026-05-04T07:30:39.648Z</time></trkpt><trkpt lat="40.7534506" lon="-3.7845278"><ele>921.0</ele><time>2026-05-04T07:30:41.649Z</time></trkpt><trkpt lat="40.753476" lon="-3.7846361"><ele>921.0</ele><time>2026-05-04T07:30:48.649Z</time></trkpt><trkpt lat="40.7534406" lon="-3.7847682"><ele>921.0</ele><time>2026-05-04T07:30:50.648Z</time></trkpt><trkpt lat="40.7533891" lon="-3.7848477"><ele>921.0</ele><time>2026-05-04T07:30:51.648Z</time></trkpt><trkpt lat="40.7533334" lon="-3.784938"><ele>921.0</ele><time>2026-05-04T07:30:52.648Z</time></trkpt><trkpt lat="40.7532873" lon="-3.7850218"><ele>921.0000000000001</ele><time>2026-05-04T07:30:53.649Z</time></trkpt><trkpt lat="40.7532383" lon="-3.7850886"><ele>921.0</ele><time>2026-05-04T07:30:54.649Z</time></trkpt><trkpt lat="40.7531902" lon="-3.7851584"><ele>921.0000000000001</ele><time>2026-05-04T07:30:55.648Z</time></trkpt><trkpt lat="40.7531483" lon="-3.785233"><ele>921.0000000000001</ele><time>2026-05-04T07:30:56.648Z</time></trkpt><trkpt lat="40.7531019" lon="-3.7853105"><ele>921.0</ele><time>2026-05-04T07:30:57.648Z</time></trkpt><trkpt lat="40.7530549" lon="-3.7853945"><ele>921.0000000000001</ele><time>2026-05-04T07:30:58.648Z</time></trkpt><trkpt lat="40.7530043" lon="-3.7854786"><ele>921.0000000000001</ele><time>2026-05-04T07:30:59.648Z</time></trkpt><trkpt lat="40.752951" lon="-3.7855603"><ele>921.1666666666666</ele><time>2026-05-04T07:31:00.648Z</time></trkpt><trkpt lat="40.7529004" lon="-3.7856511"><ele>921.3333333333333</ele><time>2026-05-04T07:31:01.648Z</time></trkpt><trkpt lat="40.7528485" lon="-3.7857377"><ele>921.5</ele><time>2026-05-04T07:31:02.648Z</time></trkpt><trkpt lat="40.75281" lon="-3.785807"><ele>921.6666666666666</ele><time>2026-05-04T07:31:03.648Z</time></trkpt><trkpt lat="40.7527582" lon="-3.7858965"><ele>921.8333333333333</ele><time>2026-05-04T07:31:05.648Z</time></trkpt><trkpt lat="40.7526896" lon="-3.7860194"><ele>922.0</ele><time>2026-05-04T07:31:08.648Z</time></trkpt><trkpt lat="40.7526402" lon="-3.7860937"><ele>921.4000000000001</ele><time>2026-05-04T07:31:09.648Z</time></trkpt><trkpt lat="40.7525726" lon="-3.7862002"><ele>920.8000000000001</ele><time>2026-05-04T07:31:10.648Z</time></trkpt><trkpt lat="40.7525077" lon="-3.7863166"><ele>920.2</ele><time>2026-05-04T07:31:11.648Z</time></trkpt><trkpt lat="40.7524479" lon="-3.7864158"><ele>919.6</ele><time>2026-05-04T07:31:12.648Z</time></trkpt><trkpt lat="40.7523938" lon="-3.7865107"><ele>919.0</ele><time>2026-05-04T07:31:13.648Z</time></trkpt><trkpt lat="40.7523422" lon="-3.7866022"><ele>919.0</ele><time>2026-05-04T07:31:14.648Z</time></trkpt><trkpt lat="40.752287" lon="-3.7866925"><ele>919.0000000000001</ele><time>2026-05-04T07:31:15.649Z</time></trkpt><trkpt lat="40.7522276" lon="-3.7867935"><ele>919.0000000000001</ele><time>2026-05-04T07:31:16.648Z</time></trkpt><trkpt lat="40.7521633" lon="-3.7869003"><ele>919.0</ele><time>2026-05-04T07:31:17.648Z</time></trkpt><trkpt lat="40.7520972" lon="-3.7870107"><ele>919.0</ele><time>2026-05-04T07:31:18.648Z</time></trkpt><trkpt lat="40.752025" lon="-3.7871283"><ele>919.0</ele><time>2026-05-04T07:31:19.648Z</time></trkpt><trkpt lat="40.7519504" lon="-3.7872474"><ele>919.0</ele><time>2026-05-04T07:31:20.648Z</time></trkpt><trkpt lat="40.7518772" lon="-3.787365"><ele>919.0</ele><time>2026-05-04T07:31:21.649Z</time></trkpt><trkpt lat="40.751801" lon="-3.7874884"><ele>919.0</ele><time>2026-05-04T07:31:22.648Z</time></trkpt><trkpt lat="40.7517189" lon="-3.7876064"><ele>918.8000000000001</ele><time>2026-05-04T07:31:23.648Z</time></trkpt><trkpt lat="40.751653" lon="-3.7877285"><ele>918.6000000000001</ele><time>2026-05-04T07:31:24.648Z</time></trkpt><trkpt lat="40.7515867" lon="-3.7878454"><ele>918.4</ele><time>2026-05-04T07:31:25.648Z</time></trkpt><trkpt lat="40.7515188" lon="-3.787962"><ele>918.2</ele><time>2026-05-04T07:31:26.648Z</time></trkpt><trkpt lat="40.7514595" lon="-3.7880719"><ele>918.0</ele><time>2026-05-04T07:31:27.648Z</time></trkpt><trkpt lat="40.7513982" lon="-3.7881726"><ele>918.0</ele><time>2026-05-04T07:31:28.648Z</time></trkpt><trkpt lat="40.751342" lon="-3.7882698"><ele>918.0</ele><time>2026-05-04T07:31:29.649Z</time></trkpt><trkpt lat="40.751279" lon="-3.7883732"><ele>918.0</ele><time>2026-05-04T07:31:30.649Z</time></trkpt><trkpt lat="40.7512148" lon="-3.7884811"><ele>918.0</ele><time>2026-05-04T07:31:31.648Z</time></trkpt><trkpt lat="40.7511588" lon="-3.7885874"><ele>918.0</ele><time>2026-05-04T07:31:32.648Z</time></trkpt><trkpt lat="40.7511081" lon="-3.7886856"><ele>918.0</ele><time>2026-05-04T07:31:33.648Z</time></trkpt><trkpt lat="40.7510714" lon="-3.7887872"><ele>918.0</ele><time>2026-05-04T07:31:34.649Z</time></trkpt><trkpt lat="40.7510451" lon="-3.7888956"><ele>918.0</ele><time>2026-05-04T07:31:35.648Z</time></trkpt><trkpt lat="40.7510372" lon="-3.789018"><ele>918.0</ele><time>2026-05-04T07:31:36.648Z</time></trkpt><trkpt lat="40.7510216" lon="-3.7891506"><ele>918.0</ele><time>2026-05-04T07:31:37.648Z</time></trkpt><trkpt lat="40.7510041" lon="-3.7892811"><ele>918.2</ele><time>2026-05-04T07:31:38.648Z</time></trkpt><trkpt lat="40.7509879" lon="-3.7894179"><ele>918.4</ele><time>2026-05-04T07:31:39.649Z</time></trkpt><trkpt lat="40.7509779" lon="-3.7895489"><ele>918.6000000000001</ele><time>2026-05-04T07:31:40.648Z</time></trkpt><trkpt lat="40.7509659" lon="-3.789666"><ele>918.8000000000001</ele><time>2026-05-04T07:31:41.649Z</time></trkpt><trkpt lat="40.7509523" lon="-3.7897949"><ele>919.0</ele><time>2026-05-04T07:31:42.649Z</time></trkpt><trkpt lat="40.7509386" lon="-3.789928"><ele>919.0</ele><time>2026-05-04T07:31:43.648Z</time></trkpt><trkpt lat="40.7509241" lon="-3.7900752"><ele>919.0</ele><time>2026-05-04T07:31:44.648Z</time></trkpt><trkpt lat="40.7509102" lon="-3.7902158"><ele>919.0</ele><time>2026-05-04T07:31:45.648Z</time></trkpt><trkpt lat="40.7508954" lon="-3.7903654"><ele>919.0</ele><time>2026-05-04T07:31:46.648Z</time></trkpt><trkpt lat="40.7508789" lon="-3.7905202"><ele>919.0</ele><time>2026-05-04T07:31:47.648Z</time></trkpt><trkpt lat="40.7508573" lon="-3.7906699"><ele>919.0</ele><time>2026-05-04T07:31:48.648Z</time></trkpt><trkpt lat="40.7508389" lon="-3.7908232"><ele>919.0</ele><time>2026-05-04T07:31:49.649Z</time></trkpt><trkpt lat="40.7508221" lon="-3.7909776"><ele>919.0</ele><time>2026-05-04T07:31:50.648Z</time></trkpt><trkpt lat="40.7508033" lon="-3.7911323"><ele>919.0</ele><time>2026-05-04T07:31:51.648Z</time></trkpt><trkpt lat="40.7507872" lon="-3.79129"><ele>919.0</ele><time>2026-05-04T07:31:52.649Z</time></trkpt><trkpt lat="40.7507688" lon="-3.791443"><ele>919.0</ele><time>2026-05-04T07:31:53.648Z</time></trkpt><trkpt lat="40.7507491" lon="-3.7915935"><ele>919.0</ele><time>2026-05-04T07:31:54.648Z</time></trkpt><trkpt lat="40.7507249" lon="-3.7917409"><ele>918.75</ele><time>2026-05-04T07:31:55.648Z</time></trkpt><trkpt lat="40.7506976" lon="-3.7918919"><ele>918.5</ele><time>2026-05-04T07:31:56.648Z</time></trkpt><trkpt lat="40.7506596" lon="-3.7920388"><ele>918.25</ele><time>2026-05-04T07:31:57.648Z</time></trkpt><trkpt lat="40.7506145" lon="-3.792188"><ele>918.0</ele><time>2026-05-04T07:31:58.648Z</time></trkpt><trkpt lat="40.7505639" lon="-3.7923391"><ele>918.0</ele><time>2026-05-04T07:31:59.648Z</time></trkpt><trkpt lat="40.7505137" lon="-3.792485"><ele>918.0</ele><time>2026-05-04T07:32:00.649Z</time></trkpt><trkpt lat="40.7504632" lon="-3.7926255"><ele>918.0</ele><time>2026-05-04T07:32:01.649Z</time></trkpt><trkpt lat="40.7504078" lon="-3.7927597"><ele>918.0</ele><time>2026-05-04T07:32:02.648Z</time></trkpt><trkpt lat="40.7503517" lon="-3.7928956"><ele>918.0</ele><time>2026-05-04T07:32:03.648Z</time></trkpt><trkpt lat="40.7502965" lon="-3.7930308"><ele>918.0</ele><time>2026-05-04T07:32:04.648Z</time></trkpt><trkpt lat="40.7502388" lon="-3.7931691"><ele>918.0</ele><time>2026-05-04T07:32:05.649Z</time></trkpt><trkpt lat="40.7501762" lon="-3.793312"><ele>918.0</ele><time>2026-05-04T07:32:06.648Z</time></trkpt><trkpt lat="40.7501054" lon="-3.7934738"><ele>918.75</ele><time>2026-05-04T07:32:07.648Z</time></trkpt><trkpt lat="40.7500344" lon="-3.7936428"><ele>919.5</ele><time>2026-05-04T07:32:08.648Z</time></trkpt><trkpt lat="40.7499762" lon="-3.7937983"><ele>920.25</ele><time>2026-05-04T07:32:09.648Z</time></trkpt><trkpt lat="40.7499196" lon="-3.7939385"><ele>921.0</ele><time>2026-05-04T07:32:10.648Z</time></trkpt><trkpt lat="40.7498715" lon="-3.7940649"><ele>921.0</ele><time>2026-05-04T07:32:11.648Z</time></trkpt><trkpt lat="40.7498294" lon="-3.7941714"><ele>920.9999999999999</ele><time>2026-05-04T07:32:12.648Z</time></trkpt><trkpt lat="40.7497883" lon="-3.7942717"><ele>920.9999999999999</ele><time>2026-05-04T07:32:13.648Z</time></trkpt><trkpt lat="40.7497428" lon="-3.7943789"><ele>921.0</ele><time>2026-05-04T07:32:14.648Z</time></trkpt><trkpt lat="40.7496918" lon="-3.7944939"><ele>921.0</ele><time>2026-05-04T07:32:15.648Z</time></trkpt><trkpt lat="40.749636" lon="-3.7946107"><ele>921.1999999999999</ele><time>2026-05-04T07:32:16.648Z</time></trkpt><trkpt lat="40.7495856" lon="-3.7947178"><ele>921.3999999999999</ele><time>2026-05-04T07:32:17.648Z</time></trkpt><trkpt lat="40.7495313" lon="-3.7948297"><ele>921.6</ele><time>2026-05-04T07:32:18.648Z</time></trkpt><trkpt lat="40.7494741" lon="-3.7949489"><ele>921.8</ele><time>2026-05-04T07:32:19.648Z</time></trkpt><trkpt lat="40.7494093" lon="-3.7950721"><ele>922.0</ele><time>2026-05-04T07:32:20.648Z</time></trkpt><trkpt lat="40.7493485" lon="-3.7951934"><ele>920.8</ele><time>2026-05-04T07:32:21.648Z</time></trkpt><trkpt lat="40.7492811" lon="-3.795319"><ele>919.6</ele><time>2026-05-04T07:32:22.648Z</time></trkpt><trkpt lat="40.749216" lon="-3.7954429"><ele>918.3999999999999</ele><time>2026-05-04T07:32:23.648Z</time></trkpt><trkpt lat="40.7491556" lon="-3.7955608"><ele>917.1999999999999</ele><time>2026-05-04T07:32:24.649Z</time></trkpt><trkpt lat="40.749094" lon="-3.7956773"><ele>916.0</ele><time>2026-05-04T07:32:25.648Z</time></trkpt><trkpt lat="40.7490265" lon="-3.7958027"><ele>916.0</ele><time>2026-05-04T07:32:26.648Z</time></trkpt><trkpt lat="40.7489586" lon="-3.7959304"><ele>916.0</ele><time>2026-05-04T07:32:27.648Z</time></trkpt><trkpt lat="40.7488933" lon="-3.7960537"><ele>916.0</ele><time>2026-05-04T07:32:28.648Z</time></trkpt><trkpt lat="40.7488311" lon="-3.7961779"><ele>916.0</ele><time>2026-05-04T07:32:29.648Z</time></trkpt><trkpt lat="40.7487671" lon="-3.7963052"><ele>915.75</ele><time>2026-05-04T07:32:30.648Z</time></trkpt><trkpt lat="40.7486978" lon="-3.7964311"><ele>915.5</ele><time>2026-05-04T07:32:31.648Z</time></trkpt><trkpt lat="40.7486278" lon="-3.7965626"><ele>915.25</ele><time>2026-05-04T07:32:32.649Z</time></trkpt><trkpt lat="40.7485562" lon="-3.796697"><ele>915.0</ele><time>2026-05-04T07:32:33.649Z</time></trkpt><trkpt lat="40.748485" lon="-3.7968341"><ele>914.75</ele><time>2026-05-04T07:32:34.649Z</time></trkpt><trkpt lat="40.7484106" lon="-3.7969709"><ele>914.5</ele><time>2026-05-04T07:32:35.648Z</time></trkpt><trkpt lat="40.7483399" lon="-3.7971077"><ele>914.25</ele><time>2026-05-04T07:32:36.648Z</time></trkpt><trkpt lat="40.7482684" lon="-3.7972478"><ele>914.0</ele><time>2026-05-04T07:32:37.648Z</time></trkpt><trkpt lat="40.7481937" lon="-3.7973906"><ele>914.0</ele><time>2026-05-04T07:32:38.648Z</time></trkpt><trkpt lat="40.7481186" lon="-3.7975348"><ele>914.0</ele><time>2026-05-04T07:32:39.648Z</time></trkpt><trkpt lat="40.7480456" lon="-3.7976737"><ele>914.0</ele><time>2026-05-04T07:32:40.648Z</time></trkpt><trkpt lat="40.7479711" lon="-3.797815"><ele>914.0</ele><time>2026-05-04T07:32:41.648Z</time></trkpt><trkpt lat="40.7479053" lon="-3.7979453"><ele>913.8000000000001</ele><time>2026-05-04T07:32:42.649Z</time></trkpt><trkpt lat="40.747843" lon="-3.798068"><ele>913.6000000000001</ele><time>2026-05-04T07:32:43.648Z</time></trkpt><trkpt lat="40.7477837" lon="-3.7981822"><ele>913.4</ele><time>2026-05-04T07:32:44.648Z</time></trkpt><trkpt lat="40.7477272" lon="-3.7982805"><ele>913.2</ele><time>2026-05-04T07:32:45.648Z</time></trkpt><trkpt lat="40.7476664" lon="-3.7983888"><ele>913.0</ele><time>2026-05-04T07:32:46.648Z</time></trkpt><trkpt lat="40.7476106" lon="-3.7984994"><ele>913.2</ele><time>2026-05-04T07:32:47.649Z</time></trkpt><trkpt lat="40.7475606" lon="-3.7986038"><ele>913.4</ele><time>2026-05-04T07:32:48.648Z</time></trkpt><trkpt lat="40.7475076" lon="-3.7987125"><ele>913.6000000000001</ele><time>2026-05-04T07:32:49.648Z</time></trkpt><trkpt lat="40.7474509" lon="-3.7988215"><ele>913.8000000000001</ele><time>2026-05-04T07:32:50.648Z</time></trkpt><trkpt lat="40.7473876" lon="-3.7989342"><ele>914.0</ele><time>2026-05-04T07:32:51.648Z</time></trkpt><trkpt lat="40.7473259" lon="-3.7990579"><ele>914.0</ele><time>2026-05-04T07:32:52.648Z</time></trkpt><trkpt lat="40.7472687" lon="-3.7991777"><ele>914.0000000000001</ele><time>2026-05-04T07:32:53.648Z</time></trkpt><trkpt lat="40.7472051" lon="-3.7992857"><ele>914.0000000000001</ele><time>2026-05-04T07:32:54.648Z</time></trkpt><trkpt lat="40.7471467" lon="-3.7993948"><ele>914.0</ele><time>2026-05-04T07:32:55.649Z</time></trkpt><trkpt lat="40.7470888" lon="-3.7995161"><ele>914.0</ele><time>2026-05-04T07:32:56.648Z</time></trkpt><trkpt lat="40.7470211" lon="-3.7996408"><ele>914.0</ele><time>2026-05-04T07:32:57.648Z</time></trkpt><trkpt lat="40.7469488" lon="-3.7997716"><ele>914.0</ele><time>2026-05-04T07:32:58.648Z</time></trkpt><trkpt lat="40.7468766" lon="-3.7999107"><ele>914.0</ele><time>2026-05-04T07:32:59.648Z</time></trkpt><trkpt lat="40.7468034" lon="-3.8000511"><ele>914.0</ele><time>2026-05-04T07:33:00.648Z</time></trkpt><trkpt lat="40.7467301" lon="-3.8001991"><ele>914.0</ele><time>2026-05-04T07:33:01.648Z</time></trkpt><trkpt lat="40.7466534" lon="-3.800352"><ele>914.0</ele><time>2026-05-04T07:33:02.648Z</time></trkpt><trkpt lat="40.7465835" lon="-3.8004887"><ele>914.0</ele><time>2026-05-04T07:33:03.648Z</time></trkpt><trkpt lat="40.7465164" lon="-3.8006205"><ele>914.0</ele><time>2026-05-04T07:33:04.648Z</time></trkpt><trkpt lat="40.7464426" lon="-3.8007578"><ele>914.0</ele><time>2026-05-04T07:33:05.648Z</time></trkpt><trkpt lat="40.7463715" lon="-3.800895"><ele>914.0</ele><time>2026-05-04T07:33:06.648Z</time></trkpt><trkpt lat="40.7462993" lon="-3.8010303"><ele>914.0</ele><time>2026-05-04T07:33:07.648Z</time></trkpt><trkpt lat="40.7462256" lon="-3.801176"><ele>914.0</ele><time>2026-05-04T07:33:08.648Z</time></trkpt><trkpt lat="40.746148" lon="-3.8013255"><ele>914.0</ele><time>2026-05-04T07:33:09.648Z</time></trkpt><trkpt lat="40.7460607" lon="-3.8014928"><ele>914.0</ele><time>2026-05-04T07:33:10.648Z</time></trkpt><trkpt lat="40.7459618" lon="-3.8016797"><ele>914.0</ele><time>2026-05-04T07:33:11.648Z</time></trkpt><trkpt lat="40.74586" lon="-3.8018765"><ele>913.3333333333334</ele><time>2026-05-04T07:33:12.648Z</time></trkpt><trkpt lat="40.7457574" lon="-3.8020745"><ele>912.6666666666667</ele><time>2026-05-04T07:33:13.648Z</time></trkpt><trkpt lat="40.7456529" lon="-3.8022697"><ele>912.0</ele><time>2026-05-04T07:33:14.648Z</time></trkpt><trkpt lat="40.7455503" lon="-3.802464"><ele>912.3333333333333</ele><time>2026-05-04T07:33:15.649Z</time></trkpt><trkpt lat="40.7454444" lon="-3.8026671"><ele>912.6666666666666</ele><time>2026-05-04T07:33:16.649Z</time></trkpt><trkpt lat="40.745337" lon="-3.8028711"><ele>913.0</ele><time>2026-05-04T07:33:17.648Z</time></trkpt><trkpt lat="40.7452308" lon="-3.8030745"><ele>912.0</ele><time>2026-05-04T07:33:18.648Z</time></trkpt><trkpt lat="40.7451252" lon="-3.8032776"><ele>911.0</ele><time>2026-05-04T07:33:19.648Z</time></trkpt><trkpt lat="40.7450206" lon="-3.8034831"><ele>910.0</ele><time>2026-05-04T07:33:20.649Z</time></trkpt><trkpt lat="40.7449143" lon="-3.8036885"><ele>909.0</ele><time>2026-05-04T07:33:21.648Z</time></trkpt><trkpt lat="40.7448067" lon="-3.8038981"><ele>908.0</ele><time>2026-05-04T07:33:22.648Z</time></trkpt><trkpt lat="40.7447001" lon="-3.8041071"><ele>907.0</ele><time>2026-05-04T07:33:23.648Z</time></trkpt><trkpt lat="40.7445897" lon="-3.8043159"><ele>907.0</ele><time>2026-05-04T07:33:24.648Z</time></trkpt><trkpt lat="40.7444853" lon="-3.8045205"><ele>907.0</ele><time>2026-05-04T07:33:25.648Z</time></trkpt><trkpt lat="40.7443818" lon="-3.8047177"><ele>907.0</ele><time>2026-05-04T07:33:26.648Z</time></trkpt><trkpt lat="40.7442827" lon="-3.8049162"><ele>907.0</ele><time>2026-05-04T07:33:27.648Z</time></trkpt><trkpt lat="40.7441872" lon="-3.8051047"><ele>907.0</ele><time>2026-05-04T07:33:28.648Z</time></trkpt><trkpt lat="40.7440847" lon="-3.8052927"><ele>907.0</ele><time>2026-05-04T07:33:29.648Z</time></trkpt><trkpt lat="40.7439852" lon="-3.805481"><ele>907.6666666666666</ele><time>2026-05-04T07:33:30.648Z</time></trkpt><trkpt lat="40.743889" lon="-3.805667"><ele>908.3333333333333</ele><time>2026-05-04T07:33:31.648Z</time></trkpt><trkpt lat="40.7437917" lon="-3.8058559"><ele>909.0</ele><time>2026-05-04T07:33:32.648Z</time></trkpt><trkpt lat="40.7436918" lon="-3.8060416"><ele>909.6666666666667</ele><time>2026-05-04T07:33:33.648Z</time></trkpt><trkpt lat="40.7435918" lon="-3.8062279"><ele>910.3333333333334</ele><time>2026-05-04T07:33:34.648Z</time></trkpt><trkpt lat="40.7434932" lon="-3.8064167"><ele>911.0</ele><time>2026-05-04T07:33:35.648Z</time></trkpt><trkpt lat="40.7433918" lon="-3.8066044"><ele>909.6666666666667</ele><time>2026-05-04T07:33:36.648Z</time></trkpt><trkpt lat="40.7432882" lon="-3.8067988"><ele>908.3333333333333</ele><time>2026-05-04T07:33:37.648Z</time></trkpt><trkpt lat="40.743184" lon="-3.8069892"><ele>907.0</ele><time>2026-05-04T07:33:38.648Z</time></trkpt><trkpt lat="40.7430829" lon="-3.8071835"><ele>906.6666666666666</ele><time>2026-05-04T07:33:39.648Z</time></trkpt><trkpt lat="40.7429833" lon="-3.8073747"><ele>906.3333333333333</ele><time>2026-05-04T07:33:40.648Z</time></trkpt><trkpt lat="40.7428839" lon="-3.8075717"><ele>906.0</ele><time>2026-05-04T07:33:41.648Z</time></trkpt><trkpt lat="40.7427929" lon="-3.8077616"><ele>905.6666666666667</ele><time>2026-05-04T07:33:42.648Z</time></trkpt><trkpt lat="40.7426997" lon="-3.8079488"><ele>905.3333333333334</ele><time>2026-05-04T07:33:43.648Z</time></trkpt><trkpt lat="40.7426003" lon="-3.8081375"><ele>905.0</ele><time>2026-05-04T07:33:44.648Z</time></trkpt><trkpt lat="40.7425037" lon="-3.8083198"><ele>905.6666666666667</ele><time>2026-05-04T07:33:45.648Z</time></trkpt><trkpt lat="40.7424047" lon="-3.808504"><ele>906.3333333333333</ele><time>2026-05-04T07:33:46.648Z</time></trkpt><trkpt lat="40.7423049" lon="-3.8086926"><ele>907.0</ele><time>2026-05-04T07:33:47.649Z</time></trkpt><trkpt lat="40.742205" lon="-3.8088821"><ele>907.0</ele><time>2026-05-04T07:33:48.648Z</time></trkpt><trkpt lat="40.7421107" lon="-3.809071"><ele>907.0</ele><time>2026-05-04T07:33:49.648Z</time></trkpt><trkpt lat="40.7420108" lon="-3.809262"><ele>907.0</ele><time>2026-05-04T07:33:50.648Z</time></trkpt><trkpt lat="40.7419118" lon="-3.8094474"><ele>907.0</ele><time>2026-05-04T07:33:51.648Z</time></trkpt><trkpt lat="40.7418142" lon="-3.8096335"><ele>907.0</ele><time>2026-05-04T07:33:52.649Z</time></trkpt><trkpt lat="40.7417183" lon="-3.8098217"><ele>907.0</ele><time>2026-05-04T07:33:53.648Z</time></trkpt><trkpt lat="40.7416208" lon="-3.8100062"><ele>907.0</ele><time>2026-05-04T07:33:54.648Z</time></trkpt><trkpt lat="40.7415258" lon="-3.8101906"><ele>907.0</ele><time>2026-05-04T07:33:55.648Z</time></trkpt><trkpt lat="40.7414332" lon="-3.8103805"><ele>907.0</ele><time>2026-05-04T07:33:56.648Z</time></trkpt><trkpt lat="40.741341" lon="-3.8105638"><ele>907.0</ele><time>2026-05-04T07:33:57.649Z</time></trkpt><trkpt lat="40.7412478" lon="-3.8107447"><ele>907.0</ele><time>2026-05-04T07:33:58.648Z</time></trkpt><trkpt lat="40.7411528" lon="-3.8109243"><ele>907.0</ele><time>2026-05-04T07:33:59.648Z</time></trkpt><trkpt lat="40.7410547" lon="-3.8111084"><ele>905.6666666666666</ele><time>2026-05-04T07:34:00.648Z</time></trkpt><trkpt lat="40.7409545" lon="-3.8112968"><ele>904.3333333333333</ele><time>2026-05-04T07:34:01.648Z</time></trkpt><trkpt lat="40.7408539" lon="-3.8114861"><ele>903.0</ele><time>2026-05-04T07:34:02.648Z</time></trkpt><trkpt lat="40.7407546" lon="-3.811678"><ele>902.3333333333333</ele><time>2026-05-04T07:34:03.648Z</time></trkpt><trkpt lat="40.7406558" lon="-3.8118711"><ele>901.6666666666666</ele><time>2026-05-04T07:34:04.648Z</time></trkpt><trkpt lat="40.7405578" lon="-3.8120639"><ele>901.0</ele><time>2026-05-04T07:34:05.649Z</time></trkpt><trkpt lat="40.7404604" lon="-3.8122626"><ele>901.0</ele><time>2026-05-04T07:34:06.648Z</time></trkpt><trkpt lat="40.7403667" lon="-3.8124523"><ele>901.0</ele><time>2026-05-04T07:34:07.649Z</time></trkpt><trkpt lat="40.7402706" lon="-3.8126431"><ele>901.0</ele><time>2026-05-04T07:34:08.648Z</time></trkpt><trkpt lat="40.7401838" lon="-3.8128382"><ele>900.0</ele><time>2026-05-04T07:34:09.648Z</time></trkpt><trkpt lat="40.7400999" lon="-3.8130367"><ele>899.0</ele><time>2026-05-04T07:34:10.648Z</time></trkpt><trkpt lat="40.7400244" lon="-3.8132281"><ele>898.0</ele><time>2026-05-04T07:34:11.648Z</time></trkpt><trkpt lat="40.7399525" lon="-3.8134155"><ele>897.75</ele><time>2026-05-04T07:34:12.649Z</time></trkpt><trkpt lat="40.7398838" lon="-3.8135975"><ele>897.5</ele><time>2026-05-04T07:34:13.648Z</time></trkpt><trkpt lat="40.7398221" lon="-3.8137628"><ele>897.25</ele><time>2026-05-04T07:34:14.648Z</time></trkpt><trkpt lat="40.739772" lon="-3.8139167"><ele>897.0</ele><time>2026-05-04T07:34:15.648Z</time></trkpt><trkpt lat="40.7397392" lon="-3.8140455"><ele>897.0</ele><time>2026-05-04T07:34:16.648Z</time></trkpt><trkpt lat="40.7397193" lon="-3.8141433"><ele>897.0</ele><time>2026-05-04T07:34:17.648Z</time></trkpt><trkpt lat="40.7397096" lon="-3.8142568"><ele>897.0</ele><time>2026-05-04T07:34:19.648Z</time></trkpt><trkpt lat="40.7397146" lon="-3.8143807"><ele>897.0</ele><time>2026-05-04T07:34:29.648Z</time></trkpt><trkpt lat="40.7397528" lon="-3.8145129"><ele>897.0</ele><time>2026-05-04T07:34:31.648Z</time></trkpt><trkpt lat="40.739744" lon="-3.8146686"><ele>897.1666666666666</ele><time>2026-05-04T07:34:33.648Z</time></trkpt><trkpt lat="40.7396622" lon="-3.8147971"><ele>897.3333333333333</ele><time>2026-05-04T07:34:35.648Z</time></trkpt><trkpt lat="40.7395984" lon="-3.8148491"><ele>897.5</ele><time>2026-05-04T07:34:36.648Z</time></trkpt><trkpt lat="40.7395336" lon="-3.8148982"><ele>897.6666666666666</ele><time>2026-05-04T07:34:37.648Z</time></trkpt><trkpt lat="40.7394644" lon="-3.8149628"><ele>897.8333333333333</ele><time>2026-05-04T07:34:38.648Z</time></trkpt><trkpt lat="40.7393966" lon="-3.8150365"><ele>898.0</ele><time>2026-05-04T07:34:39.649Z</time></trkpt><trkpt lat="40.7393335" lon="-3.8151245"><ele>897.8333333333333</ele><time>2026-05-04T07:34:40.648Z</time></trkpt><trkpt lat="40.739284" lon="-3.8152271"><ele>897.6666666666666</ele><time>2026-05-04T07:34:41.648Z</time></trkpt><trkpt lat="40.7392497" lon="-3.8153287"><ele>897.5</ele><time>2026-05-04T07:34:42.648Z</time></trkpt><trkpt lat="40.7392197" lon="-3.8154283"><ele>897.3333333333333</ele><time>2026-05-04T07:34:43.648Z</time></trkpt><trkpt lat="40.739187" lon="-3.8155132"><ele>897.1666666666666</ele><time>2026-05-04T07:34:44.648Z</time></trkpt><trkpt lat="40.7391434" lon="-3.8156168"><ele>897.0</ele><time>2026-05-04T07:34:46.648Z</time></trkpt><trkpt lat="40.7390912" lon="-3.8156806"><ele>897.0</ele><time>2026-05-04T07:34:51.648Z</time></trkpt><trkpt lat="40.7389905" lon="-3.8156556"><ele>897.0</ele><time>2026-05-04T07:34:53.648Z</time></trkpt><trkpt lat="40.7389337" lon="-3.8157151"><ele>897.0</ele><time>2026-05-04T07:34:55.648Z</time></trkpt><trkpt lat="40.7388903" lon="-3.8158079"><ele>897.0</ele><time>2026-05-04T07:34:57.648Z</time></trkpt><trkpt lat="40.7388116" lon="-3.815906"><ele>897.0</ele><time>2026-05-04T07:34:59.648Z</time></trkpt><trkpt lat="40.7387773" lon="-3.8159827"><ele>897.0</ele><time>2026-05-04T07:35:00.648Z</time></trkpt><trkpt lat="40.73874" lon="-3.8160735"><ele>897.0</ele><time>2026-05-04T07:35:01.648Z</time></trkpt><trkpt lat="40.7386971" lon="-3.8161841"><ele>897.0</ele><time>2026-05-04T07:35:02.648Z</time></trkpt><trkpt lat="40.73864" lon="-3.8163176"><ele>897.0</ele><time>2026-05-04T07:35:03.648Z</time></trkpt><trkpt lat="40.7385814" lon="-3.8164544"><ele>897.0</ele><time>2026-05-04T07:35:04.648Z</time></trkpt><trkpt lat="40.7385269" lon="-3.816574"><ele>897.0</ele><time>2026-05-04T07:35:05.648Z</time></trkpt><trkpt lat="40.7384776" lon="-3.81671"><ele>897.0</ele><time>2026-05-04T07:35:06.648Z</time></trkpt><trkpt lat="40.7384338" lon="-3.8168483"><ele>897.0</ele><time>2026-05-04T07:35:07.648Z</time></trkpt><trkpt lat="40.7383798" lon="-3.8169981"><ele>897.0</ele><time>2026-05-04T07:35:08.648Z</time></trkpt><trkpt lat="40.7383256" lon="-3.8171384"><ele>897.0</ele><time>2026-05-04T07:35:09.648Z</time></trkpt><trkpt lat="40.7382654" lon="-3.8172729"><ele>897.0</ele><time>2026-05-04T07:35:10.648Z</time></trkpt><trkpt lat="40.7382063" lon="-3.8174194"><ele>897.0</ele><time>2026-05-04T07:35:11.648Z</time></trkpt><trkpt lat="40.7381484" lon="-3.8175557"><ele>897.0</ele><time>2026-05-04T07:35:12.649Z</time></trkpt><trkpt lat="40.7380875" lon="-3.8176884"><ele>897.0</ele><time>2026-05-04T07:35:13.648Z</time></trkpt><trkpt lat="40.7380327" lon="-3.8178182"><ele>896.6</ele><time>2026-05-04T07:35:14.648Z</time></trkpt><trkpt lat="40.7379845" lon="-3.8179438"><ele>896.2</ele><time>2026-05-04T07:35:15.648Z</time></trkpt><trkpt lat="40.7379446" lon="-3.8180686"><ele>895.8</ele><time>2026-05-04T07:35:16.648Z</time></trkpt><trkpt lat="40.7379206" lon="-3.8181954"><ele>895.4</ele><time>2026-05-04T07:35:17.648Z</time></trkpt><trkpt lat="40.7379213" lon="-3.818307"><ele>895.0</ele><time>2026-05-04T07:35:18.648Z</time></trkpt><trkpt lat="40.7379154" lon="-3.8184062"><ele>895.3333333333333</ele><time>2026-05-04T07:35:19.649Z</time></trkpt><trkpt lat="40.7379089" lon="-3.8184891"><ele>895.6666666666666</ele><time>2026-05-04T07:35:20.648Z</time></trkpt><trkpt lat="40.7378965" lon="-3.818587"><ele>896.0</ele><time>2026-05-04T07:35:21.648Z</time></trkpt><trkpt lat="40.7378831" lon="-3.8186857"><ele>896.3333333333333</ele><time>2026-05-04T07:35:22.649Z</time></trkpt><trkpt lat="40.7378721" lon="-3.8187865"><ele>896.6666666666666</ele><time>2026-05-04T07:35:23.648Z</time></trkpt><trkpt lat="40.7378729" lon="-3.8188737"><ele>897.0</ele><time>2026-05-04T07:35:24.648Z</time></trkpt><trkpt lat="40.7378391" lon="-3.818994"><ele>897.0</ele><time>2026-05-04T07:35:26.648Z</time></trkpt><trkpt lat="40.7378258" lon="-3.8190839"><ele>897.0</ele><time>2026-05-04T07:35:28.648Z</time></trkpt><trkpt lat="40.7377778" lon="-3.8191858"><ele>897.0</ele><time>2026-05-04T07:35:30.648Z</time></trkpt><trkpt lat="40.7377134" lon="-3.8193556"><ele>897.0</ele><time>2026-05-04T07:35:32.649Z</time></trkpt><trkpt lat="40.7376721" lon="-3.8194598"><ele>897.0</ele><time>2026-05-04T07:35:33.648Z</time></trkpt><trkpt lat="40.737624" lon="-3.8195726"><ele>896.8</ele><time>2026-05-04T07:35:34.648Z</time></trkpt><trkpt lat="40.7375788" lon="-3.8196892"><ele>896.6</ele><time>2026-05-04T07:35:35.648Z</time></trkpt><trkpt lat="40.7375311" lon="-3.8198036"><ele>896.3999999999999</ele><time>2026-05-04T07:35:36.648Z</time></trkpt><trkpt lat="40.7374999" lon="-3.8199108"><ele>896.1999999999999</ele><time>2026-05-04T07:35:37.648Z</time></trkpt><trkpt lat="40.73749" lon="-3.8199982"><ele>896.0</ele><time>2026-05-04T07:35:38.649Z</time></trkpt><trkpt lat="40.7375176" lon="-3.8201572"><ele>895.8333333333334</ele><time>2026-05-04T07:35:40.649Z</time></trkpt><trkpt lat="40.7375444" lon="-3.8202996"><ele>895.6666666666667</ele><time>2026-05-04T07:35:42.648Z</time></trkpt><trkpt lat="40.7375599" lon="-3.820382"><ele>895.5</ele><time>2026-05-04T07:35:43.648Z</time></trkpt><trkpt lat="40.7375649" lon="-3.820471"><ele>895.3333333333333</ele><time>2026-05-04T07:35:44.648Z</time></trkpt><trkpt lat="40.737544" lon="-3.8206107"><ele>895.1666666666666</ele><time>2026-05-04T07:35:46.649Z</time></trkpt><trkpt lat="40.7375536" lon="-3.8207304"><ele>895.0</ele><time>2026-05-04T07:35:48.648Z</time></trkpt><trkpt lat="40.7375761" lon="-3.820808"><ele>894.9999999999999</ele><time>2026-05-04T07:35:49.648Z</time></trkpt><trkpt lat="40.7375866" lon="-3.8208973"><ele>895.0</ele><time>2026-05-04T07:35:50.648Z</time></trkpt><trkpt lat="40.7375951" lon="-3.8210043"><ele>895.0</ele><time>2026-05-04T07:35:51.648Z</time></trkpt><trkpt lat="40.7376039" lon="-3.8211148"><ele>895.0</ele><time>2026-05-04T07:35:52.648Z</time></trkpt><trkpt lat="40.737621" lon="-3.8212105"><ele>894.9999999999999</ele><time>2026-05-04T07:35:53.648Z</time></trkpt><trkpt lat="40.7376496" lon="-3.8212855"><ele>895.0</ele><time>2026-05-04T07:35:54.648Z</time></trkpt><trkpt lat="40.7376698" lon="-3.8214024"><ele>894.9999999999999</ele><time>2026-05-04T07:35:55.648Z</time></trkpt><trkpt lat="40.7376868" lon="-3.8215127"><ele>895.0</ele><time>2026-05-04T07:35:56.648Z</time></trkpt><trkpt lat="40.7377063" lon="-3.8216243"><ele>895.0</ele><time>2026-05-04T07:35:57.649Z</time></trkpt><trkpt lat="40.7377282" lon="-3.8217258"><ele>895.0</ele><time>2026-05-04T07:35:58.648Z</time></trkpt><trkpt lat="40.7377426" lon="-3.8218238"><ele>894.9999999999999</ele><time>2026-05-04T07:35:59.648Z</time></trkpt><trkpt lat="40.7377605" lon="-3.8219114"><ele>895.0</ele><time>2026-05-04T07:36:00.648Z</time></trkpt><trkpt lat="40.7377804" lon="-3.8220375"><ele>894.9999999999999</ele><time>2026-05-04T07:36:02.648Z</time></trkpt><trkpt lat="40.7378115" lon="-3.8221818"><ele>895.0</ele><time>2026-05-04T07:36:04.648Z</time></trkpt><trkpt lat="40.7378423" lon="-3.8222724"><ele>895.0</ele><time>2026-05-04T07:36:05.648Z</time></trkpt><trkpt lat="40.7378822" lon="-3.8223616"><ele>895.0</ele><time>2026-05-04T07:36:06.648Z</time></trkpt><trkpt lat="40.7379273" lon="-3.8224566"><ele>894.9999999999999</ele><time>2026-05-04T07:36:07.648Z</time></trkpt><trkpt lat="40.7379823" lon="-3.8225435"><ele>895.0</ele><time>2026-05-04T07:36:08.648Z</time></trkpt><trkpt lat="40.7380447" lon="-3.8226234"><ele>894.8333333333333</ele><time>2026-05-04T07:36:09.648Z</time></trkpt><trkpt lat="40.7380972" lon="-3.822688"><ele>894.6666666666666</ele><time>2026-05-04T07:36:10.648Z</time></trkpt><trkpt lat="40.7381479" lon="-3.8227745"><ele>894.5</ele><time>2026-05-04T07:36:11.648Z</time></trkpt><trkpt lat="40.7381964" lon="-3.8228713"><ele>894.3333333333333</ele><time>2026-05-04T07:36:12.648Z</time></trkpt><trkpt lat="40.7382426" lon="-3.8229598"><ele>894.1666666666666</ele><time>2026-05-04T07:36:13.649Z</time></trkpt><trkpt lat="40.7382879" lon="-3.823031"><ele>894.0</ele><time>2026-05-04T07:36:14.648Z</time></trkpt><trkpt lat="40.7383907" lon="-3.8231241"><ele>894.0</ele><time>2026-05-04T07:36:16.648Z</time></trkpt><trkpt lat="40.7384927" lon="-3.8232268"><ele>894.0000000000001</ele><time>2026-05-04T07:36:18.648Z</time></trkpt><trkpt lat="40.7385262" lon="-3.8233262"><ele>894.0000000000001</ele><time>2026-05-04T07:36:19.648Z</time></trkpt><trkpt lat="40.7385416" lon="-3.8234277"><ele>894.0</ele><time>2026-05-04T07:36:20.648Z</time></trkpt><trkpt lat="40.7385615" lon="-3.8235238"><ele>894.0</ele><time>2026-05-04T07:36:21.648Z</time></trkpt><trkpt lat="40.7386041" lon="-3.8236228"><ele>894.4000000000001</ele><time>2026-05-04T07:36:22.649Z</time></trkpt><trkpt lat="40.7386691" lon="-3.8237213"><ele>894.8000000000001</ele><time>2026-05-04T07:36:23.648Z</time></trkpt><trkpt lat="40.7387421" lon="-3.8238149"><ele>895.1999999999999</ele><time>2026-05-04T07:36:24.648Z</time></trkpt><trkpt lat="40.7387974" lon="-3.8239243"><ele>895.5999999999999</ele><time>2026-05-04T07:36:25.648Z</time></trkpt><trkpt lat="40.7388434" lon="-3.8240513"><ele>896.0</ele><time>2026-05-04T07:36:26.648Z</time></trkpt><trkpt lat="40.738886" lon="-3.8241661"><ele>896.0</ele><time>2026-05-04T07:36:27.648Z</time></trkpt><trkpt lat="40.7389476" lon="-3.8242653"><ele>896.0</ele><time>2026-05-04T07:36:28.648Z</time></trkpt><trkpt lat="40.7390343" lon="-3.8243685"><ele>896.0</ele><time>2026-05-04T07:36:29.648Z</time></trkpt><trkpt lat="40.7391146" lon="-3.8244787"><ele>896.0</ele><time>2026-05-04T07:36:30.648Z</time></trkpt><trkpt lat="40.7391967" lon="-3.8245939"><ele>896.1999999999999</ele><time>2026-05-04T07:36:31.649Z</time></trkpt><trkpt lat="40.739283" lon="-3.8246881"><ele>896.3999999999999</ele><time>2026-05-04T07:36:32.648Z</time></trkpt><trkpt lat="40.7393743" lon="-3.8247686"><ele>896.6</ele><time>2026-05-04T07:36:33.648Z</time></trkpt><trkpt lat="40.7394451" lon="-3.8248463"><ele>896.8</ele><time>2026-05-04T07:36:34.648Z</time></trkpt><trkpt lat="40.7395042" lon="-3.8249249"><ele>897.0</ele><time>2026-05-04T07:36:35.648Z</time></trkpt><trkpt lat="40.7395593" lon="-3.8249894"><ele>897.0</ele><time>2026-05-04T07:36:36.648Z</time></trkpt><trkpt lat="40.7396364" lon="-3.8250617"><ele>897.0</ele><time>2026-05-04T07:36:38.648Z</time></trkpt><trkpt lat="40.7397767" lon="-3.8250958"><ele>897.0</ele><time>2026-05-04T07:36:40.648Z</time></trkpt><trkpt lat="40.7398488" lon="-3.8251237"><ele>897.0</ele><time>2026-05-04T07:36:41.649Z</time></trkpt><trkpt lat="40.7399081" lon="-3.825176"><ele>897.0</ele><time>2026-05-04T07:36:42.648Z</time></trkpt><trkpt lat="40.7399696" lon="-3.8252472"><ele>897.0</ele><time>2026-05-04T07:36:43.648Z</time></trkpt><trkpt lat="40.7400409" lon="-3.8253164"><ele>897.0</ele><time>2026-05-04T07:36:44.648Z</time></trkpt><trkpt lat="40.7401131" lon="-3.8254069"><ele>897.0</ele><time>2026-05-04T07:36:45.648Z</time></trkpt><trkpt lat="40.7401845" lon="-3.8255123"><ele>897.0</ele><time>2026-05-04T07:36:46.648Z</time></trkpt><trkpt lat="40.7402486" lon="-3.8256124"><ele>897.0</ele><time>2026-05-04T07:36:47.648Z</time></trkpt><trkpt lat="40.7403106" lon="-3.8257063"><ele>897.0</ele><time>2026-05-04T07:36:48.648Z</time></trkpt><trkpt lat="40.7403703" lon="-3.8257981"><ele>897.0</ele><time>2026-05-04T07:36:49.648Z</time></trkpt><trkpt lat="40.7404487" lon="-3.825868"><ele>897.0</ele><time>2026-05-04T07:36:50.647Z</time></trkpt><trkpt lat="40.7405526" lon="-3.8259177"><ele>897.0</ele><time>2026-05-04T07:36:51.647Z</time></trkpt><trkpt lat="40.7406525" lon="-3.825965"><ele>897.0</ele><time>2026-05-04T07:36:52.647Z</time></trkpt><trkpt lat="40.7407336" lon="-3.826021"><ele>896.8333333333334</ele><time>2026-05-04T07:36:53.648Z</time></trkpt><trkpt lat="40.7408084" lon="-3.8260831"><ele>896.6666666666667</ele><time>2026-05-04T07:36:54.647Z</time></trkpt><trkpt lat="40.7408716" lon="-3.8261353"><ele>896.5</ele><time>2026-05-04T07:36:55.647Z</time></trkpt><trkpt lat="40.740928" lon="-3.826179"><ele>896.3333333333334</ele><time>2026-05-04T07:36:56.647Z</time></trkpt><trkpt lat="40.7409784" lon="-3.8262768"><ele>896.1666666666667</ele><time>2026-05-04T07:36:58.648Z</time></trkpt><trkpt lat="40.7409596" lon="-3.8263663"><ele>896.0</ele><time>2026-05-04T07:37:00.647Z</time></trkpt><trkpt lat="40.7409491" lon="-3.8264485"><ele>896.0000000000001</ele><time>2026-05-04T07:37:03.647Z</time></trkpt><trkpt lat="40.7409626" lon="-3.8265685"><ele>896.0</ele><time>2026-05-04T07:37:12.647Z</time></trkpt><trkpt lat="40.7410305" lon="-3.8266556"><ele>896.0</ele><time>2026-05-04T07:37:15.647Z</time></trkpt><trkpt lat="40.7410775" lon="-3.8267172"><ele>896.0</ele><time>2026-05-04T07:37:18.647Z</time></trkpt><trkpt lat="40.7411227" lon="-3.8267804"><ele>896.0000000000001</ele><time>2026-05-04T07:37:21.647Z</time></trkpt><trkpt lat="40.7412063" lon="-3.8268514"><ele>896.0</ele><time>2026-05-04T07:37:26.647Z</time></trkpt><trkpt lat="40.7412785" lon="-3.8269269"><ele>896.1999999999999</ele><time>2026-05-04T07:37:28.647Z</time></trkpt><trkpt lat="40.7413127" lon="-3.8270253"><ele>896.3999999999999</ele><time>2026-05-04T07:37:30.647Z</time></trkpt><trkpt lat="40.7413311" lon="-3.8271558"><ele>896.6</ele><time>2026-05-04T07:37:32.647Z</time></trkpt><trkpt lat="40.741407" lon="-3.8272425"><ele>896.8</ele><time>2026-05-04T07:37:34.647Z</time></trkpt><trkpt lat="40.7414894" lon="-3.8273318"><ele>897.0</ele><time>2026-05-04T07:37:36.647Z</time></trkpt><trkpt lat="40.7415131" lon="-3.8275123"><ele>897.0</ele><time>2026-05-04T07:37:38.647Z</time></trkpt><trkpt lat="40.7415067" lon="-3.8276273"><ele>897.0</ele><time>2026-05-04T07:37:39.647Z</time></trkpt><trkpt lat="40.7415047" lon="-3.8277291"><ele>897.0</ele><time>2026-05-04T07:37:40.647Z</time></trkpt><trkpt lat="40.7415211" lon="-3.8278227"><ele>897.0</ele><time>2026-05-04T07:37:41.647Z</time></trkpt><trkpt lat="40.7415646" lon="-3.8279661"><ele>897.0</ele><time>2026-05-04T07:37:43.647Z</time></trkpt><trkpt lat="40.7416021" lon="-3.8280533"><ele>897.0</ele><time>2026-05-04T07:37:44.647Z</time></trkpt><trkpt lat="40.7416375" lon="-3.8281705"><ele>897.0</ele><time>2026-05-04T07:37:45.647Z</time></trkpt><trkpt lat="40.7416538" lon="-3.8282843"><ele>897.0</ele><time>2026-05-04T07:37:46.647Z</time></trkpt><trkpt lat="40.7416811" lon="-3.8283952"><ele>897.0</ele><time>2026-05-04T07:37:47.647Z</time></trkpt><trkpt lat="40.7417125" lon="-3.8285043"><ele>897.0</ele><time>2026-05-04T07:37:48.647Z</time></trkpt><trkpt lat="40.7417393" lon="-3.8286238"><ele>897.0</ele><time>2026-05-04T07:37:49.647Z</time></trkpt><trkpt lat="40.741755" lon="-3.8287146"><ele>897.0</ele><time>2026-05-04T07:37:50.647Z</time></trkpt><trkpt lat="40.741771" lon="-3.8288353"><ele>896.8</ele><time>2026-05-04T07:37:52.648Z</time></trkpt><trkpt lat="40.741706" lon="-3.8289918"><ele>896.6</ele><time>2026-05-04T07:37:54.647Z</time></trkpt><trkpt lat="40.7416841" lon="-3.8290829"><ele>896.3999999999999</ele><time>2026-05-04T07:37:55.647Z</time></trkpt><trkpt lat="40.7416855" lon="-3.8291943"><ele>896.1999999999999</ele><time>2026-05-04T07:37:56.647Z</time></trkpt><trkpt lat="40.7416884" lon="-3.8293031"><ele>896.0</ele><time>2026-05-04T07:37:57.647Z</time></trkpt><trkpt lat="40.7416658" lon="-3.8294297"><ele>896.0</ele><time>2026-05-04T07:37:58.647Z</time></trkpt><trkpt lat="40.7416522" lon="-3.8295611"><ele>895.9999999999999</ele><time>2026-05-04T07:37:59.647Z</time></trkpt><trkpt lat="40.7416484" lon="-3.8296901"><ele>895.9999999999999</ele><time>2026-05-04T07:38:00.647Z</time></trkpt><trkpt lat="40.7416437" lon="-3.8298154"><ele>896.0</ele><time>2026-05-04T07:38:01.647Z</time></trkpt><trkpt lat="40.7416343" lon="-3.8299352"><ele>896.0</ele><time>2026-05-04T07:38:02.647Z</time></trkpt><trkpt lat="40.7415992" lon="-3.8300563"><ele>896.0</ele><time>2026-05-04T07:38:03.647Z</time></trkpt><trkpt lat="40.7415544" lon="-3.8301844"><ele>896.0</ele><time>2026-05-04T07:38:04.647Z</time></trkpt><trkpt lat="40.7415184" lon="-3.8303246"><ele>896.0</ele><time>2026-05-04T07:38:05.647Z</time></trkpt><trkpt lat="40.7414919" lon="-3.8304924"><ele>896.0</ele><time>2026-05-04T07:38:06.647Z</time></trkpt><trkpt lat="40.7414671" lon="-3.8306685"><ele>896.0</ele><time>2026-05-04T07:38:07.647Z</time></trkpt><trkpt lat="40.7414449" lon="-3.830848"><ele>896.0</ele><time>2026-05-04T07:38:08.648Z</time></trkpt><trkpt lat="40.7414207" lon="-3.8310284"><ele>896.0</ele><time>2026-05-04T07:38:09.647Z</time></trkpt><trkpt lat="40.7413943" lon="-3.8312057"><ele>896.0</ele><time>2026-05-04T07:38:10.647Z</time></trkpt><trkpt lat="40.741363" lon="-3.8313602"><ele>896.5</ele><time>2026-05-04T07:38:11.647Z</time></trkpt><trkpt lat="40.7413306" lon="-3.8315072"><ele>897.0</ele><time>2026-05-04T07:38:12.647Z</time></trkpt><trkpt lat="40.7412938" lon="-3.8316653"><ele>897.5</ele><time>2026-05-04T07:38:13.647Z</time></trkpt><trkpt lat="40.7412613" lon="-3.8318243"><ele>898.0</ele><time>2026-05-04T07:38:14.647Z</time></trkpt><trkpt lat="40.7412407" lon="-3.8319632"><ele>898.4</ele><time>2026-05-04T07:38:15.647Z</time></trkpt><trkpt lat="40.7412336" lon="-3.8320954"><ele>898.8</ele><time>2026-05-04T07:38:16.647Z</time></trkpt><trkpt lat="40.7412214" lon="-3.8322299"><ele>899.2</ele><time>2026-05-04T07:38:17.647Z</time></trkpt><trkpt lat="40.7411907" lon="-3.832356"><ele>899.6</ele><time>2026-05-04T07:38:18.647Z</time></trkpt><trkpt lat="40.7411546" lon="-3.8324729"><ele>900.0</ele><time>2026-05-04T07:38:19.647Z</time></trkpt><trkpt lat="40.7411338" lon="-3.8325874"><ele>900.5</ele><time>2026-05-04T07:38:20.647Z</time></trkpt><trkpt lat="40.7411403" lon="-3.8327001"><ele>901.0</ele><time>2026-05-04T07:38:21.647Z</time></trkpt><trkpt lat="40.7411601" lon="-3.8328165"><ele>901.5</ele><time>2026-05-04T07:38:22.648Z</time></trkpt><trkpt lat="40.7411733" lon="-3.8329127"><ele>902.0</ele><time>2026-05-04T07:38:23.648Z</time></trkpt><trkpt lat="40.7411587" lon="-3.8330133"><ele>902.5</ele><time>2026-05-04T07:38:24.647Z</time></trkpt><trkpt lat="40.7411313" lon="-3.8331322"><ele>903.0</ele><time>2026-05-04T07:38:25.647Z</time></trkpt><trkpt lat="40.7411154" lon="-3.8332649"><ele>903.0</ele><time>2026-05-04T07:38:26.647Z</time></trkpt><trkpt lat="40.7411184" lon="-3.8334085"><ele>903.0</ele><time>2026-05-04T07:38:27.647Z</time></trkpt><trkpt lat="40.7411258" lon="-3.8335536"><ele>903.0</ele><time>2026-05-04T07:38:28.648Z</time></trkpt><trkpt lat="40.7411404" lon="-3.8336969"><ele>903.0</ele><time>2026-05-04T07:38:29.647Z</time></trkpt><trkpt lat="40.7411525" lon="-3.8338626"><ele>903.0</ele><time>2026-05-04T07:38:30.647Z</time></trkpt><trkpt lat="40.7411698" lon="-3.8340384"><ele>903.0</ele><time>2026-05-04T07:38:31.647Z</time></trkpt><trkpt lat="40.7411892" lon="-3.8342115"><ele>903.0</ele><time>2026-05-04T07:38:32.648Z</time></trkpt><trkpt lat="40.7412094" lon="-3.8343765"><ele>903.0</ele><time>2026-05-04T07:38:33.648Z</time></trkpt><trkpt lat="40.7412155" lon="-3.8345143"><ele>903.0</ele><time>2026-05-04T07:38:34.647Z</time></trkpt><trkpt lat="40.7412011" lon="-3.8346402"><ele>903.0</ele><time>2026-05-04T07:38:35.647Z</time></trkpt><trkpt lat="40.7411511" lon="-3.834759"><ele>903.0</ele><time>2026-05-04T07:38:36.648Z</time></trkpt><trkpt lat="40.7410952" lon="-3.8348883"><ele>903.0</ele><time>2026-05-04T07:38:37.648Z</time></trkpt><trkpt lat="40.741055" lon="-3.8350196"><ele>903.0</ele><time>2026-05-04T07:38:38.647Z</time></trkpt><trkpt lat="40.7410331" lon="-3.8351341"><ele>902.5</ele><time>2026-05-04T07:38:39.648Z</time></trkpt><trkpt lat="40.7410294" lon="-3.8352292"><ele>902.0</ele><time>2026-05-04T07:38:40.647Z</time></trkpt><trkpt lat="40.7410575" lon="-3.835354"><ele>901.5</ele><time>2026-05-04T07:38:42.647Z</time></trkpt><trkpt lat="40.7410816" lon="-3.8354348"><ele>901.0</ele><time>2026-05-04T07:38:45.647Z</time></trkpt><trkpt lat="40.7411134" lon="-3.8355162"><ele>900.5</ele><time>2026-05-04T07:38:48.647Z</time></trkpt><trkpt lat="40.7411596" lon="-3.8355953"><ele>900.0</ele><time>2026-05-04T07:38:51.647Z</time></trkpt><trkpt lat="40.7412032" lon="-3.835684"><ele>900.0</ele><time>2026-05-04T07:38:53.647Z</time></trkpt><trkpt lat="40.7412815" lon="-3.8357786"><ele>900.0</ele><time>2026-05-04T07:38:55.647Z</time></trkpt><trkpt lat="40.7413581" lon="-3.8357937"><ele>900.0</ele><time>2026-05-04T07:38:56.647Z</time></trkpt><trkpt lat="40.7414301" lon="-3.8358259"><ele>900.0</ele><time>2026-05-04T07:38:57.647Z</time></trkpt><trkpt lat="40.7414771" lon="-3.8358989"><ele>900.0</ele><time>2026-05-04T07:38:58.648Z</time></trkpt><trkpt lat="40.7415117" lon="-3.8360108"><ele>900.0</ele><time>2026-05-04T07:38:59.647Z</time></trkpt><trkpt lat="40.7415394" lon="-3.8361336"><ele>899.4</ele><time>2026-05-04T07:39:00.647Z</time></trkpt><trkpt lat="40.7415554" lon="-3.8362675"><ele>898.8</ele><time>2026-05-04T07:39:01.647Z</time></trkpt><trkpt lat="40.7415702" lon="-3.8364093"><ele>898.2</ele><time>2026-05-04T07:39:02.647Z</time></trkpt><trkpt lat="40.7415739" lon="-3.8365496"><ele>897.6</ele><time>2026-05-04T07:39:03.647Z</time></trkpt><trkpt lat="40.741566" lon="-3.8366868"><ele>897.0</ele><time>2026-05-04T07:39:04.647Z</time></trkpt><trkpt lat="40.7415495" lon="-3.8368148"><ele>897.0</ele><time>2026-05-04T07:39:05.648Z</time></trkpt><trkpt lat="40.7415375" lon="-3.836938"><ele>897.0</ele><time>2026-05-04T07:39:06.647Z</time></trkpt><trkpt lat="40.7415367" lon="-3.8370525"><ele>897.0</ele><time>2026-05-04T07:39:07.647Z</time></trkpt><trkpt lat="40.7415355" lon="-3.8371478"><ele>897.0</ele><time>2026-05-04T07:39:08.647Z</time></trkpt><trkpt lat="40.7415583" lon="-3.8372559"><ele>897.0</ele><time>2026-05-04T07:39:10.647Z</time></trkpt><trkpt lat="40.7415942" lon="-3.8373323"><ele>897.0</ele><time>2026-05-04T07:39:12.647Z</time></trkpt><trkpt lat="40.7416116" lon="-3.8374215"><ele>897.0</ele><time>2026-05-04T07:39:15.647Z</time></trkpt><trkpt lat="40.7416051" lon="-3.8375172"><ele>897.0</ele><time>2026-05-04T07:39:17.648Z</time></trkpt><trkpt lat="40.7415642" lon="-3.8376427"><ele>897.0</ele><time>2026-05-04T07:39:19.647Z</time></trkpt><trkpt lat="40.7415262" lon="-3.8377512"><ele>897.0</ele><time>2026-05-04T07:39:21.647Z</time></trkpt><trkpt lat="40.7415105" lon="-3.8378579"><ele>897.0</ele><time>2026-05-04T07:39:23.648Z</time></trkpt><trkpt lat="40.7414667" lon="-3.837972"><ele>897.0</ele><time>2026-05-04T07:39:25.647Z</time></trkpt><trkpt lat="40.7414489" lon="-3.8381111"><ele>897.5</ele><time>2026-05-04T07:39:27.647Z</time></trkpt><trkpt lat="40.7414364" lon="-3.8382072"><ele>898.0</ele><time>2026-05-04T07:39:28.648Z</time></trkpt><trkpt lat="40.7414215" lon="-3.8383046"><ele>898.5</ele><time>2026-05-04T07:39:29.648Z</time></trkpt><trkpt lat="40.7413944" lon="-3.8384054"><ele>899.0</ele><time>2026-05-04T07:39:30.647Z</time></trkpt><trkpt lat="40.7413608" lon="-3.8384931"><ele>899.5</ele><time>2026-05-04T07:39:31.648Z</time></trkpt><trkpt lat="40.7413337" lon="-3.8385823"><ele>900.0</ele><time>2026-05-04T07:39:32.647Z</time></trkpt><trkpt lat="40.7412952" lon="-3.8386711"><ele>900.4</ele><time>2026-05-04T07:39:33.647Z</time></trkpt><trkpt lat="40.7412514" lon="-3.8387666"><ele>900.8</ele><time>2026-05-04T07:39:34.647Z</time></trkpt><trkpt lat="40.7412117" lon="-3.8388743"><ele>901.2</ele><time>2026-05-04T07:39:35.647Z</time></trkpt><trkpt lat="40.7411741" lon="-3.8389948"><ele>901.6</ele><time>2026-05-04T07:39:36.647Z</time></trkpt><trkpt lat="40.7411303" lon="-3.8391075"><ele>902.0</ele><time>2026-05-04T07:39:37.647Z</time></trkpt><trkpt lat="40.7410875" lon="-3.8392214"><ele>901.6</ele><time>2026-05-04T07:39:38.647Z</time></trkpt><trkpt lat="40.7410487" lon="-3.8393387"><ele>901.2</ele><time>2026-05-04T07:39:39.647Z</time></trkpt><trkpt lat="40.7410127" lon="-3.8394501"><ele>900.8</ele><time>2026-05-04T07:39:40.647Z</time></trkpt><trkpt lat="40.7409721" lon="-3.8395559"><ele>900.4</ele><time>2026-05-04T07:39:41.648Z</time></trkpt><trkpt lat="40.7409215" lon="-3.8396558"><ele>900.0</ele><time>2026-05-04T07:39:42.647Z</time></trkpt><trkpt lat="40.7408613" lon="-3.8397607"><ele>900.0</ele><time>2026-05-04T07:39:43.647Z</time></trkpt><trkpt lat="40.7408006" lon="-3.8398464"><ele>900.0</ele><time>2026-05-04T07:39:44.647Z</time></trkpt><trkpt lat="40.740768" lon="-3.8399188"><ele>900.0</ele><time>2026-05-04T07:39:45.648Z</time></trkpt><trkpt lat="40.7407366" lon="-3.8400207"><ele>900.0</ele><time>2026-05-04T07:39:46.647Z</time></trkpt><trkpt lat="40.7407083" lon="-3.8401392"><ele>900.0</ele><time>2026-05-04T07:39:47.647Z</time></trkpt><trkpt lat="40.7406682" lon="-3.8402441"><ele>900.0</ele><time>2026-05-04T07:39:48.647Z</time></trkpt><trkpt lat="40.7406268" lon="-3.840342"><ele>900.6</ele><time>2026-05-04T07:39:49.647Z</time></trkpt><trkpt lat="40.7405581" lon="-3.8404399"><ele>901.2</ele><time>2026-05-04T07:39:50.647Z</time></trkpt><trkpt lat="40.7404827" lon="-3.8405475"><ele>901.8</ele><time>2026-05-04T07:39:51.647Z</time></trkpt><trkpt lat="40.7404068" lon="-3.8406499"><ele>902.4</ele><time>2026-05-04T07:39:52.647Z</time></trkpt><trkpt lat="40.7403341" lon="-3.8407512"><ele>903.0</ele><time>2026-05-04T07:39:53.647Z</time></trkpt><trkpt lat="40.7402707" lon="-3.8408764"><ele>902.75</ele><time>2026-05-04T07:39:54.647Z</time></trkpt><trkpt lat="40.740214" lon="-3.8410106"><ele>902.5</ele><time>2026-05-04T07:39:55.647Z</time></trkpt><trkpt lat="40.740155" lon="-3.8411547"><ele>902.25</ele><time>2026-05-04T07:39:56.647Z</time></trkpt><trkpt lat="40.7401086" lon="-3.8412925"><ele>902.0</ele><time>2026-05-04T07:39:57.647Z</time></trkpt><trkpt lat="40.7400535" lon="-3.8414211"><ele>902.0</ele><time>2026-05-04T07:39:58.647Z</time></trkpt><trkpt lat="40.7399955" lon="-3.8415533"><ele>902.0</ele><time>2026-05-04T07:39:59.647Z</time></trkpt><trkpt lat="40.7399469" lon="-3.8416809"><ele>902.0</ele><time>2026-05-04T07:40:00.647Z</time></trkpt><trkpt lat="40.7399106" lon="-3.8418166"><ele>902.0</ele><time>2026-05-04T07:40:01.648Z</time></trkpt><trkpt lat="40.7398832" lon="-3.8419496"><ele>902.0</ele><time>2026-05-04T07:40:02.647Z</time></trkpt><trkpt lat="40.7398505" lon="-3.8420569"><ele>902.1666666666667</ele><time>2026-05-04T07:40:03.647Z</time></trkpt><trkpt lat="40.7398113" lon="-3.8421341"><ele>902.3333333333334</ele><time>2026-05-04T07:40:04.647Z</time></trkpt><trkpt lat="40.739767" lon="-3.8422083"><ele>902.5</ele><time>2026-05-04T07:40:05.648Z</time></trkpt><trkpt lat="40.7397196" lon="-3.8422994"><ele>902.6666666666667</ele><time>2026-05-04T07:40:06.647Z</time></trkpt><trkpt lat="40.7396631" lon="-3.8423937"><ele>902.8333333333334</ele><time>2026-05-04T07:40:07.647Z</time></trkpt><trkpt lat="40.7396025" lon="-3.8424904"><ele>903.0</ele><time>2026-05-04T07:40:08.648Z</time></trkpt><trkpt lat="40.7395365" lon="-3.8425907"><ele>903.6666666666666</ele><time>2026-05-04T07:40:09.647Z</time></trkpt><trkpt lat="40.7394627" lon="-3.8426807"><ele>904.3333333333333</ele><time>2026-05-04T07:40:10.647Z</time></trkpt><trkpt lat="40.7393918" lon="-3.8427605"><ele>905.0</ele><time>2026-05-04T07:40:11.648Z</time></trkpt><trkpt lat="40.7393273" lon="-3.8428268"><ele>905.6666666666666</ele><time>2026-05-04T07:40:12.647Z</time></trkpt><trkpt lat="40.7392561" lon="-3.8428801"><ele>906.3333333333333</ele><time>2026-05-04T07:40:13.647Z</time></trkpt><trkpt lat="40.7391948" lon="-3.8429292"><ele>907.0</ele><time>2026-05-04T07:40:14.647Z</time></trkpt><trkpt lat="40.739128" lon="-3.8429754"><ele>905.4999999999999</ele><time>2026-05-04T07:40:15.648Z</time></trkpt><trkpt lat="40.7390651" lon="-3.8430228"><ele>904.0</ele><time>2026-05-04T07:40:16.647Z</time></trkpt><trkpt lat="40.7389641" lon="-3.8431113"><ele>902.5</ele><time>2026-05-04T07:40:18.647Z</time></trkpt><trkpt lat="40.7388895" lon="-3.8431678"><ele>901.0</ele><time>2026-05-04T07:40:20.647Z</time></trkpt><trkpt lat="40.7388304" lon="-3.8432225"><ele>899.4999999999999</ele><time>2026-05-04T07:40:23.647Z</time></trkpt><trkpt lat="40.7387812" lon="-3.8432744"><ele>898.0</ele><time>2026-05-04T07:40:26.647Z</time></trkpt><trkpt lat="40.7386668" lon="-3.8432879"><ele>897.9999999999999</ele><time>2026-05-04T07:40:34.647Z</time></trkpt><trkpt lat="40.7386032" lon="-3.843327"><ele>898.0</ele><time>2026-05-04T07:40:36.647Z</time></trkpt><trkpt lat="40.7385435" lon="-3.8434106"><ele>898.0</ele><time>2026-05-04T07:40:38.647Z</time></trkpt><trkpt lat="40.7384745" lon="-3.8434794"><ele>898.0</ele><time>2026-05-04T07:40:42.647Z</time></trkpt><trkpt lat="40.7384204" lon="-3.8435663"><ele>897.9999999999999</ele><time>2026-05-04T07:40:45.647Z</time></trkpt><trkpt lat="40.7383563" lon="-3.8436394"><ele>898.0</ele><time>2026-05-04T07:40:47.647Z</time></trkpt><trkpt lat="40.7382985" lon="-3.8436888"><ele>898.3333333333333</ele><time>2026-05-04T07:40:49.648Z</time></trkpt><trkpt lat="40.7382427" lon="-3.843739"><ele>898.6666666666666</ele><time>2026-05-04T07:40:52.647Z</time></trkpt><trkpt lat="40.7381727" lon="-3.8438031"><ele>899.0</ele><time>2026-05-04T07:40:55.647Z</time></trkpt><trkpt lat="40.738098" lon="-3.8438499"><ele>899.3333333333333</ele><time>2026-05-04T07:40:58.647Z</time></trkpt><trkpt lat="40.738028" lon="-3.8438914"><ele>899.6666666666666</ele><time>2026-05-04T07:41:01.647Z</time></trkpt><trkpt lat="40.737962" lon="-3.8439598"><ele>900.0</ele><time>2026-05-04T07:41:04.647Z</time></trkpt><trkpt lat="40.7378921" lon="-3.8440169"><ele>900.0</ele><time>2026-05-04T07:41:06.647Z</time></trkpt><trkpt lat="40.7378255" lon="-3.8440679"><ele>900.0</ele><time>2026-05-04T07:41:08.647Z</time></trkpt><trkpt lat="40.7377595" lon="-3.8441196"><ele>900.0</ele><time>2026-05-04T07:41:11.648Z</time></trkpt><trkpt lat="40.7376956" lon="-3.8441769"><ele>900.0</ele><time>2026-05-04T07:41:14.647Z</time></trkpt><trkpt lat="40.7376341" lon="-3.84422"><ele>900.0</ele><time>2026-05-04T07:41:16.647Z</time></trkpt><trkpt lat="40.7375405" lon="-3.8443049"><ele>900.0</ele><time>2026-05-04T07:41:18.648Z</time></trkpt><trkpt lat="40.7374882" lon="-3.8443555"><ele>900.0</ele><time>2026-05-04T07:41:19.647Z</time></trkpt><trkpt lat="40.7374297" lon="-3.8444197"><ele>900.0</ele><time>2026-05-04T07:41:20.647Z</time></trkpt><trkpt lat="40.7373701" lon="-3.8444848"><ele>900.0</ele><time>2026-05-04T07:41:21.647Z</time></trkpt><trkpt lat="40.7373116" lon="-3.8445706"><ele>900.0</ele><time>2026-05-04T07:41:22.647Z</time></trkpt><trkpt lat="40.7372498" lon="-3.8446539"><ele>900.0</ele><time>2026-05-04T07:41:23.647Z</time></trkpt><trkpt lat="40.7371849" lon="-3.8447456"><ele>900.0</ele><time>2026-05-04T07:41:24.647Z</time></trkpt><trkpt lat="40.7371277" lon="-3.8448292"><ele>900.0</ele><time>2026-05-04T07:41:25.647Z</time></trkpt><trkpt lat="40.7370732" lon="-3.8448932"><ele>900.0</ele><time>2026-05-04T07:41:26.647Z</time></trkpt><trkpt lat="40.7370228" lon="-3.8449593"><ele>900.0</ele><time>2026-05-04T07:41:27.647Z</time></trkpt><trkpt lat="40.7369788" lon="-3.8450523"><ele>900.0</ele><time>2026-05-04T07:41:28.647Z</time></trkpt><trkpt lat="40.7369291" lon="-3.8451608"><ele>900.0</ele><time>2026-05-04T07:41:29.648Z</time></trkpt><trkpt lat="40.7368589" lon="-3.8452869"><ele>900.0</ele><time>2026-05-04T07:41:30.647Z</time></trkpt><trkpt lat="40.7367849" lon="-3.8454151"><ele>899.6</ele><time>2026-05-04T07:41:31.647Z</time></trkpt><trkpt lat="40.7366968" lon="-3.8455373"><ele>899.2</ele><time>2026-05-04T07:41:32.647Z</time></trkpt><trkpt lat="40.7366139" lon="-3.8456468"><ele>898.8</ele><time>2026-05-04T07:41:33.647Z</time></trkpt><trkpt lat="40.7365424" lon="-3.845754"><ele>898.4</ele><time>2026-05-04T07:41:34.647Z</time></trkpt><trkpt lat="40.7364858" lon="-3.8458413"><ele>898.0</ele><time>2026-05-04T07:41:35.647Z</time></trkpt><trkpt lat="40.7364448" lon="-3.8459053"><ele>899.0</ele><time>2026-05-04T07:41:36.647Z</time></trkpt><trkpt lat="40.7363893" lon="-3.8460592"><ele>900.0</ele><time>2026-05-04T07:41:38.647Z</time></trkpt><trkpt lat="40.7363467" lon="-3.8461628"><ele>901.0</ele><time>2026-05-04T07:41:39.647Z</time></trkpt><trkpt lat="40.7362862" lon="-3.8462604"><ele>902.0</ele><time>2026-05-04T07:41:40.647Z</time></trkpt><trkpt lat="40.7362145" lon="-3.8463476"><ele>903.0</ele><time>2026-05-04T07:41:41.647Z</time></trkpt><trkpt lat="40.7361435" lon="-3.8464425"><ele>903.0</ele><time>2026-05-04T07:41:42.647Z</time></trkpt><trkpt lat="40.7360802" lon="-3.8465453"><ele>903.0</ele><time>2026-05-04T07:41:43.647Z</time></trkpt><trkpt lat="40.7360141" lon="-3.8466624"><ele>903.0</ele><time>2026-05-04T07:41:44.647Z</time></trkpt><trkpt lat="40.7359435" lon="-3.8467821"><ele>903.0</ele><time>2026-05-04T07:41:45.648Z</time></trkpt><trkpt lat="40.7358801" lon="-3.8468916"><ele>903.0</ele><time>2026-05-04T07:41:46.647Z</time></trkpt><trkpt lat="40.7358249" lon="-3.8469882"><ele>903.0</ele><time>2026-05-04T07:41:47.647Z</time></trkpt><trkpt lat="40.7357668" lon="-3.847039"><ele>903.0</ele><time>2026-05-04T07:41:48.647Z</time></trkpt><trkpt lat="40.7357042" lon="-3.8470846"><ele>903.0</ele><time>2026-05-04T07:41:49.647Z</time></trkpt><trkpt lat="40.7356508" lon="-3.847157"><ele>903.0</ele><time>2026-05-04T07:41:50.647Z</time></trkpt><trkpt lat="40.7356022" lon="-3.8472673"><ele>903.0</ele><time>2026-05-04T07:41:51.647Z</time></trkpt><trkpt lat="40.7355461" lon="-3.8473809"><ele>903.0</ele><time>2026-05-04T07:41:52.648Z</time></trkpt><trkpt lat="40.7354873" lon="-3.847507"><ele>901.8</ele><time>2026-05-04T07:41:53.648Z</time></trkpt><trkpt lat="40.7354243" lon="-3.8476367"><ele>900.5999999999999</ele><time>2026-05-04T07:41:54.647Z</time></trkpt><trkpt lat="40.7353585" lon="-3.8477488"><ele>899.4000000000001</ele><time>2026-05-04T07:41:55.647Z</time></trkpt><trkpt lat="40.7352993" lon="-3.8478516"><ele>898.2</ele><time>2026-05-04T07:41:56.647Z</time></trkpt><trkpt lat="40.7352454" lon="-3.8479442"><ele>897.0</ele><time>2026-05-04T07:41:57.647Z</time></trkpt><trkpt lat="40.7352154" lon="-3.848036"><ele>897.0</ele><time>2026-05-04T07:41:58.647Z</time></trkpt><trkpt lat="40.7351863" lon="-3.8481265"><ele>897.0</ele><time>2026-05-04T07:41:59.647Z</time></trkpt><trkpt lat="40.7351356" lon="-3.8482027"><ele>897.0</ele><time>2026-05-04T07:42:00.647Z</time></trkpt><trkpt lat="40.7350711" lon="-3.8482758"><ele>897.0</ele><time>2026-05-04T07:42:01.648Z</time></trkpt><trkpt lat="40.7350074" lon="-3.8483597"><ele>897.0</ele><time>2026-05-04T07:42:02.647Z</time></trkpt><trkpt lat="40.73494" lon="-3.848417"><ele>897.0</ele><time>2026-05-04T07:42:03.647Z</time></trkpt><trkpt lat="40.7348557" lon="-3.8484643"><ele>897.3333333333334</ele><time>2026-05-04T07:42:04.648Z</time></trkpt><trkpt lat="40.7347704" lon="-3.8485029"><ele>897.6666666666667</ele><time>2026-05-04T07:42:05.647Z</time></trkpt><trkpt lat="40.7346918" lon="-3.8485269"><ele>898.0</ele><time>2026-05-04T07:42:06.647Z</time></trkpt><trkpt lat="40.7346061" lon="-3.8485356"><ele>898.3333333333334</ele><time>2026-05-04T07:42:07.648Z</time></trkpt><trkpt lat="40.7345255" lon="-3.8485285"><ele>898.6666666666667</ele><time>2026-05-04T07:42:08.647Z</time></trkpt><trkpt lat="40.7344484" lon="-3.8485113"><ele>899.0</ele><time>2026-05-04T07:42:09.648Z</time></trkpt><trkpt lat="40.7343835" lon="-3.8484924"><ele>899.0</ele><time>2026-05-04T07:42:10.647Z</time></trkpt><trkpt lat="40.7342789" lon="-3.8485207"><ele>899.0000000000001</ele><time>2026-05-04T07:42:12.647Z</time></trkpt><trkpt lat="40.7342213" lon="-3.8485754"><ele>899.0000000000001</ele><time>2026-05-04T07:42:13.647Z</time></trkpt><trkpt lat="40.7341408" lon="-3.8486539"><ele>899.0</ele><time>2026-05-04T07:42:14.647Z</time></trkpt><trkpt lat="40.7340681" lon="-3.8487476"><ele>899.0</ele><time>2026-05-04T07:42:15.647Z</time></trkpt><trkpt lat="40.7339934" lon="-3.8488507"><ele>899.0</ele><time>2026-05-04T07:42:16.648Z</time></trkpt><trkpt lat="40.7339286" lon="-3.8489524"><ele>899.0000000000001</ele><time>2026-05-04T07:42:17.647Z</time></trkpt><trkpt lat="40.7338697" lon="-3.8490786"><ele>899.0000000000001</ele><time>2026-05-04T07:42:18.647Z</time></trkpt><trkpt lat="40.7337997" lon="-3.8491994"><ele>899.0</ele><time>2026-05-04T07:42:19.647Z</time></trkpt><trkpt lat="40.7337376" lon="-3.8492909"><ele>899.0</ele><time>2026-05-04T07:42:20.647Z</time></trkpt><trkpt lat="40.7336754" lon="-3.84936"><ele>900.6</ele><time>2026-05-04T07:42:21.647Z</time></trkpt><trkpt lat="40.7335987" lon="-3.849397"><ele>902.2</ele><time>2026-05-04T07:42:22.647Z</time></trkpt><trkpt lat="40.7335096" lon="-3.8494226"><ele>903.8000000000001</ele><time>2026-05-04T07:42:23.647Z</time></trkpt><trkpt lat="40.7334149" lon="-3.8494593"><ele>905.4000000000001</ele><time>2026-05-04T07:42:24.647Z</time></trkpt><trkpt lat="40.7333186" lon="-3.8494956"><ele>907.0</ele><time>2026-05-04T07:42:25.647Z</time></trkpt><trkpt lat="40.7332243" lon="-3.8495367"><ele>907.0</ele><time>2026-05-04T07:42:26.647Z</time></trkpt><trkpt lat="40.7331354" lon="-3.849593"><ele>907.0</ele><time>2026-05-04T07:42:27.647Z</time></trkpt><trkpt lat="40.7330447" lon="-3.8496573"><ele>907.0</ele><time>2026-05-04T07:42:28.648Z</time></trkpt><trkpt lat="40.7329465" lon="-3.8497225"><ele>907.0</ele><time>2026-05-04T07:42:29.647Z</time></trkpt><trkpt lat="40.7328451" lon="-3.8497888"><ele>907.0</ele><time>2026-05-04T07:42:30.647Z</time></trkpt><trkpt lat="40.732758" lon="-3.8498665"><ele>906.1666666666666</ele><time>2026-05-04T07:42:31.647Z</time></trkpt><trkpt lat="40.7326795" lon="-3.8499467"><ele>905.3333333333333</ele><time>2026-05-04T07:42:32.647Z</time></trkpt><trkpt lat="40.7326063" lon="-3.8500122"><ele>904.5</ele><time>2026-05-04T07:42:33.647Z</time></trkpt><trkpt lat="40.7325426" lon="-3.8500783"><ele>903.6666666666667</ele><time>2026-05-04T07:42:34.647Z</time></trkpt><trkpt lat="40.7325065" lon="-3.850157"><ele>902.8333333333334</ele><time>2026-05-04T07:42:35.647Z</time></trkpt><trkpt lat="40.7324599" lon="-3.8502517"><ele>902.0</ele><time>2026-05-04T07:42:36.647Z</time></trkpt><trkpt lat="40.7324034" lon="-3.8503657"><ele>902.0000000000001</ele><time>2026-05-04T07:42:37.647Z</time></trkpt><trkpt lat="40.7323328" lon="-3.850473"><ele>902.0</ele><time>2026-05-04T07:42:38.647Z</time></trkpt><trkpt lat="40.7322706" lon="-3.8505698"><ele>902.0</ele><time>2026-05-04T07:42:39.647Z</time></trkpt><trkpt lat="40.7322131" lon="-3.8506565"><ele>902.0</ele><time>2026-05-04T07:42:40.647Z</time></trkpt><trkpt lat="40.7321721" lon="-3.8507261"><ele>902.0000000000001</ele><time>2026-05-04T07:42:41.647Z</time></trkpt><trkpt lat="40.7321602" lon="-3.8508298"><ele>902.0</ele><time>2026-05-04T07:42:44.647Z</time></trkpt><trkpt lat="40.7321252" lon="-3.850924"><ele>901.5000000000001</ele><time>2026-05-04T07:42:47.647Z</time></trkpt><trkpt lat="40.7320851" lon="-3.8509925"><ele>901.0</ele><time>2026-05-04T07:42:48.647Z</time></trkpt><trkpt lat="40.7319899" lon="-3.851108"><ele>900.5</ele><time>2026-05-04T07:42:50.647Z</time></trkpt><trkpt lat="40.7319238" lon="-3.8511629"><ele>900.0</ele><time>2026-05-04T07:42:51.648Z</time></trkpt><trkpt lat="40.7318714" lon="-3.8512208"><ele>899.5000000000001</ele><time>2026-05-04T07:42:52.647Z</time></trkpt><trkpt lat="40.7318108" lon="-3.8512949"><ele>899.0</ele><time>2026-05-04T07:42:53.647Z</time></trkpt><trkpt lat="40.7317522" lon="-3.8513712"><ele>899.0</ele><time>2026-05-04T07:42:54.647Z</time></trkpt><trkpt lat="40.7316941" lon="-3.8514449"><ele>899.0000000000001</ele><time>2026-05-04T07:42:55.647Z</time></trkpt><trkpt lat="40.7316311" lon="-3.851505"><ele>899.0000000000001</ele><time>2026-05-04T07:42:56.647Z</time></trkpt><trkpt lat="40.731562" lon="-3.8515713"><ele>899.0</ele><time>2026-05-04T07:42:57.648Z</time></trkpt><trkpt lat="40.7314829" lon="-3.8516661"><ele>899.0</ele><time>2026-05-04T07:42:58.647Z</time></trkpt><trkpt lat="40.7313899" lon="-3.8517723"><ele>898.5</ele><time>2026-05-04T07:42:59.648Z</time></trkpt><trkpt lat="40.7312991" lon="-3.8518792"><ele>898.0</ele><time>2026-05-04T07:43:00.647Z</time></trkpt><trkpt lat="40.7312172" lon="-3.8519741"><ele>897.5</ele><time>2026-05-04T07:43:01.647Z</time></trkpt><trkpt lat="40.7311357" lon="-3.8520718"><ele>897.0</ele><time>2026-05-04T07:43:02.648Z</time></trkpt><trkpt lat="40.7310573" lon="-3.8521792"><ele>897.0</ele><time>2026-05-04T07:43:03.647Z</time></trkpt><trkpt lat="40.7309733" lon="-3.8522908"><ele>897.0</ele><time>2026-05-04T07:43:04.647Z</time></trkpt><trkpt lat="40.7308942" lon="-3.8524117"><ele>897.0</ele><time>2026-05-04T07:43:05.647Z</time></trkpt><trkpt lat="40.7308287" lon="-3.8525311"><ele>897.0</ele><time>2026-05-04T07:43:06.647Z</time></trkpt><trkpt lat="40.7307521" lon="-3.8526421"><ele>898.2</ele><time>2026-05-04T07:43:07.647Z</time></trkpt><trkpt lat="40.7306742" lon="-3.8527488"><ele>899.4000000000001</ele><time>2026-05-04T07:43:08.647Z</time></trkpt><trkpt lat="40.7305961" lon="-3.8528587"><ele>900.5999999999999</ele><time>2026-05-04T07:43:09.647Z</time></trkpt><trkpt lat="40.7305278" lon="-3.8529542"><ele>901.8</ele><time>2026-05-04T07:43:10.648Z</time></trkpt><trkpt lat="40.7304665" lon="-3.8530287"><ele>903.0</ele><time>2026-05-04T07:43:11.647Z</time></trkpt><trkpt lat="40.7304021" lon="-3.8530673"><ele>903.0</ele><time>2026-05-04T07:43:12.647Z</time></trkpt><trkpt lat="40.7303336" lon="-3.8530937"><ele>903.0</ele><time>2026-05-04T07:43:13.647Z</time></trkpt><trkpt lat="40.7302622" lon="-3.8531122"><ele>903.0</ele><time>2026-05-04T07:43:14.647Z</time></trkpt><trkpt lat="40.7301971" lon="-3.853157"><ele>903.0</ele><time>2026-05-04T07:43:15.647Z</time></trkpt><trkpt lat="40.7301462" lon="-3.8532454"><ele>903.0</ele><time>2026-05-04T07:43:16.647Z</time></trkpt><trkpt lat="40.7300776" lon="-3.8533469"><ele>903.0</ele><time>2026-05-04T07:43:17.647Z</time></trkpt><trkpt lat="40.7300067" lon="-3.8534501"><ele>903.25</ele><time>2026-05-04T07:43:18.647Z</time></trkpt><trkpt lat="40.7299349" lon="-3.8535498"><ele>903.5</ele><time>2026-05-04T07:43:19.647Z</time></trkpt><trkpt lat="40.729861" lon="-3.8536665"><ele>903.75</ele><time>2026-05-04T07:43:20.647Z</time></trkpt><trkpt lat="40.7297812" lon="-3.8537901"><ele>904.0</ele><time>2026-05-04T07:43:21.648Z</time></trkpt><trkpt lat="40.7296934" lon="-3.8539288"><ele>904.0</ele><time>2026-05-04T07:43:22.647Z</time></trkpt><trkpt lat="40.7296046" lon="-3.8540717"><ele>904.0</ele><time>2026-05-04T07:43:23.648Z</time></trkpt><trkpt lat="40.729519" lon="-3.8542251"><ele>904.0</ele><time>2026-05-04T07:43:24.647Z</time></trkpt><trkpt lat="40.7294332" lon="-3.8543823"><ele>904.0</ele><time>2026-05-04T07:43:25.647Z</time></trkpt><trkpt lat="40.7293495" lon="-3.8545397"><ele>903.75</ele><time>2026-05-04T07:43:26.647Z</time></trkpt><trkpt lat="40.729275" lon="-3.8546958"><ele>903.5</ele><time>2026-05-04T07:43:27.647Z</time></trkpt><trkpt lat="40.7292049" lon="-3.8548493"><ele>903.25</ele><time>2026-05-04T07:43:28.647Z</time></trkpt><trkpt lat="40.7291334" lon="-3.8550008"><ele>903.0</ele><time>2026-05-04T07:43:29.647Z</time></trkpt><trkpt lat="40.7290669" lon="-3.8551462"><ele>903.0</ele><time>2026-05-04T07:43:30.647Z</time></trkpt><trkpt lat="40.7290053" lon="-3.8552905"><ele>903.0</ele><time>2026-05-04T07:43:31.647Z</time></trkpt><trkpt lat="40.7289513" lon="-3.8554286"><ele>903.0</ele><time>2026-05-04T07:43:32.647Z</time></trkpt><trkpt lat="40.7289124" lon="-3.8555642"><ele>903.0</ele><time>2026-05-04T07:43:33.647Z</time></trkpt><trkpt lat="40.7288908" lon="-3.8556901"><ele>903.0</ele><time>2026-05-04T07:43:34.647Z</time></trkpt><trkpt lat="40.7288683" lon="-3.8558063"><ele>903.0</ele><time>2026-05-04T07:43:35.647Z</time></trkpt><trkpt lat="40.7288448" lon="-3.8559133"><ele>903.0</ele><time>2026-05-04T07:43:36.648Z</time></trkpt><trkpt lat="40.7288101" lon="-3.8559987"><ele>903.0</ele><time>2026-05-04T07:43:37.648Z</time></trkpt><trkpt lat="40.7287728" lon="-3.856073"><ele>903.0</ele><time>2026-05-04T07:43:38.647Z</time></trkpt><trkpt lat="40.7287251" lon="-3.856205"><ele>903.0</ele><time>2026-05-04T07:43:40.647Z</time></trkpt><trkpt lat="40.7286875" lon="-3.8563127"><ele>902.5</ele><time>2026-05-04T07:43:42.647Z</time></trkpt><trkpt lat="40.7286528" lon="-3.8564005"><ele>902.0</ele><time>2026-05-04T07:43:44.647Z</time></trkpt><trkpt lat="40.7286198" lon="-3.8564779"><ele>901.5</ele><time>2026-05-04T07:43:46.647Z</time></trkpt><trkpt lat="40.7285845" lon="-3.8565851"><ele>901.0</ele><time>2026-05-04T07:43:48.647Z</time></trkpt><trkpt lat="40.7285436" lon="-3.8567166"><ele>900.5</ele><time>2026-05-04T07:43:50.647Z</time></trkpt><trkpt lat="40.7285146" lon="-3.8567982"><ele>900.0</ele><time>2026-05-04T07:43:51.647Z</time></trkpt><trkpt lat="40.7284778" lon="-3.8568819"><ele>900.0000000000001</ele><time>2026-05-04T07:43:52.647Z</time></trkpt><trkpt lat="40.7284406" lon="-3.8569641"><ele>900.0</ele><time>2026-05-04T07:43:53.648Z</time></trkpt><trkpt lat="40.7284051" lon="-3.8570444"><ele>900.0000000000001</ele><time>2026-05-04T07:43:54.647Z</time></trkpt><trkpt lat="40.728377" lon="-3.8571297"><ele>900.0000000000001</ele><time>2026-05-04T07:43:55.647Z</time></trkpt><trkpt lat="40.7283457" lon="-3.8572242"><ele>900.0</ele><time>2026-05-04T07:43:56.647Z</time></trkpt><trkpt lat="40.7283135" lon="-3.8573143"><ele>900.0000000000001</ele><time>2026-05-04T07:43:57.647Z</time></trkpt><trkpt lat="40.728283" lon="-3.8574057"><ele>900.0000000000001</ele><time>2026-05-04T07:43:58.647Z</time></trkpt><trkpt lat="40.7282637" lon="-3.8575032"><ele>900.0</ele><time>2026-05-04T07:43:59.647Z</time></trkpt><trkpt lat="40.7282625" lon="-3.8575932"><ele>900.0</ele><time>2026-05-04T07:44:00.648Z</time></trkpt><trkpt lat="40.7283136" lon="-3.8577044"><ele>900.0</ele><time>2026-05-04T07:44:02.647Z</time></trkpt><trkpt lat="40.7283854" lon="-3.8578339"><ele>900.0</ele><time>2026-05-04T07:44:04.646Z</time></trkpt><trkpt lat="40.7283939" lon="-3.8579696"><ele>900.0</ele><time>2026-05-04T07:44:06.646Z</time></trkpt><trkpt lat="40.7283708" lon="-3.8580515"><ele>900.4</ele><time>2026-05-04T07:44:07.646Z</time></trkpt><trkpt lat="40.728334" lon="-3.85819"><ele>900.8</ele><time>2026-05-04T07:44:09.646Z</time></trkpt><trkpt lat="40.728298" lon="-3.8583162"><ele>901.2</ele><time>2026-05-04T07:44:11.646Z</time></trkpt><trkpt lat="40.7282444" lon="-3.8584351"><ele>901.6</ele><time>2026-05-04T07:44:13.646Z</time></trkpt><trkpt lat="40.7282031" lon="-3.8585575"><ele>902.0</ele><time>2026-05-04T07:44:15.646Z</time></trkpt><trkpt lat="40.7281244" lon="-3.8586064"><ele>902.1666666666667</ele><time>2026-05-04T07:44:18.646Z</time></trkpt><trkpt lat="40.7280649" lon="-3.8585732"><ele>902.3333333333334</ele><time>2026-05-04T07:44:19.646Z</time></trkpt><trkpt lat="40.727985" lon="-3.8584842"><ele>902.5</ele><time>2026-05-04T07:44:21.646Z</time></trkpt><trkpt lat="40.7279164" lon="-3.8584681"><ele>902.6666666666667</ele><time>2026-05-04T07:44:23.646Z</time></trkpt><trkpt lat="40.727873" lon="-3.8585879"><ele>902.8333333333334</ele><time>2026-05-04T07:44:26.646Z</time></trkpt><trkpt lat="40.7278602" lon="-3.8586701"><ele>903.0</ele><time>2026-05-04T07:44:27.646Z</time></trkpt><trkpt lat="40.727838" lon="-3.8588205"><ele>903.0</ele><time>2026-05-04T07:44:29.646Z</time></trkpt><trkpt lat="40.7278271" lon="-3.8589105"><ele>903.0</ele><time>2026-05-04T07:44:30.646Z</time></trkpt><trkpt lat="40.7278113" lon="-3.8589949"><ele>903.0</ele><time>2026-05-04T07:44:31.646Z</time></trkpt><trkpt lat="40.7277954" lon="-3.8590785"><ele>903.0</ele><time>2026-05-04T07:44:32.646Z</time></trkpt><trkpt lat="40.7277838" lon="-3.8591701"><ele>903.0</ele><time>2026-05-04T07:44:33.646Z</time></trkpt><trkpt lat="40.727774" lon="-3.8592536"><ele>903.0</ele><time>2026-05-04T07:44:34.646Z</time></trkpt><trkpt lat="40.727724" lon="-3.8593779"><ele>903.0</ele><time>2026-05-04T07:44:36.646Z</time></trkpt><trkpt lat="40.7276437" lon="-3.8594016"><ele>902.8333333333334</ele><time>2026-05-04T07:44:38.646Z</time></trkpt><trkpt lat="40.7275496" lon="-3.8593948"><ele>902.6666666666667</ele><time>2026-05-04T07:44:40.646Z</time></trkpt><trkpt lat="40.7274656" lon="-3.859401"><ele>902.5</ele><time>2026-05-04T07:44:42.646Z</time></trkpt><trkpt lat="40.7274002" lon="-3.8594208"><ele>902.3333333333334</ele><time>2026-05-04T07:44:43.646Z</time></trkpt><trkpt lat="40.7273246" lon="-3.8594363"><ele>902.1666666666667</ele><time>2026-05-04T07:44:44.646Z</time></trkpt><trkpt lat="40.727243" lon="-3.8594482"><ele>902.0</ele><time>2026-05-04T07:44:45.646Z</time></trkpt><trkpt lat="40.7271673" lon="-3.859451"><ele>902.0</ele><time>2026-05-04T07:44:46.646Z</time></trkpt><trkpt lat="40.7270509" lon="-3.8594777"><ele>902.0</ele><time>2026-05-04T07:44:48.646Z</time></trkpt><trkpt lat="40.7270006" lon="-3.859546"><ele>902.0</ele><time>2026-05-04T07:44:49.646Z</time></trkpt><trkpt lat="40.7269501" lon="-3.8596427"><ele>902.0</ele><time>2026-05-04T07:44:50.646Z</time></trkpt><trkpt lat="40.7269015" lon="-3.8597275"><ele>902.0</ele><time>2026-05-04T07:44:51.646Z</time></trkpt><trkpt lat="40.7268349" lon="-3.859811"><ele>901.6666666666667</ele><time>2026-05-04T07:44:52.646Z</time></trkpt><trkpt lat="40.7267704" lon="-3.8598865"><ele>901.3333333333334</ele><time>2026-05-04T07:44:53.646Z</time></trkpt><trkpt lat="40.7266985" lon="-3.8599692"><ele>901.0</ele><time>2026-05-04T07:44:54.646Z</time></trkpt><trkpt lat="40.7266344" lon="-3.8600493"><ele>900.6666666666667</ele><time>2026-05-04T07:44:55.646Z</time></trkpt><trkpt lat="40.7265795" lon="-3.8601294"><ele>900.3333333333334</ele><time>2026-05-04T07:44:56.647Z</time></trkpt><trkpt lat="40.7265369" lon="-3.8602148"><ele>900.0</ele><time>2026-05-04T07:44:57.646Z</time></trkpt><trkpt lat="40.7265023" lon="-3.8603122"><ele>900.6666666666666</ele><time>2026-05-04T07:44:58.646Z</time></trkpt><trkpt lat="40.7264793" lon="-3.8604156"><ele>901.3333333333333</ele><time>2026-05-04T07:44:59.646Z</time></trkpt><trkpt lat="40.7264648" lon="-3.8605292"><ele>902.0</ele><time>2026-05-04T07:45:00.646Z</time></trkpt><trkpt lat="40.7264454" lon="-3.8606331"><ele>902.6666666666666</ele><time>2026-05-04T07:45:01.646Z</time></trkpt><trkpt lat="40.7264171" lon="-3.860734"><ele>903.3333333333333</ele><time>2026-05-04T07:45:02.646Z</time></trkpt><trkpt lat="40.726372" lon="-3.860821"><ele>904.0</ele><time>2026-05-04T07:45:03.646Z</time></trkpt><trkpt lat="40.7263102" lon="-3.8608992"><ele>903.75</ele><time>2026-05-04T07:45:04.647Z</time></trkpt><trkpt lat="40.7262259" lon="-3.8609816"><ele>903.5</ele><time>2026-05-04T07:45:05.647Z</time></trkpt><trkpt lat="40.7261309" lon="-3.8610765"><ele>903.25</ele><time>2026-05-04T07:45:06.646Z</time></trkpt><trkpt lat="40.72604" lon="-3.8611721"><ele>903.0</ele><time>2026-05-04T07:45:07.646Z</time></trkpt><trkpt lat="40.7259537" lon="-3.8612696"><ele>903.0</ele><time>2026-05-04T07:45:08.646Z</time></trkpt><trkpt lat="40.7258728" lon="-3.8613766"><ele>903.0</ele><time>2026-05-04T07:45:09.646Z</time></trkpt><trkpt lat="40.7257917" lon="-3.8614902"><ele>903.0</ele><time>2026-05-04T07:45:10.646Z</time></trkpt><trkpt lat="40.7257116" lon="-3.861609"><ele>903.0</ele><time>2026-05-04T07:45:11.646Z</time></trkpt><trkpt lat="40.7256416" lon="-3.861735"><ele>902.8</ele><time>2026-05-04T07:45:12.646Z</time></trkpt><trkpt lat="40.7255771" lon="-3.8618437"><ele>902.5999999999999</ele><time>2026-05-04T07:45:13.646Z</time></trkpt><trkpt lat="40.7255207" lon="-3.8619581"><ele>902.4000000000001</ele><time>2026-05-04T07:45:14.646Z</time></trkpt><trkpt lat="40.7254863" lon="-3.8620486"><ele>902.2</ele><time>2026-05-04T07:45:15.646Z</time></trkpt><trkpt lat="40.7254306" lon="-3.8621714"><ele>902.0</ele><time>2026-05-04T07:45:17.646Z</time></trkpt><trkpt lat="40.7253944" lon="-3.8622564"><ele>902.0</ele><time>2026-05-04T07:45:19.646Z</time></trkpt><trkpt lat="40.7253592" lon="-3.8623433"><ele>902.0</ele><time>2026-05-04T07:45:21.647Z</time></trkpt><trkpt lat="40.725306" lon="-3.8624608"><ele>902.0</ele><time>2026-05-04T07:45:23.646Z</time></trkpt><trkpt lat="40.7252578" lon="-3.8625818"><ele>902.0</ele><time>2026-05-04T07:45:25.646Z</time></trkpt><trkpt lat="40.7252604" lon="-3.8626945"><ele>902.0</ele><time>2026-05-04T07:45:27.646Z</time></trkpt><trkpt lat="40.7252767" lon="-3.8628041"><ele>901.8</ele><time>2026-05-04T07:45:29.646Z</time></trkpt><trkpt lat="40.7252765" lon="-3.862915"><ele>901.6</ele><time>2026-05-04T07:45:30.646Z</time></trkpt><trkpt lat="40.7252516" lon="-3.8630384"><ele>901.3999999999999</ele><time>2026-05-04T07:45:31.646Z</time></trkpt><trkpt lat="40.7252202" lon="-3.8631704"><ele>901.1999999999999</ele><time>2026-05-04T07:45:32.646Z</time></trkpt><trkpt lat="40.7251918" lon="-3.8633239"><ele>901.0</ele><time>2026-05-04T07:45:33.647Z</time></trkpt><trkpt lat="40.7251774" lon="-3.8635083"><ele>901.0</ele><time>2026-05-04T07:45:34.646Z</time></trkpt><trkpt lat="40.7251584" lon="-3.8637032"><ele>901.0</ele><time>2026-05-04T07:45:35.646Z</time></trkpt><trkpt lat="40.7251511" lon="-3.8639155"><ele>901.0</ele><time>2026-05-04T07:45:36.646Z</time></trkpt><trkpt lat="40.7251467" lon="-3.8641133"><ele>901.3333333333333</ele><time>2026-05-04T07:45:37.647Z</time></trkpt><trkpt lat="40.7251477" lon="-3.8643211"><ele>901.6666666666667</ele><time>2026-05-04T07:45:38.646Z</time></trkpt><trkpt lat="40.7251454" lon="-3.8645255"><ele>902.0</ele><time>2026-05-04T07:45:39.647Z</time></trkpt><trkpt lat="40.7251455" lon="-3.8647397"><ele>902.0</ele><time>2026-05-04T07:45:40.647Z</time></trkpt><trkpt lat="40.7251478" lon="-3.8649624"><ele>902.0</ele><time>2026-05-04T07:45:41.646Z</time></trkpt><trkpt lat="40.7251422" lon="-3.8651845"><ele>902.0</ele><time>2026-05-04T07:45:42.646Z</time></trkpt><trkpt lat="40.7251377" lon="-3.865398"><ele>902.0</ele><time>2026-05-04T07:45:43.646Z</time></trkpt><trkpt lat="40.7251371" lon="-3.8656127"><ele>902.0</ele><time>2026-05-04T07:45:44.647Z</time></trkpt><trkpt lat="40.7251368" lon="-3.8658191"><ele>902.0</ele><time>2026-05-04T07:45:45.646Z</time></trkpt><trkpt lat="40.7251351" lon="-3.8660059"><ele>902.25</ele><time>2026-05-04T07:45:46.646Z</time></trkpt><trkpt lat="40.7251339" lon="-3.8661992"><ele>902.5</ele><time>2026-05-04T07:45:47.646Z</time></trkpt><trkpt lat="40.7251321" lon="-3.8663867"><ele>902.75</ele><time>2026-05-04T07:45:48.646Z</time></trkpt><trkpt lat="40.7251307" lon="-3.8665796"><ele>903.0</ele><time>2026-05-04T07:45:49.647Z</time></trkpt><trkpt lat="40.7251329" lon="-3.8667686"><ele>903.5</ele><time>2026-05-04T07:45:50.646Z</time></trkpt><trkpt lat="40.7251333" lon="-3.8669513"><ele>904.0</ele><time>2026-05-04T07:45:51.646Z</time></trkpt><trkpt lat="40.7251366" lon="-3.8671267"><ele>904.5</ele><time>2026-05-04T07:45:52.646Z</time></trkpt><trkpt lat="40.7251329" lon="-3.8672971"><ele>905.0</ele><time>2026-05-04T07:45:53.646Z</time></trkpt><trkpt lat="40.7251311" lon="-3.8674557"><ele>905.0</ele><time>2026-05-04T07:45:54.646Z</time></trkpt><trkpt lat="40.7251381" lon="-3.8675981"><ele>905.0</ele><time>2026-05-04T07:45:55.647Z</time></trkpt><trkpt lat="40.7251547" lon="-3.8677335"><ele>905.0</ele><time>2026-05-04T07:45:56.646Z</time></trkpt><trkpt lat="40.725185" lon="-3.86786"><ele>905.0</ele><time>2026-05-04T07:45:57.647Z</time></trkpt><trkpt lat="40.7252298" lon="-3.8679767"><ele>905.0</ele><time>2026-05-04T07:45:58.647Z</time></trkpt><trkpt lat="40.7252884" lon="-3.8680728"><ele>906.2</ele><time>2026-05-04T07:45:59.646Z</time></trkpt><trkpt lat="40.7253166" lon="-3.8681648"><ele>907.4</ele><time>2026-05-04T07:46:00.647Z</time></trkpt><trkpt lat="40.7253207" lon="-3.8682902"><ele>908.5999999999999</ele><time>2026-05-04T07:46:01.646Z</time></trkpt><trkpt lat="40.7252802" lon="-3.8684079"><ele>909.8</ele><time>2026-05-04T07:46:02.646Z</time></trkpt><trkpt lat="40.72521" lon="-3.8684953"><ele>911.0</ele><time>2026-05-04T07:46:03.646Z</time></trkpt><trkpt lat="40.7251167" lon="-3.8685359"><ele>911.0</ele><time>2026-05-04T07:46:04.646Z</time></trkpt><trkpt lat="40.7250349" lon="-3.8685143"><ele>910.9999999999999</ele><time>2026-05-04T07:46:05.646Z</time></trkpt><trkpt lat="40.7249596" lon="-3.8684437"><ele>910.9999999999999</ele><time>2026-05-04T07:46:06.647Z</time></trkpt><trkpt lat="40.7248848" lon="-3.868375"><ele>911.0</ele><time>2026-05-04T07:46:07.647Z</time></trkpt><trkpt lat="40.7248058" lon="-3.8683396"><ele>911.0</ele><time>2026-05-04T07:46:08.646Z</time></trkpt><trkpt lat="40.724703" lon="-3.8683513"><ele>910.4</ele><time>2026-05-04T07:46:09.646Z</time></trkpt><trkpt lat="40.7245901" lon="-3.8683805"><ele>909.8</ele><time>2026-05-04T07:46:10.646Z</time></trkpt><trkpt lat="40.7244826" lon="-3.8684392"><ele>909.1999999999999</ele><time>2026-05-04T07:46:11.646Z</time></trkpt><trkpt lat="40.7243814" lon="-3.8685123"><ele>908.5999999999999</ele><time>2026-05-04T07:46:12.646Z</time></trkpt><trkpt lat="40.7243006" lon="-3.8685872"><ele>908.0</ele><time>2026-05-04T07:46:13.647Z</time></trkpt><trkpt lat="40.7242335" lon="-3.8686646"><ele>907.4</ele><time>2026-05-04T07:46:14.646Z</time></trkpt><trkpt lat="40.7241553" lon="-3.8687507"><ele>906.8</ele><time>2026-05-04T07:46:15.646Z</time></trkpt><trkpt lat="40.7240778" lon="-3.8688323"><ele>906.2</ele><time>2026-05-04T07:46:16.646Z</time></trkpt><trkpt lat="40.7239984" lon="-3.8689193"><ele>905.6</ele><time>2026-05-04T07:46:17.646Z</time></trkpt><trkpt lat="40.7239232" lon="-3.8690029"><ele>905.0</ele><time>2026-05-04T07:46:18.646Z</time></trkpt><trkpt lat="40.7238637" lon="-3.8690793"><ele>905.0000000000001</ele><time>2026-05-04T07:46:19.646Z</time></trkpt><trkpt lat="40.7238058" lon="-3.869151"><ele>905.0</ele><time>2026-05-04T07:46:20.646Z</time></trkpt><trkpt lat="40.7237496" lon="-3.8692204"><ele>905.0</ele><time>2026-05-04T07:46:21.646Z</time></trkpt><trkpt lat="40.723689" lon="-3.869295"><ele>905.0</ele><time>2026-05-04T07:46:22.646Z</time></trkpt><trkpt lat="40.7236162" lon="-3.8693708"><ele>905.0000000000001</ele><time>2026-05-04T07:46:23.646Z</time></trkpt><trkpt lat="40.7235304" lon="-3.8694317"><ele>905.0</ele><time>2026-05-04T07:46:24.646Z</time></trkpt><trkpt lat="40.7234344" lon="-3.8694645"><ele>904.6</ele><time>2026-05-04T07:46:25.646Z</time></trkpt><trkpt lat="40.7233277" lon="-3.8694771"><ele>904.2</ele><time>2026-05-04T07:46:26.647Z</time></trkpt><trkpt lat="40.7232197" lon="-3.8694629"><ele>903.8</ele><time>2026-05-04T07:46:27.646Z</time></trkpt><trkpt lat="40.7231151" lon="-3.8694516"><ele>903.4</ele><time>2026-05-04T07:46:28.646Z</time></trkpt><trkpt lat="40.723021" lon="-3.8694436"><ele>903.0</ele><time>2026-05-04T07:46:29.646Z</time></trkpt><trkpt lat="40.7229289" lon="-3.8694379"><ele>903.0</ele><time>2026-05-04T07:46:30.647Z</time></trkpt><trkpt lat="40.7228374" lon="-3.869439"><ele>903.0</ele><time>2026-05-04T07:46:31.646Z</time></trkpt><trkpt lat="40.7227405" lon="-3.8694412"><ele>903.0</ele><time>2026-05-04T07:46:32.646Z</time></trkpt><trkpt lat="40.7226397" lon="-3.8694464"><ele>903.0</ele><time>2026-05-04T07:46:33.646Z</time></trkpt><trkpt lat="40.7225334" lon="-3.869451"><ele>903.0</ele><time>2026-05-04T07:46:34.647Z</time></trkpt><trkpt lat="40.7224339" lon="-3.8694555"><ele>902.4</ele><time>2026-05-04T07:46:35.646Z</time></trkpt><trkpt lat="40.7223329" lon="-3.8694556"><ele>901.8</ele><time>2026-05-04T07:46:36.646Z</time></trkpt><trkpt lat="40.7222322" lon="-3.8694586"><ele>901.2</ele><time>2026-05-04T07:46:37.646Z</time></trkpt><trkpt lat="40.7221348" lon="-3.8694619"><ele>900.6</ele><time>2026-05-04T07:46:38.646Z</time></trkpt><trkpt lat="40.7220336" lon="-3.8694622"><ele>900.0</ele><time>2026-05-04T07:46:39.646Z</time></trkpt><trkpt lat="40.7219272" lon="-3.8694611"><ele>899.6</ele><time>2026-05-04T07:46:40.646Z</time></trkpt><trkpt lat="40.7218233" lon="-3.8694541"><ele>899.2</ele><time>2026-05-04T07:46:41.646Z</time></trkpt><trkpt lat="40.7217169" lon="-3.8694473"><ele>898.8</ele><time>2026-05-04T07:46:42.646Z</time></trkpt><trkpt lat="40.7216024" lon="-3.8694417"><ele>898.4</ele><time>2026-05-04T07:46:43.646Z</time></trkpt><trkpt lat="40.7214806" lon="-3.8694409"><ele>898.0</ele><time>2026-05-04T07:46:44.646Z</time></trkpt><trkpt lat="40.7213566" lon="-3.8694469"><ele>898.0</ele><time>2026-05-04T07:46:45.646Z</time></trkpt><trkpt lat="40.7212387" lon="-3.8694478"><ele>898.0</ele><time>2026-05-04T07:46:46.646Z</time></trkpt><trkpt lat="40.721116" lon="-3.869444"><ele>898.0</ele><time>2026-05-04T07:46:47.646Z</time></trkpt><trkpt lat="40.7209899" lon="-3.8694415"><ele>898.0</ele><time>2026-05-04T07:46:48.646Z</time></trkpt><trkpt lat="40.7208705" lon="-3.8694512"><ele>898.0</ele><time>2026-05-04T07:46:49.646Z</time></trkpt><trkpt lat="40.7207505" lon="-3.8694582"><ele>898.0</ele><time>2026-05-04T07:46:50.646Z</time></trkpt><trkpt lat="40.7206303" lon="-3.8694704"><ele>898.0</ele><time>2026-05-04T07:46:51.646Z</time></trkpt><trkpt lat="40.7205131" lon="-3.8694843"><ele>898.0</ele><time>2026-05-04T07:46:52.646Z</time></trkpt><trkpt lat="40.7203927" lon="-3.869495"><ele>898.0</ele><time>2026-05-04T07:46:53.647Z</time></trkpt><trkpt lat="40.7202601" lon="-3.869505"><ele>898.0</ele><time>2026-05-04T07:46:54.646Z</time></trkpt><trkpt lat="40.720138" lon="-3.8695158"><ele>898.0</ele><time>2026-05-04T07:46:55.646Z</time></trkpt><trkpt lat="40.7200176" lon="-3.8695253"><ele>898.0</ele><time>2026-05-04T07:46:56.646Z</time></trkpt><trkpt lat="40.7199088" lon="-3.8695304"><ele>897.5</ele><time>2026-05-04T07:46:57.646Z</time></trkpt><trkpt lat="40.719783" lon="-3.8695444"><ele>897.0</ele><time>2026-05-04T07:46:58.647Z</time></trkpt><trkpt lat="40.719665" lon="-3.869558"><ele>896.5</ele><time>2026-05-04T07:46:59.646Z</time></trkpt><trkpt lat="40.7195563" lon="-3.8695725"><ele>896.0</ele><time>2026-05-04T07:47:00.646Z</time></trkpt><trkpt lat="40.7194535" lon="-3.8695891"><ele>895.1999999999999</ele><time>2026-05-04T07:47:01.647Z</time></trkpt><trkpt lat="40.7193486" lon="-3.8696054"><ele>894.3999999999999</ele><time>2026-05-04T07:47:02.646Z</time></trkpt><trkpt lat="40.7192467" lon="-3.869624"><ele>893.6</ele><time>2026-05-04T07:47:03.646Z</time></trkpt><trkpt lat="40.7191426" lon="-3.8696399"><ele>892.8</ele><time>2026-05-04T07:47:04.646Z</time></trkpt><trkpt lat="40.7190391" lon="-3.869654"><ele>892.0</ele><time>2026-05-04T07:47:05.646Z</time></trkpt><trkpt lat="40.7189447" lon="-3.8696654"><ele>891.9999999999999</ele><time>2026-05-04T07:47:06.647Z</time></trkpt><trkpt lat="40.7188582" lon="-3.8696766"><ele>892.0</ele><time>2026-05-04T07:47:07.647Z</time></trkpt><trkpt lat="40.7187685" lon="-3.8696876"><ele>892.0</ele><time>2026-05-04T07:47:08.646Z</time></trkpt><trkpt lat="40.7186809" lon="-3.8696959"><ele>892.0</ele><time>2026-05-04T07:47:09.647Z</time></trkpt><trkpt lat="40.7185945" lon="-3.8697034"><ele>891.9999999999999</ele><time>2026-05-04T07:47:10.646Z</time></trkpt><trkpt lat="40.7185098" lon="-3.869717"><ele>892.0</ele><time>2026-05-04T07:47:11.647Z</time></trkpt><trkpt lat="40.7184236" lon="-3.8697352"><ele>891.6666666666666</ele><time>2026-05-04T07:47:12.646Z</time></trkpt><trkpt lat="40.71834" lon="-3.8697469"><ele>891.3333333333333</ele><time>2026-05-04T07:47:13.646Z</time></trkpt><trkpt lat="40.7182561" lon="-3.8697571"><ele>891.0</ele><time>2026-05-04T07:47:14.647Z</time></trkpt><trkpt lat="40.7181721" lon="-3.869766"><ele>890.6666666666667</ele><time>2026-05-04T07:47:15.646Z</time></trkpt><trkpt lat="40.7180846" lon="-3.8697786"><ele>890.3333333333334</ele><time>2026-05-04T07:47:16.646Z</time></trkpt><trkpt lat="40.7179932" lon="-3.8697925"><ele>890.0</ele><time>2026-05-04T07:47:17.646Z</time></trkpt><trkpt lat="40.7179026" lon="-3.869811"><ele>890.0000000000001</ele><time>2026-05-04T07:47:18.646Z</time></trkpt><trkpt lat="40.717817" lon="-3.8698241"><ele>890.0</ele><time>2026-05-04T07:47:19.646Z</time></trkpt><trkpt lat="40.717734" lon="-3.8698348"><ele>890.0</ele><time>2026-05-04T07:47:20.647Z</time></trkpt><trkpt lat="40.7176562" lon="-3.8698498"><ele>890.0</ele><time>2026-05-04T07:47:21.646Z</time></trkpt><trkpt lat="40.717583" lon="-3.8698577"><ele>890.0000000000001</ele><time>2026-05-04T07:47:22.646Z</time></trkpt><trkpt lat="40.7174752" lon="-3.8698713"><ele>890.0</ele><time>2026-05-04T07:47:24.646Z</time></trkpt><trkpt lat="40.7173751" lon="-3.8698971"><ele>890.6666666666667</ele><time>2026-05-04T07:47:34.646Z</time></trkpt><trkpt lat="40.717302" lon="-3.8699958"><ele>891.3333333333334</ele><time>2026-05-04T07:47:36.647Z</time></trkpt><trkpt lat="40.717251" lon="-3.8700601"><ele>892.0</ele><time>2026-05-04T07:47:37.646Z</time></trkpt><trkpt lat="40.7172084" lon="-3.8701302"><ele>892.6666666666667</ele><time>2026-05-04T07:47:38.646Z</time></trkpt><trkpt lat="40.71714" lon="-3.8702635"><ele>893.3333333333334</ele><time>2026-05-04T07:47:40.646Z</time></trkpt><trkpt lat="40.717103" lon="-3.870333"><ele>894.0</ele><time>2026-05-04T07:47:41.646Z</time></trkpt><trkpt lat="40.7170075" lon="-3.8704287"><ele>894.3333333333334</ele><time>2026-05-04T07:47:43.646Z</time></trkpt><trkpt lat="40.7169348" lon="-3.8704678"><ele>894.6666666666667</ele><time>2026-05-04T07:47:44.646Z</time></trkpt><trkpt lat="40.716862" lon="-3.8704882"><ele>895.0</ele><time>2026-05-04T07:47:45.646Z</time></trkpt><trkpt lat="40.7167824" lon="-3.8705019"><ele>895.3333333333334</ele><time>2026-05-04T07:47:46.647Z</time></trkpt><trkpt lat="40.7167008" lon="-3.8704915"><ele>895.6666666666667</ele><time>2026-05-04T07:47:47.646Z</time></trkpt><trkpt lat="40.7166144" lon="-3.8704695"><ele>896.0</ele><time>2026-05-04T07:47:48.646Z</time></trkpt><trkpt lat="40.7165286" lon="-3.8704289"><ele>897.1666666666667</ele><time>2026-05-04T07:47:49.647Z</time></trkpt><trkpt lat="40.7164535" lon="-3.8703909"><ele>898.3333333333334</ele><time>2026-05-04T07:47:50.646Z</time></trkpt><trkpt lat="40.7163763" lon="-3.8703797"><ele>899.5</ele><time>2026-05-04T07:47:51.646Z</time></trkpt><trkpt lat="40.7162995" lon="-3.8704046"><ele>900.6666666666667</ele><time>2026-05-04T07:47:52.646Z</time></trkpt><trkpt lat="40.7162098" lon="-3.8705154"><ele>901.8333333333334</ele><time>2026-05-04T07:47:54.647Z</time></trkpt><trkpt lat="40.7161794" lon="-3.8706089"><ele>903.0</ele><time>2026-05-04T07:47:55.646Z</time></trkpt><trkpt lat="40.716153" lon="-3.8707104"><ele>903.0</ele><time>2026-05-04T07:47:56.646Z</time></trkpt><trkpt lat="40.7161268" lon="-3.8708087"><ele>903.0</ele><time>2026-05-04T07:47:57.646Z</time></trkpt><trkpt lat="40.7160919" lon="-3.8709073"><ele>903.0</ele><time>2026-05-04T07:47:58.646Z</time></trkpt><trkpt lat="40.7160603" lon="-3.8710122"><ele>903.0</ele><time>2026-05-04T07:47:59.646Z</time></trkpt><trkpt lat="40.716019" lon="-3.8711153"><ele>903.0</ele><time>2026-05-04T07:48:00.646Z</time></trkpt><trkpt lat="40.7159718" lon="-3.8712287"><ele>903.0</ele><time>2026-05-04T07:48:01.646Z</time></trkpt><trkpt lat="40.7159267" lon="-3.871325"><ele>905.1666666666666</ele><time>2026-05-04T07:48:02.646Z</time></trkpt><trkpt lat="40.7158779" lon="-3.8713888"><ele>907.3333333333333</ele><time>2026-05-04T07:48:03.647Z</time></trkpt><trkpt lat="40.7158035" lon="-3.8714235"><ele>909.5</ele><time>2026-05-04T07:48:04.646Z</time></trkpt><trkpt lat="40.7157257" lon="-3.8714221"><ele>911.6666666666666</ele><time>2026-05-04T07:48:05.647Z</time></trkpt><trkpt lat="40.7156457" lon="-3.8713989"><ele>913.8333333333333</ele><time>2026-05-04T07:48:06.646Z</time></trkpt><trkpt lat="40.7155562" lon="-3.8713983"><ele>916.0</ele><time>2026-05-04T07:48:07.647Z</time></trkpt><trkpt lat="40.7154567" lon="-3.8714298"><ele>916.0</ele><time>2026-05-04T07:48:08.646Z</time></trkpt><trkpt lat="40.7153433" lon="-3.8714753"><ele>915.9999999999999</ele><time>2026-05-04T07:48:09.646Z</time></trkpt><trkpt lat="40.7152431" lon="-3.8715238"><ele>915.9999999999999</ele><time>2026-05-04T07:48:10.646Z</time></trkpt><trkpt lat="40.7151445" lon="-3.8715708"><ele>916.0</ele><time>2026-05-04T07:48:11.646Z</time></trkpt><trkpt lat="40.7150433" lon="-3.8716207"><ele>916.0</ele><time>2026-05-04T07:48:12.646Z</time></trkpt><trkpt lat="40.7149393" lon="-3.8716729"><ele>917.75</ele><time>2026-05-04T07:48:13.647Z</time></trkpt><trkpt lat="40.7148381" lon="-3.8717157"><ele>919.5</ele><time>2026-05-04T07:48:14.646Z</time></trkpt><trkpt lat="40.7147337" lon="-3.8717252"><ele>921.25</ele><time>2026-05-04T07:48:15.646Z</time></trkpt><trkpt lat="40.7146149" lon="-3.8717165"><ele>923.0</ele><time>2026-05-04T07:48:16.646Z</time></trkpt><trkpt lat="40.7144867" lon="-3.871699"><ele>925.0</ele><time>2026-05-04T07:48:17.646Z</time></trkpt><trkpt lat="40.7143561" lon="-3.8716701"><ele>927.0</ele><time>2026-05-04T07:48:18.646Z</time></trkpt><trkpt lat="40.7142291" lon="-3.8716478"><ele>929.0</ele><time>2026-05-04T07:48:19.646Z</time></trkpt><trkpt lat="40.7141128" lon="-3.8716281"><ele>931.0</ele><time>2026-05-04T07:48:20.646Z</time></trkpt><trkpt lat="40.7139994" lon="-3.8716118"><ele>931.0</ele><time>2026-05-04T07:48:21.647Z</time></trkpt><trkpt lat="40.7138804" lon="-3.8716069"><ele>931.0</ele><time>2026-05-04T07:48:22.646Z</time></trkpt><trkpt lat="40.713761" lon="-3.8716149"><ele>931.0</ele><time>2026-05-04T07:48:23.646Z</time></trkpt><trkpt lat="40.7136404" lon="-3.8716312"><ele>931.0</ele><time>2026-05-04T07:48:24.646Z</time></trkpt><trkpt lat="40.7135168" lon="-3.8716675"><ele>932.25</ele><time>2026-05-04T07:48:25.646Z</time></trkpt><trkpt lat="40.7133894" lon="-3.8717106"><ele>933.5</ele><time>2026-05-04T07:48:26.647Z</time></trkpt><trkpt lat="40.7132669" lon="-3.8717609"><ele>934.75</ele><time>2026-05-04T07:48:27.646Z</time></trkpt><trkpt lat="40.7131583" lon="-3.8717965"><ele>936.0</ele><time>2026-05-04T07:48:28.646Z</time></trkpt><trkpt lat="40.7130663" lon="-3.8718395"><ele>936.0</ele><time>2026-05-04T07:48:29.646Z</time></trkpt><trkpt lat="40.712978" lon="-3.8718869"><ele>935.9999999999999</ele><time>2026-05-04T07:48:30.646Z</time></trkpt><trkpt lat="40.7128965" lon="-3.8719544"><ele>935.9999999999999</ele><time>2026-05-04T07:48:31.646Z</time></trkpt><trkpt lat="40.7128365" lon="-3.8720472"><ele>936.0</ele><time>2026-05-04T07:48:32.646Z</time></trkpt><trkpt lat="40.7127916" lon="-3.8721494"><ele>936.0</ele><time>2026-05-04T07:48:33.646Z</time></trkpt><trkpt lat="40.7127433" lon="-3.8722497"><ele>938.5</ele><time>2026-05-04T07:48:34.646Z</time></trkpt><trkpt lat="40.7126779" lon="-3.8723446"><ele>941.0</ele><time>2026-05-04T07:48:35.646Z</time></trkpt><trkpt lat="40.7125878" lon="-3.872437"><ele>943.5</ele><time>2026-05-04T07:48:36.646Z</time></trkpt><trkpt lat="40.712486" lon="-3.8725197"><ele>946.0</ele><time>2026-05-04T07:48:37.646Z</time></trkpt><trkpt lat="40.7123842" lon="-3.8726051"><ele>945.25</ele><time>2026-05-04T07:48:38.646Z</time></trkpt><trkpt lat="40.7122733" lon="-3.8726885"><ele>944.5</ele><time>2026-05-04T07:48:39.646Z</time></trkpt><trkpt lat="40.7121602" lon="-3.8727806"><ele>943.75</ele><time>2026-05-04T07:48:40.646Z</time></trkpt><trkpt lat="40.7120504" lon="-3.872872"><ele>943.0</ele><time>2026-05-04T07:48:41.646Z</time></trkpt><trkpt lat="40.7119434" lon="-3.8729594"><ele>944.4</ele><time>2026-05-04T07:48:42.646Z</time></trkpt><trkpt lat="40.7118478" lon="-3.8730345"><ele>945.8</ele><time>2026-05-04T07:48:43.647Z</time></trkpt><trkpt lat="40.7117673" lon="-3.8730974"><ele>947.2</ele><time>2026-05-04T07:48:44.647Z</time></trkpt><trkpt lat="40.711695" lon="-3.8731454"><ele>948.6</ele><time>2026-05-04T07:48:45.646Z</time></trkpt><trkpt lat="40.7116025" lon="-3.8732325"><ele>950.0</ele><time>2026-05-04T07:48:47.646Z</time></trkpt><trkpt lat="40.7116042" lon="-3.8733364"><ele>950.6666666666667</ele><time>2026-05-04T07:48:49.646Z</time></trkpt><trkpt lat="40.7116937" lon="-3.8734432"><ele>951.3333333333334</ele><time>2026-05-04T07:48:51.646Z</time></trkpt><trkpt lat="40.7117591" lon="-3.8734831"><ele>952.0</ele><time>2026-05-04T07:48:52.646Z</time></trkpt><trkpt lat="40.7118139" lon="-3.8735349"><ele>952.6666666666667</ele><time>2026-05-04T07:48:53.646Z</time></trkpt><trkpt lat="40.7118361" lon="-3.8736173"><ele>953.3333333333334</ele><time>2026-05-04T07:48:54.646Z</time></trkpt><trkpt lat="40.7118454" lon="-3.8737132"><ele>954.0</ele><time>2026-05-04T07:48:55.647Z</time></trkpt><trkpt lat="40.7118462" lon="-3.8738129"><ele>954.0</ele><time>2026-05-04T07:48:56.646Z</time></trkpt><trkpt lat="40.7118351" lon="-3.8739138"><ele>954.0</ele><time>2026-05-04T07:48:57.646Z</time></trkpt><trkpt lat="40.7118255" lon="-3.874017"><ele>954.0</ele><time>2026-05-04T07:48:58.646Z</time></trkpt><trkpt lat="40.7118019" lon="-3.8741255"><ele>954.0</ele><time>2026-05-04T07:48:59.647Z</time></trkpt><trkpt lat="40.7117764" lon="-3.8742177"><ele>954.0</ele><time>2026-05-04T07:49:00.646Z</time></trkpt><trkpt lat="40.7117248" lon="-3.8742938"><ele>954.0</ele><time>2026-05-04T07:49:01.646Z</time></trkpt><trkpt lat="40.7116538" lon="-3.8743536"><ele>955.3333333333334</ele><time>2026-05-04T07:49:02.646Z</time></trkpt><trkpt lat="40.7115809" lon="-3.8744005"><ele>956.6666666666667</ele><time>2026-05-04T07:49:03.646Z</time></trkpt><trkpt lat="40.7115163" lon="-3.8744529"><ele>958.0</ele><time>2026-05-04T07:49:04.646Z</time></trkpt><trkpt lat="40.7114628" lon="-3.8745202"><ele>959.3333333333334</ele><time>2026-05-04T07:49:05.646Z</time></trkpt><trkpt lat="40.7114249" lon="-3.8746221"><ele>960.6666666666667</ele><time>2026-05-04T07:49:06.647Z</time></trkpt><trkpt lat="40.711398" lon="-3.8747435"><ele>962.0</ele><time>2026-05-04T07:49:07.646Z</time></trkpt><trkpt lat="40.7113837" lon="-3.8748738"><ele>962.0</ele><time>2026-05-04T07:49:08.646Z</time></trkpt><trkpt lat="40.7113689" lon="-3.8750062"><ele>962.0</ele><time>2026-05-04T07:49:09.646Z</time></trkpt><trkpt lat="40.7113655" lon="-3.8751333"><ele>962.0</ele><time>2026-05-04T07:49:10.646Z</time></trkpt><trkpt lat="40.7113606" lon="-3.8752537"><ele>962.0</ele><time>2026-05-04T07:49:11.646Z</time></trkpt><trkpt lat="40.7113433" lon="-3.8753687"><ele>962.0</ele><time>2026-05-04T07:49:12.646Z</time></trkpt><trkpt lat="40.7113131" lon="-3.8754791"><ele>963.0</ele><time>2026-05-04T07:49:13.646Z</time></trkpt><trkpt lat="40.7112613" lon="-3.8755588"><ele>964.0</ele><time>2026-05-04T07:49:14.646Z</time></trkpt><trkpt lat="40.7111978" lon="-3.8756323"><ele>965.0</ele><time>2026-05-04T07:49:15.646Z</time></trkpt><trkpt lat="40.7111153" lon="-3.8757111"><ele>966.0</ele><time>2026-05-04T07:49:16.646Z</time></trkpt><trkpt lat="40.7110395" lon="-3.8758068"><ele>967.0</ele><time>2026-05-04T07:49:17.646Z</time></trkpt><trkpt lat="40.710963" lon="-3.8758971"><ele>968.75</ele><time>2026-05-04T07:49:18.646Z</time></trkpt><trkpt lat="40.7108839" lon="-3.8759969"><ele>970.5</ele><time>2026-05-04T07:49:19.646Z</time></trkpt><trkpt lat="40.7108001" lon="-3.8761055"><ele>972.25</ele><time>2026-05-04T07:49:20.646Z</time></trkpt><trkpt lat="40.7107164" lon="-3.8762145"><ele>974.0</ele><time>2026-05-04T07:49:21.646Z</time></trkpt><trkpt lat="40.7106386" lon="-3.876319"><ele>974.0</ele><time>2026-05-04T07:49:22.646Z</time></trkpt><trkpt lat="40.7105648" lon="-3.8764043"><ele>974.0000000000001</ele><time>2026-05-04T07:49:23.646Z</time></trkpt><trkpt lat="40.7104829" lon="-3.8764718"><ele>974.0000000000001</ele><time>2026-05-04T07:49:24.646Z</time></trkpt><trkpt lat="40.7103984" lon="-3.8765109"><ele>974.0</ele><time>2026-05-04T07:49:25.646Z</time></trkpt><trkpt lat="40.7103124" lon="-3.8765335"><ele>974.0</ele><time>2026-05-04T07:49:26.646Z</time></trkpt><trkpt lat="40.7102203" lon="-3.87653"><ele>976.75</ele><time>2026-05-04T07:49:27.646Z</time></trkpt><trkpt lat="40.7101258" lon="-3.8764722"><ele>979.5</ele><time>2026-05-04T07:49:28.646Z</time></trkpt><trkpt lat="40.7100221" lon="-3.8764003"><ele>982.25</ele><time>2026-05-04T07:49:29.646Z</time></trkpt><trkpt lat="40.7099135" lon="-3.8763104"><ele>985.0</ele><time>2026-05-04T07:49:30.646Z</time></trkpt><trkpt lat="40.7098042" lon="-3.8762108"><ele>985.0</ele><time>2026-05-04T07:49:31.647Z</time></trkpt><trkpt lat="40.7096908" lon="-3.8761006"><ele>985.0</ele><time>2026-05-04T07:49:32.646Z</time></trkpt><trkpt lat="40.7095764" lon="-3.8759806"><ele>985.0</ele><time>2026-05-04T07:49:33.646Z</time></trkpt><trkpt lat="40.7094696" lon="-3.8758557"><ele>985.0</ele><time>2026-05-04T07:49:34.647Z</time></trkpt><trkpt lat="40.7093723" lon="-3.8757173"><ele>986.0</ele><time>2026-05-04T07:49:35.646Z</time></trkpt><trkpt lat="40.7092914" lon="-3.8755707"><ele>987.0</ele><time>2026-05-04T07:49:36.646Z</time></trkpt><trkpt lat="40.709221" lon="-3.8754101"><ele>988.0</ele><time>2026-05-04T07:49:37.646Z</time></trkpt><trkpt lat="40.7091253" lon="-3.8752615"><ele>989.0</ele><time>2026-05-04T07:49:38.646Z</time></trkpt><trkpt lat="40.7090137" lon="-3.8751185"><ele>987.6666666666667</ele><time>2026-05-04T07:49:39.646Z</time></trkpt><trkpt lat="40.7089066" lon="-3.8749742"><ele>986.3333333333333</ele><time>2026-05-04T07:49:40.646Z</time></trkpt><trkpt lat="40.7088037" lon="-3.8748238"><ele>985.0</ele><time>2026-05-04T07:49:41.647Z</time></trkpt><trkpt lat="40.7087099" lon="-3.8746704"><ele>985.0</ele><time>2026-05-04T07:49:42.646Z</time></trkpt><trkpt lat="40.7086159" lon="-3.8745207"><ele>985.0</ele><time>2026-05-04T07:49:43.646Z</time></trkpt><trkpt lat="40.7085224" lon="-3.8743766"><ele>985.0</ele><time>2026-05-04T07:49:44.647Z</time></trkpt><trkpt lat="40.7084326" lon="-3.8742449"><ele>985.0</ele><time>2026-05-04T07:49:45.646Z</time></trkpt><trkpt lat="40.7083343" lon="-3.8741228"><ele>985.5</ele><time>2026-05-04T07:49:46.646Z</time></trkpt><trkpt lat="40.7082168" lon="-3.874012"><ele>986.0</ele><time>2026-05-04T07:49:47.646Z</time></trkpt><trkpt lat="40.7081035" lon="-3.8739079"><ele>986.5</ele><time>2026-05-04T07:49:48.646Z</time></trkpt><trkpt lat="40.7079969" lon="-3.873802"><ele>987.0</ele><time>2026-05-04T07:49:49.646Z</time></trkpt><trkpt lat="40.7079" lon="-3.8736815"><ele>987.0</ele><time>2026-05-04T07:49:50.646Z</time></trkpt><trkpt lat="40.7078081" lon="-3.8735521"><ele>987.0</ele><time>2026-05-04T07:49:51.647Z</time></trkpt><trkpt lat="40.7077216" lon="-3.8734164"><ele>987.0</ele><time>2026-05-04T07:49:52.647Z</time></trkpt><trkpt lat="40.7076441" lon="-3.8732561"><ele>987.0</ele><time>2026-05-04T07:49:53.646Z</time></trkpt><trkpt lat="40.7075653" lon="-3.8730918"><ele>986.75</ele><time>2026-05-04T07:49:54.646Z</time></trkpt><trkpt lat="40.7074817" lon="-3.872941"><ele>986.5</ele><time>2026-05-04T07:49:55.646Z</time></trkpt><trkpt lat="40.7073929" lon="-3.8727937"><ele>986.25</ele><time>2026-05-04T07:49:56.646Z</time></trkpt><trkpt lat="40.7073065" lon="-3.8726361"><ele>986.0</ele><time>2026-05-04T07:49:57.646Z</time></trkpt><trkpt lat="40.7072395" lon="-3.8724825"><ele>986.0</ele><time>2026-05-04T07:49:58.646Z</time></trkpt><trkpt lat="40.707188" lon="-3.8723409"><ele>985.9999999999999</ele><time>2026-05-04T07:49:59.646Z</time></trkpt><trkpt lat="40.707147" lon="-3.8722118"><ele>985.9999999999999</ele><time>2026-05-04T07:50:00.647Z</time></trkpt><trkpt lat="40.7071226" lon="-3.8720801"><ele>986.0</ele><time>2026-05-04T07:50:01.646Z</time></trkpt><trkpt lat="40.7071056" lon="-3.8719364"><ele>986.0</ele><time>2026-05-04T07:50:02.646Z</time></trkpt><trkpt lat="40.7070868" lon="-3.871789"><ele>985.8</ele><time>2026-05-04T07:50:03.646Z</time></trkpt><trkpt lat="40.7070601" lon="-3.8716497"><ele>985.5999999999999</ele><time>2026-05-04T07:50:04.646Z</time></trkpt><trkpt lat="40.7070125" lon="-3.8715272"><ele>985.4</ele><time>2026-05-04T07:50:05.647Z</time></trkpt><trkpt lat="40.7069444" lon="-3.871423"><ele>985.2</ele><time>2026-05-04T07:50:06.646Z</time></trkpt><trkpt lat="40.7068674" lon="-3.8713422"><ele>985.0</ele><time>2026-05-04T07:50:07.646Z</time></trkpt><trkpt lat="40.7067904" lon="-3.8712528"><ele>984.9999999999999</ele><time>2026-05-04T07:50:08.646Z</time></trkpt><trkpt lat="40.7067268" lon="-3.871165"><ele>985.0</ele><time>2026-05-04T07:50:09.646Z</time></trkpt><trkpt lat="40.7066757" lon="-3.8710785"><ele>985.0</ele><time>2026-05-04T07:50:10.646Z</time></trkpt><trkpt lat="40.7066232" lon="-3.8710116"><ele>985.0</ele><time>2026-05-04T07:50:11.647Z</time></trkpt><trkpt lat="40.7065629" lon="-3.8709537"><ele>984.9999999999999</ele><time>2026-05-04T07:50:12.646Z</time></trkpt><trkpt lat="40.7064902" lon="-3.8709033"><ele>985.0</ele><time>2026-05-04T07:50:13.646Z</time></trkpt><trkpt lat="40.7064197" lon="-3.8708369"><ele>985.0</ele><time>2026-05-04T07:50:14.646Z</time></trkpt><trkpt lat="40.7063525" lon="-3.8707584"><ele>985.0</ele><time>2026-05-04T07:50:15.646Z</time></trkpt><trkpt lat="40.7062742" lon="-3.8706725"><ele>985.0</ele><time>2026-05-04T07:50:16.647Z</time></trkpt><trkpt lat="40.7061788" lon="-3.8705942"><ele>985.0</ele><time>2026-05-04T07:50:17.647Z</time></trkpt><trkpt lat="40.7060833" lon="-3.8705281"><ele>985.0</ele><time>2026-05-04T07:50:18.646Z</time></trkpt><trkpt lat="40.7059983" lon="-3.8704537"><ele>985.8</ele><time>2026-05-04T07:50:19.646Z</time></trkpt><trkpt lat="40.7059183" lon="-3.8703628"><ele>986.6</ele><time>2026-05-04T07:50:20.646Z</time></trkpt><trkpt lat="40.7058506" lon="-3.8702769"><ele>987.4000000000001</ele><time>2026-05-04T07:50:21.646Z</time></trkpt><trkpt lat="40.7057868" lon="-3.8701788"><ele>988.2</ele><time>2026-05-04T07:50:22.647Z</time></trkpt><trkpt lat="40.7057227" lon="-3.8700689"><ele>989.0</ele><time>2026-05-04T07:50:23.646Z</time></trkpt><trkpt lat="40.7056631" lon="-3.8699493"><ele>989.0</ele><time>2026-05-04T07:50:24.646Z</time></trkpt><trkpt lat="40.7056231" lon="-3.8698256"><ele>989.0000000000001</ele><time>2026-05-04T07:50:25.646Z</time></trkpt><trkpt lat="40.7055766" lon="-3.8697229"><ele>989.0000000000001</ele><time>2026-05-04T07:50:26.646Z</time></trkpt><trkpt lat="40.7055175" lon="-3.8696273"><ele>989.0</ele><time>2026-05-04T07:50:27.646Z</time></trkpt><trkpt lat="40.7054488" lon="-3.86953"><ele>989.0</ele><time>2026-05-04T07:50:28.646Z</time></trkpt><trkpt lat="40.7053793" lon="-3.8694329"><ele>989.0000000000001</ele><time>2026-05-04T07:50:29.646Z</time></trkpt><trkpt lat="40.7053115" lon="-3.8693572"><ele>989.0</ele><time>2026-05-04T07:50:30.646Z</time></trkpt><trkpt lat="40.7052476" lon="-3.8693021"><ele>989.0</ele><time>2026-05-04T07:50:31.647Z</time></trkpt><trkpt lat="40.705189" lon="-3.8692554"><ele>989.0</ele><time>2026-05-04T07:50:32.646Z</time></trkpt><trkpt lat="40.7050793" lon="-3.8691987"><ele>989.0000000000001</ele><time>2026-05-04T07:50:34.646Z</time></trkpt><trkpt lat="40.7050044" lon="-3.8691769"><ele>989.0</ele><time>2026-05-04T07:50:35.646Z</time></trkpt><trkpt lat="40.704915" lon="-3.8691664"><ele>989.0</ele><time>2026-05-04T07:50:36.646Z</time></trkpt><trkpt lat="40.7048065" lon="-3.8691578"><ele>989.0000000000001</ele><time>2026-05-04T07:50:37.646Z</time></trkpt><trkpt lat="40.7046867" lon="-3.86915"><ele>989.0000000000001</ele><time>2026-05-04T07:50:38.646Z</time></trkpt><trkpt lat="40.7045786" lon="-3.8691428"><ele>989.0</ele><time>2026-05-04T07:50:39.646Z</time></trkpt><trkpt lat="40.7044747" lon="-3.8691434"><ele>989.0</ele><time>2026-05-04T07:50:40.646Z</time></trkpt><trkpt lat="40.704359" lon="-3.8691455"><ele>990.25</ele><time>2026-05-04T07:50:41.646Z</time></trkpt><trkpt lat="40.7042373" lon="-3.8691614"><ele>991.5</ele><time>2026-05-04T07:50:42.646Z</time></trkpt><trkpt lat="40.7041078" lon="-3.8691748"><ele>992.75</ele><time>2026-05-04T07:50:43.646Z</time></trkpt><trkpt lat="40.7039751" lon="-3.8692049"><ele>994.0</ele><time>2026-05-04T07:50:44.646Z</time></trkpt><trkpt lat="40.7038515" lon="-3.8692362"><ele>994.0</ele><time>2026-05-04T07:50:45.646Z</time></trkpt><trkpt lat="40.7037316" lon="-3.8692622"><ele>994.0</ele><time>2026-05-04T07:50:46.646Z</time></trkpt><trkpt lat="40.7036136" lon="-3.8692844"><ele>994.0</ele><time>2026-05-04T07:50:47.647Z</time></trkpt><trkpt lat="40.7034916" lon="-3.8692914"><ele>994.0</ele><time>2026-05-04T07:50:48.646Z</time></trkpt><trkpt lat="40.7033723" lon="-3.8692816"><ele>995.25</ele><time>2026-05-04T07:50:49.646Z</time></trkpt><trkpt lat="40.7032447" lon="-3.8692522"><ele>996.5</ele><time>2026-05-04T07:50:50.646Z</time></trkpt><trkpt lat="40.7031255" lon="-3.869217"><ele>997.75</ele><time>2026-05-04T07:50:51.646Z</time></trkpt><trkpt lat="40.7030004" lon="-3.8691915"><ele>999.0</ele><time>2026-05-04T07:50:52.646Z</time></trkpt><trkpt lat="40.7028727" lon="-3.8691813"><ele>999.0</ele><time>2026-05-04T07:50:53.647Z</time></trkpt><trkpt lat="40.7027491" lon="-3.8691851"><ele>999.0</ele><time>2026-05-04T07:50:54.646Z</time></trkpt><trkpt lat="40.7026147" lon="-3.8692075"><ele>999.0</ele><time>2026-05-04T07:50:55.646Z</time></trkpt><trkpt lat="40.7024851" lon="-3.8692456"><ele>999.0</ele><time>2026-05-04T07:50:56.646Z</time></trkpt><trkpt lat="40.7023536" lon="-3.869295"><ele>1002.0</ele><time>2026-05-04T07:50:57.646Z</time></trkpt><trkpt lat="40.7022167" lon="-3.8693326"><ele>1005.0</ele><time>2026-05-04T07:50:58.646Z</time></trkpt><trkpt lat="40.7020712" lon="-3.8693546"><ele>1008.0</ele><time>2026-05-04T07:50:59.646Z</time></trkpt><trkpt lat="40.7019367" lon="-3.8693805"><ele>1011.0</ele><time>2026-05-04T07:51:00.647Z</time></trkpt><trkpt lat="40.7017987" lon="-3.8694222"><ele>1011.0</ele><time>2026-05-04T07:51:01.647Z</time></trkpt><trkpt lat="40.7016647" lon="-3.8694908"><ele>1011.0</ele><time>2026-05-04T07:51:02.647Z</time></trkpt><trkpt lat="40.701528" lon="-3.8695832"><ele>1011.0</ele><time>2026-05-04T07:51:03.646Z</time></trkpt><trkpt lat="40.7013855" lon="-3.8696722"><ele>1011.0</ele><time>2026-05-04T07:51:04.646Z</time></trkpt><trkpt lat="40.7012401" lon="-3.8697595"><ele>1011.0</ele><time>2026-05-04T07:51:05.646Z</time></trkpt><trkpt lat="40.7010975" lon="-3.8698554"><ele>1011.0</ele><time>2026-05-04T07:51:06.646Z</time></trkpt><trkpt lat="40.7009679" lon="-3.8699528"><ele>1011.25</ele><time>2026-05-04T07:51:07.646Z</time></trkpt><trkpt lat="40.7008482" lon="-3.8700397"><ele>1011.5</ele><time>2026-05-04T07:51:08.646Z</time></trkpt><trkpt lat="40.7007445" lon="-3.8701132"><ele>1011.75</ele><time>2026-05-04T07:51:09.646Z</time></trkpt><trkpt lat="40.700636" lon="-3.8701765"><ele>1012.0</ele><time>2026-05-04T07:51:10.646Z</time></trkpt><trkpt lat="40.7005056" lon="-3.8702329"><ele>1012.0</ele><time>2026-05-04T07:51:11.646Z</time></trkpt><trkpt lat="40.7003622" lon="-3.870302"><ele>1012.0</ele><time>2026-05-04T07:51:12.646Z</time></trkpt><trkpt lat="40.7002192" lon="-3.8703866"><ele>1012.0</ele><time>2026-05-04T07:51:13.646Z</time></trkpt><trkpt lat="40.7000784" lon="-3.8704839"><ele>1010.5</ele><time>2026-05-04T07:51:14.646Z</time></trkpt><trkpt lat="40.6999498" lon="-3.8705899"><ele>1009.0</ele><time>2026-05-04T07:51:15.645Z</time></trkpt><trkpt lat="40.6998263" lon="-3.8706881"><ele>1007.5</ele><time>2026-05-04T07:51:16.645Z</time></trkpt><trkpt lat="40.6996953" lon="-3.8707894"><ele>1006.0</ele><time>2026-05-04T07:51:17.646Z</time></trkpt><trkpt lat="40.6995659" lon="-3.8709024"><ele>1006.25</ele><time>2026-05-04T07:51:18.645Z</time></trkpt><trkpt lat="40.699449" lon="-3.8710256"><ele>1006.5</ele><time>2026-05-04T07:51:19.645Z</time></trkpt><trkpt lat="40.6993322" lon="-3.8711539"><ele>1006.75</ele><time>2026-05-04T07:51:20.645Z</time></trkpt><trkpt lat="40.6992218" lon="-3.8712833"><ele>1007.0</ele><time>2026-05-04T07:51:21.645Z</time></trkpt><trkpt lat="40.6990997" lon="-3.8714036"><ele>1006.5</ele><time>2026-05-04T07:51:22.645Z</time></trkpt><trkpt lat="40.6989817" lon="-3.8715157"><ele>1006.0</ele><time>2026-05-04T07:51:23.645Z</time></trkpt><trkpt lat="40.6988695" lon="-3.8716229"><ele>1005.5</ele><time>2026-05-04T07:51:24.645Z</time></trkpt><trkpt lat="40.6987667" lon="-3.8717156"><ele>1005.0</ele><time>2026-05-04T07:51:25.645Z</time></trkpt><trkpt lat="40.6986639" lon="-3.8717877"><ele>1002.75</ele><time>2026-05-04T07:51:26.645Z</time></trkpt><trkpt lat="40.6985549" lon="-3.8718314"><ele>1000.5</ele><time>2026-05-04T07:51:27.645Z</time></trkpt><trkpt lat="40.6984417" lon="-3.871872"><ele>998.25</ele><time>2026-05-04T07:51:28.646Z</time></trkpt><trkpt lat="40.6983233" lon="-3.8719399"><ele>996.0</ele><time>2026-05-04T07:51:29.645Z</time></trkpt><trkpt lat="40.6982241" lon="-3.8720384"><ele>996.0</ele><time>2026-05-04T07:51:30.645Z</time></trkpt><trkpt lat="40.6981193" lon="-3.872156"><ele>996.0</ele><time>2026-05-04T07:51:31.645Z</time></trkpt><trkpt lat="40.698023" lon="-3.8722737"><ele>996.0</ele><time>2026-05-04T07:51:32.645Z</time></trkpt><trkpt lat="40.6979375" lon="-3.8723906"><ele>996.0</ele><time>2026-05-04T07:51:33.645Z</time></trkpt><trkpt lat="40.6978602" lon="-3.8725116"><ele>996.25</ele><time>2026-05-04T07:51:34.645Z</time></trkpt><trkpt lat="40.6978049" lon="-3.8726419"><ele>996.5</ele><time>2026-05-04T07:51:35.645Z</time></trkpt><trkpt lat="40.6977743" lon="-3.8727859"><ele>996.75</ele><time>2026-05-04T07:51:36.645Z</time></trkpt><trkpt lat="40.6977645" lon="-3.8729574"><ele>997.0</ele><time>2026-05-04T07:51:37.645Z</time></trkpt><trkpt lat="40.6977473" lon="-3.8731387"><ele>995.5</ele><time>2026-05-04T07:51:38.645Z</time></trkpt><trkpt lat="40.697713" lon="-3.8733167"><ele>994.0</ele><time>2026-05-04T07:51:39.645Z</time></trkpt><trkpt lat="40.6976629" lon="-3.8734876"><ele>992.5</ele><time>2026-05-04T07:51:40.645Z</time></trkpt><trkpt lat="40.6975989" lon="-3.873663"><ele>991.0</ele><time>2026-05-04T07:51:41.645Z</time></trkpt><trkpt lat="40.6975244" lon="-3.8738428"><ele>991.0</ele><time>2026-05-04T07:51:42.645Z</time></trkpt><trkpt lat="40.6974507" lon="-3.8740279"><ele>991.0</ele><time>2026-05-04T07:51:43.645Z</time></trkpt><trkpt lat="40.697394" lon="-3.8742089"><ele>991.0</ele><time>2026-05-04T07:51:44.645Z</time></trkpt><trkpt lat="40.697356" lon="-3.8743935"><ele>991.6666666666666</ele><time>2026-05-04T07:51:45.645Z</time></trkpt><trkpt lat="40.6973166" lon="-3.8745865"><ele>992.3333333333333</ele><time>2026-05-04T07:51:46.645Z</time></trkpt><trkpt lat="40.6972817" lon="-3.8747797"><ele>993.0</ele><time>2026-05-04T07:51:47.645Z</time></trkpt><trkpt lat="40.6972503" lon="-3.8749754"><ele>993.75</ele><time>2026-05-04T07:51:48.645Z</time></trkpt><trkpt lat="40.6972172" lon="-3.8751729"><ele>994.5</ele><time>2026-05-04T07:51:49.645Z</time></trkpt><trkpt lat="40.6971838" lon="-3.8753654"><ele>995.25</ele><time>2026-05-04T07:51:50.645Z</time></trkpt><trkpt lat="40.6971586" lon="-3.8755387"><ele>996.0</ele><time>2026-05-04T07:51:51.645Z</time></trkpt><trkpt lat="40.6971356" lon="-3.8757106"><ele>996.0</ele><time>2026-05-04T07:51:52.645Z</time></trkpt><trkpt lat="40.6971151" lon="-3.8758728"><ele>995.9999999999999</ele><time>2026-05-04T07:51:53.645Z</time></trkpt><trkpt lat="40.697096" lon="-3.8760163"><ele>995.9999999999999</ele><time>2026-05-04T07:51:54.645Z</time></trkpt><trkpt lat="40.697091" lon="-3.8761311"><ele>996.0</ele><time>2026-05-04T07:51:55.645Z</time></trkpt><trkpt lat="40.6970827" lon="-3.876226"><ele>996.0</ele><time>2026-05-04T07:51:56.645Z</time></trkpt><trkpt lat="40.6970733" lon="-3.876321"><ele>996.0</ele><time>2026-05-04T07:51:57.645Z</time></trkpt><trkpt lat="40.6970536" lon="-3.8764099"><ele>995.9999999999999</ele><time>2026-05-04T07:51:58.645Z</time></trkpt><trkpt lat="40.697023" lon="-3.8765104"><ele>995.9999999999999</ele><time>2026-05-04T07:51:59.645Z</time></trkpt><trkpt lat="40.6969954" lon="-3.8766348"><ele>996.0</ele><time>2026-05-04T07:52:00.645Z</time></trkpt><trkpt lat="40.6969748" lon="-3.8767613"><ele>996.0</ele><time>2026-05-04T07:52:01.645Z</time></trkpt><trkpt lat="40.6969518" lon="-3.8769009"><ele>995.75</ele><time>2026-05-04T07:52:02.645Z</time></trkpt><trkpt lat="40.6969194" lon="-3.8770486"><ele>995.5</ele><time>2026-05-04T07:52:03.645Z</time></trkpt><trkpt lat="40.6968939" lon="-3.8771983"><ele>995.25</ele><time>2026-05-04T07:52:04.645Z</time></trkpt><trkpt lat="40.6968604" lon="-3.8773535"><ele>995.0</ele><time>2026-05-04T07:52:05.645Z</time></trkpt><trkpt lat="40.6968327" lon="-3.8775231"><ele>994.0</ele><time>2026-05-04T07:52:06.645Z</time></trkpt><trkpt lat="40.6968059" lon="-3.8776837"><ele>993.0</ele><time>2026-05-04T07:52:07.645Z</time></trkpt><trkpt lat="40.696778" lon="-3.8778344"><ele>992.0</ele><time>2026-05-04T07:52:08.646Z</time></trkpt><trkpt lat="40.6967441" lon="-3.8779881"><ele>991.0</ele><time>2026-05-04T07:52:09.645Z</time></trkpt><trkpt lat="40.6967165" lon="-3.878147"><ele>991.0</ele><time>2026-05-04T07:52:10.646Z</time></trkpt><trkpt lat="40.6966874" lon="-3.8783095"><ele>991.0</ele><time>2026-05-04T07:52:11.645Z</time></trkpt><trkpt lat="40.6966583" lon="-3.8784793"><ele>991.0</ele><time>2026-05-04T07:52:12.645Z</time></trkpt><trkpt lat="40.6966332" lon="-3.8786555"><ele>991.0</ele><time>2026-05-04T07:52:13.645Z</time></trkpt><trkpt lat="40.6966051" lon="-3.8788372"><ele>990.75</ele><time>2026-05-04T07:52:14.646Z</time></trkpt><trkpt lat="40.6965827" lon="-3.8790233"><ele>990.5</ele><time>2026-05-04T07:52:15.645Z</time></trkpt><trkpt lat="40.6965634" lon="-3.8792069"><ele>990.25</ele><time>2026-05-04T07:52:16.645Z</time></trkpt><trkpt lat="40.6965553" lon="-3.8793867"><ele>990.0</ele><time>2026-05-04T07:52:17.645Z</time></trkpt><trkpt lat="40.6965646" lon="-3.8795569"><ele>990.0</ele><time>2026-05-04T07:52:18.646Z</time></trkpt><trkpt lat="40.6965685" lon="-3.8797387"><ele>990.0</ele><time>2026-05-04T07:52:19.646Z</time></trkpt><trkpt lat="40.6965652" lon="-3.8799309"><ele>990.0</ele><time>2026-05-04T07:52:20.645Z</time></trkpt><trkpt lat="40.6965397" lon="-3.8801112"><ele>990.0</ele><time>2026-05-04T07:52:21.645Z</time></trkpt><trkpt lat="40.696511" lon="-3.8802874"><ele>990.0</ele><time>2026-05-04T07:52:22.645Z</time></trkpt><trkpt lat="40.696489" lon="-3.8804706"><ele>990.0</ele><time>2026-05-04T07:52:23.645Z</time></trkpt><trkpt lat="40.6964611" lon="-3.8806473"><ele>990.0</ele><time>2026-05-04T07:52:24.645Z</time></trkpt><trkpt lat="40.6964262" lon="-3.8808196"><ele>990.0</ele><time>2026-05-04T07:52:25.645Z</time></trkpt><trkpt lat="40.6963943" lon="-3.8809866"><ele>989.75</ele><time>2026-05-04T07:52:26.645Z</time></trkpt><trkpt lat="40.6963606" lon="-3.8811606"><ele>989.5</ele><time>2026-05-04T07:52:27.645Z</time></trkpt><trkpt lat="40.6963311" lon="-3.8813351"><ele>989.25</ele><time>2026-05-04T07:52:28.645Z</time></trkpt><trkpt lat="40.6962979" lon="-3.8815079"><ele>989.0</ele><time>2026-05-04T07:52:29.645Z</time></trkpt><trkpt lat="40.6962567" lon="-3.8816722"><ele>988.0</ele><time>2026-05-04T07:52:30.645Z</time></trkpt><trkpt lat="40.6962194" lon="-3.8818329"><ele>987.0</ele><time>2026-05-04T07:52:31.646Z</time></trkpt><trkpt lat="40.69619" lon="-3.8819815"><ele>986.0</ele><time>2026-05-04T07:52:32.645Z</time></trkpt><trkpt lat="40.6961584" lon="-3.8821214"><ele>985.0</ele><time>2026-05-04T07:52:33.645Z</time></trkpt><trkpt lat="40.6961179" lon="-3.8822536"><ele>984.1666666666666</ele><time>2026-05-04T07:52:34.645Z</time></trkpt><trkpt lat="40.6960855" lon="-3.8823748"><ele>983.3333333333333</ele><time>2026-05-04T07:52:35.645Z</time></trkpt><trkpt lat="40.6960568" lon="-3.8824951"><ele>982.5</ele><time>2026-05-04T07:52:36.645Z</time></trkpt><trkpt lat="40.6960358" lon="-3.8825996"><ele>981.6666666666667</ele><time>2026-05-04T07:52:37.645Z</time></trkpt><trkpt lat="40.6960153" lon="-3.8826965"><ele>980.8333333333334</ele><time>2026-05-04T07:52:38.645Z</time></trkpt><trkpt lat="40.6959949" lon="-3.8827855"><ele>980.0</ele><time>2026-05-04T07:52:39.645Z</time></trkpt><trkpt lat="40.6959755" lon="-3.8828706"><ele>980.0</ele><time>2026-05-04T07:52:40.645Z</time></trkpt><trkpt lat="40.6959151" lon="-3.8830113"><ele>980.0</ele><time>2026-05-04T07:52:42.645Z</time></trkpt><trkpt lat="40.6958647" lon="-3.8831202"><ele>980.0</ele><time>2026-05-04T07:52:44.645Z</time></trkpt><trkpt lat="40.6958194" lon="-3.8832407"><ele>980.0</ele><time>2026-05-04T07:52:46.645Z</time></trkpt><trkpt lat="40.6958302" lon="-3.8833775"><ele>980.0</ele><time>2026-05-04T07:52:48.646Z</time></trkpt><trkpt lat="40.6958397" lon="-3.8834673"><ele>980.6</ele><time>2026-05-04T07:52:49.646Z</time></trkpt><trkpt lat="40.6958418" lon="-3.8835677"><ele>981.2</ele><time>2026-05-04T07:52:50.645Z</time></trkpt><trkpt lat="40.6958263" lon="-3.8836848"><ele>981.8</ele><time>2026-05-04T07:52:51.646Z</time></trkpt><trkpt lat="40.6957921" lon="-3.8838014"><ele>982.4</ele><time>2026-05-04T07:52:52.645Z</time></trkpt><trkpt lat="40.6957455" lon="-3.8839308"><ele>983.0</ele><time>2026-05-04T07:52:53.645Z</time></trkpt><trkpt lat="40.6956968" lon="-3.8840715"><ele>983.0</ele><time>2026-05-04T07:52:54.646Z</time></trkpt><trkpt lat="40.6956552" lon="-3.8842163"><ele>983.0</ele><time>2026-05-04T07:52:55.645Z</time></trkpt><trkpt lat="40.6956182" lon="-3.884364"><ele>983.0</ele><time>2026-05-04T07:52:56.645Z</time></trkpt><trkpt lat="40.6955826" lon="-3.8845206"><ele>983.0</ele><time>2026-05-04T07:52:57.646Z</time></trkpt><trkpt lat="40.6955322" lon="-3.8846841"><ele>983.25</ele><time>2026-05-04T07:52:58.645Z</time></trkpt><trkpt lat="40.6954722" lon="-3.8848424"><ele>983.5</ele><time>2026-05-04T07:52:59.645Z</time></trkpt><trkpt lat="40.6954267" lon="-3.8849949"><ele>983.75</ele><time>2026-05-04T07:53:00.645Z</time></trkpt><trkpt lat="40.6953905" lon="-3.8851338"><ele>984.0</ele><time>2026-05-04T07:53:01.645Z</time></trkpt><trkpt lat="40.6953335" lon="-3.8852407"><ele>984.3333333333334</ele><time>2026-05-04T07:53:02.645Z</time></trkpt><trkpt lat="40.6952589" lon="-3.885331"><ele>984.6666666666667</ele><time>2026-05-04T07:53:03.646Z</time></trkpt><trkpt lat="40.6951926" lon="-3.8854164"><ele>985.0</ele><time>2026-05-04T07:53:04.645Z</time></trkpt><trkpt lat="40.6951265" lon="-3.8855008"><ele>985.3333333333334</ele><time>2026-05-04T07:53:05.646Z</time></trkpt><trkpt lat="40.6950775" lon="-3.8855799"><ele>985.6666666666667</ele><time>2026-05-04T07:53:06.645Z</time></trkpt><trkpt lat="40.6950524" lon="-3.88566"><ele>986.0</ele><time>2026-05-04T07:53:07.645Z</time></trkpt><trkpt lat="40.6950219" lon="-3.8858303"><ele>985.1999999999999</ele><time>2026-05-04T07:53:09.645Z</time></trkpt><trkpt lat="40.6949871" lon="-3.8859211"><ele>984.3999999999999</ele><time>2026-05-04T07:53:10.645Z</time></trkpt><trkpt lat="40.6949453" lon="-3.8860264"><ele>983.6</ele><time>2026-05-04T07:53:11.645Z</time></trkpt><trkpt lat="40.6949023" lon="-3.8861471"><ele>982.8</ele><time>2026-05-04T07:53:12.645Z</time></trkpt><trkpt lat="40.6948569" lon="-3.8862873"><ele>982.0</ele><time>2026-05-04T07:53:13.645Z</time></trkpt><trkpt lat="40.6948059" lon="-3.8864432"><ele>982.0</ele><time>2026-05-04T07:53:14.646Z</time></trkpt><trkpt lat="40.6947539" lon="-3.8866085"><ele>982.0</ele><time>2026-05-04T07:53:15.646Z</time></trkpt><trkpt lat="40.6946914" lon="-3.886781"><ele>982.0</ele><time>2026-05-04T07:53:16.645Z</time></trkpt><trkpt lat="40.6946338" lon="-3.8869493"><ele>982.0</ele><time>2026-05-04T07:53:17.645Z</time></trkpt><trkpt lat="40.6945766" lon="-3.8871088"><ele>982.0</ele><time>2026-05-04T07:53:18.645Z</time></trkpt><trkpt lat="40.6945182" lon="-3.8872679"><ele>982.0</ele><time>2026-05-04T07:53:19.646Z</time></trkpt><trkpt lat="40.694468" lon="-3.8874155"><ele>982.0</ele><time>2026-05-04T07:53:20.645Z</time></trkpt><trkpt lat="40.6944123" lon="-3.8875621"><ele>982.0</ele><time>2026-05-04T07:53:21.645Z</time></trkpt><trkpt lat="40.6943579" lon="-3.887717"><ele>982.5</ele><time>2026-05-04T07:53:22.645Z</time></trkpt><trkpt lat="40.6943093" lon="-3.8878729"><ele>983.0</ele><time>2026-05-04T07:53:23.645Z</time></trkpt><trkpt lat="40.6942598" lon="-3.8880408"><ele>983.5</ele><time>2026-05-04T07:53:24.645Z</time></trkpt><trkpt lat="40.6942158" lon="-3.888192"><ele>984.0</ele><time>2026-05-04T07:53:25.645Z</time></trkpt><trkpt lat="40.6941691" lon="-3.8883431"><ele>984.0</ele><time>2026-05-04T07:53:26.645Z</time></trkpt><trkpt lat="40.6941208" lon="-3.8884847"><ele>984.0</ele><time>2026-05-04T07:53:27.646Z</time></trkpt><trkpt lat="40.6940687" lon="-3.8886308"><ele>984.0</ele><time>2026-05-04T07:53:28.645Z</time></trkpt><trkpt lat="40.6940177" lon="-3.8887675"><ele>984.0</ele><time>2026-05-04T07:53:29.646Z</time></trkpt><trkpt lat="40.6939777" lon="-3.8889098"><ele>984.0</ele><time>2026-05-04T07:53:30.645Z</time></trkpt><trkpt lat="40.6939508" lon="-3.8890524"><ele>984.0000000000001</ele><time>2026-05-04T07:53:31.645Z</time></trkpt><trkpt lat="40.6939283" lon="-3.8891907"><ele>984.0000000000001</ele><time>2026-05-04T07:53:32.645Z</time></trkpt><trkpt lat="40.6939034" lon="-3.8893313"><ele>984.0</ele><time>2026-05-04T07:53:33.645Z</time></trkpt><trkpt lat="40.6938783" lon="-3.889483"><ele>984.0</ele><time>2026-05-04T07:53:34.645Z</time></trkpt><trkpt lat="40.6938567" lon="-3.8896358"><ele>984.5</ele><time>2026-05-04T07:53:35.645Z</time></trkpt><trkpt lat="40.6938363" lon="-3.8897873"><ele>985.0</ele><time>2026-05-04T07:53:36.645Z</time></trkpt><trkpt lat="40.6938156" lon="-3.8899642"><ele>985.5</ele><time>2026-05-04T07:53:37.645Z</time></trkpt><trkpt lat="40.6937996" lon="-3.8901405"><ele>986.0</ele><time>2026-05-04T07:53:38.645Z</time></trkpt><trkpt lat="40.6937854" lon="-3.8903219"><ele>986.25</ele><time>2026-05-04T07:53:39.645Z</time></trkpt><trkpt lat="40.693766" lon="-3.8904987"><ele>986.5</ele><time>2026-05-04T07:53:40.645Z</time></trkpt><trkpt lat="40.6937502" lon="-3.8906814"><ele>986.75</ele><time>2026-05-04T07:53:41.646Z</time></trkpt><trkpt lat="40.6937441" lon="-3.8908601"><ele>987.0</ele><time>2026-05-04T07:53:42.646Z</time></trkpt><trkpt lat="40.6937418" lon="-3.8910238"><ele>987.0</ele><time>2026-05-04T07:53:43.645Z</time></trkpt><trkpt lat="40.6937441" lon="-3.8911874"><ele>987.0</ele><time>2026-05-04T07:53:44.645Z</time></trkpt><trkpt lat="40.693748" lon="-3.8913432"><ele>987.0</ele><time>2026-05-04T07:53:45.645Z</time></trkpt><trkpt lat="40.6937538" lon="-3.8914978"><ele>987.0</ele><time>2026-05-04T07:53:46.645Z</time></trkpt><trkpt lat="40.6937518" lon="-3.8916548"><ele>986.5</ele><time>2026-05-04T07:53:47.645Z</time></trkpt><trkpt lat="40.6937446" lon="-3.891818"><ele>986.0</ele><time>2026-05-04T07:53:48.645Z</time></trkpt><trkpt lat="40.6937358" lon="-3.8919801"><ele>985.5</ele><time>2026-05-04T07:53:49.645Z</time></trkpt><trkpt lat="40.693726" lon="-3.892145"><ele>985.0</ele><time>2026-05-04T07:53:50.645Z</time></trkpt><trkpt lat="40.6937164" lon="-3.8923064"><ele>985.0</ele><time>2026-05-04T07:53:51.646Z</time></trkpt><trkpt lat="40.6937123" lon="-3.8924635"><ele>985.0</ele><time>2026-05-04T07:53:52.645Z</time></trkpt><trkpt lat="40.6937146" lon="-3.8925967"><ele>985.0</ele><time>2026-05-04T07:53:53.645Z</time></trkpt><trkpt lat="40.693725" lon="-3.8927336"><ele>985.0</ele><time>2026-05-04T07:53:54.645Z</time></trkpt><trkpt lat="40.6937335" lon="-3.8928764"><ele>985.0</ele><time>2026-05-04T07:53:55.645Z</time></trkpt><trkpt lat="40.6937562" lon="-3.8930218"><ele>985.2</ele><time>2026-05-04T07:53:56.645Z</time></trkpt><trkpt lat="40.6937783" lon="-3.8931737"><ele>985.4</ele><time>2026-05-04T07:53:57.645Z</time></trkpt><trkpt lat="40.6937891" lon="-3.8933245"><ele>985.5999999999999</ele><time>2026-05-04T07:53:58.645Z</time></trkpt><trkpt lat="40.693785" lon="-3.8934639"><ele>985.8</ele><time>2026-05-04T07:53:59.645Z</time></trkpt><trkpt lat="40.6937645" lon="-3.8935962"><ele>986.0</ele><time>2026-05-04T07:54:00.646Z</time></trkpt><trkpt lat="40.6937259" lon="-3.8937408"><ele>986.25</ele><time>2026-05-04T07:54:01.646Z</time></trkpt><trkpt lat="40.6936859" lon="-3.8938881"><ele>986.5</ele><time>2026-05-04T07:54:02.646Z</time></trkpt><trkpt lat="40.6936572" lon="-3.8940395"><ele>986.75</ele><time>2026-05-04T07:54:03.646Z</time></trkpt><trkpt lat="40.6936327" lon="-3.8941868"><ele>987.0</ele><time>2026-05-04T07:54:04.646Z</time></trkpt><trkpt lat="40.6936142" lon="-3.894331"><ele>986.6</ele><time>2026-05-04T07:54:05.645Z</time></trkpt><trkpt lat="40.6935994" lon="-3.8944632"><ele>986.2</ele><time>2026-05-04T07:54:06.645Z</time></trkpt><trkpt lat="40.6935846" lon="-3.8946057"><ele>985.8</ele><time>2026-05-04T07:54:07.645Z</time></trkpt><trkpt lat="40.6935737" lon="-3.8947412"><ele>985.4</ele><time>2026-05-04T07:54:08.645Z</time></trkpt><trkpt lat="40.6935656" lon="-3.8948754"><ele>985.0</ele><time>2026-05-04T07:54:09.645Z</time></trkpt><trkpt lat="40.6935597" lon="-3.8950081"><ele>984.8</ele><time>2026-05-04T07:54:10.645Z</time></trkpt><trkpt lat="40.6935698" lon="-3.8951444"><ele>984.6</ele><time>2026-05-04T07:54:11.645Z</time></trkpt><trkpt lat="40.693592" lon="-3.8952824"><ele>984.4000000000001</ele><time>2026-05-04T07:54:12.645Z</time></trkpt><trkpt lat="40.6936325" lon="-3.8954211"><ele>984.2</ele><time>2026-05-04T07:54:13.645Z</time></trkpt><trkpt lat="40.6936884" lon="-3.8955693"><ele>984.0</ele><time>2026-05-04T07:54:14.645Z</time></trkpt><trkpt lat="40.6937288" lon="-3.8957141"><ele>984.0</ele><time>2026-05-04T07:54:15.645Z</time></trkpt><trkpt lat="40.6937565" lon="-3.8958691"><ele>984.0</ele><time>2026-05-04T07:54:16.646Z</time></trkpt><trkpt lat="40.6937672" lon="-3.8960331"><ele>984.0</ele><time>2026-05-04T07:54:17.645Z</time></trkpt><trkpt lat="40.6937763" lon="-3.8962018"><ele>984.0</ele><time>2026-05-04T07:54:18.645Z</time></trkpt><trkpt lat="40.693778" lon="-3.8963816"><ele>983.75</ele><time>2026-05-04T07:54:19.646Z</time></trkpt><trkpt lat="40.6937785" lon="-3.8965711"><ele>983.5</ele><time>2026-05-04T07:54:20.645Z</time></trkpt><trkpt lat="40.6937853" lon="-3.8967597"><ele>983.25</ele><time>2026-05-04T07:54:21.645Z</time></trkpt><trkpt lat="40.6937864" lon="-3.8969402"><ele>983.0</ele><time>2026-05-04T07:54:22.645Z</time></trkpt><trkpt lat="40.693787" lon="-3.8971059"><ele>982.25</ele><time>2026-05-04T07:54:23.645Z</time></trkpt><trkpt lat="40.6937821" lon="-3.8972627"><ele>981.5</ele><time>2026-05-04T07:54:24.645Z</time></trkpt><trkpt lat="40.6937716" lon="-3.8974258"><ele>980.75</ele><time>2026-05-04T07:54:25.645Z</time></trkpt><trkpt lat="40.6937515" lon="-3.8976009"><ele>980.0</ele><time>2026-05-04T07:54:26.645Z</time></trkpt><trkpt lat="40.6937259" lon="-3.8977704"><ele>979.2</ele><time>2026-05-04T07:54:27.645Z</time></trkpt><trkpt lat="40.6936988" lon="-3.8979197"><ele>978.4</ele><time>2026-05-04T07:54:28.645Z</time></trkpt><trkpt lat="40.693693" lon="-3.8980564"><ele>977.5999999999999</ele><time>2026-05-04T07:54:29.645Z</time></trkpt><trkpt lat="40.6936986" lon="-3.8981897"><ele>976.8</ele><time>2026-05-04T07:54:30.645Z</time></trkpt><trkpt lat="40.6936966" lon="-3.8983183"><ele>976.0</ele><time>2026-05-04T07:54:31.645Z</time></trkpt><trkpt lat="40.6936596" lon="-3.8984434"><ele>975.5</ele><time>2026-05-04T07:54:32.645Z</time></trkpt><trkpt lat="40.6936134" lon="-3.8985768"><ele>975.0</ele><time>2026-05-04T07:54:33.645Z</time></trkpt><trkpt lat="40.6935747" lon="-3.8987237"><ele>974.5</ele><time>2026-05-04T07:54:34.645Z</time></trkpt><trkpt lat="40.6935413" lon="-3.8988692"><ele>974.0</ele><time>2026-05-04T07:54:35.645Z</time></trkpt><trkpt lat="40.6935152" lon="-3.8990122"><ele>972.2</ele><time>2026-05-04T07:54:36.645Z</time></trkpt><trkpt lat="40.693493" lon="-3.8991494"><ele>970.4000000000001</ele><time>2026-05-04T07:54:37.645Z</time></trkpt><trkpt lat="40.6934744" lon="-3.8992895"><ele>968.6</ele><time>2026-05-04T07:54:38.646Z</time></trkpt><trkpt lat="40.6934536" lon="-3.899424"><ele>966.8</ele><time>2026-05-04T07:54:39.645Z</time></trkpt><trkpt lat="40.693426" lon="-3.8995526"><ele>965.0</ele><time>2026-05-04T07:54:40.645Z</time></trkpt><trkpt lat="40.6933998" lon="-3.8996752"><ele>964.5</ele><time>2026-05-04T07:54:41.645Z</time></trkpt><trkpt lat="40.69339" lon="-3.8997714"><ele>964.0</ele><time>2026-05-04T07:54:42.645Z</time></trkpt><trkpt lat="40.6934114" lon="-3.8999294"><ele>963.5</ele><time>2026-05-04T07:54:44.646Z</time></trkpt><trkpt lat="40.6933542" lon="-3.9001131"><ele>963.0</ele><time>2026-05-04T07:54:46.645Z</time></trkpt><trkpt lat="40.6933049" lon="-3.9002461"><ele>963.0</ele><time>2026-05-04T07:54:47.645Z</time></trkpt><trkpt lat="40.6932657" lon="-3.9003932"><ele>963.0</ele><time>2026-05-04T07:54:48.645Z</time></trkpt><trkpt lat="40.6932236" lon="-3.9005528"><ele>963.0</ele><time>2026-05-04T07:54:49.645Z</time></trkpt><trkpt lat="40.6931929" lon="-3.9006974"><ele>963.0</ele><time>2026-05-04T07:54:50.645Z</time></trkpt><trkpt lat="40.6931651" lon="-3.9008304"><ele>963.2</ele><time>2026-05-04T07:54:51.645Z</time></trkpt><trkpt lat="40.6931411" lon="-3.9009574"><ele>963.4</ele><time>2026-05-04T07:54:52.645Z</time></trkpt><trkpt lat="40.6931188" lon="-3.901079"><ele>963.6000000000001</ele><time>2026-05-04T07:54:53.645Z</time></trkpt><trkpt lat="40.6930982" lon="-3.9011976"><ele>963.8000000000001</ele><time>2026-05-04T07:54:54.645Z</time></trkpt><trkpt lat="40.6930717" lon="-3.9013239"><ele>964.0</ele><time>2026-05-04T07:54:55.645Z</time></trkpt><trkpt lat="40.6930248" lon="-3.9014578"><ele>964.0</ele><time>2026-05-04T07:54:56.646Z</time></trkpt><trkpt lat="40.6929767" lon="-3.9016107"><ele>964.0</ele><time>2026-05-04T07:54:57.645Z</time></trkpt><trkpt lat="40.6929225" lon="-3.9017713"><ele>964.0</ele><time>2026-05-04T07:54:58.645Z</time></trkpt><trkpt lat="40.6928762" lon="-3.9019402"><ele>964.0</ele><time>2026-05-04T07:54:59.645Z</time></trkpt><trkpt lat="40.6928335" lon="-3.9021174"><ele>963.6666666666666</ele><time>2026-05-04T07:55:00.646Z</time></trkpt><trkpt lat="40.692784" lon="-3.9022963"><ele>963.3333333333333</ele><time>2026-05-04T07:55:01.646Z</time></trkpt><trkpt lat="40.6927295" lon="-3.9024865"><ele>963.0</ele><time>2026-05-04T07:55:02.645Z</time></trkpt><trkpt lat="40.6926726" lon="-3.9026761"><ele>960.75</ele><time>2026-05-04T07:55:03.645Z</time></trkpt><trkpt lat="40.6926183" lon="-3.9028488"><ele>958.5</ele><time>2026-05-04T07:55:04.645Z</time></trkpt><trkpt lat="40.692569" lon="-3.9030137"><ele>956.25</ele><time>2026-05-04T07:55:05.645Z</time></trkpt><trkpt lat="40.6925207" lon="-3.9031831"><ele>954.0</ele><time>2026-05-04T07:55:06.645Z</time></trkpt><trkpt lat="40.6924695" lon="-3.9033567"><ele>954.5</ele><time>2026-05-04T07:55:07.645Z</time></trkpt><trkpt lat="40.6924164" lon="-3.903534"><ele>955.0</ele><time>2026-05-04T07:55:08.645Z</time></trkpt><trkpt lat="40.6923709" lon="-3.9037183"><ele>955.5</ele><time>2026-05-04T07:55:09.645Z</time></trkpt><trkpt lat="40.6923183" lon="-3.9038993"><ele>956.0</ele><time>2026-05-04T07:55:10.645Z</time></trkpt><trkpt lat="40.6922591" lon="-3.9040702"><ele>956.0</ele><time>2026-05-04T07:55:11.645Z</time></trkpt><trkpt lat="40.6922" lon="-3.9042238"><ele>956.0</ele><time>2026-05-04T07:55:12.645Z</time></trkpt><trkpt lat="40.6921418" lon="-3.9043712"><ele>956.0</ele><time>2026-05-04T07:55:13.645Z</time></trkpt><trkpt lat="40.692082" lon="-3.9045219"><ele>956.0</ele><time>2026-05-04T07:55:14.646Z</time></trkpt><trkpt lat="40.6920237" lon="-3.9046699"><ele>955.5</ele><time>2026-05-04T07:55:15.645Z</time></trkpt><trkpt lat="40.6919665" lon="-3.904835"><ele>955.0</ele><time>2026-05-04T07:55:16.645Z</time></trkpt><trkpt lat="40.6919141" lon="-3.9049993"><ele>954.5</ele><time>2026-05-04T07:55:17.645Z</time></trkpt><trkpt lat="40.6918657" lon="-3.9051646"><ele>954.0</ele><time>2026-05-04T07:55:18.645Z</time></trkpt><trkpt lat="40.6918108" lon="-3.9053375"><ele>953.8000000000001</ele><time>2026-05-04T07:55:19.645Z</time></trkpt><trkpt lat="40.6917659" lon="-3.9054995"><ele>953.6000000000001</ele><time>2026-05-04T07:55:20.646Z</time></trkpt><trkpt lat="40.6917217" lon="-3.9056495"><ele>953.4</ele><time>2026-05-04T07:55:21.645Z</time></trkpt><trkpt lat="40.6916827" lon="-3.9057696"><ele>953.2</ele><time>2026-05-04T07:55:22.645Z</time></trkpt><trkpt lat="40.6916463" lon="-3.9058682"><ele>953.0</ele><time>2026-05-04T07:55:23.645Z</time></trkpt><trkpt lat="40.6916126" lon="-3.9059508"><ele>952.6666666666667</ele><time>2026-05-04T07:55:24.645Z</time></trkpt><trkpt lat="40.6915528" lon="-3.9060495"><ele>952.3333333333334</ele><time>2026-05-04T07:55:26.645Z</time></trkpt><trkpt lat="40.6914677" lon="-3.9060811"><ele>952.0</ele><time>2026-05-04T07:55:29.646Z</time></trkpt><trkpt lat="40.6913893" lon="-3.9060923"><ele>951.6666666666667</ele><time>2026-05-04T07:55:32.645Z</time></trkpt><trkpt lat="40.6913467" lon="-3.9061958"><ele>951.3333333333334</ele><time>2026-05-04T07:55:34.645Z</time></trkpt><trkpt lat="40.6913072" lon="-3.9062794"><ele>951.0</ele><time>2026-05-04T07:55:35.646Z</time></trkpt><trkpt lat="40.6912647" lon="-3.9063725"><ele>951.0</ele><time>2026-05-04T07:55:36.645Z</time></trkpt><trkpt lat="40.6912264" lon="-3.9064777"><ele>950.9999999999999</ele><time>2026-05-04T07:55:37.645Z</time></trkpt><trkpt lat="40.6911839" lon="-3.906591"><ele>950.9999999999999</ele><time>2026-05-04T07:55:38.645Z</time></trkpt><trkpt lat="40.6911366" lon="-3.9067128"><ele>951.0</ele><time>2026-05-04T07:55:39.646Z</time></trkpt><trkpt lat="40.691081" lon="-3.9068373"><ele>951.0</ele><time>2026-05-04T07:55:40.645Z</time></trkpt><trkpt lat="40.6910225" lon="-3.9069683"><ele>949.1999999999999</ele><time>2026-05-04T07:55:41.645Z</time></trkpt><trkpt lat="40.6909657" lon="-3.9070918"><ele>947.3999999999999</ele><time>2026-05-04T07:55:42.645Z</time></trkpt><trkpt lat="40.6909185" lon="-3.9072214"><ele>945.6</ele><time>2026-05-04T07:55:43.645Z</time></trkpt><trkpt lat="40.6908749" lon="-3.9073446"><ele>943.8</ele><time>2026-05-04T07:55:44.646Z</time></trkpt><trkpt lat="40.6908287" lon="-3.9074656"><ele>942.0</ele><time>2026-05-04T07:55:45.645Z</time></trkpt><trkpt lat="40.6907832" lon="-3.9075859"><ele>942.0</ele><time>2026-05-04T07:55:46.645Z</time></trkpt><trkpt lat="40.6907348" lon="-3.9076978"><ele>942.0</ele><time>2026-05-04T07:55:47.645Z</time></trkpt><trkpt lat="40.6906919" lon="-3.9077921"><ele>942.0</ele><time>2026-05-04T07:55:48.646Z</time></trkpt><trkpt lat="40.6906549" lon="-3.9079018"><ele>942.0</ele><time>2026-05-04T07:55:49.645Z</time></trkpt><trkpt lat="40.6906166" lon="-3.9080184"><ele>942.0</ele><time>2026-05-04T07:55:50.645Z</time></trkpt><trkpt lat="40.6905642" lon="-3.9081732"><ele>942.0</ele><time>2026-05-04T07:55:51.645Z</time></trkpt><trkpt lat="40.690502" lon="-3.90833"><ele>942.0</ele><time>2026-05-04T07:55:52.645Z</time></trkpt><trkpt lat="40.6904505" lon="-3.9084899"><ele>942.0</ele><time>2026-05-04T07:55:53.646Z</time></trkpt><trkpt lat="40.6903831" lon="-3.9086332"><ele>942.0</ele><time>2026-05-04T07:55:54.645Z</time></trkpt><trkpt lat="40.690318" lon="-3.9087639"><ele>940.5</ele><time>2026-05-04T07:55:55.645Z</time></trkpt><trkpt lat="40.6902413" lon="-3.9089089"><ele>939.0</ele><time>2026-05-04T07:55:56.645Z</time></trkpt><trkpt lat="40.6901678" lon="-3.9090665"><ele>937.5</ele><time>2026-05-04T07:55:57.645Z</time></trkpt><trkpt lat="40.690097" lon="-3.9092316"><ele>936.0</ele><time>2026-05-04T07:55:58.645Z</time></trkpt><trkpt lat="40.6900251" lon="-3.9094113"><ele>935.75</ele><time>2026-05-04T07:55:59.645Z</time></trkpt><trkpt lat="40.6899551" lon="-3.9095875"><ele>935.5</ele><time>2026-05-04T07:56:00.645Z</time></trkpt><trkpt lat="40.689891" lon="-3.9097475"><ele>935.25</ele><time>2026-05-04T07:56:01.645Z</time></trkpt><trkpt lat="40.6898269" lon="-3.9099131"><ele>935.0</ele><time>2026-05-04T07:56:02.645Z</time></trkpt><trkpt lat="40.6897635" lon="-3.9100739"><ele>934.5</ele><time>2026-05-04T07:56:03.645Z</time></trkpt><trkpt lat="40.6897034" lon="-3.9102509"><ele>934.0</ele><time>2026-05-04T07:56:04.645Z</time></trkpt><trkpt lat="40.6896491" lon="-3.9104333"><ele>933.5</ele><time>2026-05-04T07:56:05.646Z</time></trkpt><trkpt lat="40.6895953" lon="-3.910611"><ele>933.0</ele><time>2026-05-04T07:56:06.645Z</time></trkpt><trkpt lat="40.6895486" lon="-3.9107767"><ele>932.8</ele><time>2026-05-04T07:56:07.645Z</time></trkpt><trkpt lat="40.6895089" lon="-3.9109353"><ele>932.5999999999999</ele><time>2026-05-04T07:56:08.645Z</time></trkpt><trkpt lat="40.689478" lon="-3.9110762"><ele>932.4000000000001</ele><time>2026-05-04T07:56:09.645Z</time></trkpt><trkpt lat="40.6894387" lon="-3.9111919"><ele>932.2</ele><time>2026-05-04T07:56:10.646Z</time></trkpt><trkpt lat="40.6893987" lon="-3.911292"><ele>932.0</ele><time>2026-05-04T07:56:11.645Z</time></trkpt><trkpt lat="40.6893452" lon="-3.911361"><ele>932.1666666666667</ele><time>2026-05-04T07:56:12.646Z</time></trkpt><trkpt lat="40.6892864" lon="-3.9114268"><ele>932.3333333333334</ele><time>2026-05-04T07:56:13.645Z</time></trkpt><trkpt lat="40.689241" lon="-3.9115075"><ele>932.5</ele><time>2026-05-04T07:56:14.645Z</time></trkpt><trkpt lat="40.6891995" lon="-3.9115893"><ele>932.6666666666667</ele><time>2026-05-04T07:56:15.645Z</time></trkpt><trkpt lat="40.6891616" lon="-3.9116723"><ele>932.8333333333334</ele><time>2026-05-04T07:56:16.645Z</time></trkpt><trkpt lat="40.6891321" lon="-3.9117703"><ele>933.0</ele><time>2026-05-04T07:56:17.645Z</time></trkpt><trkpt lat="40.6891059" lon="-3.9118705"><ele>933.0</ele><time>2026-05-04T07:56:18.645Z</time></trkpt><trkpt lat="40.6890753" lon="-3.9119786"><ele>933.0</ele><time>2026-05-04T07:56:19.645Z</time></trkpt><trkpt lat="40.689038" lon="-3.9120941"><ele>933.0</ele><time>2026-05-04T07:56:20.644Z</time></trkpt><trkpt lat="40.6890042" lon="-3.9122124"><ele>933.0</ele><time>2026-05-04T07:56:21.644Z</time></trkpt><trkpt lat="40.6889738" lon="-3.9123308"><ele>933.0</ele><time>2026-05-04T07:56:22.644Z</time></trkpt><trkpt lat="40.6889541" lon="-3.912452"><ele>933.5999999999999</ele><time>2026-05-04T07:56:23.644Z</time></trkpt><trkpt lat="40.6889424" lon="-3.9125751"><ele>934.1999999999999</ele><time>2026-05-04T07:56:24.644Z</time></trkpt><trkpt lat="40.6889408" lon="-3.9127113"><ele>934.8</ele><time>2026-05-04T07:56:25.644Z</time></trkpt><trkpt lat="40.6889406" lon="-3.9128521"><ele>935.4</ele><time>2026-05-04T07:56:26.645Z</time></trkpt><trkpt lat="40.6889437" lon="-3.9130018"><ele>936.0</ele><time>2026-05-04T07:56:27.644Z</time></trkpt><trkpt lat="40.6889501" lon="-3.9131537"><ele>936.0</ele><time>2026-05-04T07:56:28.644Z</time></trkpt><trkpt lat="40.6889619" lon="-3.9133025"><ele>935.9999999999999</ele><time>2026-05-04T07:56:29.644Z</time></trkpt><trkpt lat="40.6889731" lon="-3.9134466"><ele>935.9999999999999</ele><time>2026-05-04T07:56:30.644Z</time></trkpt><trkpt lat="40.6889786" lon="-3.9135906"><ele>936.0</ele><time>2026-05-04T07:56:31.644Z</time></trkpt><trkpt lat="40.6889756" lon="-3.9137316"><ele>936.0</ele><time>2026-05-04T07:56:32.644Z</time></trkpt><trkpt lat="40.6889722" lon="-3.9138676"><ele>936.4</ele><time>2026-05-04T07:56:33.644Z</time></trkpt><trkpt lat="40.6889741" lon="-3.9140033"><ele>936.8</ele><time>2026-05-04T07:56:34.644Z</time></trkpt><trkpt lat="40.6889935" lon="-3.9141305"><ele>937.1999999999999</ele><time>2026-05-04T07:56:35.644Z</time></trkpt><trkpt lat="40.6890285" lon="-3.9142472"><ele>937.5999999999999</ele><time>2026-05-04T07:56:36.644Z</time></trkpt><trkpt lat="40.6890565" lon="-3.914379"><ele>938.0</ele><time>2026-05-04T07:56:37.644Z</time></trkpt><trkpt lat="40.6890869" lon="-3.9145265"><ele>938.0</ele><time>2026-05-04T07:56:38.644Z</time></trkpt><trkpt lat="40.6891069" lon="-3.9146746"><ele>938.0</ele><time>2026-05-04T07:56:39.644Z</time></trkpt><trkpt lat="40.6891176" lon="-3.9147978"><ele>938.0</ele><time>2026-05-04T07:56:40.644Z</time></trkpt><trkpt lat="40.68913" lon="-3.9149194"><ele>938.0</ele><time>2026-05-04T07:56:41.644Z</time></trkpt><trkpt lat="40.6891677" lon="-3.9150342"><ele>938.0</ele><time>2026-05-04T07:56:42.644Z</time></trkpt><trkpt lat="40.6892015" lon="-3.915155"><ele>938.5999999999999</ele><time>2026-05-04T07:56:43.644Z</time></trkpt><trkpt lat="40.689226" lon="-3.9152612"><ele>939.1999999999999</ele><time>2026-05-04T07:56:44.644Z</time></trkpt><trkpt lat="40.689249" lon="-3.9153698"><ele>939.8</ele><time>2026-05-04T07:56:45.645Z</time></trkpt><trkpt lat="40.6892769" lon="-3.9154833"><ele>940.4</ele><time>2026-05-04T07:56:46.644Z</time></trkpt><trkpt lat="40.6893036" lon="-3.9156126"><ele>941.0</ele><time>2026-05-04T07:56:47.644Z</time></trkpt><trkpt lat="40.6893167" lon="-3.9157461"><ele>941.0</ele><time>2026-05-04T07:56:48.644Z</time></trkpt><trkpt lat="40.689334" lon="-3.9158894"><ele>940.9999999999999</ele><time>2026-05-04T07:56:49.644Z</time></trkpt><trkpt lat="40.6893268" lon="-3.9160465"><ele>940.9999999999999</ele><time>2026-05-04T07:56:50.644Z</time></trkpt><trkpt lat="40.6892994" lon="-3.9161847"><ele>941.0</ele><time>2026-05-04T07:56:51.644Z</time></trkpt><trkpt lat="40.6892632" lon="-3.9163059"><ele>941.0</ele><time>2026-05-04T07:56:52.644Z</time></trkpt><trkpt lat="40.6892461" lon="-3.9164299"><ele>941.4</ele><time>2026-05-04T07:56:53.645Z</time></trkpt><trkpt lat="40.6892447" lon="-3.9165671"><ele>941.8</ele><time>2026-05-04T07:56:54.644Z</time></trkpt><trkpt lat="40.6892547" lon="-3.9167095"><ele>942.1999999999999</ele><time>2026-05-04T07:56:55.645Z</time></trkpt><trkpt lat="40.6892721" lon="-3.9168499"><ele>942.5999999999999</ele><time>2026-05-04T07:56:56.644Z</time></trkpt><trkpt lat="40.6892931" lon="-3.9169919"><ele>943.0</ele><time>2026-05-04T07:56:57.644Z</time></trkpt><trkpt lat="40.6893099" lon="-3.9171424"><ele>943.25</ele><time>2026-05-04T07:56:58.645Z</time></trkpt><trkpt lat="40.6893203" lon="-3.9173009"><ele>943.5</ele><time>2026-05-04T07:56:59.644Z</time></trkpt><trkpt lat="40.6893272" lon="-3.9174674"><ele>943.75</ele><time>2026-05-04T07:57:00.644Z</time></trkpt><trkpt lat="40.68934" lon="-3.9176344"><ele>944.0</ele><time>2026-05-04T07:57:01.644Z</time></trkpt><trkpt lat="40.6893528" lon="-3.9178071"><ele>944.75</ele><time>2026-05-04T07:57:02.644Z</time></trkpt><trkpt lat="40.6893664" lon="-3.9179855"><ele>945.5</ele><time>2026-05-04T07:57:03.644Z</time></trkpt><trkpt lat="40.689376" lon="-3.9181642"><ele>946.25</ele><time>2026-05-04T07:57:04.645Z</time></trkpt><trkpt lat="40.6893803" lon="-3.9183491"><ele>947.0</ele><time>2026-05-04T07:57:05.645Z</time></trkpt><trkpt lat="40.6893864" lon="-3.9185365"><ele>947.25</ele><time>2026-05-04T07:57:06.644Z</time></trkpt><trkpt lat="40.6893841" lon="-3.9187163"><ele>947.5</ele><time>2026-05-04T07:57:07.644Z</time></trkpt><trkpt lat="40.6893673" lon="-3.9188858"><ele>947.75</ele><time>2026-05-04T07:57:08.645Z</time></trkpt><trkpt lat="40.6893462" lon="-3.9190346"><ele>948.0</ele><time>2026-05-04T07:57:09.644Z</time></trkpt><trkpt lat="40.6893279" lon="-3.919173"><ele>948.5</ele><time>2026-05-04T07:57:10.644Z</time></trkpt><trkpt lat="40.6893186" lon="-3.9192963"><ele>949.0</ele><time>2026-05-04T07:57:11.645Z</time></trkpt><trkpt lat="40.6893136" lon="-3.9194051"><ele>949.5</ele><time>2026-05-04T07:57:12.644Z</time></trkpt><trkpt lat="40.6893044" lon="-3.919501"><ele>950.0</ele><time>2026-05-04T07:57:13.644Z</time></trkpt><trkpt lat="40.6892845" lon="-3.9195937"><ele>950.5</ele><time>2026-05-04T07:57:14.644Z</time></trkpt><trkpt lat="40.6892552" lon="-3.919687"><ele>951.0</ele><time>2026-05-04T07:57:15.644Z</time></trkpt><trkpt lat="40.6892249" lon="-3.9197931"><ele>951.0</ele><time>2026-05-04T07:57:16.644Z</time></trkpt><trkpt lat="40.6892141" lon="-3.9199013"><ele>951.0</ele><time>2026-05-04T07:57:17.644Z</time></trkpt><trkpt lat="40.6892081" lon="-3.9200162"><ele>951.0</ele><time>2026-05-04T07:57:18.644Z</time></trkpt><trkpt lat="40.6892149" lon="-3.9201292"><ele>951.0</ele><time>2026-05-04T07:57:19.644Z</time></trkpt><trkpt lat="40.6892269" lon="-3.9202311"><ele>951.0</ele><time>2026-05-04T07:57:20.644Z</time></trkpt><trkpt lat="40.68926" lon="-3.9203315"><ele>951.0</ele><time>2026-05-04T07:57:21.645Z</time></trkpt><trkpt lat="40.6892926" lon="-3.9204273"><ele>952.4</ele><time>2026-05-04T07:57:22.644Z</time></trkpt><trkpt lat="40.6893144" lon="-3.9205454"><ele>953.8</ele><time>2026-05-04T07:57:23.645Z</time></trkpt><trkpt lat="40.6893166" lon="-3.9206674"><ele>955.1999999999999</ele><time>2026-05-04T07:57:24.644Z</time></trkpt><trkpt lat="40.6893191" lon="-3.9207966"><ele>956.5999999999999</ele><time>2026-05-04T07:57:25.644Z</time></trkpt><trkpt lat="40.6893187" lon="-3.9209364"><ele>958.0</ele><time>2026-05-04T07:57:26.644Z</time></trkpt><trkpt lat="40.6893147" lon="-3.9210833"><ele>958.5999999999999</ele><time>2026-05-04T07:57:27.644Z</time></trkpt><trkpt lat="40.689312" lon="-3.9212249"><ele>959.1999999999999</ele><time>2026-05-04T07:57:28.644Z</time></trkpt><trkpt lat="40.6893167" lon="-3.9213632"><ele>959.8</ele><time>2026-05-04T07:57:29.644Z</time></trkpt><trkpt lat="40.6893223" lon="-3.921485"><ele>960.4</ele><time>2026-05-04T07:57:30.644Z</time></trkpt><trkpt lat="40.68929" lon="-3.9215892"><ele>961.0</ele><time>2026-05-04T07:57:31.644Z</time></trkpt><trkpt lat="40.6892378" lon="-3.9216913"><ele>961.1999999999999</ele><time>2026-05-04T07:57:32.644Z</time></trkpt><trkpt lat="40.6891685" lon="-3.921788"><ele>961.3999999999999</ele><time>2026-05-04T07:57:33.644Z</time></trkpt><trkpt lat="40.6891038" lon="-3.921892"><ele>961.6</ele><time>2026-05-04T07:57:34.644Z</time></trkpt><trkpt lat="40.6890476" lon="-3.9220101"><ele>961.8</ele><time>2026-05-04T07:57:35.645Z</time></trkpt><trkpt lat="40.6889989" lon="-3.9221486"><ele>962.0</ele><time>2026-05-04T07:57:36.644Z</time></trkpt><trkpt lat="40.6889595" lon="-3.9222887"><ele>962.0</ele><time>2026-05-04T07:57:37.644Z</time></trkpt><trkpt lat="40.6889189" lon="-3.9224362"><ele>962.0</ele><time>2026-05-04T07:57:38.644Z</time></trkpt><trkpt lat="40.6888801" lon="-3.9225954"><ele>962.0</ele><time>2026-05-04T07:57:39.644Z</time></trkpt><trkpt lat="40.6888422" lon="-3.9227614"><ele>962.0</ele><time>2026-05-04T07:57:40.644Z</time></trkpt><trkpt lat="40.6887964" lon="-3.9229311"><ele>961.75</ele><time>2026-05-04T07:57:41.644Z</time></trkpt><trkpt lat="40.6887548" lon="-3.9231057"><ele>961.5</ele><time>2026-05-04T07:57:42.644Z</time></trkpt><trkpt lat="40.6887202" lon="-3.9232764"><ele>961.25</ele><time>2026-05-04T07:57:43.644Z</time></trkpt><trkpt lat="40.6886899" lon="-3.9234478"><ele>961.0</ele><time>2026-05-04T07:57:44.645Z</time></trkpt><trkpt lat="40.6886575" lon="-3.9236178"><ele>960.25</ele><time>2026-05-04T07:57:45.644Z</time></trkpt><trkpt lat="40.6886332" lon="-3.9237902"><ele>959.5</ele><time>2026-05-04T07:57:46.644Z</time></trkpt><trkpt lat="40.6886048" lon="-3.9239671"><ele>958.75</ele><time>2026-05-04T07:57:47.645Z</time></trkpt><trkpt lat="40.6885751" lon="-3.9241466"><ele>958.0</ele><time>2026-05-04T07:57:48.645Z</time></trkpt><trkpt lat="40.6885474" lon="-3.9243273"><ele>959.75</ele><time>2026-05-04T07:57:49.644Z</time></trkpt><trkpt lat="40.6885273" lon="-3.9245107"><ele>961.5</ele><time>2026-05-04T07:57:50.644Z</time></trkpt><trkpt lat="40.6885076" lon="-3.9246943"><ele>963.25</ele><time>2026-05-04T07:57:51.644Z</time></trkpt><trkpt lat="40.6884857" lon="-3.9248789"><ele>965.0</ele><time>2026-05-04T07:57:52.644Z</time></trkpt><trkpt lat="40.688464" lon="-3.925054"><ele>965.25</ele><time>2026-05-04T07:57:53.644Z</time></trkpt><trkpt lat="40.6884319" lon="-3.9252334"><ele>965.5</ele><time>2026-05-04T07:57:54.644Z</time></trkpt><trkpt lat="40.6883968" lon="-3.9254034"><ele>965.75</ele><time>2026-05-04T07:57:55.645Z</time></trkpt><trkpt lat="40.6883502" lon="-3.9255486"><ele>966.0</ele><time>2026-05-04T07:57:56.644Z</time></trkpt><trkpt lat="40.688304" lon="-3.9256834"><ele>966.0</ele><time>2026-05-04T07:57:57.644Z</time></trkpt><trkpt lat="40.6882686" lon="-3.9258004"><ele>966.0</ele><time>2026-05-04T07:57:58.644Z</time></trkpt><trkpt lat="40.6882519" lon="-3.9259082"><ele>966.0</ele><time>2026-05-04T07:57:59.644Z</time></trkpt><trkpt lat="40.6882665" lon="-3.9259967"><ele>966.0</ele><time>2026-05-04T07:58:00.644Z</time></trkpt><trkpt lat="40.6883144" lon="-3.9260917"><ele>966.0</ele><time>2026-05-04T07:58:01.644Z</time></trkpt><trkpt lat="40.6883683" lon="-3.9261858"><ele>966.0</ele><time>2026-05-04T07:58:02.645Z</time></trkpt><trkpt lat="40.6884142" lon="-3.9262856"><ele>966.8333333333334</ele><time>2026-05-04T07:58:03.644Z</time></trkpt><trkpt lat="40.6884366" lon="-3.926388"><ele>967.6666666666667</ele><time>2026-05-04T07:58:04.644Z</time></trkpt><trkpt lat="40.688446" lon="-3.9264952"><ele>968.5</ele><time>2026-05-04T07:58:05.644Z</time></trkpt><trkpt lat="40.6884581" lon="-3.9266052"><ele>969.3333333333334</ele><time>2026-05-04T07:58:06.644Z</time></trkpt><trkpt lat="40.6884745" lon="-3.9267309"><ele>970.1666666666667</ele><time>2026-05-04T07:58:07.644Z</time></trkpt><trkpt lat="40.6884835" lon="-3.9268678"><ele>971.0</ele><time>2026-05-04T07:58:08.644Z</time></trkpt><trkpt lat="40.6884897" lon="-3.9270126"><ele>971.0</ele><time>2026-05-04T07:58:09.644Z</time></trkpt><trkpt lat="40.6884807" lon="-3.927154"><ele>971.0</ele><time>2026-05-04T07:58:10.644Z</time></trkpt><trkpt lat="40.6884425" lon="-3.9273006"><ele>971.0</ele><time>2026-05-04T07:58:11.644Z</time></trkpt><trkpt lat="40.6883902" lon="-3.9274613"><ele>971.0</ele><time>2026-05-04T07:58:12.644Z</time></trkpt><trkpt lat="40.6883386" lon="-3.9276162"><ele>970.75</ele><time>2026-05-04T07:58:13.644Z</time></trkpt><trkpt lat="40.6882954" lon="-3.9277598"><ele>970.5</ele><time>2026-05-04T07:58:14.644Z</time></trkpt><trkpt lat="40.6882527" lon="-3.9279128"><ele>970.25</ele><time>2026-05-04T07:58:15.644Z</time></trkpt><trkpt lat="40.6882099" lon="-3.9280747"><ele>970.0</ele><time>2026-05-04T07:58:16.644Z</time></trkpt><trkpt lat="40.6881635" lon="-3.9282443"><ele>969.5</ele><time>2026-05-04T07:58:17.644Z</time></trkpt><trkpt lat="40.6881124" lon="-3.9284119"><ele>969.0</ele><time>2026-05-04T07:58:18.644Z</time></trkpt><trkpt lat="40.6880578" lon="-3.9285842"><ele>968.5</ele><time>2026-05-04T07:58:19.644Z</time></trkpt><trkpt lat="40.688005" lon="-3.9287603"><ele>968.0</ele><time>2026-05-04T07:58:20.645Z</time></trkpt><trkpt lat="40.6879569" lon="-3.9289289"><ele>968.0</ele><time>2026-05-04T07:58:21.644Z</time></trkpt><trkpt lat="40.6879153" lon="-3.9290967"><ele>968.0</ele><time>2026-05-04T07:58:22.644Z</time></trkpt><trkpt lat="40.6878766" lon="-3.9292674"><ele>968.0</ele><time>2026-05-04T07:58:23.644Z</time></trkpt><trkpt lat="40.6878408" lon="-3.9294452"><ele>968.0</ele><time>2026-05-04T07:58:24.645Z</time></trkpt><trkpt lat="40.6878043" lon="-3.9296081"><ele>967.75</ele><time>2026-05-04T07:58:25.644Z</time></trkpt><trkpt lat="40.6877699" lon="-3.9297782"><ele>967.5</ele><time>2026-05-04T07:58:26.645Z</time></trkpt><trkpt lat="40.6877357" lon="-3.9299493"><ele>967.25</ele><time>2026-05-04T07:58:27.644Z</time></trkpt><trkpt lat="40.6876999" lon="-3.9301186"><ele>967.0</ele><time>2026-05-04T07:58:28.644Z</time></trkpt><trkpt lat="40.6876655" lon="-3.9302767"><ele>966.5</ele><time>2026-05-04T07:58:29.644Z</time></trkpt><trkpt lat="40.687628" lon="-3.9304363"><ele>966.0</ele><time>2026-05-04T07:58:30.644Z</time></trkpt><trkpt lat="40.6875937" lon="-3.9305913"><ele>965.5</ele><time>2026-05-04T07:58:31.645Z</time></trkpt><trkpt lat="40.6875643" lon="-3.93074"><ele>965.0</ele><time>2026-05-04T07:58:32.644Z</time></trkpt><trkpt lat="40.6875343" lon="-3.9309025"><ele>964.0</ele><time>2026-05-04T07:58:33.645Z</time></trkpt><trkpt lat="40.6875058" lon="-3.9310748"><ele>963.0</ele><time>2026-05-04T07:58:34.644Z</time></trkpt><trkpt lat="40.6874785" lon="-3.9312459"><ele>962.0</ele><time>2026-05-04T07:58:35.644Z</time></trkpt><trkpt lat="40.6874525" lon="-3.9314169"><ele>961.0</ele><time>2026-05-04T07:58:36.644Z</time></trkpt><trkpt lat="40.6874232" lon="-3.9315915"><ele>960.0</ele><time>2026-05-04T07:58:37.644Z</time></trkpt><trkpt lat="40.6873961" lon="-3.9317709"><ele>959.0</ele><time>2026-05-04T07:58:38.644Z</time></trkpt><trkpt lat="40.6873713" lon="-3.9319424"><ele>958.0</ele><time>2026-05-04T07:58:39.644Z</time></trkpt><trkpt lat="40.6873433" lon="-3.9321082"><ele>957.0</ele><time>2026-05-04T07:58:40.644Z</time></trkpt><trkpt lat="40.6873133" lon="-3.9322712"><ele>957.0</ele><time>2026-05-04T07:58:41.644Z</time></trkpt><trkpt lat="40.6872799" lon="-3.9324358"><ele>957.0</ele><time>2026-05-04T07:58:42.645Z</time></trkpt><trkpt lat="40.6872543" lon="-3.9326138"><ele>957.0</ele><time>2026-05-04T07:58:43.645Z</time></trkpt><trkpt lat="40.6872333" lon="-3.9327946"><ele>957.0</ele><time>2026-05-04T07:58:44.644Z</time></trkpt><trkpt lat="40.6872175" lon="-3.9329639"><ele>956.5</ele><time>2026-05-04T07:58:45.644Z</time></trkpt><trkpt lat="40.6871972" lon="-3.9331311"><ele>956.0</ele><time>2026-05-04T07:58:46.644Z</time></trkpt><trkpt lat="40.6871682" lon="-3.9332987"><ele>955.5</ele><time>2026-05-04T07:58:47.644Z</time></trkpt><trkpt lat="40.6871429" lon="-3.933475"><ele>955.0</ele><time>2026-05-04T07:58:48.644Z</time></trkpt><trkpt lat="40.6871153" lon="-3.9336476"><ele>954.5</ele><time>2026-05-04T07:58:49.644Z</time></trkpt><trkpt lat="40.6870819" lon="-3.933823"><ele>954.0</ele><time>2026-05-04T07:58:50.644Z</time></trkpt><trkpt lat="40.6870517" lon="-3.9339908"><ele>953.5</ele><time>2026-05-04T07:58:51.644Z</time></trkpt><trkpt lat="40.6870159" lon="-3.9341616"><ele>953.0</ele><time>2026-05-04T07:58:52.644Z</time></trkpt><trkpt lat="40.6869802" lon="-3.9343291"><ele>953.5</ele><time>2026-05-04T07:58:53.644Z</time></trkpt><trkpt lat="40.6869397" lon="-3.934498"><ele>954.0</ele><time>2026-05-04T07:58:54.644Z</time></trkpt><trkpt lat="40.6868937" lon="-3.9346656"><ele>954.5</ele><time>2026-05-04T07:58:55.644Z</time></trkpt><trkpt lat="40.6868469" lon="-3.9348365"><ele>955.0</ele><time>2026-05-04T07:58:56.644Z</time></trkpt><trkpt lat="40.6868001" lon="-3.9350068"><ele>954.75</ele><time>2026-05-04T07:58:57.644Z</time></trkpt><trkpt lat="40.6867538" lon="-3.9351762"><ele>954.5</ele><time>2026-05-04T07:58:58.644Z</time></trkpt><trkpt lat="40.686707" lon="-3.9353454"><ele>954.25</ele><time>2026-05-04T07:58:59.644Z</time></trkpt><trkpt lat="40.6866574" lon="-3.935516"><ele>954.0</ele><time>2026-05-04T07:59:00.644Z</time></trkpt><trkpt lat="40.6866109" lon="-3.9356741"><ele>954.0</ele><time>2026-05-04T07:59:01.644Z</time></trkpt><trkpt lat="40.6865707" lon="-3.9358228"><ele>954.0000000000001</ele><time>2026-05-04T07:59:02.644Z</time></trkpt><trkpt lat="40.6865407" lon="-3.9359494"><ele>954.0000000000001</ele><time>2026-05-04T07:59:03.644Z</time></trkpt><trkpt lat="40.6865079" lon="-3.9360654"><ele>954.0</ele><time>2026-05-04T07:59:04.644Z</time></trkpt><trkpt lat="40.6864784" lon="-3.9361787"><ele>954.0</ele><time>2026-05-04T07:59:05.645Z</time></trkpt><trkpt lat="40.6864507" lon="-3.9362844"><ele>953.8333333333334</ele><time>2026-05-04T07:59:06.644Z</time></trkpt><trkpt lat="40.6864249" lon="-3.9363903"><ele>953.6666666666667</ele><time>2026-05-04T07:59:07.645Z</time></trkpt><trkpt lat="40.6863985" lon="-3.9364976"><ele>953.5</ele><time>2026-05-04T07:59:08.644Z</time></trkpt><trkpt lat="40.6863704" lon="-3.936608"><ele>953.3333333333334</ele><time>2026-05-04T07:59:09.644Z</time></trkpt><trkpt lat="40.6863436" lon="-3.9367243"><ele>953.1666666666667</ele><time>2026-05-04T07:59:10.644Z</time></trkpt><trkpt lat="40.6863204" lon="-3.936837"><ele>953.0</ele><time>2026-05-04T07:59:11.644Z</time></trkpt><trkpt lat="40.6862977" lon="-3.9369517"><ele>952.5999999999999</ele><time>2026-05-04T07:59:12.644Z</time></trkpt><trkpt lat="40.6862704" lon="-3.9370768"><ele>952.1999999999999</ele><time>2026-05-04T07:59:13.644Z</time></trkpt><trkpt lat="40.6862459" lon="-3.937208"><ele>951.8</ele><time>2026-05-04T07:59:14.644Z</time></trkpt><trkpt lat="40.6862236" lon="-3.9373443"><ele>951.4</ele><time>2026-05-04T07:59:15.644Z</time></trkpt><trkpt lat="40.6862011" lon="-3.9374779"><ele>951.0</ele><time>2026-05-04T07:59:16.644Z</time></trkpt><trkpt lat="40.6861766" lon="-3.9376042"><ele>951.0</ele><time>2026-05-04T07:59:17.644Z</time></trkpt><trkpt lat="40.6861584" lon="-3.9377275"><ele>950.9999999999999</ele><time>2026-05-04T07:59:18.644Z</time></trkpt><trkpt lat="40.6861369" lon="-3.9378548"><ele>950.9999999999999</ele><time>2026-05-04T07:59:19.644Z</time></trkpt><trkpt lat="40.6861105" lon="-3.9379804"><ele>951.0</ele><time>2026-05-04T07:59:20.644Z</time></trkpt><trkpt lat="40.6860849" lon="-3.9381028"><ele>951.0</ele><time>2026-05-04T07:59:21.644Z</time></trkpt><trkpt lat="40.6860587" lon="-3.938221"><ele>951.3333333333334</ele><time>2026-05-04T07:59:22.644Z</time></trkpt><trkpt lat="40.6860378" lon="-3.9383457"><ele>951.6666666666667</ele><time>2026-05-04T07:59:23.644Z</time></trkpt><trkpt lat="40.6860152" lon="-3.9384635"><ele>952.0</ele><time>2026-05-04T07:59:24.645Z</time></trkpt><trkpt lat="40.6859951" lon="-3.9385713"><ele>952.3333333333334</ele><time>2026-05-04T07:59:25.644Z</time></trkpt><trkpt lat="40.6859775" lon="-3.9386745"><ele>952.6666666666667</ele><time>2026-05-04T07:59:26.644Z</time></trkpt><trkpt lat="40.6859572" lon="-3.9387823"><ele>953.0</ele><time>2026-05-04T07:59:27.644Z</time></trkpt><trkpt lat="40.6859395" lon="-3.9388891"><ele>953.0</ele><time>2026-05-04T07:59:28.644Z</time></trkpt><trkpt lat="40.6859146" lon="-3.9390012"><ele>953.0</ele><time>2026-05-04T07:59:29.644Z</time></trkpt><trkpt lat="40.6858911" lon="-3.939118"><ele>953.0</ele><time>2026-05-04T07:59:30.644Z</time></trkpt><trkpt lat="40.6858608" lon="-3.9392454"><ele>953.0</ele><time>2026-05-04T07:59:31.644Z</time></trkpt><trkpt lat="40.6858373" lon="-3.9393727"><ele>953.0</ele><time>2026-05-04T07:59:32.644Z</time></trkpt><trkpt lat="40.6858113" lon="-3.9395051"><ele>953.0</ele><time>2026-05-04T07:59:33.645Z</time></trkpt><trkpt lat="40.6857876" lon="-3.9396378"><ele>953.0</ele><time>2026-05-04T07:59:34.644Z</time></trkpt><trkpt lat="40.6857639" lon="-3.9397727"><ele>953.0</ele><time>2026-05-04T07:59:35.644Z</time></trkpt><trkpt lat="40.68574" lon="-3.9399096"><ele>953.0</ele><time>2026-05-04T07:59:36.644Z</time></trkpt><trkpt lat="40.6857111" lon="-3.940046"><ele>953.0</ele><time>2026-05-04T07:59:37.644Z</time></trkpt><trkpt lat="40.6856884" lon="-3.9401666"><ele>953.3333333333334</ele><time>2026-05-04T07:59:38.645Z</time></trkpt><trkpt lat="40.6856604" lon="-3.9402619"><ele>953.6666666666667</ele><time>2026-05-04T07:59:39.644Z</time></trkpt><trkpt lat="40.6855992" lon="-3.9403805"><ele>954.0</ele><time>2026-05-04T07:59:41.644Z</time></trkpt><trkpt lat="40.6855378" lon="-3.9404275"><ele>954.3333333333333</ele><time>2026-05-04T07:59:42.644Z</time></trkpt><trkpt lat="40.6854718" lon="-3.9404857"><ele>954.6666666666666</ele><time>2026-05-04T07:59:43.644Z</time></trkpt><trkpt lat="40.6854096" lon="-3.9405635"><ele>955.0</ele><time>2026-05-04T07:59:45.644Z</time></trkpt><trkpt lat="40.6853557" lon="-3.940694"><ele>954.9999999999999</ele><time>2026-05-04T07:59:47.645Z</time></trkpt><trkpt lat="40.685346" lon="-3.9407768"><ele>955.0</ele><time>2026-05-04T07:59:48.645Z</time></trkpt><trkpt lat="40.6853323" lon="-3.940875"><ele>955.0</ele><time>2026-05-04T07:59:49.644Z</time></trkpt><trkpt lat="40.6853202" lon="-3.9409622"><ele>955.0</ele><time>2026-05-04T07:59:50.644Z</time></trkpt><trkpt lat="40.6853109" lon="-3.9410484"><ele>954.9999999999999</ele><time>2026-05-04T07:59:51.644Z</time></trkpt><trkpt lat="40.6852946" lon="-3.9411468"><ele>955.0</ele><time>2026-05-04T07:59:52.644Z</time></trkpt><trkpt lat="40.6852875" lon="-3.9413036"><ele>955.2</ele><time>2026-05-04T07:59:54.644Z</time></trkpt><trkpt lat="40.685274" lon="-3.9414247"><ele>955.4</ele><time>2026-05-04T07:59:56.644Z</time></trkpt><trkpt lat="40.6852616" lon="-3.9415253"><ele>955.5999999999999</ele><time>2026-05-04T07:59:58.644Z</time></trkpt><trkpt lat="40.6852272" lon="-3.9416236"><ele>955.8</ele><time>2026-05-04T08:00:00.644Z</time></trkpt><trkpt lat="40.6852118" lon="-3.9417594"><ele>956.0</ele><time>2026-05-04T08:00:02.644Z</time></trkpt><trkpt lat="40.685243" lon="-3.9418911"><ele>956.8333333333334</ele><time>2026-05-04T08:00:04.644Z</time></trkpt><trkpt lat="40.6852768" lon="-3.9420188"><ele>957.6666666666667</ele><time>2026-05-04T08:00:06.644Z</time></trkpt><trkpt lat="40.6852811" lon="-3.9421078"><ele>958.5</ele><time>2026-05-04T08:00:07.644Z</time></trkpt><trkpt lat="40.6852814" lon="-3.9421925"><ele>959.3333333333333</ele><time>2026-05-04T08:00:08.644Z</time></trkpt><trkpt lat="40.6852731" lon="-3.9422862"><ele>960.1666666666666</ele><time>2026-05-04T08:00:09.644Z</time></trkpt><trkpt lat="40.6852563" lon="-3.9423868"><ele>961.0</ele><time>2026-05-04T08:00:10.644Z</time></trkpt><trkpt lat="40.6852275" lon="-3.9424989"><ele>962.0</ele><time>2026-05-04T08:00:11.644Z</time></trkpt><trkpt lat="40.6851829" lon="-3.942623"><ele>962.9999999999999</ele><time>2026-05-04T08:00:12.644Z</time></trkpt><trkpt lat="40.6851359" lon="-3.9427623"><ele>963.9999999999999</ele><time>2026-05-04T08:00:13.644Z</time></trkpt><trkpt lat="40.6850847" lon="-3.9428989"><ele>965.0</ele><time>2026-05-04T08:00:14.644Z</time></trkpt><trkpt lat="40.685031" lon="-3.9430301"><ele>966.0</ele><time>2026-05-04T08:00:15.644Z</time></trkpt><trkpt lat="40.6849657" lon="-3.9431705"><ele>966.0</ele><time>2026-05-04T08:00:16.645Z</time></trkpt><trkpt lat="40.6849043" lon="-3.9433169"><ele>966.0</ele><time>2026-05-04T08:00:17.644Z</time></trkpt><trkpt lat="40.6848385" lon="-3.9434663"><ele>966.0</ele><time>2026-05-04T08:00:18.644Z</time></trkpt><trkpt lat="40.6847745" lon="-3.9436305"><ele>966.0</ele><time>2026-05-04T08:00:19.644Z</time></trkpt><trkpt lat="40.6847215" lon="-3.9437939"><ele>966.75</ele><time>2026-05-04T08:00:20.644Z</time></trkpt><trkpt lat="40.6846674" lon="-3.9439512"><ele>967.5</ele><time>2026-05-04T08:00:21.645Z</time></trkpt><trkpt lat="40.6846111" lon="-3.944103"><ele>968.25</ele><time>2026-05-04T08:00:22.644Z</time></trkpt><trkpt lat="40.6845636" lon="-3.9442544"><ele>969.0</ele><time>2026-05-04T08:00:23.644Z</time></trkpt><trkpt lat="40.6845143" lon="-3.9444041"><ele>969.5</ele><time>2026-05-04T08:00:24.644Z</time></trkpt><trkpt lat="40.6844623" lon="-3.9445629"><ele>970.0</ele><time>2026-05-04T08:00:25.644Z</time></trkpt><trkpt lat="40.6844154" lon="-3.9447255"><ele>970.5</ele><time>2026-05-04T08:00:26.644Z</time></trkpt><trkpt lat="40.6843772" lon="-3.9448861"><ele>971.0</ele><time>2026-05-04T08:00:27.644Z</time></trkpt><trkpt lat="40.6843479" lon="-3.94505"><ele>971.0</ele><time>2026-05-04T08:00:28.644Z</time></trkpt><trkpt lat="40.6843137" lon="-3.945215"><ele>971.0</ele><time>2026-05-04T08:00:29.644Z</time></trkpt><trkpt lat="40.684286" lon="-3.9453931"><ele>971.0</ele><time>2026-05-04T08:00:30.644Z</time></trkpt><trkpt lat="40.6842494" lon="-3.9455788"><ele>971.0</ele><time>2026-05-04T08:00:31.644Z</time></trkpt><trkpt lat="40.6842028" lon="-3.9457738"><ele>971.6666666666667</ele><time>2026-05-04T08:00:32.644Z</time></trkpt><trkpt lat="40.6841343" lon="-3.9459675"><ele>972.3333333333333</ele><time>2026-05-04T08:00:33.644Z</time></trkpt><trkpt lat="40.6840534" lon="-3.9461801"><ele>973.0</ele><time>2026-05-04T08:00:34.644Z</time></trkpt><trkpt lat="40.6839605" lon="-3.946391"><ele>973.0</ele><time>2026-05-04T08:00:35.644Z</time></trkpt><trkpt lat="40.6838694" lon="-3.9465925"><ele>973.0</ele><time>2026-05-04T08:00:36.644Z</time></trkpt><trkpt lat="40.6837892" lon="-3.9467901"><ele>973.0</ele><time>2026-05-04T08:00:37.644Z</time></trkpt><trkpt lat="40.6837071" lon="-3.9469884"><ele>973.6666666666666</ele><time>2026-05-04T08:00:38.645Z</time></trkpt><trkpt lat="40.6836249" lon="-3.9471747"><ele>974.3333333333333</ele><time>2026-05-04T08:00:39.645Z</time></trkpt><trkpt lat="40.6835391" lon="-3.9473593"><ele>975.0</ele><time>2026-05-04T08:00:40.644Z</time></trkpt><trkpt lat="40.6834559" lon="-3.947541"><ele>974.6666666666667</ele><time>2026-05-04T08:00:41.644Z</time></trkpt><trkpt lat="40.6833741" lon="-3.947716"><ele>974.3333333333334</ele><time>2026-05-04T08:00:42.644Z</time></trkpt><trkpt lat="40.6832927" lon="-3.9478854"><ele>974.0</ele><time>2026-05-04T08:00:43.644Z</time></trkpt><trkpt lat="40.6832128" lon="-3.9480588"><ele>974.0</ele><time>2026-05-04T08:00:44.644Z</time></trkpt><trkpt lat="40.6831353" lon="-3.9482286"><ele>974.0</ele><time>2026-05-04T08:00:45.644Z</time></trkpt><trkpt lat="40.683062" lon="-3.9483979"><ele>974.0</ele><time>2026-05-04T08:00:46.644Z</time></trkpt><trkpt lat="40.6830054" lon="-3.9485692"><ele>974.0</ele><time>2026-05-04T08:00:47.644Z</time></trkpt><trkpt lat="40.6829495" lon="-3.9487209"><ele>974.5</ele><time>2026-05-04T08:00:48.644Z</time></trkpt><trkpt lat="40.6828849" lon="-3.9488496"><ele>975.0</ele><time>2026-05-04T08:00:49.645Z</time></trkpt><trkpt lat="40.6828022" lon="-3.9489678"><ele>975.5</ele><time>2026-05-04T08:00:50.644Z</time></trkpt><trkpt lat="40.6827184" lon="-3.9490776"><ele>976.0</ele><time>2026-05-04T08:00:51.644Z</time></trkpt><trkpt lat="40.6826398" lon="-3.9491805"><ele>976.4</ele><time>2026-05-04T08:00:52.644Z</time></trkpt><trkpt lat="40.6825714" lon="-3.9492905"><ele>976.8</ele><time>2026-05-04T08:00:53.644Z</time></trkpt><trkpt lat="40.6825212" lon="-3.9493995"><ele>977.1999999999999</ele><time>2026-05-04T08:00:54.644Z</time></trkpt><trkpt lat="40.6824866" lon="-3.9494954"><ele>977.5999999999999</ele><time>2026-05-04T08:00:55.644Z</time></trkpt><trkpt lat="40.6824706" lon="-3.949579"><ele>978.0</ele><time>2026-05-04T08:00:56.644Z</time></trkpt><trkpt lat="40.682444" lon="-3.9497119"><ele>978.0</ele><time>2026-05-04T08:00:58.644Z</time></trkpt><trkpt lat="40.6824177" lon="-3.9498307"><ele>978.0</ele><time>2026-05-04T08:01:00.644Z</time></trkpt><trkpt lat="40.6823887" lon="-3.9499276"><ele>978.0</ele><time>2026-05-04T08:01:02.644Z</time></trkpt><trkpt lat="40.6823605" lon="-3.9500275"><ele>978.0</ele><time>2026-05-04T08:01:04.644Z</time></trkpt><trkpt lat="40.6823381" lon="-3.9501257"><ele>978.0</ele><time>2026-05-04T08:01:06.644Z</time></trkpt><trkpt lat="40.6823348" lon="-3.9502549"><ele>978.0</ele><time>2026-05-04T08:01:08.644Z</time></trkpt><trkpt lat="40.6823679" lon="-3.9504226"><ele>977.8</ele><time>2026-05-04T08:01:10.644Z</time></trkpt><trkpt lat="40.6823545" lon="-3.9505293"><ele>977.5999999999999</ele><time>2026-05-04T08:01:11.644Z</time></trkpt><trkpt lat="40.6823261" lon="-3.9506458"><ele>977.4000000000001</ele><time>2026-05-04T08:01:12.645Z</time></trkpt><trkpt lat="40.682287" lon="-3.9507681"><ele>977.2</ele><time>2026-05-04T08:01:13.644Z</time></trkpt><trkpt lat="40.6822468" lon="-3.9508815"><ele>977.0</ele><time>2026-05-04T08:01:14.645Z</time></trkpt><trkpt lat="40.6822194" lon="-3.9509835"><ele>977.2</ele><time>2026-05-04T08:01:15.644Z</time></trkpt><trkpt lat="40.682199" lon="-3.951068"><ele>977.4000000000001</ele><time>2026-05-04T08:01:16.645Z</time></trkpt><trkpt lat="40.6821644" lon="-3.9511879"><ele>977.5999999999999</ele><time>2026-05-04T08:01:18.644Z</time></trkpt><trkpt lat="40.6820993" lon="-3.9512838"><ele>977.8</ele><time>2026-05-04T08:01:20.644Z</time></trkpt><trkpt lat="40.6820032" lon="-3.9512891"><ele>978.0</ele><time>2026-05-04T08:01:22.644Z</time></trkpt><trkpt lat="40.6818964" lon="-3.951247"><ele>978.0</ele><time>2026-05-04T08:01:24.644Z</time></trkpt><trkpt lat="40.681829" lon="-3.951259"><ele>978.0</ele><time>2026-05-04T08:01:26.644Z</time></trkpt><trkpt lat="40.6817822" lon="-3.9513499"><ele>978.0</ele><time>2026-05-04T08:01:28.644Z</time></trkpt><trkpt lat="40.6817463" lon="-3.9514632"><ele>978.0</ele><time>2026-05-04T08:01:30.644Z</time></trkpt><trkpt lat="40.6817206" lon="-3.9515675"><ele>978.0</ele><time>2026-05-04T08:01:32.644Z</time></trkpt><trkpt lat="40.6816884" lon="-3.9516934"><ele>978.0</ele><time>2026-05-04T08:01:34.644Z</time></trkpt><trkpt lat="40.6816695" lon="-3.9517807"><ele>977.8</ele><time>2026-05-04T08:01:35.644Z</time></trkpt><trkpt lat="40.681645" lon="-3.9518663"><ele>977.5999999999999</ele><time>2026-05-04T08:01:36.644Z</time></trkpt><trkpt lat="40.6816191" lon="-3.9519429"><ele>977.4000000000001</ele><time>2026-05-04T08:01:37.644Z</time></trkpt><trkpt lat="40.6815895" lon="-3.9520903"><ele>977.2</ele><time>2026-05-04T08:01:39.645Z</time></trkpt><trkpt lat="40.6815575" lon="-3.9522415"><ele>977.0</ele><time>2026-05-04T08:01:41.644Z</time></trkpt><trkpt lat="40.6815301" lon="-3.9524149"><ele>977.0000000000001</ele><time>2026-05-04T08:01:43.643Z</time></trkpt><trkpt lat="40.6815119" lon="-3.9525111"><ele>977.0</ele><time>2026-05-04T08:01:44.643Z</time></trkpt><trkpt lat="40.6814982" lon="-3.952611"><ele>977.0000000000001</ele><time>2026-05-04T08:01:45.644Z</time></trkpt><trkpt lat="40.6814882" lon="-3.9527113"><ele>977.0000000000001</ele><time>2026-05-04T08:01:46.643Z</time></trkpt><trkpt lat="40.6814786" lon="-3.9528038"><ele>977.0</ele><time>2026-05-04T08:01:47.643Z</time></trkpt><trkpt lat="40.6814686" lon="-3.9528966"><ele>977.0000000000001</ele><time>2026-05-04T08:01:48.643Z</time></trkpt><trkpt lat="40.6814596" lon="-3.9529946"><ele>977.0000000000001</ele><time>2026-05-04T08:01:49.643Z</time></trkpt><trkpt lat="40.68145" lon="-3.9530929"><ele>977.0000000000001</ele><time>2026-05-04T08:01:50.643Z</time></trkpt><trkpt lat="40.6814414" lon="-3.9531839"><ele>977.0</ele><time>2026-05-04T08:01:51.644Z</time></trkpt><trkpt lat="40.6814353" lon="-3.9532688"><ele>977.0000000000001</ele><time>2026-05-04T08:01:52.644Z</time></trkpt><trkpt lat="40.6814264" lon="-3.9533547"><ele>977.0000000000001</ele><time>2026-05-04T08:01:53.643Z</time></trkpt><trkpt lat="40.6814189" lon="-3.953455"><ele>977.0</ele><time>2026-05-04T08:01:54.643Z</time></trkpt><trkpt lat="40.6814207" lon="-3.953556"><ele>977.0000000000001</ele><time>2026-05-04T08:01:55.644Z</time></trkpt><trkpt lat="40.681417" lon="-3.953651"><ele>977.0000000000001</ele><time>2026-05-04T08:01:56.643Z</time></trkpt><trkpt lat="40.6813988" lon="-3.9537406"><ele>976.8333333333334</ele><time>2026-05-04T08:01:57.644Z</time></trkpt><trkpt lat="40.6813895" lon="-3.9538286"><ele>976.6666666666667</ele><time>2026-05-04T08:01:58.643Z</time></trkpt><trkpt lat="40.6813698" lon="-3.954"><ele>976.5</ele><time>2026-05-04T08:02:00.643Z</time></trkpt><trkpt lat="40.6813621" lon="-3.9540962"><ele>976.3333333333333</ele><time>2026-05-04T08:02:01.643Z</time></trkpt><trkpt lat="40.6813525" lon="-3.9541844"><ele>976.1666666666666</ele><time>2026-05-04T08:02:02.644Z</time></trkpt><trkpt lat="40.6813482" lon="-3.9542684"><ele>976.0</ele><time>2026-05-04T08:02:03.644Z</time></trkpt><trkpt lat="40.6813897" lon="-3.9544236"><ele>975.9999999999999</ele><time>2026-05-04T08:02:05.643Z</time></trkpt><trkpt lat="40.6814383" lon="-3.9545005"><ele>976.0</ele><time>2026-05-04T08:02:06.643Z</time></trkpt><trkpt lat="40.6814879" lon="-3.9545758"><ele>975.9999999999999</ele><time>2026-05-04T08:02:07.643Z</time></trkpt><trkpt lat="40.6815168" lon="-3.9546604"><ele>975.9999999999999</ele><time>2026-05-04T08:02:08.643Z</time></trkpt><trkpt lat="40.6815304" lon="-3.9547544"><ele>976.0</ele><time>2026-05-04T08:02:09.643Z</time></trkpt><trkpt lat="40.6815157" lon="-3.9548464"><ele>975.9999999999999</ele><time>2026-05-04T08:02:10.643Z</time></trkpt><trkpt lat="40.6814906" lon="-3.9549429"><ele>975.9999999999999</ele><time>2026-05-04T08:02:11.643Z</time></trkpt><trkpt lat="40.6814664" lon="-3.9550505"><ele>975.8333333333333</ele><time>2026-05-04T08:02:12.643Z</time></trkpt><trkpt lat="40.6814361" lon="-3.9551484"><ele>975.6666666666666</ele><time>2026-05-04T08:02:13.643Z</time></trkpt><trkpt lat="40.6814" lon="-3.9552625"><ele>975.5</ele><time>2026-05-04T08:02:14.643Z</time></trkpt><trkpt lat="40.6813748" lon="-3.9553706"><ele>975.3333333333333</ele><time>2026-05-04T08:02:15.643Z</time></trkpt><trkpt lat="40.6813438" lon="-3.9554751"><ele>975.1666666666666</ele><time>2026-05-04T08:02:16.644Z</time></trkpt><trkpt lat="40.6813142" lon="-3.9555848"><ele>975.0</ele><time>2026-05-04T08:02:17.643Z</time></trkpt><trkpt lat="40.681285" lon="-3.9557078"><ele>975.0</ele><time>2026-05-04T08:02:18.643Z</time></trkpt><trkpt lat="40.6812532" lon="-3.9558301"><ele>975.0</ele><time>2026-05-04T08:02:19.643Z</time></trkpt><trkpt lat="40.6812223" lon="-3.9559579"><ele>975.0</ele><time>2026-05-04T08:02:20.643Z</time></trkpt><trkpt lat="40.681185" lon="-3.9560801"><ele>975.0</ele><time>2026-05-04T08:02:21.643Z</time></trkpt><trkpt lat="40.6811557" lon="-3.9561924"><ele>975.0</ele><time>2026-05-04T08:02:22.644Z</time></trkpt><trkpt lat="40.6811291" lon="-3.9562982"><ele>975.0</ele><time>2026-05-04T08:02:23.643Z</time></trkpt><trkpt lat="40.6811017" lon="-3.9564053"><ele>975.0</ele><time>2026-05-04T08:02:24.643Z</time></trkpt><trkpt lat="40.6810695" lon="-3.9565139"><ele>975.0</ele><time>2026-05-04T08:02:25.643Z</time></trkpt><trkpt lat="40.6810335" lon="-3.9566191"><ele>975.0</ele><time>2026-05-04T08:02:26.643Z</time></trkpt><trkpt lat="40.6809881" lon="-3.9567237"><ele>975.0</ele><time>2026-05-04T08:02:27.643Z</time></trkpt><trkpt lat="40.6809289" lon="-3.9568169"><ele>975.0</ele><time>2026-05-04T08:02:28.643Z</time></trkpt><trkpt lat="40.6808649" lon="-3.9568945"><ele>975.0</ele><time>2026-05-04T08:02:29.643Z</time></trkpt><trkpt lat="40.6807978" lon="-3.9569588"><ele>975.0</ele><time>2026-05-04T08:02:30.643Z</time></trkpt><trkpt lat="40.6807211" lon="-3.9570112"><ele>975.0</ele><time>2026-05-04T08:02:31.643Z</time></trkpt><trkpt lat="40.6806497" lon="-3.9570725"><ele>975.0</ele><time>2026-05-04T08:02:32.643Z</time></trkpt><trkpt lat="40.6805859" lon="-3.9571386"><ele>975.0</ele><time>2026-05-04T08:02:33.643Z</time></trkpt><trkpt lat="40.6805308" lon="-3.9572144"><ele>975.0</ele><time>2026-05-04T08:02:34.644Z</time></trkpt><trkpt lat="40.6804884" lon="-3.9573008"><ele>975.0</ele><time>2026-05-04T08:02:35.643Z</time></trkpt><trkpt lat="40.6804498" lon="-3.9574001"><ele>975.0</ele><time>2026-05-04T08:02:36.643Z</time></trkpt><trkpt lat="40.6804156" lon="-3.9575102"><ele>975.0</ele><time>2026-05-04T08:02:37.643Z</time></trkpt><trkpt lat="40.6803737" lon="-3.9576292"><ele>975.0</ele><time>2026-05-04T08:02:38.643Z</time></trkpt><trkpt lat="40.6803354" lon="-3.9577559"><ele>975.0</ele><time>2026-05-04T08:02:39.643Z</time></trkpt><trkpt lat="40.6802905" lon="-3.9578844"><ele>975.6</ele><time>2026-05-04T08:02:40.643Z</time></trkpt><trkpt lat="40.6802496" lon="-3.9580156"><ele>976.2</ele><time>2026-05-04T08:02:41.643Z</time></trkpt><trkpt lat="40.6802097" lon="-3.9581416"><ele>976.8</ele><time>2026-05-04T08:02:42.643Z</time></trkpt><trkpt lat="40.6801666" lon="-3.9582644"><ele>977.4</ele><time>2026-05-04T08:02:43.643Z</time></trkpt><trkpt lat="40.6801257" lon="-3.9583759"><ele>978.0</ele><time>2026-05-04T08:02:44.643Z</time></trkpt><trkpt lat="40.6800797" lon="-3.9584894"><ele>978.0</ele><time>2026-05-04T08:02:45.643Z</time></trkpt><trkpt lat="40.6800336" lon="-3.9586008"><ele>978.0</ele><time>2026-05-04T08:02:46.643Z</time></trkpt><trkpt lat="40.6799832" lon="-3.9587091"><ele>978.0</ele><time>2026-05-04T08:02:47.643Z</time></trkpt><trkpt lat="40.679936" lon="-3.9588103"><ele>978.0</ele><time>2026-05-04T08:02:48.643Z</time></trkpt><trkpt lat="40.6798878" lon="-3.958913"><ele>978.0</ele><time>2026-05-04T08:02:49.643Z</time></trkpt><trkpt lat="40.6798401" lon="-3.9590226"><ele>978.0</ele><time>2026-05-04T08:02:50.643Z</time></trkpt><trkpt lat="40.6797895" lon="-3.9591295"><ele>978.0</ele><time>2026-05-04T08:02:51.643Z</time></trkpt><trkpt lat="40.6797365" lon="-3.959239"><ele>978.0</ele><time>2026-05-04T08:02:52.643Z</time></trkpt><trkpt lat="40.6796886" lon="-3.9593445"><ele>978.0</ele><time>2026-05-04T08:02:53.643Z</time></trkpt><trkpt lat="40.6796361" lon="-3.9594481"><ele>978.0</ele><time>2026-05-04T08:02:54.643Z</time></trkpt><trkpt lat="40.679581" lon="-3.9595595"><ele>978.2</ele><time>2026-05-04T08:02:55.643Z</time></trkpt><trkpt lat="40.6795234" lon="-3.9596691"><ele>978.4</ele><time>2026-05-04T08:02:56.643Z</time></trkpt><trkpt lat="40.6794652" lon="-3.9597822"><ele>978.6000000000001</ele><time>2026-05-04T08:02:57.643Z</time></trkpt><trkpt lat="40.6794134" lon="-3.9598929"><ele>978.8000000000001</ele><time>2026-05-04T08:02:58.643Z</time></trkpt><trkpt lat="40.6793641" lon="-3.9600076"><ele>979.0</ele><time>2026-05-04T08:02:59.643Z</time></trkpt><trkpt lat="40.6793126" lon="-3.9601183"><ele>978.6</ele><time>2026-05-04T08:03:00.643Z</time></trkpt><trkpt lat="40.6792578" lon="-3.9602247"><ele>978.2</ele><time>2026-05-04T08:03:01.643Z</time></trkpt><trkpt lat="40.6792039" lon="-3.9603253"><ele>977.8000000000001</ele><time>2026-05-04T08:03:02.643Z</time></trkpt><trkpt lat="40.6791487" lon="-3.9604322"><ele>977.4000000000001</ele><time>2026-05-04T08:03:03.643Z</time></trkpt><trkpt lat="40.679092" lon="-3.9605312"><ele>977.0</ele><time>2026-05-04T08:03:04.643Z</time></trkpt><trkpt lat="40.6790354" lon="-3.9606225"><ele>977.0000000000001</ele><time>2026-05-04T08:03:05.643Z</time></trkpt><trkpt lat="40.6789874" lon="-3.9607068"><ele>977.0</ele><time>2026-05-04T08:03:06.643Z</time></trkpt><trkpt lat="40.6789372" lon="-3.9607875"><ele>977.0</ele><time>2026-05-04T08:03:07.643Z</time></trkpt><trkpt lat="40.6788838" lon="-3.9608526"><ele>977.0</ele><time>2026-05-04T08:03:08.643Z</time></trkpt><trkpt lat="40.6788327" lon="-3.9609262"><ele>977.0000000000001</ele><time>2026-05-04T08:03:09.644Z</time></trkpt><trkpt lat="40.6787878" lon="-3.9610134"><ele>977.0</ele><time>2026-05-04T08:03:10.643Z</time></trkpt><trkpt lat="40.67874" lon="-3.961122"><ele>976.8</ele><time>2026-05-04T08:03:11.643Z</time></trkpt><trkpt lat="40.6786893" lon="-3.9612441"><ele>976.6</ele><time>2026-05-04T08:03:12.643Z</time></trkpt><trkpt lat="40.6786388" lon="-3.9613736"><ele>976.3999999999999</ele><time>2026-05-04T08:03:13.643Z</time></trkpt><trkpt lat="40.6785899" lon="-3.9615002"><ele>976.1999999999999</ele><time>2026-05-04T08:03:14.643Z</time></trkpt><trkpt lat="40.6785435" lon="-3.961625"><ele>976.0</ele><time>2026-05-04T08:03:15.643Z</time></trkpt><trkpt lat="40.6784991" lon="-3.9617413"><ele>976.8</ele><time>2026-05-04T08:03:16.643Z</time></trkpt><trkpt lat="40.678453" lon="-3.9618536"><ele>977.5999999999999</ele><time>2026-05-04T08:03:17.643Z</time></trkpt><trkpt lat="40.6784036" lon="-3.9619734"><ele>978.4</ele><time>2026-05-04T08:03:18.643Z</time></trkpt><trkpt lat="40.6783577" lon="-3.9620912"><ele>979.2</ele><time>2026-05-04T08:03:19.644Z</time></trkpt><trkpt lat="40.678315" lon="-3.9621986"><ele>980.0</ele><time>2026-05-04T08:03:20.643Z</time></trkpt><trkpt lat="40.678281" lon="-3.9623031"><ele>980.0</ele><time>2026-05-04T08:03:21.643Z</time></trkpt><trkpt lat="40.6782542" lon="-3.9624033"><ele>980.0</ele><time>2026-05-04T08:03:22.643Z</time></trkpt><trkpt lat="40.6782313" lon="-3.9624985"><ele>980.0</ele><time>2026-05-04T08:03:23.643Z</time></trkpt><trkpt lat="40.6782016" lon="-3.9625814"><ele>980.0</ele><time>2026-05-04T08:03:24.643Z</time></trkpt><trkpt lat="40.6781575" lon="-3.9626416"><ele>980.0</ele><time>2026-05-04T08:03:25.644Z</time></trkpt><trkpt lat="40.678098" lon="-3.9626902"><ele>980.0</ele><time>2026-05-04T08:03:26.643Z</time></trkpt><trkpt lat="40.6780303" lon="-3.9627486"><ele>980.0</ele><time>2026-05-04T08:03:27.644Z</time></trkpt><trkpt lat="40.6779614" lon="-3.9628262"><ele>979.8</ele><time>2026-05-04T08:03:28.643Z</time></trkpt><trkpt lat="40.6778863" lon="-3.9629073"><ele>979.6</ele><time>2026-05-04T08:03:29.643Z</time></trkpt><trkpt lat="40.6778022" lon="-3.9629644"><ele>979.4000000000001</ele><time>2026-05-04T08:03:30.643Z</time></trkpt><trkpt lat="40.6777009" lon="-3.963016"><ele>979.2</ele><time>2026-05-04T08:03:31.643Z</time></trkpt><trkpt lat="40.6776067" lon="-3.9630729"><ele>979.0</ele><time>2026-05-04T08:03:32.643Z</time></trkpt><trkpt lat="40.6775169" lon="-3.9631263"><ele>978.9999999999999</ele><time>2026-05-04T08:03:33.643Z</time></trkpt><trkpt lat="40.6774373" lon="-3.963176"><ele>979.0</ele><time>2026-05-04T08:03:34.643Z</time></trkpt><trkpt lat="40.6773672" lon="-3.9632246"><ele>979.0</ele><time>2026-05-04T08:03:35.643Z</time></trkpt><trkpt lat="40.6773022" lon="-3.9632658"><ele>979.0</ele><time>2026-05-04T08:03:36.643Z</time></trkpt><trkpt lat="40.6772117" lon="-3.9633535"><ele>978.9999999999999</ele><time>2026-05-04T08:03:38.644Z</time></trkpt><trkpt lat="40.6771745" lon="-3.9634517"><ele>979.0</ele><time>2026-05-04T08:03:40.643Z</time></trkpt><trkpt lat="40.6771725" lon="-3.9635403"><ele>978.8333333333333</ele><time>2026-05-04T08:03:42.643Z</time></trkpt><trkpt lat="40.6771221" lon="-3.9636164"><ele>978.6666666666666</ele><time>2026-05-04T08:03:44.643Z</time></trkpt><trkpt lat="40.677008" lon="-3.9636329"><ele>978.5</ele><time>2026-05-04T08:03:46.643Z</time></trkpt><trkpt lat="40.6769375" lon="-3.9636269"><ele>978.3333333333333</ele><time>2026-05-04T08:03:47.643Z</time></trkpt><trkpt lat="40.6768567" lon="-3.9636251"><ele>978.1666666666666</ele><time>2026-05-04T08:03:48.643Z</time></trkpt><trkpt lat="40.6767695" lon="-3.9636371"><ele>978.0</ele><time>2026-05-04T08:03:49.643Z</time></trkpt><trkpt lat="40.6766869" lon="-3.9636565"><ele>977.8333333333334</ele><time>2026-05-04T08:03:50.643Z</time></trkpt><trkpt lat="40.6766071" lon="-3.9636898"><ele>977.6666666666667</ele><time>2026-05-04T08:03:51.643Z</time></trkpt><trkpt lat="40.676523" lon="-3.9637441"><ele>977.5</ele><time>2026-05-04T08:03:52.643Z</time></trkpt><trkpt lat="40.6764408" lon="-3.963794"><ele>977.3333333333334</ele><time>2026-05-04T08:03:53.643Z</time></trkpt><trkpt lat="40.6763606" lon="-3.9638344"><ele>977.1666666666667</ele><time>2026-05-04T08:03:54.643Z</time></trkpt><trkpt lat="40.6762826" lon="-3.963881"><ele>977.0</ele><time>2026-05-04T08:03:55.643Z</time></trkpt><trkpt lat="40.6762035" lon="-3.9639255"><ele>977.0000000000001</ele><time>2026-05-04T08:03:56.643Z</time></trkpt><trkpt lat="40.6761276" lon="-3.9639532"><ele>977.0</ele><time>2026-05-04T08:03:57.644Z</time></trkpt><trkpt lat="40.6760622" lon="-3.9639531"><ele>977.0</ele><time>2026-05-04T08:03:58.643Z</time></trkpt><trkpt lat="40.6759344" lon="-3.9639058"><ele>977.0</ele><time>2026-05-04T08:04:00.643Z</time></trkpt><trkpt lat="40.6758729" lon="-3.9638864"><ele>977.0000000000001</ele><time>2026-05-04T08:04:01.643Z</time></trkpt><trkpt lat="40.6757662" lon="-3.9639046"><ele>977.0</ele><time>2026-05-04T08:04:03.643Z</time></trkpt><trkpt lat="40.6757263" lon="-3.9639715"><ele>977.0000000000001</ele><time>2026-05-04T08:04:04.643Z</time></trkpt><trkpt lat="40.6757009" lon="-3.9640652"><ele>977.0</ele><time>2026-05-04T08:04:05.643Z</time></trkpt><trkpt lat="40.6756858" lon="-3.9641607"><ele>977.0</ele><time>2026-05-04T08:04:06.643Z</time></trkpt><trkpt lat="40.6756653" lon="-3.9642496"><ele>977.0</ele><time>2026-05-04T08:04:07.643Z</time></trkpt><trkpt lat="40.6756416" lon="-3.9643468"><ele>977.0000000000001</ele><time>2026-05-04T08:04:08.644Z</time></trkpt><trkpt lat="40.6756187" lon="-3.9644268"><ele>977.0</ele><time>2026-05-04T08:04:09.643Z</time></trkpt><trkpt lat="40.6755727" lon="-3.9645364"><ele>976.1666666666667</ele><time>2026-05-04T08:04:11.643Z</time></trkpt><trkpt lat="40.6754736" lon="-3.9645945"><ele>975.3333333333334</ele><time>2026-05-04T08:04:13.643Z</time></trkpt><trkpt lat="40.6754111" lon="-3.9645808"><ele>974.5</ele><time>2026-05-04T08:04:14.643Z</time></trkpt><trkpt lat="40.6753362" lon="-3.9645459"><ele>973.6666666666667</ele><time>2026-05-04T08:04:15.644Z</time></trkpt><trkpt lat="40.6752544" lon="-3.9645352"><ele>972.8333333333334</ele><time>2026-05-04T08:04:16.643Z</time></trkpt><trkpt lat="40.6751695" lon="-3.9645363"><ele>972.0</ele><time>2026-05-04T08:04:17.643Z</time></trkpt><trkpt lat="40.6750697" lon="-3.964528"><ele>971.2</ele><time>2026-05-04T08:04:18.643Z</time></trkpt><trkpt lat="40.674956" lon="-3.9645172"><ele>970.4000000000001</ele><time>2026-05-04T08:04:19.643Z</time></trkpt><trkpt lat="40.6748453" lon="-3.9644967"><ele>969.5999999999999</ele><time>2026-05-04T08:04:20.643Z</time></trkpt><trkpt lat="40.6747355" lon="-3.9644738"><ele>968.8</ele><time>2026-05-04T08:04:21.643Z</time></trkpt><trkpt lat="40.674627" lon="-3.9644502"><ele>968.0</ele><time>2026-05-04T08:04:22.643Z</time></trkpt><trkpt lat="40.6745248" lon="-3.9644276"><ele>967.8</ele><time>2026-05-04T08:04:23.643Z</time></trkpt><trkpt lat="40.6744155" lon="-3.9644091"><ele>967.5999999999999</ele><time>2026-05-04T08:04:24.643Z</time></trkpt><trkpt lat="40.6742998" lon="-3.9644046"><ele>967.4000000000001</ele><time>2026-05-04T08:04:25.643Z</time></trkpt><trkpt lat="40.6741931" lon="-3.9644164"><ele>967.2</ele><time>2026-05-04T08:04:26.643Z</time></trkpt><trkpt lat="40.6740939" lon="-3.9644487"><ele>967.0</ele><time>2026-05-04T08:04:27.643Z</time></trkpt><trkpt lat="40.6739942" lon="-3.9644913"><ele>967.0</ele><time>2026-05-04T08:04:28.643Z</time></trkpt><trkpt lat="40.6738955" lon="-3.9645507"><ele>967.0</ele><time>2026-05-04T08:04:29.643Z</time></trkpt><trkpt lat="40.6738071" lon="-3.9646166"><ele>967.0</ele><time>2026-05-04T08:04:30.643Z</time></trkpt><trkpt lat="40.6737275" lon="-3.9646948"><ele>967.0</ele><time>2026-05-04T08:04:31.643Z</time></trkpt><trkpt lat="40.6736413" lon="-3.9647779"><ele>967.0</ele><time>2026-05-04T08:04:32.643Z</time></trkpt><trkpt lat="40.6735528" lon="-3.96486"><ele>967.2</ele><time>2026-05-04T08:04:33.643Z</time></trkpt><trkpt lat="40.6734697" lon="-3.9649439"><ele>967.4000000000001</ele><time>2026-05-04T08:04:34.643Z</time></trkpt><trkpt lat="40.6733839" lon="-3.9650259"><ele>967.5999999999999</ele><time>2026-05-04T08:04:35.643Z</time></trkpt><trkpt lat="40.6732919" lon="-3.9651036"><ele>967.8</ele><time>2026-05-04T08:04:36.644Z</time></trkpt><trkpt lat="40.6731948" lon="-3.9651882"><ele>968.0</ele><time>2026-05-04T08:04:37.643Z</time></trkpt><trkpt lat="40.6731035" lon="-3.965273"><ele>967.4</ele><time>2026-05-04T08:04:38.643Z</time></trkpt><trkpt lat="40.6730046" lon="-3.9653619"><ele>966.8</ele><time>2026-05-04T08:04:39.643Z</time></trkpt><trkpt lat="40.6729123" lon="-3.9654462"><ele>966.2</ele><time>2026-05-04T08:04:40.644Z</time></trkpt><trkpt lat="40.6728193" lon="-3.965519"><ele>965.6</ele><time>2026-05-04T08:04:41.643Z</time></trkpt><trkpt lat="40.672727" lon="-3.9655756"><ele>965.0</ele><time>2026-05-04T08:04:42.643Z</time></trkpt><trkpt lat="40.6726412" lon="-3.9656144"><ele>965.0000000000001</ele><time>2026-05-04T08:04:43.643Z</time></trkpt><trkpt lat="40.6725651" lon="-3.9656492"><ele>965.0</ele><time>2026-05-04T08:04:44.643Z</time></trkpt><trkpt lat="40.6724938" lon="-3.9656868"><ele>965.0</ele><time>2026-05-04T08:04:45.644Z</time></trkpt><trkpt lat="40.6724182" lon="-3.9657301"><ele>965.0</ele><time>2026-05-04T08:04:46.643Z</time></trkpt><trkpt lat="40.6723423" lon="-3.9657768"><ele>965.0000000000001</ele><time>2026-05-04T08:04:47.643Z</time></trkpt><trkpt lat="40.6722739" lon="-3.9658159"><ele>965.0</ele><time>2026-05-04T08:04:48.643Z</time></trkpt><trkpt lat="40.6722054" lon="-3.9658547"><ele>964.4</ele><time>2026-05-04T08:04:49.643Z</time></trkpt><trkpt lat="40.6721338" lon="-3.9658847"><ele>963.8</ele><time>2026-05-04T08:04:50.644Z</time></trkpt><trkpt lat="40.6720466" lon="-3.9659152"><ele>963.2</ele><time>2026-05-04T08:04:51.643Z</time></trkpt><trkpt lat="40.6719494" lon="-3.9659446"><ele>962.6</ele><time>2026-05-04T08:04:52.643Z</time></trkpt><trkpt lat="40.6718476" lon="-3.9659778"><ele>962.0</ele><time>2026-05-04T08:04:53.643Z</time></trkpt><trkpt lat="40.6717417" lon="-3.9660065"><ele>962.0</ele><time>2026-05-04T08:04:54.643Z</time></trkpt><trkpt lat="40.6716318" lon="-3.9660465"><ele>962.0</ele><time>2026-05-04T08:04:55.643Z</time></trkpt><trkpt lat="40.6715294" lon="-3.9660867"><ele>962.0</ele><time>2026-05-04T08:04:56.643Z</time></trkpt><trkpt lat="40.6714254" lon="-3.9661258"><ele>962.0</ele><time>2026-05-04T08:04:57.643Z</time></trkpt><trkpt lat="40.6713178" lon="-3.9661585"><ele>962.0</ele><time>2026-05-04T08:04:58.643Z</time></trkpt><trkpt lat="40.6712162" lon="-3.9661937"><ele>962.0000000000001</ele><time>2026-05-04T08:04:59.643Z</time></trkpt><trkpt lat="40.6711221" lon="-3.9662305"><ele>962.0</ele><time>2026-05-04T08:05:00.643Z</time></trkpt><trkpt lat="40.6710338" lon="-3.9662688"><ele>962.0</ele><time>2026-05-04T08:05:01.643Z</time></trkpt><trkpt lat="40.6709561" lon="-3.9663021"><ele>962.0</ele><time>2026-05-04T08:05:02.643Z</time></trkpt><trkpt lat="40.6708855" lon="-3.9663473"><ele>962.0000000000001</ele><time>2026-05-04T08:05:03.643Z</time></trkpt><trkpt lat="40.670817" lon="-3.966403"><ele>962.0</ele><time>2026-05-04T08:05:04.643Z</time></trkpt><trkpt lat="40.6707528" lon="-3.966469"><ele>961.5000000000001</ele><time>2026-05-04T08:05:05.643Z</time></trkpt><trkpt lat="40.6706916" lon="-3.9665427"><ele>961.0</ele><time>2026-05-04T08:05:06.643Z</time></trkpt><trkpt lat="40.6706388" lon="-3.9666224"><ele>960.5</ele><time>2026-05-04T08:05:07.643Z</time></trkpt><trkpt lat="40.6705886" lon="-3.9667092"><ele>960.0</ele><time>2026-05-04T08:05:08.643Z</time></trkpt><trkpt lat="40.6705392" lon="-3.9668149"><ele>959.5000000000001</ele><time>2026-05-04T08:05:09.643Z</time></trkpt><trkpt lat="40.6704917" lon="-3.9669267"><ele>959.0</ele><time>2026-05-04T08:05:10.643Z</time></trkpt><trkpt lat="40.6704427" lon="-3.9670394"><ele>958.6</ele><time>2026-05-04T08:05:11.643Z</time></trkpt><trkpt lat="40.6703873" lon="-3.9671541"><ele>958.2</ele><time>2026-05-04T08:05:12.643Z</time></trkpt><trkpt lat="40.6703343" lon="-3.9672748"><ele>957.8000000000001</ele><time>2026-05-04T08:05:13.643Z</time></trkpt><trkpt lat="40.6702855" lon="-3.9673823"><ele>957.4000000000001</ele><time>2026-05-04T08:05:14.643Z</time></trkpt><trkpt lat="40.6702295" lon="-3.9674911"><ele>957.0</ele><time>2026-05-04T08:05:15.643Z</time></trkpt><trkpt lat="40.670162" lon="-3.9675993"><ele>956.0</ele><time>2026-05-04T08:05:16.643Z</time></trkpt><trkpt lat="40.6700873" lon="-3.9676905"><ele>955.0</ele><time>2026-05-04T08:05:17.643Z</time></trkpt><trkpt lat="40.6700117" lon="-3.9677744"><ele>954.0</ele><time>2026-05-04T08:05:18.643Z</time></trkpt><trkpt lat="40.6699342" lon="-3.9678485"><ele>953.0</ele><time>2026-05-04T08:05:19.643Z</time></trkpt><trkpt lat="40.6698578" lon="-3.9679114"><ele>952.0</ele><time>2026-05-04T08:05:20.643Z</time></trkpt><trkpt lat="40.6697801" lon="-3.9679696"><ele>951.9999999999999</ele><time>2026-05-04T08:05:21.643Z</time></trkpt><trkpt lat="40.6697112" lon="-3.9680148"><ele>952.0</ele><time>2026-05-04T08:05:22.643Z</time></trkpt><trkpt lat="40.6696462" lon="-3.9680479"><ele>952.0</ele><time>2026-05-04T08:05:23.643Z</time></trkpt><trkpt lat="40.6695831" lon="-3.9680824"><ele>952.0</ele><time>2026-05-04T08:05:24.643Z</time></trkpt><trkpt lat="40.6694586" lon="-3.9681721"><ele>951.9999999999999</ele><time>2026-05-04T08:05:26.643Z</time></trkpt><trkpt lat="40.6693807" lon="-3.9682111"><ele>952.0</ele><time>2026-05-04T08:05:27.643Z</time></trkpt><trkpt lat="40.6692936" lon="-3.96824"><ele>952.1666666666666</ele><time>2026-05-04T08:05:28.644Z</time></trkpt><trkpt lat="40.6692096" lon="-3.9682728"><ele>952.3333333333333</ele><time>2026-05-04T08:05:29.643Z</time></trkpt><trkpt lat="40.6691333" lon="-3.968312"><ele>952.5</ele><time>2026-05-04T08:05:30.643Z</time></trkpt><trkpt lat="40.6690607" lon="-3.9683748"><ele>952.6666666666667</ele><time>2026-05-04T08:05:31.643Z</time></trkpt><trkpt lat="40.6689898" lon="-3.9684533"><ele>952.8333333333334</ele><time>2026-05-04T08:05:32.643Z</time></trkpt><trkpt lat="40.6689144" lon="-3.9685289"><ele>953.0</ele><time>2026-05-04T08:05:33.643Z</time></trkpt><trkpt lat="40.6688277" lon="-3.9685951"><ele>952.5999999999999</ele><time>2026-05-04T08:05:34.644Z</time></trkpt><trkpt lat="40.6687344" lon="-3.968668"><ele>952.1999999999999</ele><time>2026-05-04T08:05:35.643Z</time></trkpt><trkpt lat="40.668637" lon="-3.9687424"><ele>951.8</ele><time>2026-05-04T08:05:36.644Z</time></trkpt><trkpt lat="40.6685481" lon="-3.9688068"><ele>951.4</ele><time>2026-05-04T08:05:37.643Z</time></trkpt><trkpt lat="40.6684757" lon="-3.9688631"><ele>951.0</ele><time>2026-05-04T08:05:38.643Z</time></trkpt><trkpt lat="40.6684008" lon="-3.9689229"><ele>950.8</ele><time>2026-05-04T08:05:39.643Z</time></trkpt><trkpt lat="40.6683212" lon="-3.9689886"><ele>950.5999999999999</ele><time>2026-05-04T08:05:40.644Z</time></trkpt><trkpt lat="40.6682457" lon="-3.9690596"><ele>950.4</ele><time>2026-05-04T08:05:41.643Z</time></trkpt><trkpt lat="40.6681777" lon="-3.9691456"><ele>950.2</ele><time>2026-05-04T08:05:42.643Z</time></trkpt><trkpt lat="40.6681117" lon="-3.9692533"><ele>950.0</ele><time>2026-05-04T08:05:43.643Z</time></trkpt><trkpt lat="40.668051" lon="-3.9693531"><ele>949.6</ele><time>2026-05-04T08:05:44.644Z</time></trkpt><trkpt lat="40.6679939" lon="-3.9694611"><ele>949.2</ele><time>2026-05-04T08:05:45.643Z</time></trkpt><trkpt lat="40.6679358" lon="-3.9695703"><ele>948.8</ele><time>2026-05-04T08:05:46.643Z</time></trkpt><trkpt lat="40.6678783" lon="-3.9696802"><ele>948.4</ele><time>2026-05-04T08:05:47.643Z</time></trkpt><trkpt lat="40.6678279" lon="-3.9697793"><ele>948.0</ele><time>2026-05-04T08:05:48.643Z</time></trkpt><trkpt lat="40.6677882" lon="-3.9698705"><ele>948.1666666666666</ele><time>2026-05-04T08:05:49.644Z</time></trkpt><trkpt lat="40.6677432" lon="-3.9699689"><ele>948.3333333333333</ele><time>2026-05-04T08:05:50.643Z</time></trkpt><trkpt lat="40.6676906" lon="-3.9700531"><ele>948.5</ele><time>2026-05-04T08:05:51.643Z</time></trkpt><trkpt lat="40.6676325" lon="-3.970115"><ele>948.6666666666666</ele><time>2026-05-04T08:05:52.643Z</time></trkpt><trkpt lat="40.6675581" lon="-3.9701687"><ele>948.8333333333333</ele><time>2026-05-04T08:05:53.643Z</time></trkpt><trkpt lat="40.6674666" lon="-3.9702135"><ele>949.0</ele><time>2026-05-04T08:05:54.644Z</time></trkpt><trkpt lat="40.6673711" lon="-3.9702496"><ele>948.6</ele><time>2026-05-04T08:05:55.643Z</time></trkpt><trkpt lat="40.6672806" lon="-3.9702942"><ele>948.2</ele><time>2026-05-04T08:05:56.643Z</time></trkpt><trkpt lat="40.6671857" lon="-3.9703426"><ele>947.8000000000001</ele><time>2026-05-04T08:05:57.643Z</time></trkpt><trkpt lat="40.6670855" lon="-3.9703933"><ele>947.4000000000001</ele><time>2026-05-04T08:05:58.643Z</time></trkpt><trkpt lat="40.6669892" lon="-3.9704515"><ele>947.0</ele><time>2026-05-04T08:05:59.643Z</time></trkpt><trkpt lat="40.6669013" lon="-3.9705139"><ele>947.0000000000001</ele><time>2026-05-04T08:06:00.644Z</time></trkpt><trkpt lat="40.6668332" lon="-3.9705821"><ele>947.0</ele><time>2026-05-04T08:06:01.643Z</time></trkpt><trkpt lat="40.6667754" lon="-3.9706648"><ele>947.0</ele><time>2026-05-04T08:06:02.643Z</time></trkpt><trkpt lat="40.6667272" lon="-3.9707462"><ele>947.0</ele><time>2026-05-04T08:06:03.644Z</time></trkpt><trkpt lat="40.6666797" lon="-3.970829"><ele>947.0000000000001</ele><time>2026-05-04T08:06:04.643Z</time></trkpt><trkpt lat="40.6666472" lon="-3.970922"><ele>947.0</ele><time>2026-05-04T08:06:05.643Z</time></trkpt><trkpt lat="40.6666158" lon="-3.9710164"><ele>946.2</ele><time>2026-05-04T08:06:06.643Z</time></trkpt><trkpt lat="40.6665817" lon="-3.9711324"><ele>945.4000000000001</ele><time>2026-05-04T08:06:07.643Z</time></trkpt><trkpt lat="40.6665369" lon="-3.9712474"><ele>944.5999999999999</ele><time>2026-05-04T08:06:08.643Z</time></trkpt><trkpt lat="40.6664932" lon="-3.9713725"><ele>943.8</ele><time>2026-05-04T08:06:09.643Z</time></trkpt><trkpt lat="40.6664443" lon="-3.9715005"><ele>943.0</ele><time>2026-05-04T08:06:10.644Z</time></trkpt><trkpt lat="40.6664019" lon="-3.9716225"><ele>942.4</ele><time>2026-05-04T08:06:11.643Z</time></trkpt><trkpt lat="40.6663654" lon="-3.9717239"><ele>941.8</ele><time>2026-05-04T08:06:12.644Z</time></trkpt><trkpt lat="40.6663357" lon="-3.9718391"><ele>941.2</ele><time>2026-05-04T08:06:13.643Z</time></trkpt><trkpt lat="40.6663009" lon="-3.9719575"><ele>940.6</ele><time>2026-05-04T08:06:14.644Z</time></trkpt><trkpt lat="40.6662592" lon="-3.9720786"><ele>940.0</ele><time>2026-05-04T08:06:15.643Z</time></trkpt><trkpt lat="40.6662192" lon="-3.9722015"><ele>940.0</ele><time>2026-05-04T08:06:16.643Z</time></trkpt><trkpt lat="40.6661755" lon="-3.9723312"><ele>940.0</ele><time>2026-05-04T08:06:17.644Z</time></trkpt><trkpt lat="40.6661371" lon="-3.9724552"><ele>940.0</ele><time>2026-05-04T08:06:18.643Z</time></trkpt><trkpt lat="40.6660913" lon="-3.9725886"><ele>940.0</ele><time>2026-05-04T08:06:19.643Z</time></trkpt><trkpt lat="40.666047" lon="-3.9727317"><ele>940.0</ele><time>2026-05-04T08:06:20.643Z</time></trkpt><trkpt lat="40.666002" lon="-3.9728685"><ele>940.0</ele><time>2026-05-04T08:06:21.643Z</time></trkpt><trkpt lat="40.6659595" lon="-3.9729851"><ele>940.0</ele><time>2026-05-04T08:06:22.643Z</time></trkpt><trkpt lat="40.6659192" lon="-3.9731084"><ele>940.0</ele><time>2026-05-04T08:06:23.643Z</time></trkpt><trkpt lat="40.6658821" lon="-3.9732322"><ele>940.0</ele><time>2026-05-04T08:06:24.643Z</time></trkpt><trkpt lat="40.6658462" lon="-3.9733487"><ele>940.0</ele><time>2026-05-04T08:06:25.643Z</time></trkpt><trkpt lat="40.6658102" lon="-3.9734523"><ele>939.1666666666666</ele><time>2026-05-04T08:06:26.644Z</time></trkpt><trkpt lat="40.6657778" lon="-3.9735429"><ele>938.3333333333333</ele><time>2026-05-04T08:06:27.643Z</time></trkpt><trkpt lat="40.6657499" lon="-3.9736246"><ele>937.5</ele><time>2026-05-04T08:06:28.643Z</time></trkpt><trkpt lat="40.6657035" lon="-3.9737756"><ele>936.6666666666667</ele><time>2026-05-04T08:06:30.643Z</time></trkpt><trkpt lat="40.6656836" lon="-3.9738585"><ele>935.8333333333334</ele><time>2026-05-04T08:06:31.643Z</time></trkpt><trkpt lat="40.6656413" lon="-3.9739528"><ele>935.0</ele><time>2026-05-04T08:06:32.643Z</time></trkpt><trkpt lat="40.6656016" lon="-3.9740585"><ele>935.0</ele><time>2026-05-04T08:06:33.643Z</time></trkpt><trkpt lat="40.6655586" lon="-3.9741825"><ele>935.0</ele><time>2026-05-04T08:06:34.644Z</time></trkpt><trkpt lat="40.6655283" lon="-3.9743082"><ele>935.0</ele><time>2026-05-04T08:06:35.643Z</time></trkpt><trkpt lat="40.6655001" lon="-3.9744294"><ele>935.0</ele><time>2026-05-04T08:06:36.643Z</time></trkpt><trkpt lat="40.665463" lon="-3.9745359"><ele>935.0</ele><time>2026-05-04T08:06:37.643Z</time></trkpt><trkpt lat="40.6654167" lon="-3.974642"><ele>934.6666666666667</ele><time>2026-05-04T08:06:38.643Z</time></trkpt><trkpt lat="40.6653691" lon="-3.9747521"><ele>934.3333333333334</ele><time>2026-05-04T08:06:39.643Z</time></trkpt><trkpt lat="40.6653305" lon="-3.9748562"><ele>934.0</ele><time>2026-05-04T08:06:40.643Z</time></trkpt><trkpt lat="40.6653034" lon="-3.9749568"><ele>933.6666666666667</ele><time>2026-05-04T08:06:41.643Z</time></trkpt><trkpt lat="40.6652864" lon="-3.9750513"><ele>933.3333333333334</ele><time>2026-05-04T08:06:42.643Z</time></trkpt><trkpt lat="40.6652629" lon="-3.9751641"><ele>933.0</ele><time>2026-05-04T08:06:43.643Z</time></trkpt><trkpt lat="40.6652301" lon="-3.9752853"><ele>932.8</ele><time>2026-05-04T08:06:44.643Z</time></trkpt><trkpt lat="40.6651873" lon="-3.975413"><ele>932.5999999999999</ele><time>2026-05-04T08:06:45.643Z</time></trkpt><trkpt lat="40.665138" lon="-3.975546"><ele>932.4000000000001</ele><time>2026-05-04T08:06:46.643Z</time></trkpt><trkpt lat="40.6650987" lon="-3.9756702"><ele>932.2</ele><time>2026-05-04T08:06:47.643Z</time></trkpt><trkpt lat="40.6650569" lon="-3.9757911"><ele>932.0</ele><time>2026-05-04T08:06:48.643Z</time></trkpt><trkpt lat="40.6650156" lon="-3.9759097"><ele>931.8333333333334</ele><time>2026-05-04T08:06:49.643Z</time></trkpt><trkpt lat="40.6649772" lon="-3.9760243"><ele>931.6666666666667</ele><time>2026-05-04T08:06:50.643Z</time></trkpt><trkpt lat="40.6649347" lon="-3.9761242"><ele>931.5</ele><time>2026-05-04T08:06:51.643Z</time></trkpt><trkpt lat="40.6648936" lon="-3.9762212"><ele>931.3333333333333</ele><time>2026-05-04T08:06:52.643Z</time></trkpt><trkpt lat="40.664855" lon="-3.9763206"><ele>931.1666666666666</ele><time>2026-05-04T08:06:53.643Z</time></trkpt><trkpt lat="40.6648191" lon="-3.976426"><ele>931.0</ele><time>2026-05-04T08:06:54.643Z</time></trkpt><trkpt lat="40.6647917" lon="-3.976542"><ele>930.9999999999999</ele><time>2026-05-04T08:06:55.644Z</time></trkpt><trkpt lat="40.6647661" lon="-3.9766467"><ele>931.0</ele><time>2026-05-04T08:06:56.643Z</time></trkpt><trkpt lat="40.6647416" lon="-3.9767526"><ele>931.0</ele><time>2026-05-04T08:06:57.643Z</time></trkpt><trkpt lat="40.6647092" lon="-3.9768588"><ele>931.0</ele><time>2026-05-04T08:06:58.644Z</time></trkpt><trkpt lat="40.6646749" lon="-3.9769411"><ele>930.9999999999999</ele><time>2026-05-04T08:06:59.643Z</time></trkpt><trkpt lat="40.6646361" lon="-3.977023"><ele>931.0</ele><time>2026-05-04T08:07:00.643Z</time></trkpt><trkpt lat="40.6646027" lon="-3.9771074"><ele>930.6666666666666</ele><time>2026-05-04T08:07:01.644Z</time></trkpt><trkpt lat="40.6645737" lon="-3.9771844"><ele>930.3333333333333</ele><time>2026-05-04T08:07:02.643Z</time></trkpt><trkpt lat="40.6645409" lon="-3.9772604"><ele>930.0</ele><time>2026-05-04T08:07:03.643Z</time></trkpt><trkpt lat="40.6645026" lon="-3.9773457"><ele>929.6666666666667</ele><time>2026-05-04T08:07:04.643Z</time></trkpt><trkpt lat="40.6644506" lon="-3.9774358"><ele>929.3333333333334</ele><time>2026-05-04T08:07:05.643Z</time></trkpt><trkpt lat="40.6643972" lon="-3.9775325"><ele>929.0</ele><time>2026-05-04T08:07:06.644Z</time></trkpt><trkpt lat="40.6643288" lon="-3.9776235"><ele>928.8000000000001</ele><time>2026-05-04T08:07:07.643Z</time></trkpt><trkpt lat="40.6642596" lon="-3.9777151"><ele>928.6000000000001</ele><time>2026-05-04T08:07:08.643Z</time></trkpt><trkpt lat="40.6641933" lon="-3.9778128"><ele>928.4</ele><time>2026-05-04T08:07:09.643Z</time></trkpt><trkpt lat="40.6641303" lon="-3.9779119"><ele>928.2</ele><time>2026-05-04T08:07:10.643Z</time></trkpt><trkpt lat="40.6640697" lon="-3.978004"><ele>928.0</ele><time>2026-05-04T08:07:11.643Z</time></trkpt><trkpt lat="40.664009" lon="-3.9780872"><ele>928.0</ele><time>2026-05-04T08:07:12.643Z</time></trkpt><trkpt lat="40.6639397" lon="-3.9781766"><ele>928.0</ele><time>2026-05-04T08:07:13.644Z</time></trkpt><trkpt lat="40.6638735" lon="-3.9782738"><ele>928.0</ele><time>2026-05-04T08:07:14.643Z</time></trkpt><trkpt lat="40.6638125" lon="-3.9783798"><ele>928.0</ele><time>2026-05-04T08:07:15.643Z</time></trkpt><trkpt lat="40.663753" lon="-3.97848"><ele>928.0</ele><time>2026-05-04T08:07:16.643Z</time></trkpt><trkpt lat="40.6636885" lon="-3.9785822"><ele>927.8</ele><time>2026-05-04T08:07:17.643Z</time></trkpt><trkpt lat="40.66362" lon="-3.9786888"><ele>927.5999999999999</ele><time>2026-05-04T08:07:18.644Z</time></trkpt><trkpt lat="40.6635467" lon="-3.9788007"><ele>927.4000000000001</ele><time>2026-05-04T08:07:19.644Z</time></trkpt><trkpt lat="40.6634765" lon="-3.9789112"><ele>927.2</ele><time>2026-05-04T08:07:20.643Z</time></trkpt><trkpt lat="40.6634038" lon="-3.9790268"><ele>927.0</ele><time>2026-05-04T08:07:21.643Z</time></trkpt><trkpt lat="40.663328" lon="-3.9791401"><ele>926.0</ele><time>2026-05-04T08:07:22.643Z</time></trkpt><trkpt lat="40.6632533" lon="-3.9792377"><ele>925.0</ele><time>2026-05-04T08:07:23.644Z</time></trkpt><trkpt lat="40.6631774" lon="-3.9793466"><ele>924.0</ele><time>2026-05-04T08:07:24.643Z</time></trkpt><trkpt lat="40.6631029" lon="-3.9794679"><ele>923.0</ele><time>2026-05-04T08:07:25.643Z</time></trkpt><trkpt lat="40.6630352" lon="-3.9796006"><ele>923.0000000000001</ele><time>2026-05-04T08:07:26.643Z</time></trkpt><trkpt lat="40.6629787" lon="-3.9797213"><ele>923.0</ele><time>2026-05-04T08:07:27.643Z</time></trkpt><trkpt lat="40.6629357" lon="-3.9798327"><ele>923.0</ele><time>2026-05-04T08:07:28.644Z</time></trkpt><trkpt lat="40.6629041" lon="-3.979917"><ele>923.0</ele><time>2026-05-04T08:07:29.644Z</time></trkpt><trkpt lat="40.6628531" lon="-3.9800336"><ele>923.0000000000001</ele><time>2026-05-04T08:07:31.643Z</time></trkpt><trkpt lat="40.6628134" lon="-3.9801126"><ele>923.0</ele><time>2026-05-04T08:07:33.643Z</time></trkpt><trkpt lat="40.6628075" lon="-3.9801981"><ele>922.8571428571429</ele><time>2026-05-04T08:07:35.643Z</time></trkpt><trkpt lat="40.6628135" lon="-3.9802984"><ele>922.7142857142858</ele><time>2026-05-04T08:07:38.643Z</time></trkpt><trkpt lat="40.6627645" lon="-3.9803624"><ele>922.5714285714287</ele><time>2026-05-04T08:07:41.642Z</time></trkpt><trkpt lat="40.6626773" lon="-3.9803486"><ele>922.4285714285714</ele><time>2026-05-04T08:07:47.642Z</time></trkpt><trkpt lat="40.6626063" lon="-3.9803312"><ele>922.2857142857144</ele><time>2026-05-04T08:07:49.642Z</time></trkpt><trkpt lat="40.6625397" lon="-3.9803427"><ele>922.1428571428572</ele><time>2026-05-04T08:07:52.642Z</time></trkpt><trkpt lat="40.6624738" lon="-3.9803641"><ele>922.0</ele><time>2026-05-04T08:07:55.642Z</time></trkpt><trkpt lat="40.6624105" lon="-3.980417"><ele>921.9999999999999</ele><time>2026-05-04T08:07:58.643Z</time></trkpt><trkpt lat="40.6623608" lon="-3.9804687"><ele>922.0</ele><time>2026-05-04T08:08:00.643Z</time></trkpt><trkpt lat="40.6622594" lon="-3.980505"><ele>922.0</ele><time>2026-05-04T08:08:02.642Z</time></trkpt><trkpt lat="40.6621852" lon="-3.9805119"><ele>922.0</ele><time>2026-05-04T08:08:03.642Z</time></trkpt><trkpt lat="40.6620941" lon="-3.9805235"><ele>921.9999999999999</ele><time>2026-05-04T08:08:04.642Z</time></trkpt><trkpt lat="40.661996" lon="-3.9805475"><ele>922.0</ele><time>2026-05-04T08:08:05.642Z</time></trkpt><trkpt lat="40.6619031" lon="-3.9805929"><ele>921.8</ele><time>2026-05-04T08:08:06.642Z</time></trkpt><trkpt lat="40.6618128" lon="-3.9806359"><ele>921.6</ele><time>2026-05-04T08:08:07.642Z</time></trkpt><trkpt lat="40.661724" lon="-3.9806757"><ele>921.3999999999999</ele><time>2026-05-04T08:08:08.643Z</time></trkpt><trkpt lat="40.6616322" lon="-3.9807116"><ele>921.1999999999999</ele><time>2026-05-04T08:08:09.642Z</time></trkpt><trkpt lat="40.661534" lon="-3.9807567"><ele>921.0</ele><time>2026-05-04T08:08:10.642Z</time></trkpt><trkpt lat="40.661435" lon="-3.9807977"><ele>921.0</ele><time>2026-05-04T08:08:11.642Z</time></trkpt><trkpt lat="40.661348" lon="-3.980849"><ele>920.9999999999999</ele><time>2026-05-04T08:08:12.642Z</time></trkpt><trkpt lat="40.661261" lon="-3.9809088"><ele>920.9999999999999</ele><time>2026-05-04T08:08:13.642Z</time></trkpt><trkpt lat="40.6611726" lon="-3.9809748"><ele>921.0</ele><time>2026-05-04T08:08:14.642Z</time></trkpt><trkpt lat="40.661085" lon="-3.9810441"><ele>921.0</ele><time>2026-05-04T08:08:15.642Z</time></trkpt><trkpt lat="40.6610017" lon="-3.9811106"><ele>920.1999999999999</ele><time>2026-05-04T08:08:16.642Z</time></trkpt><trkpt lat="40.660915" lon="-3.9811596"><ele>919.3999999999999</ele><time>2026-05-04T08:08:17.642Z</time></trkpt><trkpt lat="40.6608235" lon="-3.9812009"><ele>918.6</ele><time>2026-05-04T08:08:18.642Z</time></trkpt><trkpt lat="40.6607247" lon="-3.9812438"><ele>917.8</ele><time>2026-05-04T08:08:19.642Z</time></trkpt><trkpt lat="40.6606191" lon="-3.9812947"><ele>917.0</ele><time>2026-05-04T08:08:20.642Z</time></trkpt><trkpt lat="40.6605142" lon="-3.9813582"><ele>917.0</ele><time>2026-05-04T08:08:21.642Z</time></trkpt><trkpt lat="40.6604107" lon="-3.9814227"><ele>917.0</ele><time>2026-05-04T08:08:22.642Z</time></trkpt><trkpt lat="40.6603093" lon="-3.9814876"><ele>917.0</ele><time>2026-05-04T08:08:23.642Z</time></trkpt><trkpt lat="40.6602032" lon="-3.9815401"><ele>917.0</ele><time>2026-05-04T08:08:24.642Z</time></trkpt><trkpt lat="40.6600934" lon="-3.9815798"><ele>917.2</ele><time>2026-05-04T08:08:25.642Z</time></trkpt><trkpt lat="40.6599878" lon="-3.9816203"><ele>917.4000000000001</ele><time>2026-05-04T08:08:26.642Z</time></trkpt><trkpt lat="40.6598969" lon="-3.9816644"><ele>917.5999999999999</ele><time>2026-05-04T08:08:27.642Z</time></trkpt><trkpt lat="40.6597984" lon="-3.9817165"><ele>917.8</ele><time>2026-05-04T08:08:28.642Z</time></trkpt><trkpt lat="40.6597009" lon="-3.981774"><ele>918.0</ele><time>2026-05-04T08:08:29.642Z</time></trkpt><trkpt lat="40.6596109" lon="-3.9818316"><ele>917.6666666666666</ele><time>2026-05-04T08:08:30.642Z</time></trkpt><trkpt lat="40.6595443" lon="-3.9818836"><ele>917.3333333333333</ele><time>2026-05-04T08:08:31.643Z</time></trkpt><trkpt lat="40.6594916" lon="-3.9819334"><ele>917.0</ele><time>2026-05-04T08:08:32.642Z</time></trkpt><trkpt lat="40.6593855" lon="-3.9820337"><ele>916.6666666666666</ele><time>2026-05-04T08:08:34.642Z</time></trkpt><trkpt lat="40.6593201" lon="-3.9820923"><ele>916.3333333333333</ele><time>2026-05-04T08:08:35.642Z</time></trkpt><trkpt lat="40.6592359" lon="-3.9821496"><ele>916.0</ele><time>2026-05-04T08:08:36.642Z</time></trkpt><trkpt lat="40.65915" lon="-3.9822077"><ele>915.5999999999999</ele><time>2026-05-04T08:08:37.642Z</time></trkpt><trkpt lat="40.6590724" lon="-3.9822622"><ele>915.1999999999999</ele><time>2026-05-04T08:08:38.642Z</time></trkpt><trkpt lat="40.6589861" lon="-3.9823018"><ele>914.8000000000001</ele><time>2026-05-04T08:08:39.642Z</time></trkpt><trkpt lat="40.6588952" lon="-3.9823443"><ele>914.4000000000001</ele><time>2026-05-04T08:08:40.643Z</time></trkpt><trkpt lat="40.6587922" lon="-3.9824197"><ele>914.0</ele><time>2026-05-04T08:08:41.642Z</time></trkpt><trkpt lat="40.6587077" lon="-3.9825032"><ele>914.0000000000001</ele><time>2026-05-04T08:08:42.642Z</time></trkpt><trkpt lat="40.6586226" lon="-3.9825792"><ele>914.0</ele><time>2026-05-04T08:08:43.642Z</time></trkpt><trkpt lat="40.6585475" lon="-3.9826278"><ele>914.0</ele><time>2026-05-04T08:08:44.642Z</time></trkpt><trkpt lat="40.658478" lon="-3.9826595"><ele>914.0</ele><time>2026-05-04T08:08:45.642Z</time></trkpt><trkpt lat="40.658371" lon="-3.9826652"><ele>914.0000000000001</ele><time>2026-05-04T08:08:47.642Z</time></trkpt><trkpt lat="40.6582945" lon="-3.982689"><ele>914.0</ele><time>2026-05-04T08:08:49.642Z</time></trkpt><trkpt lat="40.6581999" lon="-3.9827526"><ele>914.1666666666667</ele><time>2026-05-04T08:08:51.642Z</time></trkpt><trkpt lat="40.6581315" lon="-3.9827957"><ele>914.3333333333334</ele><time>2026-05-04T08:08:52.642Z</time></trkpt><trkpt lat="40.6580636" lon="-3.9828361"><ele>914.5</ele><time>2026-05-04T08:08:53.642Z</time></trkpt><trkpt lat="40.657989" lon="-3.9828728"><ele>914.6666666666667</ele><time>2026-05-04T08:08:54.642Z</time></trkpt><trkpt lat="40.6579168" lon="-3.9829147"><ele>914.8333333333334</ele><time>2026-05-04T08:08:55.642Z</time></trkpt><trkpt lat="40.6578525" lon="-3.9829493"><ele>915.0</ele><time>2026-05-04T08:08:56.642Z</time></trkpt><trkpt lat="40.6577435" lon="-3.9830236"><ele>915.1666666666666</ele><time>2026-05-04T08:08:58.642Z</time></trkpt><trkpt lat="40.657661" lon="-3.9830897"><ele>915.3333333333333</ele><time>2026-05-04T08:09:00.642Z</time></trkpt><trkpt lat="40.6575865" lon="-3.9831266"><ele>915.5</ele><time>2026-05-04T08:09:02.642Z</time></trkpt><trkpt lat="40.6574876" lon="-3.9831777"><ele>915.6666666666666</ele><time>2026-05-04T08:09:04.642Z</time></trkpt><trkpt lat="40.6574137" lon="-3.9832036"><ele>915.8333333333333</ele><time>2026-05-04T08:09:05.642Z</time></trkpt><trkpt lat="40.6573378" lon="-3.9832363"><ele>916.0</ele><time>2026-05-04T08:09:06.642Z</time></trkpt><trkpt lat="40.6572589" lon="-3.9832906"><ele>916.0</ele><time>2026-05-04T08:09:07.642Z</time></trkpt><trkpt lat="40.6571747" lon="-3.983343"><ele>915.9999999999999</ele><time>2026-05-04T08:09:08.642Z</time></trkpt><trkpt lat="40.6570827" lon="-3.9834023"><ele>915.9999999999999</ele><time>2026-05-04T08:09:09.642Z</time></trkpt><trkpt lat="40.6569952" lon="-3.9834561"><ele>916.0</ele><time>2026-05-04T08:09:10.643Z</time></trkpt><trkpt lat="40.6569106" lon="-3.9834999"><ele>916.0</ele><time>2026-05-04T08:09:11.642Z</time></trkpt><trkpt lat="40.6568235" lon="-3.9835366"><ele>915.6666666666666</ele><time>2026-05-04T08:09:12.642Z</time></trkpt><trkpt lat="40.6567476" lon="-3.9835852"><ele>915.3333333333333</ele><time>2026-05-04T08:09:13.642Z</time></trkpt><trkpt lat="40.6566909" lon="-3.9836389"><ele>915.0</ele><time>2026-05-04T08:09:14.642Z</time></trkpt><trkpt lat="40.6566396" lon="-3.983699"><ele>914.6666666666667</ele><time>2026-05-04T08:09:15.642Z</time></trkpt><trkpt lat="40.6565989" lon="-3.9837656"><ele>914.3333333333334</ele><time>2026-05-04T08:09:16.642Z</time></trkpt><trkpt lat="40.6564938" lon="-3.9838382"><ele>914.0</ele><time>2026-05-04T08:09:18.642Z</time></trkpt><trkpt lat="40.6564241" lon="-3.9838785"><ele>914.0000000000001</ele><time>2026-05-04T08:09:19.642Z</time></trkpt><trkpt lat="40.6563526" lon="-3.9839327"><ele>914.0</ele><time>2026-05-04T08:09:20.642Z</time></trkpt><trkpt lat="40.6562784" lon="-3.9839818"><ele>914.0</ele><time>2026-05-04T08:09:21.642Z</time></trkpt><trkpt lat="40.6562044" lon="-3.9840311"><ele>914.0</ele><time>2026-05-04T08:09:22.642Z</time></trkpt><trkpt lat="40.6561294" lon="-3.9840891"><ele>914.0000000000001</ele><time>2026-05-04T08:09:23.642Z</time></trkpt><trkpt lat="40.6560468" lon="-3.9841498"><ele>914.0</ele><time>2026-05-04T08:09:24.642Z</time></trkpt><trkpt lat="40.6559697" lon="-3.9842277"><ele>914.6</ele><time>2026-05-04T08:09:25.642Z</time></trkpt><trkpt lat="40.6558864" lon="-3.9843"><ele>915.2</ele><time>2026-05-04T08:09:26.642Z</time></trkpt><trkpt lat="40.6558007" lon="-3.984365"><ele>915.8000000000001</ele><time>2026-05-04T08:09:27.642Z</time></trkpt><trkpt lat="40.6557161" lon="-3.9844183"><ele>916.4000000000001</ele><time>2026-05-04T08:09:28.643Z</time></trkpt><trkpt lat="40.6556501" lon="-3.9844658"><ele>917.0</ele><time>2026-05-04T08:09:29.642Z</time></trkpt><trkpt lat="40.655568" lon="-3.9845398"><ele>917.0</ele><time>2026-05-04T08:09:31.642Z</time></trkpt><trkpt lat="40.6554892" lon="-3.9846273"><ele>917.0</ele><time>2026-05-04T08:09:33.642Z</time></trkpt><trkpt lat="40.6554373" lon="-3.984702"><ele>917.0</ele><time>2026-05-04T08:09:34.643Z</time></trkpt><trkpt lat="40.6553745" lon="-3.9847865"><ele>917.0</ele><time>2026-05-04T08:09:35.642Z</time></trkpt><trkpt lat="40.6553107" lon="-3.9848779"><ele>917.0</ele><time>2026-05-04T08:09:36.642Z</time></trkpt><trkpt lat="40.6552474" lon="-3.9849658"><ele>917.6</ele><time>2026-05-04T08:09:37.642Z</time></trkpt><trkpt lat="40.6551721" lon="-3.9850585"><ele>918.2</ele><time>2026-05-04T08:09:38.642Z</time></trkpt><trkpt lat="40.655085" lon="-3.9851537"><ele>918.8</ele><time>2026-05-04T08:09:39.642Z</time></trkpt><trkpt lat="40.6549975" lon="-3.9852439"><ele>919.4</ele><time>2026-05-04T08:09:40.642Z</time></trkpt><trkpt lat="40.6549195" lon="-3.9853301"><ele>920.0</ele><time>2026-05-04T08:09:41.643Z</time></trkpt><trkpt lat="40.6548441" lon="-3.9854182"><ele>920.0</ele><time>2026-05-04T08:09:42.642Z</time></trkpt><trkpt lat="40.6547793" lon="-3.9855077"><ele>920.0</ele><time>2026-05-04T08:09:43.642Z</time></trkpt><trkpt lat="40.6547179" lon="-3.9855854"><ele>920.0</ele><time>2026-05-04T08:09:44.642Z</time></trkpt><trkpt lat="40.6546749" lon="-3.9856846"><ele>920.0</ele><time>2026-05-04T08:09:45.642Z</time></trkpt><trkpt lat="40.6546318" lon="-3.9857861"><ele>920.0</ele><time>2026-05-04T08:09:46.642Z</time></trkpt><trkpt lat="40.6545701" lon="-3.9858834"><ele>920.0</ele><time>2026-05-04T08:09:47.642Z</time></trkpt><trkpt lat="40.6544945" lon="-3.9859724"><ele>920.0</ele><time>2026-05-04T08:09:48.642Z</time></trkpt><trkpt lat="40.6544129" lon="-3.9860584"><ele>920.0</ele><time>2026-05-04T08:09:49.642Z</time></trkpt><trkpt lat="40.6543367" lon="-3.9861475"><ele>920.0</ele><time>2026-05-04T08:09:50.642Z</time></trkpt><trkpt lat="40.6542572" lon="-3.9862347"><ele>920.0</ele><time>2026-05-04T08:09:51.642Z</time></trkpt><trkpt lat="40.6541762" lon="-3.9863194"><ele>920.0000000000001</ele><time>2026-05-04T08:09:52.642Z</time></trkpt><trkpt lat="40.6541085" lon="-3.9864068"><ele>920.0</ele><time>2026-05-04T08:09:53.643Z</time></trkpt><trkpt lat="40.6540441" lon="-3.9864694"><ele>920.0</ele><time>2026-05-04T08:09:54.643Z</time></trkpt><trkpt lat="40.6539882" lon="-3.9865243"><ele>920.0</ele><time>2026-05-04T08:09:55.642Z</time></trkpt><trkpt lat="40.6539294" lon="-3.986597"><ele>920.0000000000001</ele><time>2026-05-04T08:09:56.642Z</time></trkpt><trkpt lat="40.6538598" lon="-3.9866774"><ele>920.0</ele><time>2026-05-04T08:09:57.642Z</time></trkpt><trkpt lat="40.6537774" lon="-3.9867502"><ele>919.8</ele><time>2026-05-04T08:09:58.642Z</time></trkpt><trkpt lat="40.6537003" lon="-3.9868285"><ele>919.6</ele><time>2026-05-04T08:09:59.643Z</time></trkpt><trkpt lat="40.6536336" lon="-3.9869045"><ele>919.4000000000001</ele><time>2026-05-04T08:10:00.642Z</time></trkpt><trkpt lat="40.6535629" lon="-3.986971"><ele>919.2</ele><time>2026-05-04T08:10:01.642Z</time></trkpt><trkpt lat="40.6534728" lon="-3.9870143"><ele>919.0</ele><time>2026-05-04T08:10:02.642Z</time></trkpt><trkpt lat="40.6533776" lon="-3.9870602"><ele>919.0</ele><time>2026-05-04T08:10:03.642Z</time></trkpt><trkpt lat="40.6532733" lon="-3.9871072"><ele>919.0000000000001</ele><time>2026-05-04T08:10:04.642Z</time></trkpt><trkpt lat="40.6531643" lon="-3.9871616"><ele>919.0000000000001</ele><time>2026-05-04T08:10:05.642Z</time></trkpt><trkpt lat="40.6530646" lon="-3.9872304"><ele>919.0</ele><time>2026-05-04T08:10:06.642Z</time></trkpt><trkpt lat="40.6529791" lon="-3.9872996"><ele>919.0</ele><time>2026-05-04T08:10:07.643Z</time></trkpt><trkpt lat="40.652887" lon="-3.9873737"><ele>919.0</ele><time>2026-05-04T08:10:08.642Z</time></trkpt><trkpt lat="40.6527979" lon="-3.9874494"><ele>919.0000000000001</ele><time>2026-05-04T08:10:09.643Z</time></trkpt><trkpt lat="40.6527043" lon="-3.9875206"><ele>919.0000000000001</ele><time>2026-05-04T08:10:10.642Z</time></trkpt><trkpt lat="40.6526073" lon="-3.9875919"><ele>919.0</ele><time>2026-05-04T08:10:11.642Z</time></trkpt><trkpt lat="40.6525141" lon="-3.9876533"><ele>919.0</ele><time>2026-05-04T08:10:12.642Z</time></trkpt><trkpt lat="40.6524338" lon="-3.987707"><ele>919.3333333333333</ele><time>2026-05-04T08:10:13.642Z</time></trkpt><trkpt lat="40.6523793" lon="-3.9877499"><ele>919.6666666666666</ele><time>2026-05-04T08:10:14.642Z</time></trkpt><trkpt lat="40.6522972" lon="-3.9877996"><ele>920.0</ele><time>2026-05-04T08:10:16.642Z</time></trkpt><trkpt lat="40.6521779" lon="-3.9877819"><ele>920.3333333333333</ele><time>2026-05-04T08:10:18.642Z</time></trkpt><trkpt lat="40.6520982" lon="-3.9877888"><ele>920.6666666666666</ele><time>2026-05-04T08:10:19.642Z</time></trkpt><trkpt lat="40.6520117" lon="-3.9877936"><ele>921.0</ele><time>2026-05-04T08:10:20.642Z</time></trkpt><trkpt lat="40.6519226" lon="-3.9877907"><ele>921.1666666666666</ele><time>2026-05-04T08:10:21.642Z</time></trkpt><trkpt lat="40.6518588" lon="-3.987795"><ele>921.3333333333333</ele><time>2026-05-04T08:10:22.642Z</time></trkpt><trkpt lat="40.6517936" lon="-3.9878097"><ele>921.5</ele><time>2026-05-04T08:10:23.642Z</time></trkpt><trkpt lat="40.6517337" lon="-3.9878472"><ele>921.6666666666666</ele><time>2026-05-04T08:10:24.642Z</time></trkpt><trkpt lat="40.651682" lon="-3.9879013"><ele>921.8333333333333</ele><time>2026-05-04T08:10:25.642Z</time></trkpt><trkpt lat="40.6516023" lon="-3.9879947"><ele>922.0</ele><time>2026-05-04T08:10:27.642Z</time></trkpt><trkpt lat="40.6514994" lon="-3.9880757"><ele>922.0</ele><time>2026-05-04T08:10:29.642Z</time></trkpt><trkpt lat="40.6513789" lon="-3.988173"><ele>922.0</ele><time>2026-05-04T08:10:31.643Z</time></trkpt><trkpt lat="40.6513159" lon="-3.9882428"><ele>922.0</ele><time>2026-05-04T08:10:32.642Z</time></trkpt><trkpt lat="40.6512508" lon="-3.9883192"><ele>922.0</ele><time>2026-05-04T08:10:33.642Z</time></trkpt><trkpt lat="40.6511915" lon="-3.9883787"><ele>922.0</ele><time>2026-05-04T08:10:34.642Z</time></trkpt><trkpt lat="40.6511212" lon="-3.9884221"><ele>921.4000000000001</ele><time>2026-05-04T08:10:35.642Z</time></trkpt><trkpt lat="40.6510364" lon="-3.9884586"><ele>920.8000000000001</ele><time>2026-05-04T08:10:36.642Z</time></trkpt><trkpt lat="40.6509441" lon="-3.9884945"><ele>920.2</ele><time>2026-05-04T08:10:37.642Z</time></trkpt><trkpt lat="40.6508383" lon="-3.9885344"><ele>919.6</ele><time>2026-05-04T08:10:38.643Z</time></trkpt><trkpt lat="40.6507472" lon="-3.9885639"><ele>919.0</ele><time>2026-05-04T08:10:39.642Z</time></trkpt><trkpt lat="40.6506619" lon="-3.9885887"><ele>919.0</ele><time>2026-05-04T08:10:40.642Z</time></trkpt><trkpt lat="40.6505774" lon="-3.9886218"><ele>919.0000000000001</ele><time>2026-05-04T08:10:41.642Z</time></trkpt><trkpt lat="40.6505047" lon="-3.9886458"><ele>919.0000000000001</ele><time>2026-05-04T08:10:42.642Z</time></trkpt><trkpt lat="40.6504036" lon="-3.9886977"><ele>919.0</ele><time>2026-05-04T08:10:44.642Z</time></trkpt><trkpt lat="40.650316" lon="-3.9887535"><ele>919.0</ele><time>2026-05-04T08:10:46.642Z</time></trkpt><trkpt lat="40.6502252" lon="-3.9888046"><ele>918.6666666666666</ele><time>2026-05-04T08:10:48.642Z</time></trkpt><trkpt lat="40.6501588" lon="-3.9888253"><ele>918.3333333333333</ele><time>2026-05-04T08:10:49.642Z</time></trkpt><trkpt lat="40.6500862" lon="-3.9888519"><ele>918.0</ele><time>2026-05-04T08:10:50.643Z</time></trkpt><trkpt lat="40.6500025" lon="-3.9888803"><ele>917.6666666666667</ele><time>2026-05-04T08:10:51.642Z</time></trkpt><trkpt lat="40.6499104" lon="-3.9889116"><ele>917.3333333333334</ele><time>2026-05-04T08:10:52.642Z</time></trkpt><trkpt lat="40.6498199" lon="-3.9889289"><ele>917.0</ele><time>2026-05-04T08:10:53.642Z</time></trkpt><trkpt lat="40.6497267" lon="-3.9889256"><ele>917.0000000000001</ele><time>2026-05-04T08:10:54.642Z</time></trkpt><trkpt lat="40.649641" lon="-3.988917"><ele>917.0</ele><time>2026-05-04T08:10:55.642Z</time></trkpt><trkpt lat="40.6495552" lon="-3.9889089"><ele>917.0</ele><time>2026-05-04T08:10:56.642Z</time></trkpt><trkpt lat="40.64947" lon="-3.988895"><ele>917.0</ele><time>2026-05-04T08:10:57.643Z</time></trkpt><trkpt lat="40.649383" lon="-3.9888793"><ele>917.0000000000001</ele><time>2026-05-04T08:10:58.643Z</time></trkpt><trkpt lat="40.6493024" lon="-3.9888694"><ele>917.0</ele><time>2026-05-04T08:10:59.643Z</time></trkpt><trkpt lat="40.6492228" lon="-3.9888585"><ele>916.8</ele><time>2026-05-04T08:11:00.643Z</time></trkpt><trkpt lat="40.6491347" lon="-3.9888326"><ele>916.6</ele><time>2026-05-04T08:11:01.642Z</time></trkpt><trkpt lat="40.6490364" lon="-3.9887947"><ele>916.3999999999999</ele><time>2026-05-04T08:11:02.642Z</time></trkpt><trkpt lat="40.6489518" lon="-3.9887453"><ele>916.1999999999999</ele><time>2026-05-04T08:11:03.642Z</time></trkpt><trkpt lat="40.6488656" lon="-3.9886909"><ele>916.0</ele><time>2026-05-04T08:11:04.642Z</time></trkpt><trkpt lat="40.6487745" lon="-3.9886325"><ele>915.9999999999999</ele><time>2026-05-04T08:11:05.642Z</time></trkpt><trkpt lat="40.6486917" lon="-3.9885734"><ele>916.0</ele><time>2026-05-04T08:11:06.642Z</time></trkpt><trkpt lat="40.6486132" lon="-3.988509"><ele>916.0</ele><time>2026-05-04T08:11:07.642Z</time></trkpt><trkpt lat="40.6485439" lon="-3.9884486"><ele>916.0</ele><time>2026-05-04T08:11:08.642Z</time></trkpt><trkpt lat="40.6484819" lon="-3.9883862"><ele>915.9999999999999</ele><time>2026-05-04T08:11:09.642Z</time></trkpt><trkpt lat="40.6484144" lon="-3.9883187"><ele>916.0</ele><time>2026-05-04T08:11:10.642Z</time></trkpt><trkpt lat="40.6483492" lon="-3.9882591"><ele>916.3333333333333</ele><time>2026-05-04T08:11:11.642Z</time></trkpt><trkpt lat="40.6482794" lon="-3.9882047"><ele>916.6666666666666</ele><time>2026-05-04T08:11:12.642Z</time></trkpt><trkpt lat="40.6482057" lon="-3.9881519"><ele>917.0</ele><time>2026-05-04T08:11:13.642Z</time></trkpt><trkpt lat="40.6481373" lon="-3.9881004"><ele>917.3333333333333</ele><time>2026-05-04T08:11:14.643Z</time></trkpt><trkpt lat="40.6480728" lon="-3.988043"><ele>917.6666666666666</ele><time>2026-05-04T08:11:15.642Z</time></trkpt><trkpt lat="40.6480073" lon="-3.9879921"><ele>918.0</ele><time>2026-05-04T08:11:16.642Z</time></trkpt><trkpt lat="40.6479362" lon="-3.9879431"><ele>918.0</ele><time>2026-05-04T08:11:17.643Z</time></trkpt><trkpt lat="40.6478711" lon="-3.987892"><ele>918.0</ele><time>2026-05-04T08:11:18.642Z</time></trkpt><trkpt lat="40.6478122" lon="-3.9878353"><ele>918.0</ele><time>2026-05-04T08:11:19.642Z</time></trkpt><trkpt lat="40.6477561" lon="-3.9877776"><ele>918.0</ele><time>2026-05-04T08:11:20.642Z</time></trkpt><trkpt lat="40.6476869" lon="-3.9877296"><ele>918.0</ele><time>2026-05-04T08:11:21.642Z</time></trkpt><trkpt lat="40.647612" lon="-3.9876897"><ele>918.0</ele><time>2026-05-04T08:11:22.642Z</time></trkpt><trkpt lat="40.6475379" lon="-3.9876484"><ele>918.0</ele><time>2026-05-04T08:11:23.642Z</time></trkpt><trkpt lat="40.6474704" lon="-3.987582"><ele>918.0</ele><time>2026-05-04T08:11:24.642Z</time></trkpt><trkpt lat="40.6474162" lon="-3.9874956"><ele>918.0</ele><time>2026-05-04T08:11:25.642Z</time></trkpt><trkpt lat="40.6473648" lon="-3.9873938"><ele>918.0</ele><time>2026-05-04T08:11:26.643Z</time></trkpt><trkpt lat="40.6473115" lon="-3.9872801"><ele>918.0</ele><time>2026-05-04T08:11:27.642Z</time></trkpt><trkpt lat="40.6472447" lon="-3.987176"><ele>918.8</ele><time>2026-05-04T08:11:28.642Z</time></trkpt><trkpt lat="40.6471763" lon="-3.987075"><ele>919.5999999999999</ele><time>2026-05-04T08:11:29.642Z</time></trkpt><trkpt lat="40.6471184" lon="-3.9869886"><ele>920.4000000000001</ele><time>2026-05-04T08:11:30.642Z</time></trkpt><trkpt lat="40.6470685" lon="-3.9869191"><ele>921.2</ele><time>2026-05-04T08:11:31.642Z</time></trkpt><trkpt lat="40.6470153" lon="-3.9868542"><ele>922.0</ele><time>2026-05-04T08:11:32.642Z</time></trkpt><trkpt lat="40.6469199" lon="-3.9867575"><ele>921.9999999999999</ele><time>2026-05-04T08:11:34.642Z</time></trkpt><trkpt lat="40.6468272" lon="-3.9867473"><ele>922.0</ele><time>2026-05-04T08:11:36.642Z</time></trkpt><trkpt lat="40.6467636" lon="-3.9867755"><ele>922.0</ele><time>2026-05-04T08:11:37.643Z</time></trkpt><trkpt lat="40.6466942" lon="-3.9868014"><ele>922.0</ele><time>2026-05-04T08:11:38.642Z</time></trkpt><trkpt lat="40.6465863" lon="-3.9867633"><ele>921.9999999999999</ele><time>2026-05-04T08:11:40.642Z</time></trkpt><trkpt lat="40.6465397" lon="-3.9866956"><ele>922.0</ele><time>2026-05-04T08:11:41.642Z</time></trkpt><trkpt lat="40.6464881" lon="-3.9866037"><ele>922.3333333333333</ele><time>2026-05-04T08:11:42.642Z</time></trkpt><trkpt lat="40.6464298" lon="-3.986525"><ele>922.6666666666666</ele><time>2026-05-04T08:11:43.642Z</time></trkpt><trkpt lat="40.6463681" lon="-3.9864554"><ele>923.0</ele><time>2026-05-04T08:11:44.642Z</time></trkpt><trkpt lat="40.6462989" lon="-3.986411"><ele>923.3333333333333</ele><time>2026-05-04T08:11:45.642Z</time></trkpt><trkpt lat="40.6462356" lon="-3.9863837"><ele>923.6666666666666</ele><time>2026-05-04T08:11:46.642Z</time></trkpt><trkpt lat="40.646146" lon="-3.9863551"><ele>924.0</ele><time>2026-05-04T08:11:48.643Z</time></trkpt><trkpt lat="40.6460788" lon="-3.9863826"><ele>924.0</ele><time>2026-05-04T08:11:58.643Z</time></trkpt><trkpt lat="40.6460131" lon="-3.9865264"><ele>924.0</ele><time>2026-05-04T08:12:00.642Z</time></trkpt><trkpt lat="40.645971" lon="-3.9866188"><ele>924.0</ele><time>2026-05-04T08:12:01.642Z</time></trkpt><trkpt lat="40.6459199" lon="-3.9867045"><ele>924.0</ele><time>2026-05-04T08:12:02.642Z</time></trkpt><trkpt lat="40.6458738" lon="-3.9867725"><ele>924.0</ele><time>2026-05-04T08:12:03.643Z</time></trkpt><trkpt lat="40.6458369" lon="-3.986842"><ele>924.0</ele><time>2026-05-04T08:12:04.642Z</time></trkpt><trkpt lat="40.6457951" lon="-3.986917"><ele>924.0</ele><time>2026-05-04T08:12:05.642Z</time></trkpt><trkpt lat="40.6457531" lon="-3.9869878"><ele>924.0</ele><time>2026-05-04T08:12:06.642Z</time></trkpt><trkpt lat="40.6457107" lon="-3.9870568"><ele>924.0</ele><time>2026-05-04T08:12:07.642Z</time></trkpt><trkpt lat="40.6456674" lon="-3.987132"><ele>924.0</ele><time>2026-05-04T08:12:08.643Z</time></trkpt><trkpt lat="40.6456315" lon="-3.9872215"><ele>924.0</ele><time>2026-05-04T08:12:09.643Z</time></trkpt><trkpt lat="40.6456047" lon="-3.9873132"><ele>924.0</ele><time>2026-05-04T08:12:10.642Z</time></trkpt><trkpt lat="40.6455816" lon="-3.9874003"><ele>924.0</ele><time>2026-05-04T08:12:11.642Z</time></trkpt><trkpt lat="40.6455588" lon="-3.9874795"><ele>924.0</ele><time>2026-05-04T08:12:12.642Z</time></trkpt><trkpt lat="40.6455301" lon="-3.9875994"><ele>924.0000000000001</ele><time>2026-05-04T08:12:14.642Z</time></trkpt><trkpt lat="40.6455064" lon="-3.9877031"><ele>924.0000000000001</ele><time>2026-05-04T08:12:16.642Z</time></trkpt><trkpt lat="40.6454841" lon="-3.9878168"><ele>924.0</ele><time>2026-05-04T08:12:18.642Z</time></trkpt><trkpt lat="40.6454651" lon="-3.9879773"><ele>924.0</ele><time>2026-05-04T08:12:20.642Z</time></trkpt><trkpt lat="40.6454445" lon="-3.9880565"><ele>924.0</ele><time>2026-05-04T08:12:21.642Z</time></trkpt><trkpt lat="40.6453477" lon="-3.9881413"><ele>924.0000000000001</ele><time>2026-05-04T08:12:23.642Z</time></trkpt><trkpt lat="40.6452257" lon="-3.9882278"><ele>924.0000000000001</ele><time>2026-05-04T08:12:25.642Z</time></trkpt><trkpt lat="40.6451449" lon="-3.9882964"><ele>924.0</ele><time>2026-05-04T08:12:26.642Z</time></trkpt><trkpt lat="40.6450736" lon="-3.9883695"><ele>924.0</ele><time>2026-05-04T08:12:27.642Z</time></trkpt><trkpt lat="40.644998" lon="-3.9884498"><ele>923.8333333333334</ele><time>2026-05-04T08:12:28.642Z</time></trkpt><trkpt lat="40.6449257" lon="-3.9885166"><ele>923.6666666666667</ele><time>2026-05-04T08:12:29.642Z</time></trkpt><trkpt lat="40.6448617" lon="-3.9885847"><ele>923.5</ele><time>2026-05-04T08:12:30.642Z</time></trkpt><trkpt lat="40.6447978" lon="-3.9886399"><ele>923.3333333333334</ele><time>2026-05-04T08:12:31.642Z</time></trkpt><trkpt lat="40.6447365" lon="-3.9886932"><ele>923.1666666666667</ele><time>2026-05-04T08:12:32.642Z</time></trkpt><trkpt lat="40.6446804" lon="-3.9887426"><ele>923.0</ele><time>2026-05-04T08:12:33.642Z</time></trkpt><trkpt lat="40.6445639" lon="-3.9886861"><ele>923.0</ele><time>2026-05-04T08:12:35.642Z</time></trkpt><trkpt lat="40.644517" lon="-3.9886122"><ele>923.0</ele><time>2026-05-04T08:12:36.643Z</time></trkpt><trkpt lat="40.6444711" lon="-3.9885186"><ele>923.0</ele><time>2026-05-04T08:12:37.643Z</time></trkpt><trkpt lat="40.6444048" lon="-3.9884379"><ele>923.0</ele><time>2026-05-04T08:12:38.642Z</time></trkpt><trkpt lat="40.6443221" lon="-3.9883506"><ele>923.0</ele><time>2026-05-04T08:12:39.642Z</time></trkpt><trkpt lat="40.6442253" lon="-3.9882731"><ele>924.0</ele><time>2026-05-04T08:12:40.643Z</time></trkpt><trkpt lat="40.6441315" lon="-3.988204"><ele>925.0</ele><time>2026-05-04T08:12:41.642Z</time></trkpt><trkpt lat="40.6440347" lon="-3.9881369"><ele>926.0</ele><time>2026-05-04T08:12:42.642Z</time></trkpt><trkpt lat="40.6439287" lon="-3.9880621"><ele>927.0</ele><time>2026-05-04T08:12:43.642Z</time></trkpt><trkpt lat="40.6438239" lon="-3.9879899"><ele>927.0</ele><time>2026-05-04T08:12:44.642Z</time></trkpt><trkpt lat="40.6437295" lon="-3.9879172"><ele>927.0</ele><time>2026-05-04T08:12:45.642Z</time></trkpt><trkpt lat="40.6436307" lon="-3.9878536"><ele>927.0</ele><time>2026-05-04T08:12:46.642Z</time></trkpt><trkpt lat="40.6435363" lon="-3.987785"><ele>927.0</ele><time>2026-05-04T08:12:47.642Z</time></trkpt><trkpt lat="40.6434325" lon="-3.9877132"><ele>927.0</ele><time>2026-05-04T08:12:48.642Z</time></trkpt><trkpt lat="40.6433387" lon="-3.9876396"><ele>927.8</ele><time>2026-05-04T08:12:49.642Z</time></trkpt><trkpt lat="40.6432457" lon="-3.9875723"><ele>928.6</ele><time>2026-05-04T08:12:50.642Z</time></trkpt><trkpt lat="40.643157" lon="-3.9875271"><ele>929.3999999999999</ele><time>2026-05-04T08:12:51.642Z</time></trkpt><trkpt lat="40.6430662" lon="-3.9875227"><ele>930.1999999999999</ele><time>2026-05-04T08:12:52.642Z</time></trkpt><trkpt lat="40.6429766" lon="-3.9875577"><ele>931.0</ele><time>2026-05-04T08:12:53.642Z</time></trkpt><trkpt lat="40.6428885" lon="-3.987631"><ele>931.0</ele><time>2026-05-04T08:12:54.642Z</time></trkpt><trkpt lat="40.6428096" lon="-3.9877317"><ele>931.0</ele><time>2026-05-04T08:12:55.642Z</time></trkpt><trkpt lat="40.6427397" lon="-3.9878588"><ele>931.0</ele><time>2026-05-04T08:12:56.642Z</time></trkpt><trkpt lat="40.6426729" lon="-3.9879803"><ele>931.0</ele><time>2026-05-04T08:12:57.642Z</time></trkpt><trkpt lat="40.6426151" lon="-3.9881073"><ele>930.75</ele><time>2026-05-04T08:12:58.642Z</time></trkpt><trkpt lat="40.6425537" lon="-3.9882365"><ele>930.5</ele><time>2026-05-04T08:12:59.642Z</time></trkpt><trkpt lat="40.6424863" lon="-3.9883688"><ele>930.25</ele><time>2026-05-04T08:13:00.642Z</time></trkpt><trkpt lat="40.6424143" lon="-3.9885094"><ele>930.0</ele><time>2026-05-04T08:13:01.642Z</time></trkpt><trkpt lat="40.6423371" lon="-3.9886566"><ele>930.0</ele><time>2026-05-04T08:13:02.642Z</time></trkpt><trkpt lat="40.6422598" lon="-3.9887954"><ele>930.0</ele><time>2026-05-04T08:13:03.642Z</time></trkpt><trkpt lat="40.6421851" lon="-3.9889309"><ele>930.0</ele><time>2026-05-04T08:13:04.642Z</time></trkpt><trkpt lat="40.6421169" lon="-3.9890643"><ele>930.0</ele><time>2026-05-04T08:13:05.642Z</time></trkpt><trkpt lat="40.6420486" lon="-3.9891951"><ele>929.6</ele><time>2026-05-04T08:13:06.642Z</time></trkpt><trkpt lat="40.6419833" lon="-3.9893099"><ele>929.2</ele><time>2026-05-04T08:13:07.643Z</time></trkpt><trkpt lat="40.6419159" lon="-3.9894221"><ele>928.8</ele><time>2026-05-04T08:13:08.642Z</time></trkpt><trkpt lat="40.6418519" lon="-3.9895195"><ele>928.4</ele><time>2026-05-04T08:13:09.642Z</time></trkpt><trkpt lat="40.6417849" lon="-3.9896201"><ele>928.0</ele><time>2026-05-04T08:13:10.642Z</time></trkpt><trkpt lat="40.6417174" lon="-3.9897246"><ele>927.75</ele><time>2026-05-04T08:13:11.642Z</time></trkpt><trkpt lat="40.6416517" lon="-3.989843"><ele>927.5</ele><time>2026-05-04T08:13:12.642Z</time></trkpt><trkpt lat="40.6415942" lon="-3.9899867"><ele>927.25</ele><time>2026-05-04T08:13:13.642Z</time></trkpt><trkpt lat="40.6415537" lon="-3.9901582"><ele>927.0</ele><time>2026-05-04T08:13:14.642Z</time></trkpt><trkpt lat="40.6415203" lon="-3.9903416"><ele>927.0</ele><time>2026-05-04T08:13:15.643Z</time></trkpt><trkpt lat="40.6414878" lon="-3.9905175"><ele>927.0</ele><time>2026-05-04T08:13:16.643Z</time></trkpt><trkpt lat="40.6414568" lon="-3.9906885"><ele>927.0</ele><time>2026-05-04T08:13:17.642Z</time></trkpt><trkpt lat="40.6414333" lon="-3.9908471"><ele>927.0</ele><time>2026-05-04T08:13:18.642Z</time></trkpt><trkpt lat="40.6414082" lon="-3.9910056"><ele>926.75</ele><time>2026-05-04T08:13:19.642Z</time></trkpt><trkpt lat="40.6413947" lon="-3.9911538"><ele>926.5</ele><time>2026-05-04T08:13:20.642Z</time></trkpt><trkpt lat="40.6413865" lon="-3.9913022"><ele>926.25</ele><time>2026-05-04T08:13:21.643Z</time></trkpt><trkpt lat="40.641379" lon="-3.991459"><ele>926.0</ele><time>2026-05-04T08:13:22.642Z</time></trkpt><trkpt lat="40.6413853" lon="-3.9916148"><ele>924.75</ele><time>2026-05-04T08:13:23.642Z</time></trkpt><trkpt lat="40.6414095" lon="-3.9917734"><ele>923.5</ele><time>2026-05-04T08:13:24.642Z</time></trkpt><trkpt lat="40.6414452" lon="-3.9919361"><ele>922.25</ele><time>2026-05-04T08:13:25.642Z</time></trkpt><trkpt lat="40.641483" lon="-3.9920762"><ele>921.0</ele><time>2026-05-04T08:13:26.642Z</time></trkpt><trkpt lat="40.6415295" lon="-3.9922092"><ele>921.0</ele><time>2026-05-04T08:13:27.642Z</time></trkpt><trkpt lat="40.6415734" lon="-3.9923205"><ele>921.0</ele><time>2026-05-04T08:13:28.642Z</time></trkpt><trkpt lat="40.6416199" lon="-3.9924126"><ele>921.0</ele><time>2026-05-04T08:13:29.642Z</time></trkpt><trkpt lat="40.6416603" lon="-3.9925034"><ele>921.0</ele><time>2026-05-04T08:13:30.642Z</time></trkpt><trkpt lat="40.6416681" lon="-3.9925926"><ele>921.0</ele><time>2026-05-04T08:13:31.642Z</time></trkpt><trkpt lat="40.6416589" lon="-3.9926975"><ele>921.0</ele><time>2026-05-04T08:13:32.642Z</time></trkpt><trkpt lat="40.6416435" lon="-3.9928119"><ele>921.0</ele><time>2026-05-04T08:13:33.642Z</time></trkpt><trkpt lat="40.6416326" lon="-3.992957"><ele>921.0</ele><time>2026-05-04T08:13:34.642Z</time></trkpt><trkpt lat="40.6416422" lon="-3.9931066"><ele>921.0</ele><time>2026-05-04T08:13:35.642Z</time></trkpt><trkpt lat="40.641651" lon="-3.993259"><ele>921.0</ele><time>2026-05-04T08:13:36.642Z</time></trkpt><trkpt lat="40.6416611" lon="-3.9934107"><ele>920.25</ele><time>2026-05-04T08:13:37.642Z</time></trkpt><trkpt lat="40.6416682" lon="-3.9935726"><ele>919.5</ele><time>2026-05-04T08:13:38.642Z</time></trkpt><trkpt lat="40.6416765" lon="-3.9937345"><ele>918.75</ele><time>2026-05-04T08:13:39.642Z</time></trkpt><trkpt lat="40.6416712" lon="-3.9938963"><ele>918.0</ele><time>2026-05-04T08:13:40.643Z</time></trkpt><trkpt lat="40.6416396" lon="-3.9940657"><ele>917.25</ele><time>2026-05-04T08:13:41.642Z</time></trkpt><trkpt lat="40.6415795" lon="-3.9942276"><ele>916.5</ele><time>2026-05-04T08:13:42.643Z</time></trkpt><trkpt lat="40.6415122" lon="-3.994383"><ele>915.75</ele><time>2026-05-04T08:13:43.643Z</time></trkpt><trkpt lat="40.6414389" lon="-3.9945341"><ele>915.0</ele><time>2026-05-04T08:13:44.642Z</time></trkpt><trkpt lat="40.6413711" lon="-3.99468"><ele>915.0</ele><time>2026-05-04T08:13:45.641Z</time></trkpt><trkpt lat="40.6413034" lon="-3.9948237"><ele>915.0</ele><time>2026-05-04T08:13:46.641Z</time></trkpt><trkpt lat="40.6412331" lon="-3.9949557"><ele>915.0</ele><time>2026-05-04T08:13:47.641Z</time></trkpt><trkpt lat="40.6411644" lon="-3.995083"><ele>915.0</ele><time>2026-05-04T08:13:48.641Z</time></trkpt><trkpt lat="40.6410968" lon="-3.9952099"><ele>914.8</ele><time>2026-05-04T08:13:49.642Z</time></trkpt><trkpt lat="40.6410285" lon="-3.9953281"><ele>914.6</ele><time>2026-05-04T08:13:50.641Z</time></trkpt><trkpt lat="40.6409656" lon="-3.9954402"><ele>914.4000000000001</ele><time>2026-05-04T08:13:51.641Z</time></trkpt><trkpt lat="40.6408938" lon="-3.9955351"><ele>914.2</ele><time>2026-05-04T08:13:52.641Z</time></trkpt><trkpt lat="40.6408202" lon="-3.9956163"><ele>914.0</ele><time>2026-05-04T08:13:53.641Z</time></trkpt><trkpt lat="40.6407396" lon="-3.9956791"><ele>914.0</ele><time>2026-05-04T08:13:54.641Z</time></trkpt><trkpt lat="40.6406744" lon="-3.9957257"><ele>914.0000000000001</ele><time>2026-05-04T08:13:55.641Z</time></trkpt><trkpt lat="40.6405691" lon="-3.9957977"><ele>914.0000000000001</ele><time>2026-05-04T08:13:57.641Z</time></trkpt><trkpt lat="40.6404918" lon="-3.9958936"><ele>914.0</ele><time>2026-05-04T08:13:59.641Z</time></trkpt><trkpt lat="40.6405166" lon="-3.9960267"><ele>914.0</ele><time>2026-05-04T08:14:01.641Z</time></trkpt><trkpt lat="40.6405543" lon="-3.9961648"><ele>913.8000000000001</ele><time>2026-05-04T08:14:03.641Z</time></trkpt><trkpt lat="40.640518" lon="-3.9962957"><ele>913.6000000000001</ele><time>2026-05-04T08:14:05.641Z</time></trkpt><trkpt lat="40.6404482" lon="-3.9963724"><ele>913.4</ele><time>2026-05-04T08:14:07.641Z</time></trkpt><trkpt lat="40.6403771" lon="-3.996424"><ele>913.2</ele><time>2026-05-04T08:14:09.641Z</time></trkpt><trkpt lat="40.6403194" lon="-3.9965106"><ele>913.0</ele><time>2026-05-04T08:14:11.642Z</time></trkpt><trkpt lat="40.6402534" lon="-3.9966322"><ele>912.3333333333333</ele><time>2026-05-04T08:14:13.641Z</time></trkpt><trkpt lat="40.6402073" lon="-3.9967026"><ele>911.6666666666666</ele><time>2026-05-04T08:14:14.641Z</time></trkpt><trkpt lat="40.6401667" lon="-3.9967676"><ele>911.0</ele><time>2026-05-04T08:14:15.642Z</time></trkpt><trkpt lat="40.640083" lon="-3.9969026"><ele>910.3333333333333</ele><time>2026-05-04T08:14:17.641Z</time></trkpt><trkpt lat="40.6400304" lon="-3.9969719"><ele>909.6666666666666</ele><time>2026-05-04T08:14:18.642Z</time></trkpt><trkpt lat="40.6399723" lon="-3.997045"><ele>909.0</ele><time>2026-05-04T08:14:19.642Z</time></trkpt><trkpt lat="40.6399083" lon="-3.9971193"><ele>909.0</ele><time>2026-05-04T08:14:20.641Z</time></trkpt><trkpt lat="40.6398405" lon="-3.9971998"><ele>909.0000000000001</ele><time>2026-05-04T08:14:21.641Z</time></trkpt><trkpt lat="40.6397678" lon="-3.9972864"><ele>909.0000000000001</ele><time>2026-05-04T08:14:22.641Z</time></trkpt><trkpt lat="40.6396966" lon="-3.9973694"><ele>909.0</ele><time>2026-05-04T08:14:23.641Z</time></trkpt><trkpt lat="40.6396287" lon="-3.9974482"><ele>909.0</ele><time>2026-05-04T08:14:24.642Z</time></trkpt><trkpt lat="40.6395602" lon="-3.9975298"><ele>908.5</ele><time>2026-05-04T08:14:25.641Z</time></trkpt><trkpt lat="40.6394963" lon="-3.9976083"><ele>908.0</ele><time>2026-05-04T08:14:26.641Z</time></trkpt><trkpt lat="40.6394294" lon="-3.9976923"><ele>907.5</ele><time>2026-05-04T08:14:27.641Z</time></trkpt><trkpt lat="40.6393602" lon="-3.9977736"><ele>907.0</ele><time>2026-05-04T08:14:28.641Z</time></trkpt><trkpt lat="40.6392877" lon="-3.997847"><ele>906.5</ele><time>2026-05-04T08:14:29.642Z</time></trkpt><trkpt lat="40.6392201" lon="-3.9979138"><ele>906.0</ele><time>2026-05-04T08:14:30.641Z</time></trkpt><trkpt lat="40.6391601" lon="-3.9979706"><ele>906.0</ele><time>2026-05-04T08:14:31.641Z</time></trkpt><trkpt lat="40.6390714" lon="-3.9980606"><ele>905.9999999999999</ele><time>2026-05-04T08:14:33.641Z</time></trkpt><trkpt lat="40.6389892" lon="-3.9981429"><ele>905.9999999999999</ele><time>2026-05-04T08:14:35.641Z</time></trkpt><trkpt lat="40.6388918" lon="-3.9982278"><ele>906.0</ele><time>2026-05-04T08:14:37.641Z</time></trkpt><trkpt lat="40.6388339" lon="-3.9982761"><ele>906.0</ele><time>2026-05-04T08:14:38.641Z</time></trkpt><trkpt lat="40.6387713" lon="-3.9983282"><ele>905.8333333333334</ele><time>2026-05-04T08:14:39.641Z</time></trkpt><trkpt lat="40.6387059" lon="-3.9983877"><ele>905.6666666666667</ele><time>2026-05-04T08:14:40.641Z</time></trkpt><trkpt lat="40.638633" lon="-3.9984465"><ele>905.5</ele><time>2026-05-04T08:14:41.641Z</time></trkpt><trkpt lat="40.6385599" lon="-3.9985013"><ele>905.3333333333334</ele><time>2026-05-04T08:14:42.641Z</time></trkpt><trkpt lat="40.6384902" lon="-3.9985631"><ele>905.1666666666667</ele><time>2026-05-04T08:14:43.641Z</time></trkpt><trkpt lat="40.6384252" lon="-3.9986359"><ele>905.0</ele><time>2026-05-04T08:14:44.642Z</time></trkpt><trkpt lat="40.6383501" lon="-3.9987182"><ele>905.0</ele><time>2026-05-04T08:14:45.642Z</time></trkpt><trkpt lat="40.6382602" lon="-3.9988053"><ele>905.0</ele><time>2026-05-04T08:14:46.642Z</time></trkpt><trkpt lat="40.6381712" lon="-3.9988955"><ele>905.0</ele><time>2026-05-04T08:14:47.641Z</time></trkpt><trkpt lat="40.6380829" lon="-3.9989757"><ele>905.0</ele><time>2026-05-04T08:14:48.641Z</time></trkpt><trkpt lat="40.6379962" lon="-3.9990612"><ele>905.0</ele><time>2026-05-04T08:14:49.641Z</time></trkpt><trkpt lat="40.6379072" lon="-3.9991477"><ele>904.4</ele><time>2026-05-04T08:14:50.642Z</time></trkpt><trkpt lat="40.6378157" lon="-3.9992345"><ele>903.8</ele><time>2026-05-04T08:14:51.641Z</time></trkpt><trkpt lat="40.6377247" lon="-3.9993278"><ele>903.2</ele><time>2026-05-04T08:14:52.641Z</time></trkpt><trkpt lat="40.6376406" lon="-3.9994242"><ele>902.6</ele><time>2026-05-04T08:14:53.641Z</time></trkpt><trkpt lat="40.6375573" lon="-3.9995084"><ele>902.0</ele><time>2026-05-04T08:14:54.641Z</time></trkpt><trkpt lat="40.6374711" lon="-3.9996036"><ele>902.0</ele><time>2026-05-04T08:14:55.641Z</time></trkpt><trkpt lat="40.6373883" lon="-3.9997079"><ele>902.0</ele><time>2026-05-04T08:14:56.642Z</time></trkpt><trkpt lat="40.6373099" lon="-3.9998175"><ele>902.0</ele><time>2026-05-04T08:14:57.641Z</time></trkpt><trkpt lat="40.6372348" lon="-3.9999259"><ele>902.0</ele><time>2026-05-04T08:14:58.641Z</time></trkpt><trkpt lat="40.6371624" lon="-4.0000435"><ele>902.0</ele><time>2026-05-04T08:14:59.641Z</time></trkpt><trkpt lat="40.6370955" lon="-4.0001725"><ele>902.0</ele><time>2026-05-04T08:15:00.641Z</time></trkpt><trkpt lat="40.6370304" lon="-4.0003098"><ele>902.0</ele><time>2026-05-04T08:15:01.641Z</time></trkpt><trkpt lat="40.6369558" lon="-4.0004384"><ele>902.0</ele><time>2026-05-04T08:15:02.641Z</time></trkpt><trkpt lat="40.6368811" lon="-4.0005655"><ele>901.25</ele><time>2026-05-04T08:15:03.641Z</time></trkpt><trkpt lat="40.6368014" lon="-4.0006869"><ele>900.5</ele><time>2026-05-04T08:15:04.641Z</time></trkpt><trkpt lat="40.6367093" lon="-4.0008026"><ele>899.75</ele><time>2026-05-04T08:15:05.641Z</time></trkpt><trkpt lat="40.6366087" lon="-4.0009117"><ele>899.0</ele><time>2026-05-04T08:15:06.641Z</time></trkpt><trkpt lat="40.6364986" lon="-4.001014"><ele>899.0</ele><time>2026-05-04T08:15:07.641Z</time></trkpt><trkpt lat="40.6363854" lon="-4.0011087"><ele>899.0</ele><time>2026-05-04T08:15:08.641Z</time></trkpt><trkpt lat="40.6362703" lon="-4.001195"><ele>899.0</ele><time>2026-05-04T08:15:09.642Z</time></trkpt><trkpt lat="40.6361575" lon="-4.0012652"><ele>899.0</ele><time>2026-05-04T08:15:10.641Z</time></trkpt><trkpt lat="40.6360398" lon="-4.0013307"><ele>899.75</ele><time>2026-05-04T08:15:11.641Z</time></trkpt><trkpt lat="40.6359188" lon="-4.0013941"><ele>900.5</ele><time>2026-05-04T08:15:12.641Z</time></trkpt><trkpt lat="40.6357997" lon="-4.0014581"><ele>901.25</ele><time>2026-05-04T08:15:13.642Z</time></trkpt><trkpt lat="40.6356759" lon="-4.0015296"><ele>902.0</ele><time>2026-05-04T08:15:14.641Z</time></trkpt><trkpt lat="40.6355508" lon="-4.0016057"><ele>901.75</ele><time>2026-05-04T08:15:15.641Z</time></trkpt><trkpt lat="40.6354266" lon="-4.0016808"><ele>901.5</ele><time>2026-05-04T08:15:16.642Z</time></trkpt><trkpt lat="40.6353102" lon="-4.0017564"><ele>901.25</ele><time>2026-05-04T08:15:17.641Z</time></trkpt><trkpt lat="40.6352003" lon="-4.0018319"><ele>901.0</ele><time>2026-05-04T08:15:18.641Z</time></trkpt><trkpt lat="40.6350989" lon="-4.0019038"><ele>901.0</ele><time>2026-05-04T08:15:19.642Z</time></trkpt><trkpt lat="40.635015" lon="-4.0019729"><ele>900.9999999999999</ele><time>2026-05-04T08:15:20.641Z</time></trkpt><trkpt lat="40.6349405" lon="-4.0020504"><ele>900.9999999999999</ele><time>2026-05-04T08:15:21.642Z</time></trkpt><trkpt lat="40.6348755" lon="-4.0021389"><ele>901.0</ele><time>2026-05-04T08:15:22.641Z</time></trkpt><trkpt lat="40.6348276" lon="-4.002235"><ele>901.0</ele><time>2026-05-04T08:15:23.641Z</time></trkpt><trkpt lat="40.6347978" lon="-4.0023527"><ele>901.0</ele><time>2026-05-04T08:15:24.641Z</time></trkpt><trkpt lat="40.634766" lon="-4.0024644"><ele>900.9999999999999</ele><time>2026-05-04T08:15:25.642Z</time></trkpt><trkpt lat="40.6347125" lon="-4.0025645"><ele>900.9999999999999</ele><time>2026-05-04T08:15:26.641Z</time></trkpt><trkpt lat="40.6346427" lon="-4.002644"><ele>901.0</ele><time>2026-05-04T08:15:27.642Z</time></trkpt><trkpt lat="40.6345566" lon="-4.0026963"><ele>901.0</ele><time>2026-05-04T08:15:28.641Z</time></trkpt><trkpt lat="40.634469" lon="-4.0027575"><ele>899.5</ele><time>2026-05-04T08:15:29.641Z</time></trkpt><trkpt lat="40.6343825" lon="-4.0028475"><ele>898.0</ele><time>2026-05-04T08:15:30.642Z</time></trkpt><trkpt lat="40.6343062" lon="-4.0029587"><ele>896.5</ele><time>2026-05-04T08:15:31.642Z</time></trkpt><trkpt lat="40.6342258" lon="-4.0030784"><ele>895.0</ele><time>2026-05-04T08:15:32.641Z</time></trkpt><trkpt lat="40.6341493" lon="-4.0031902"><ele>895.0</ele><time>2026-05-04T08:15:33.641Z</time></trkpt><trkpt lat="40.6340732" lon="-4.003298"><ele>895.0</ele><time>2026-05-04T08:15:34.641Z</time></trkpt><trkpt lat="40.633985" lon="-4.0034052"><ele>895.0</ele><time>2026-05-04T08:15:35.642Z</time></trkpt><trkpt lat="40.6339018" lon="-4.0035052"><ele>895.0</ele><time>2026-05-04T08:15:36.641Z</time></trkpt><trkpt lat="40.6338173" lon="-4.0035978"><ele>894.6</ele><time>2026-05-04T08:15:37.641Z</time></trkpt><trkpt lat="40.6337341" lon="-4.0036756"><ele>894.2</ele><time>2026-05-04T08:15:38.641Z</time></trkpt><trkpt lat="40.6336424" lon="-4.003747"><ele>893.8</ele><time>2026-05-04T08:15:39.641Z</time></trkpt><trkpt lat="40.6335556" lon="-4.0038033"><ele>893.4</ele><time>2026-05-04T08:15:40.641Z</time></trkpt><trkpt lat="40.63347" lon="-4.0038486"><ele>893.0</ele><time>2026-05-04T08:15:41.641Z</time></trkpt><trkpt lat="40.6333882" lon="-4.0038943"><ele>893.0000000000001</ele><time>2026-05-04T08:15:42.641Z</time></trkpt><trkpt lat="40.6333166" lon="-4.0039339"><ele>893.0</ele><time>2026-05-04T08:15:43.641Z</time></trkpt><trkpt lat="40.6332092" lon="-4.0039754"><ele>893.0</ele><time>2026-05-04T08:15:45.641Z</time></trkpt><trkpt lat="40.6331288" lon="-4.0040315"><ele>893.0</ele><time>2026-05-04T08:15:47.641Z</time></trkpt><trkpt lat="40.6330758" lon="-4.0040909"><ele>893.0000000000001</ele><time>2026-05-04T08:15:49.641Z</time></trkpt><trkpt lat="40.6330462" lon="-4.0041658"><ele>893.0</ele><time>2026-05-04T08:15:52.641Z</time></trkpt><trkpt lat="40.6330471" lon="-4.0042985"><ele>891.0</ele><time>2026-05-04T08:15:54.641Z</time></trkpt><trkpt lat="40.6330665" lon="-4.0043884"><ele>891.0</ele><time>2026-05-04T08:15:56.641Z</time></trkpt><trkpt lat="40.633088" lon="-4.0044721"><ele>891.0</ele><time>2026-05-04T08:15:59.641Z</time></trkpt><trkpt lat="40.6331116" lon="-4.0046166"><ele>891.0</ele><time>2026-05-04T08:16:09.641Z</time></trkpt></trkseg><trkseg><trkpt lat="40.6340348" lon="-4.0074281"><ele>886.0</ele><time>2026-05-04T08:22:51.642Z</time></trkpt><trkpt lat="40.6340879" lon="-4.0073737"><ele>885.9999999999999</ele><time>2026-05-04T08:22:53.642Z</time></trkpt><trkpt lat="40.6341502" lon="-4.0073095"><ele>885.9999999999999</ele><time>2026-05-04T08:22:56.642Z</time></trkpt><trkpt lat="40.6340409" lon="-4.0074196"><ele>886.0</ele><time>2026-05-04T08:23:03.642Z</time></trkpt><trkpt lat="40.6339934" lon="-4.0074749"><ele>886.0</ele><time>2026-05-04T08:23:08.643Z</time></trkpt><trkpt lat="40.6340292" lon="-4.0076199"><ele>885.8</ele><time>2026-05-04T08:24:41.642Z</time></trkpt><trkpt lat="40.6340343" lon="-4.0077217"><ele>885.5999999999999</ele><time>2026-05-04T08:24:46.642Z</time></trkpt><trkpt lat="40.6339801" lon="-4.0078214"><ele>885.4</ele><time>2026-05-04T08:25:11.641Z</time></trkpt><trkpt lat="40.6340204" lon="-4.0079682"><ele>885.2</ele><time>2026-05-04T08:25:13.641Z</time></trkpt><trkpt lat="40.6340467" lon="-4.0080445"><ele>885.0</ele><time>2026-05-04T08:25:14.641Z</time></trkpt><trkpt lat="40.6340866" lon="-4.0082169"><ele>885.0</ele><time>2026-05-04T08:25:16.642Z</time></trkpt><trkpt lat="40.6341089" lon="-4.0083151"><ele>885.0</ele><time>2026-05-04T08:25:17.642Z</time></trkpt><trkpt lat="40.6341348" lon="-4.008419"><ele>885.0</ele><time>2026-05-04T08:25:18.641Z</time></trkpt><trkpt lat="40.6341618" lon="-4.0085158"><ele>885.0</ele><time>2026-05-04T08:25:19.641Z</time></trkpt><trkpt lat="40.634191" lon="-4.0086208"><ele>885.0</ele><time>2026-05-04T08:25:20.641Z</time></trkpt><trkpt lat="40.6342213" lon="-4.0087283"><ele>885.0</ele><time>2026-05-04T08:25:21.641Z</time></trkpt><trkpt lat="40.6342548" lon="-4.0088328"><ele>884.8</ele><time>2026-05-04T08:25:22.641Z</time></trkpt><trkpt lat="40.6342874" lon="-4.0089394"><ele>884.6</ele><time>2026-05-04T08:25:23.641Z</time></trkpt><trkpt lat="40.6343187" lon="-4.0090484"><ele>884.4000000000001</ele><time>2026-05-04T08:25:24.641Z</time></trkpt><trkpt lat="40.6343517" lon="-4.0091674"><ele>884.2</ele><time>2026-05-04T08:25:25.641Z</time></trkpt><trkpt lat="40.6343844" lon="-4.0092881"><ele>884.0</ele><time>2026-05-04T08:25:26.641Z</time></trkpt><trkpt lat="40.634416" lon="-4.009411"><ele>883.4000000000001</ele><time>2026-05-04T08:25:27.641Z</time></trkpt><trkpt lat="40.6344487" lon="-4.0095312"><ele>882.8000000000001</ele><time>2026-05-04T08:25:28.641Z</time></trkpt><trkpt lat="40.6344802" lon="-4.0096487"><ele>882.1999999999999</ele><time>2026-05-04T08:25:29.641Z</time></trkpt><trkpt lat="40.6345156" lon="-4.0097721"><ele>881.5999999999999</ele><time>2026-05-04T08:25:30.641Z</time></trkpt><trkpt lat="40.6345515" lon="-4.0098935"><ele>881.0</ele><time>2026-05-04T08:25:31.641Z</time></trkpt><trkpt lat="40.6345821" lon="-4.0100076"><ele>880.0</ele><time>2026-05-04T08:25:32.642Z</time></trkpt><trkpt lat="40.6346139" lon="-4.01012"><ele>878.9999999999999</ele><time>2026-05-04T08:25:33.641Z</time></trkpt><trkpt lat="40.6346429" lon="-4.0102378"><ele>877.9999999999999</ele><time>2026-05-04T08:25:34.641Z</time></trkpt><trkpt lat="40.6346741" lon="-4.0103642"><ele>877.0</ele><time>2026-05-04T08:25:35.642Z</time></trkpt><trkpt lat="40.6347135" lon="-4.0104905"><ele>876.0</ele><time>2026-05-04T08:25:36.641Z</time></trkpt><trkpt lat="40.6347512" lon="-4.0106254"><ele>876.0</ele><time>2026-05-04T08:25:37.642Z</time></trkpt><trkpt lat="40.6347919" lon="-4.0107631"><ele>875.9999999999999</ele><time>2026-05-04T08:25:38.641Z</time></trkpt><trkpt lat="40.6348312" lon="-4.0109011"><ele>875.9999999999999</ele><time>2026-05-04T08:25:39.642Z</time></trkpt><trkpt lat="40.6348657" lon="-4.0110402"><ele>876.0</ele><time>2026-05-04T08:25:40.641Z</time></trkpt><trkpt lat="40.6349008" lon="-4.011165"><ele>876.0</ele><time>2026-05-04T08:25:41.641Z</time></trkpt><trkpt lat="40.6349237" lon="-4.0112826"><ele>875.5</ele><time>2026-05-04T08:25:42.641Z</time></trkpt><trkpt lat="40.634947" lon="-4.011392"><ele>875.0</ele><time>2026-05-04T08:25:43.641Z</time></trkpt><trkpt lat="40.6349692" lon="-4.0114922"><ele>874.5</ele><time>2026-05-04T08:25:44.641Z</time></trkpt><trkpt lat="40.6349896" lon="-4.0115846"><ele>874.0</ele><time>2026-05-04T08:25:45.641Z</time></trkpt><trkpt lat="40.6350053" lon="-4.0116656"><ele>873.5</ele><time>2026-05-04T08:25:46.641Z</time></trkpt><trkpt lat="40.6350548" lon="-4.0117871"><ele>873.0</ele><time>2026-05-04T08:25:48.641Z</time></trkpt><trkpt lat="40.6351567" lon="-4.0118652"><ele>873.0</ele><time>2026-05-04T08:25:50.641Z</time></trkpt><trkpt lat="40.6352259" lon="-4.0118684"><ele>873.0</ele><time>2026-05-04T08:25:51.641Z</time></trkpt><trkpt lat="40.6353018" lon="-4.0118338"><ele>873.0</ele><time>2026-05-04T08:25:52.641Z</time></trkpt><trkpt lat="40.6353695" lon="-4.0117709"><ele>873.0</ele><time>2026-05-04T08:25:53.641Z</time></trkpt><trkpt lat="40.6354136" lon="-4.0116934"><ele>873.0</ele><time>2026-05-04T08:25:54.641Z</time></trkpt><trkpt lat="40.6354453" lon="-4.0116111"><ele>873.0</ele><time>2026-05-04T08:25:55.641Z</time></trkpt><trkpt lat="40.6354782" lon="-4.0115209"><ele>873.0</ele><time>2026-05-04T08:25:56.641Z</time></trkpt><trkpt lat="40.635517" lon="-4.0114282"><ele>873.0</ele><time>2026-05-04T08:25:57.641Z</time></trkpt><trkpt lat="40.6355618" lon="-4.0113325"><ele>873.0</ele><time>2026-05-04T08:25:58.641Z</time></trkpt><trkpt lat="40.6356178" lon="-4.0112442"><ele>873.0</ele><time>2026-05-04T08:25:59.641Z</time></trkpt><trkpt lat="40.635698" lon="-4.011143"><ele>873.0</ele><time>2026-05-04T08:26:01.642Z</time></trkpt><trkpt lat="40.6357741" lon="-4.0110141"><ele>873.0</ele><time>2026-05-04T08:26:03.641Z</time></trkpt><trkpt lat="40.6358288" lon="-4.0109075"><ele>873.0</ele><time>2026-05-04T08:26:04.641Z</time></trkpt><trkpt lat="40.6358879" lon="-4.010834"><ele>873.0</ele><time>2026-05-04T08:26:05.641Z</time></trkpt><trkpt lat="40.6359379" lon="-4.0107642"><ele>873.0</ele><time>2026-05-04T08:26:06.641Z</time></trkpt><trkpt lat="40.635989" lon="-4.0107004"><ele>873.0</ele><time>2026-05-04T08:26:07.641Z</time></trkpt><trkpt lat="40.636035" lon="-4.0106431"><ele>873.0</ele><time>2026-05-04T08:26:08.641Z</time></trkpt><trkpt lat="40.6361017" lon="-4.0105329"><ele>873.0</ele><time>2026-05-04T08:26:10.641Z</time></trkpt><trkpt lat="40.6361441" lon="-4.0103844"><ele>873.0</ele><time>2026-05-04T08:26:12.641Z</time></trkpt><trkpt lat="40.6362032" lon="-4.0102792"><ele>873.0</ele><time>2026-05-04T08:26:14.641Z</time></trkpt><trkpt lat="40.6363162" lon="-4.0102357"><ele>873.0</ele><time>2026-05-04T08:26:16.642Z</time></trkpt><trkpt lat="40.6363839" lon="-4.010229"><ele>873.0</ele><time>2026-05-04T08:26:17.641Z</time></trkpt><trkpt lat="40.6364459" lon="-4.010209"><ele>873.0</ele><time>2026-05-04T08:26:18.641Z</time></trkpt><trkpt lat="40.6365332" lon="-4.0101221"><ele>873.0</ele><time>2026-05-04T08:26:20.641Z</time></trkpt><trkpt lat="40.6365962" lon="-4.0100534"><ele>873.0</ele><time>2026-05-04T08:26:22.641Z</time></trkpt><trkpt lat="40.6366494" lon="-4.0099825"><ele>873.0</ele><time>2026-05-04T08:26:24.641Z</time></trkpt><trkpt lat="40.6367458" lon="-4.0098559"><ele>873.0</ele><time>2026-05-04T08:26:26.641Z</time></trkpt><trkpt lat="40.6368041" lon="-4.009768"><ele>873.2</ele><time>2026-05-04T08:26:27.641Z</time></trkpt><trkpt lat="40.6368615" lon="-4.0096866"><ele>873.4</ele><time>2026-05-04T08:26:28.641Z</time></trkpt><trkpt lat="40.6369168" lon="-4.0095932"><ele>873.6000000000001</ele><time>2026-05-04T08:26:29.642Z</time></trkpt><trkpt lat="40.6369778" lon="-4.0094881"><ele>873.8000000000001</ele><time>2026-05-04T08:26:30.641Z</time></trkpt><trkpt lat="40.6370444" lon="-4.0093747"><ele>874.0</ele><time>2026-05-04T08:26:31.642Z</time></trkpt><trkpt lat="40.6371089" lon="-4.0092536"><ele>874.8000000000001</ele><time>2026-05-04T08:26:32.642Z</time></trkpt><trkpt lat="40.6371688" lon="-4.009139"><ele>875.6000000000001</ele><time>2026-05-04T08:26:33.641Z</time></trkpt><trkpt lat="40.6372225" lon="-4.0090289"><ele>876.4</ele><time>2026-05-04T08:26:34.641Z</time></trkpt><trkpt lat="40.6372777" lon="-4.0089237"><ele>877.2</ele><time>2026-05-04T08:26:35.642Z</time></trkpt><trkpt lat="40.6373341" lon="-4.008815"><ele>878.0</ele><time>2026-05-04T08:26:36.642Z</time></trkpt><trkpt lat="40.637395" lon="-4.0087076"><ele>878.0</ele><time>2026-05-04T08:26:37.641Z</time></trkpt><trkpt lat="40.6374552" lon="-4.0085973"><ele>878.0</ele><time>2026-05-04T08:26:38.642Z</time></trkpt><trkpt lat="40.6375147" lon="-4.0084943"><ele>878.0</ele><time>2026-05-04T08:26:39.641Z</time></trkpt><trkpt lat="40.6375644" lon="-4.008403"><ele>878.0</ele><time>2026-05-04T08:26:40.641Z</time></trkpt><trkpt lat="40.6376137" lon="-4.0083173"><ele>878.0</ele><time>2026-05-04T08:26:41.641Z</time></trkpt><trkpt lat="40.6376671" lon="-4.0082339"><ele>877.5999999999999</ele><time>2026-05-04T08:26:42.641Z</time></trkpt><trkpt lat="40.6377219" lon="-4.0081409"><ele>877.1999999999999</ele><time>2026-05-04T08:26:43.641Z</time></trkpt><trkpt lat="40.6377747" lon="-4.0080414"><ele>876.8</ele><time>2026-05-04T08:26:44.641Z</time></trkpt><trkpt lat="40.6378274" lon="-4.0079396"><ele>876.4</ele><time>2026-05-04T08:26:45.642Z</time></trkpt><trkpt lat="40.6378855" lon="-4.0078508"><ele>876.0</ele><time>2026-05-04T08:26:46.641Z</time></trkpt><trkpt lat="40.6379422" lon="-4.007764"><ele>876.0</ele><time>2026-05-04T08:26:47.641Z</time></trkpt><trkpt lat="40.6379953" lon="-4.0076721"><ele>876.0</ele><time>2026-05-04T08:26:48.641Z</time></trkpt><trkpt lat="40.6380463" lon="-4.0075797"><ele>876.0</ele><time>2026-05-04T08:26:49.641Z</time></trkpt><trkpt lat="40.6380994" lon="-4.0075014"><ele>876.0</ele><time>2026-05-04T08:26:50.641Z</time></trkpt><trkpt lat="40.6381425" lon="-4.0074267"><ele>876.0</ele><time>2026-05-04T08:26:51.641Z</time></trkpt><trkpt lat="40.6381987" lon="-4.0073034"><ele>876.0</ele><time>2026-05-04T08:26:53.641Z</time></trkpt><trkpt lat="40.6382432" lon="-4.0072267"><ele>876.3333333333334</ele><time>2026-05-04T08:26:57.641Z</time></trkpt><trkpt lat="40.638288" lon="-4.0071326"><ele>876.6666666666667</ele><time>2026-05-04T08:27:00.641Z</time></trkpt><trkpt lat="40.6383317" lon="-4.0070337"><ele>877.0</ele><time>2026-05-04T08:27:02.641Z</time></trkpt><trkpt lat="40.6383202" lon="-4.0068811"><ele>877.3333333333334</ele><time>2026-05-04T08:27:04.642Z</time></trkpt><trkpt lat="40.638297" lon="-4.0067929"><ele>877.6666666666667</ele><time>2026-05-04T08:27:05.641Z</time></trkpt><trkpt lat="40.6382897" lon="-4.0067076"><ele>878.0</ele><time>2026-05-04T08:27:06.642Z</time></trkpt><trkpt lat="40.6383187" lon="-4.0066335"><ele>878.0000000000001</ele><time>2026-05-04T08:27:07.641Z</time></trkpt><trkpt lat="40.6383667" lon="-4.0065684"><ele>878.0</ele><time>2026-05-04T08:27:08.641Z</time></trkpt><trkpt lat="40.6384551" lon="-4.0064718"><ele>878.0</ele><time>2026-05-04T08:27:10.641Z</time></trkpt><trkpt lat="40.6384734" lon="-4.0063221"><ele>878.0</ele><time>2026-05-04T08:27:12.642Z</time></trkpt><trkpt lat="40.6384712" lon="-4.006228"><ele>878.0000000000001</ele><time>2026-05-04T08:27:13.641Z</time></trkpt><trkpt lat="40.6384813" lon="-4.0061351"><ele>878.0</ele><time>2026-05-04T08:27:14.641Z</time></trkpt><trkpt lat="40.6384914" lon="-4.0059855"><ele>879.0</ele><time>2026-05-04T08:27:16.641Z</time></trkpt><trkpt lat="40.6384858" lon="-4.0058013"><ele>880.0</ele><time>2026-05-04T08:27:18.641Z</time></trkpt><trkpt lat="40.6384857" lon="-4.0056787"><ele>881.0</ele><time>2026-05-04T08:27:19.641Z</time></trkpt><trkpt lat="40.6384791" lon="-4.0055519"><ele>882.0</ele><time>2026-05-04T08:27:20.642Z</time></trkpt><trkpt lat="40.6384732" lon="-4.0054166"><ele>883.0</ele><time>2026-05-04T08:27:21.641Z</time></trkpt><trkpt lat="40.6384637" lon="-4.0052973"><ele>883.0</ele><time>2026-05-04T08:27:22.641Z</time></trkpt><trkpt lat="40.6384524" lon="-4.0051806"><ele>883.0</ele><time>2026-05-04T08:27:23.641Z</time></trkpt><trkpt lat="40.6384384" lon="-4.0050567"><ele>883.0</ele><time>2026-05-04T08:27:24.641Z</time></trkpt><trkpt lat="40.6384245" lon="-4.0049354"><ele>883.0</ele><time>2026-05-04T08:27:25.641Z</time></trkpt><trkpt lat="40.6384077" lon="-4.0048161"><ele>883.0</ele><time>2026-05-04T08:27:26.641Z</time></trkpt><trkpt lat="40.6383907" lon="-4.0047091"><ele>883.1666666666666</ele><time>2026-05-04T08:27:27.641Z</time></trkpt><trkpt lat="40.6383853" lon="-4.0046162"><ele>883.3333333333333</ele><time>2026-05-04T08:27:28.642Z</time></trkpt><trkpt lat="40.6383741" lon="-4.00453"><ele>883.5</ele><time>2026-05-04T08:27:29.641Z</time></trkpt><trkpt lat="40.6383505" lon="-4.0043993"><ele>883.6666666666667</ele><time>2026-05-04T08:27:31.641Z</time></trkpt><trkpt lat="40.6383389" lon="-4.0043174"><ele>883.8333333333334</ele><time>2026-05-04T08:27:33.641Z</time></trkpt><trkpt lat="40.6383228" lon="-4.0042295"><ele>884.0</ele><time>2026-05-04T08:27:37.642Z</time></trkpt><trkpt lat="40.6382509" lon="-4.0041791"><ele>884.6</ele><time>2026-05-04T08:27:39.641Z</time></trkpt><trkpt lat="40.6381642" lon="-4.0041373"><ele>885.2</ele><time>2026-05-04T08:27:41.642Z</time></trkpt><trkpt lat="40.6381141" lon="-4.0040158"><ele>885.8000000000001</ele><time>2026-05-04T08:27:43.641Z</time></trkpt><trkpt lat="40.6380806" lon="-4.003866"><ele>886.4000000000001</ele><time>2026-05-04T08:27:45.641Z</time></trkpt><trkpt lat="40.6380504" lon="-4.0037516"><ele>887.0</ele><time>2026-05-04T08:27:47.641Z</time></trkpt><trkpt lat="40.6380642" lon="-4.0036666"><ele>887.0</ele><time>2026-05-04T08:27:49.641Z</time></trkpt><trkpt lat="40.6381515" lon="-4.0036398"><ele>887.0</ele><time>2026-05-04T08:27:52.642Z</time></trkpt><trkpt lat="40.6382378" lon="-4.0036808"><ele>887.0</ele><time>2026-05-04T08:27:54.641Z</time></trkpt><trkpt lat="40.6383474" lon="-4.0037228"><ele>887.0</ele><time>2026-05-04T08:27:56.642Z</time></trkpt><trkpt lat="40.6384286" lon="-4.0037536"><ele>887.0</ele><time>2026-05-04T08:27:58.642Z</time></trkpt><trkpt lat="40.638506" lon="-4.0037335"><ele>887.0</ele><time>2026-05-04T08:28:01.641Z</time></trkpt></trkseg><trkseg><trkpt lat="40.6384624" lon="-4.0035661"><ele>887.0</ele><time>2026-05-04T10:01:51.636Z</time></trkpt><trkpt lat="40.6383945" lon="-4.003514"><ele>887.0</ele><time>2026-05-04T10:01:54.636Z</time></trkpt><trkpt lat="40.6383503" lon="-4.0033741"><ele>887.0</ele><time>2026-05-04T10:09:19.635Z</time></trkpt><trkpt lat="40.6382794" lon="-4.0034106"><ele>887.0</ele><time>2026-05-04T10:09:21.635Z</time></trkpt><trkpt lat="40.6382213" lon="-4.0035227"><ele>887.0</ele><time>2026-05-04T10:09:23.634Z</time></trkpt><trkpt lat="40.6381707" lon="-4.003631"><ele>887.0</ele><time>2026-05-04T10:09:25.634Z</time></trkpt><trkpt lat="40.6380835" lon="-4.0036615"><ele>887.0</ele><time>2026-05-04T10:09:28.634Z</time></trkpt><trkpt lat="40.6381095" lon="-4.0037637"><ele>887.0</ele><time>2026-05-04T10:09:31.634Z</time></trkpt><trkpt lat="40.6382051" lon="-4.0038133"><ele>887.0</ele><time>2026-05-04T10:09:33.634Z</time></trkpt><trkpt lat="40.6382967" lon="-4.0038402"><ele>887.0</ele><time>2026-05-04T10:09:35.634Z</time></trkpt><trkpt lat="40.6383763" lon="-4.0038829"><ele>887.0</ele><time>2026-05-04T10:09:37.634Z</time></trkpt><trkpt lat="40.6384368" lon="-4.0039251"><ele>887.0</ele><time>2026-05-04T10:09:39.635Z</time></trkpt><trkpt lat="40.6385393" lon="-4.0039557"><ele>887.0</ele><time>2026-05-04T10:09:41.634Z</time></trkpt><trkpt lat="40.6386594" lon="-4.0039888"><ele>887.0</ele><time>2026-05-04T10:09:43.634Z</time></trkpt><trkpt lat="40.6387857" lon="-4.0040294"><ele>887.0</ele><time>2026-05-04T10:09:45.634Z</time></trkpt><trkpt lat="40.6388547" lon="-4.0040565"><ele>886.8</ele><time>2026-05-04T10:09:46.634Z</time></trkpt><trkpt lat="40.6389206" lon="-4.0040786"><ele>886.6</ele><time>2026-05-04T10:09:47.634Z</time></trkpt><trkpt lat="40.6390369" lon="-4.0041186"><ele>886.3999999999999</ele><time>2026-05-04T10:09:49.634Z</time></trkpt><trkpt lat="40.6391005" lon="-4.0041399"><ele>886.1999999999999</ele><time>2026-05-04T10:09:50.634Z</time></trkpt><trkpt lat="40.639208" lon="-4.0041901"><ele>886.0</ele><time>2026-05-04T10:09:52.634Z</time></trkpt><trkpt lat="40.6393298" lon="-4.0042272"><ele>885.4</ele><time>2026-05-04T10:09:54.634Z</time></trkpt><trkpt lat="40.6394557" lon="-4.0042698"><ele>884.8</ele><time>2026-05-04T10:09:56.634Z</time></trkpt><trkpt lat="40.6395302" lon="-4.0042954"><ele>884.1999999999999</ele><time>2026-05-04T10:09:57.634Z</time></trkpt><trkpt lat="40.6395977" lon="-4.0043192"><ele>883.5999999999999</ele><time>2026-05-04T10:09:58.634Z</time></trkpt><trkpt lat="40.6397199" lon="-4.0043583"><ele>883.0</ele><time>2026-05-04T10:10:00.634Z</time></trkpt><trkpt lat="40.6397875" lon="-4.004378"><ele>882.8571428571429</ele><time>2026-05-04T10:10:01.634Z</time></trkpt><trkpt lat="40.6398591" lon="-4.0044021"><ele>882.7142857142857</ele><time>2026-05-04T10:10:02.634Z</time></trkpt><trkpt lat="40.639934" lon="-4.0044237"><ele>882.5714285714286</ele><time>2026-05-04T10:10:03.635Z</time></trkpt><trkpt lat="40.640001" lon="-4.0044516"><ele>882.4285714285714</ele><time>2026-05-04T10:10:04.634Z</time></trkpt><trkpt lat="40.6400732" lon="-4.0044768"><ele>882.2857142857142</ele><time>2026-05-04T10:10:05.635Z</time></trkpt><trkpt lat="40.6401412" lon="-4.0045045"><ele>882.1428571428571</ele><time>2026-05-04T10:10:06.634Z</time></trkpt><trkpt lat="40.640207" lon="-4.0045315"><ele>882.0</ele><time>2026-05-04T10:10:07.635Z</time></trkpt><trkpt lat="40.6402719" lon="-4.0045535"><ele>882.0</ele><time>2026-05-04T10:10:08.634Z</time></trkpt><trkpt lat="40.6403365" lon="-4.0045724"><ele>882.0</ele><time>2026-05-04T10:10:09.634Z</time></trkpt><trkpt lat="40.6403998" lon="-4.0045915"><ele>882.0</ele><time>2026-05-04T10:10:10.634Z</time></trkpt><trkpt lat="40.6405289" lon="-4.0046301"><ele>882.0</ele><time>2026-05-04T10:10:12.634Z</time></trkpt><trkpt lat="40.6405992" lon="-4.0046494"><ele>882.0</ele><time>2026-05-04T10:10:13.634Z</time></trkpt><trkpt lat="40.6406607" lon="-4.0046688"><ele>882.0</ele><time>2026-05-04T10:10:14.635Z</time></trkpt><trkpt lat="40.6407616" lon="-4.0046943"><ele>882.0</ele><time>2026-05-04T10:10:16.634Z</time></trkpt><trkpt lat="40.6408554" lon="-4.0046424"><ele>882.0</ele><time>2026-05-04T10:10:18.634Z</time></trkpt><trkpt lat="40.6408883" lon="-4.0045616"><ele>882.0</ele><time>2026-05-04T10:10:19.634Z</time></trkpt><trkpt lat="40.6409161" lon="-4.0044583"><ele>882.0</ele><time>2026-05-04T10:10:20.634Z</time></trkpt><trkpt lat="40.6409417" lon="-4.0043561"><ele>882.0</ele><time>2026-05-04T10:10:21.634Z</time></trkpt><trkpt lat="40.640962" lon="-4.0042459"><ele>882.0</ele><time>2026-05-04T10:10:22.634Z</time></trkpt><trkpt lat="40.6409785" lon="-4.0041332"><ele>882.0</ele><time>2026-05-04T10:10:23.635Z</time></trkpt><trkpt lat="40.6410008" lon="-4.004016"><ele>882.0</ele><time>2026-05-04T10:10:24.635Z</time></trkpt><trkpt lat="40.6410201" lon="-4.0039015"><ele>882.0</ele><time>2026-05-04T10:10:25.634Z</time></trkpt><trkpt lat="40.6410368" lon="-4.0037985"><ele>882.0</ele><time>2026-05-04T10:10:26.634Z</time></trkpt><trkpt lat="40.6410532" lon="-4.0037021"><ele>882.0</ele><time>2026-05-04T10:10:27.635Z</time></trkpt><trkpt lat="40.6410835" lon="-4.0036083"><ele>882.0</ele><time>2026-05-04T10:10:28.634Z</time></trkpt><trkpt lat="40.6411418" lon="-4.0035481"><ele>882.1666666666666</ele><time>2026-05-04T10:10:29.634Z</time></trkpt><trkpt lat="40.6412227" lon="-4.0035342"><ele>882.3333333333333</ele><time>2026-05-04T10:10:30.634Z</time></trkpt><trkpt lat="40.6412981" lon="-4.0035369"><ele>882.5</ele><time>2026-05-04T10:10:31.634Z</time></trkpt><trkpt lat="40.6413759" lon="-4.0035562"><ele>882.6666666666666</ele><time>2026-05-04T10:10:32.635Z</time></trkpt><trkpt lat="40.6414518" lon="-4.0035723"><ele>882.8333333333333</ele><time>2026-05-04T10:10:33.635Z</time></trkpt><trkpt lat="40.6415293" lon="-4.0035898"><ele>883.0</ele><time>2026-05-04T10:10:34.634Z</time></trkpt><trkpt lat="40.6416065" lon="-4.0036173"><ele>882.9999999999999</ele><time>2026-05-04T10:10:35.634Z</time></trkpt><trkpt lat="40.6416832" lon="-4.003648"><ele>883.0</ele><time>2026-05-04T10:10:36.635Z</time></trkpt><trkpt lat="40.6417577" lon="-4.0036817"><ele>883.0</ele><time>2026-05-04T10:10:37.634Z</time></trkpt><trkpt lat="40.6418192" lon="-4.0037061"><ele>883.0</ele><time>2026-05-04T10:10:38.635Z</time></trkpt><trkpt lat="40.6418913" lon="-4.0037196"><ele>882.9999999999999</ele><time>2026-05-04T10:10:40.634Z</time></trkpt><trkpt lat="40.641956" lon="-4.0037607"><ele>883.0</ele><time>2026-05-04T10:10:42.634Z</time></trkpt><trkpt lat="40.6419978" lon="-4.0039219"><ele>882.9999999999999</ele><time>2026-05-04T10:10:44.634Z</time></trkpt><trkpt lat="40.6419878" lon="-4.0040053"><ele>883.0</ele><time>2026-05-04T10:10:45.635Z</time></trkpt><trkpt lat="40.6419713" lon="-4.0041097"><ele>883.0</ele><time>2026-05-04T10:10:46.634Z</time></trkpt><trkpt lat="40.6419521" lon="-4.004218"><ele>883.0</ele><time>2026-05-04T10:10:47.634Z</time></trkpt><trkpt lat="40.641932" lon="-4.0043348"><ele>882.9999999999999</ele><time>2026-05-04T10:10:48.634Z</time></trkpt><trkpt lat="40.64191" lon="-4.0044518"><ele>883.0</ele><time>2026-05-04T10:10:49.634Z</time></trkpt><trkpt lat="40.6418914" lon="-4.0045578"><ele>882.8333333333333</ele><time>2026-05-04T10:10:50.634Z</time></trkpt><trkpt lat="40.641871" lon="-4.0046602"><ele>882.6666666666666</ele><time>2026-05-04T10:10:51.634Z</time></trkpt><trkpt lat="40.641849" lon="-4.0047646"><ele>882.5</ele><time>2026-05-04T10:10:52.634Z</time></trkpt><trkpt lat="40.6418269" lon="-4.004859"><ele>882.3333333333333</ele><time>2026-05-04T10:10:53.634Z</time></trkpt><trkpt lat="40.6418047" lon="-4.0049383"><ele>882.1666666666666</ele><time>2026-05-04T10:10:54.634Z</time></trkpt><trkpt lat="40.6418193" lon="-4.005057"><ele>882.0</ele><time>2026-05-04T10:10:56.635Z</time></trkpt><trkpt lat="40.6418982" lon="-4.0050922"><ele>881.5714285714286</ele><time>2026-05-04T10:10:58.634Z</time></trkpt><trkpt lat="40.6419721" lon="-4.0051332"><ele>881.1428571428571</ele><time>2026-05-04T10:10:59.634Z</time></trkpt><trkpt lat="40.6420531" lon="-4.0051642"><ele>880.7142857142858</ele><time>2026-05-04T10:11:00.634Z</time></trkpt><trkpt lat="40.6421167" lon="-4.0051842"><ele>880.2857142857142</ele><time>2026-05-04T10:11:01.635Z</time></trkpt><trkpt lat="40.64218" lon="-4.0051929"><ele>879.8571428571429</ele><time>2026-05-04T10:11:02.634Z</time></trkpt><trkpt lat="40.6422462" lon="-4.0052081"><ele>879.4285714285714</ele><time>2026-05-04T10:11:03.634Z</time></trkpt><trkpt lat="40.6423211" lon="-4.0052259"><ele>879.0</ele><time>2026-05-04T10:11:04.634Z</time></trkpt><trkpt lat="40.6423892" lon="-4.0052362"><ele>879.0</ele><time>2026-05-04T10:11:05.634Z</time></trkpt><trkpt lat="40.6424534" lon="-4.0052256"><ele>879.0</ele><time>2026-05-04T10:11:06.635Z</time></trkpt><trkpt lat="40.6425281" lon="-4.0052134"><ele>879.0</ele><time>2026-05-04T10:11:07.634Z</time></trkpt><trkpt lat="40.6426051" lon="-4.0052203"><ele>879.0</ele><time>2026-05-04T10:11:08.634Z</time></trkpt><trkpt lat="40.6426738" lon="-4.005239"><ele>879.0</ele><time>2026-05-04T10:11:09.634Z</time></trkpt><trkpt lat="40.6427504" lon="-4.0052708"><ele>879.0</ele><time>2026-05-04T10:11:10.634Z</time></trkpt><trkpt lat="40.6428315" lon="-4.0053053"><ele>879.8333333333334</ele><time>2026-05-04T10:11:11.634Z</time></trkpt><trkpt lat="40.6429068" lon="-4.0053346"><ele>880.6666666666667</ele><time>2026-05-04T10:11:12.634Z</time></trkpt><trkpt lat="40.6429736" lon="-4.0053525"><ele>881.5</ele><time>2026-05-04T10:11:13.635Z</time></trkpt><trkpt lat="40.6430464" lon="-4.0053726"><ele>882.3333333333334</ele><time>2026-05-04T10:11:14.635Z</time></trkpt><trkpt lat="40.6431237" lon="-4.0053985"><ele>883.1666666666667</ele><time>2026-05-04T10:11:15.634Z</time></trkpt><trkpt lat="40.6431875" lon="-4.0054255"><ele>884.0</ele><time>2026-05-04T10:11:16.634Z</time></trkpt><trkpt lat="40.6432894" lon="-4.005453"><ele>884.0</ele><time>2026-05-04T10:11:18.634Z</time></trkpt><trkpt lat="40.6433524" lon="-4.0054615"><ele>884.0000000000001</ele><time>2026-05-04T10:11:19.635Z</time></trkpt><trkpt lat="40.6434617" lon="-4.0054933"><ele>884.0000000000001</ele><time>2026-05-04T10:11:21.634Z</time></trkpt><trkpt lat="40.6435754" lon="-4.0055301"><ele>884.0</ele><time>2026-05-04T10:11:23.634Z</time></trkpt><trkpt lat="40.6436984" lon="-4.0055472"><ele>884.0</ele><time>2026-05-04T10:11:25.634Z</time></trkpt><trkpt lat="40.6437639" lon="-4.0055572"><ele>884.0</ele><time>2026-05-04T10:11:26.635Z</time></trkpt><trkpt lat="40.6438275" lon="-4.0055673"><ele>884.0000000000001</ele><time>2026-05-04T10:11:27.634Z</time></trkpt><trkpt lat="40.6439412" lon="-4.0055994"><ele>884.0000000000001</ele><time>2026-05-04T10:11:29.634Z</time></trkpt><trkpt lat="40.6440346" lon="-4.0056297"><ele>884.0</ele><time>2026-05-04T10:11:31.634Z</time></trkpt><trkpt lat="40.6441431" lon="-4.0056598"><ele>884.0</ele><time>2026-05-04T10:11:33.635Z</time></trkpt><trkpt lat="40.6442076" lon="-4.0056836"><ele>884.0000000000001</ele><time>2026-05-04T10:11:34.634Z</time></trkpt><trkpt lat="40.6442682" lon="-4.0057106"><ele>884.0</ele><time>2026-05-04T10:11:35.635Z</time></trkpt><trkpt lat="40.6443788" lon="-4.0057497"><ele>884.0</ele><time>2026-05-04T10:11:37.634Z</time></trkpt><trkpt lat="40.6445039" lon="-4.0057911"><ele>884.0</ele><time>2026-05-04T10:11:39.634Z</time></trkpt><trkpt lat="40.6445744" lon="-4.0058114"><ele>884.0000000000001</ele><time>2026-05-04T10:11:40.634Z</time></trkpt><trkpt lat="40.6446397" lon="-4.0058289"><ele>884.0</ele><time>2026-05-04T10:11:41.634Z</time></trkpt><trkpt lat="40.6447044" lon="-4.0058542"><ele>884.4285714285714</ele><time>2026-05-04T10:11:42.635Z</time></trkpt><trkpt lat="40.6447774" lon="-4.0058759"><ele>884.8571428571429</ele><time>2026-05-04T10:11:43.634Z</time></trkpt><trkpt lat="40.6448505" lon="-4.0059031"><ele>885.2857142857142</ele><time>2026-05-04T10:11:44.634Z</time></trkpt><trkpt lat="40.6449222" lon="-4.0059281"><ele>885.7142857142858</ele><time>2026-05-04T10:11:45.634Z</time></trkpt><trkpt lat="40.6449929" lon="-4.0059527"><ele>886.1428571428571</ele><time>2026-05-04T10:11:46.634Z</time></trkpt><trkpt lat="40.645061" lon="-4.0059702"><ele>886.5714285714286</ele><time>2026-05-04T10:11:47.634Z</time></trkpt><trkpt lat="40.6451297" lon="-4.0059916"><ele>887.0</ele><time>2026-05-04T10:11:48.635Z</time></trkpt><trkpt lat="40.6451945" lon="-4.0060145"><ele>887.0000000000001</ele><time>2026-05-04T10:11:49.634Z</time></trkpt><trkpt lat="40.6452628" lon="-4.0060342"><ele>887.0</ele><time>2026-05-04T10:11:50.635Z</time></trkpt><trkpt lat="40.6453321" lon="-4.0060546"><ele>887.0</ele><time>2026-05-04T10:11:51.634Z</time></trkpt><trkpt lat="40.6454063" lon="-4.0060781"><ele>887.0</ele><time>2026-05-04T10:11:52.634Z</time></trkpt><trkpt lat="40.6454787" lon="-4.0060988"><ele>887.0000000000001</ele><time>2026-05-04T10:11:53.634Z</time></trkpt><trkpt lat="40.6455429" lon="-4.0061181"><ele>887.0</ele><time>2026-05-04T10:11:54.634Z</time></trkpt><trkpt lat="40.6456563" lon="-4.0061463"><ele>886.6666666666667</ele><time>2026-05-04T10:11:56.634Z</time></trkpt><trkpt lat="40.6457808" lon="-4.0061682"><ele>886.3333333333334</ele><time>2026-05-04T10:11:58.634Z</time></trkpt><trkpt lat="40.6458436" lon="-4.006178"><ele>886.0</ele><time>2026-05-04T10:11:59.634Z</time></trkpt><trkpt lat="40.6459067" lon="-4.0061944"><ele>885.6666666666667</ele><time>2026-05-04T10:12:00.634Z</time></trkpt><trkpt lat="40.6459727" lon="-4.0062048"><ele>885.3333333333334</ele><time>2026-05-04T10:12:01.634Z</time></trkpt><trkpt lat="40.646042" lon="-4.0062158"><ele>885.0</ele><time>2026-05-04T10:12:02.634Z</time></trkpt><trkpt lat="40.6461096" lon="-4.0062318"><ele>884.7142857142857</ele><time>2026-05-04T10:12:03.635Z</time></trkpt><trkpt lat="40.6461767" lon="-4.0062413"><ele>884.4285714285713</ele><time>2026-05-04T10:12:04.634Z</time></trkpt><trkpt lat="40.6462504" lon="-4.0062492"><ele>884.1428571428571</ele><time>2026-05-04T10:12:05.635Z</time></trkpt><trkpt lat="40.6463166" lon="-4.0062522"><ele>883.8571428571429</ele><time>2026-05-04T10:12:06.634Z</time></trkpt><trkpt lat="40.6463843" lon="-4.0062643"><ele>883.5714285714286</ele><time>2026-05-04T10:12:07.634Z</time></trkpt><trkpt lat="40.6464481" lon="-4.0062788"><ele>883.2857142857143</ele><time>2026-05-04T10:12:08.634Z</time></trkpt><trkpt lat="40.646514" lon="-4.0062874"><ele>883.0</ele><time>2026-05-04T10:12:09.634Z</time></trkpt><trkpt lat="40.6465778" lon="-4.0062976"><ele>882.9999999999999</ele><time>2026-05-04T10:12:10.634Z</time></trkpt><trkpt lat="40.6466443" lon="-4.0063089"><ele>883.0</ele><time>2026-05-04T10:12:11.634Z</time></trkpt><trkpt lat="40.6467109" lon="-4.0063203"><ele>883.0</ele><time>2026-05-04T10:12:12.633Z</time></trkpt><trkpt lat="40.6467756" lon="-4.0063371"><ele>883.0</ele><time>2026-05-04T10:12:13.633Z</time></trkpt><trkpt lat="40.6468904" lon="-4.0063683"><ele>882.9999999999999</ele><time>2026-05-04T10:12:15.633Z</time></trkpt><trkpt lat="40.6469985" lon="-4.0063902"><ele>883.0</ele><time>2026-05-04T10:12:17.634Z</time></trkpt><trkpt lat="40.6471142" lon="-4.0064207"><ele>882.6666666666666</ele><time>2026-05-04T10:12:19.634Z</time></trkpt><trkpt lat="40.647175" lon="-4.0064507"><ele>882.3333333333333</ele><time>2026-05-04T10:12:20.633Z</time></trkpt><trkpt lat="40.6472325" lon="-4.0064914"><ele>882.0</ele><time>2026-05-04T10:12:21.633Z</time></trkpt><trkpt lat="40.6473268" lon="-4.0065785"><ele>881.6666666666667</ele><time>2026-05-04T10:12:23.633Z</time></trkpt><trkpt lat="40.6474269" lon="-4.006635"><ele>881.3333333333334</ele><time>2026-05-04T10:12:25.633Z</time></trkpt><trkpt lat="40.6474915" lon="-4.0066547"><ele>881.0</ele><time>2026-05-04T10:12:26.633Z</time></trkpt><trkpt lat="40.6475658" lon="-4.0066744"><ele>881.0000000000001</ele><time>2026-05-04T10:12:27.633Z</time></trkpt><trkpt lat="40.6476489" lon="-4.0066837"><ele>881.0</ele><time>2026-05-04T10:12:28.633Z</time></trkpt><trkpt lat="40.6477316" lon="-4.0067008"><ele>881.0</ele><time>2026-05-04T10:12:29.633Z</time></trkpt><trkpt lat="40.6478126" lon="-4.0067178"><ele>881.0</ele><time>2026-05-04T10:12:30.633Z</time></trkpt><trkpt lat="40.6478964" lon="-4.0067428"><ele>881.0000000000001</ele><time>2026-05-04T10:12:31.633Z</time></trkpt><trkpt lat="40.647982" lon="-4.0067626"><ele>881.0</ele><time>2026-05-04T10:12:32.633Z</time></trkpt><trkpt lat="40.648067" lon="-4.0067859"><ele>881.0000000000001</ele><time>2026-05-04T10:12:33.634Z</time></trkpt><trkpt lat="40.6481494" lon="-4.0068028"><ele>881.0</ele><time>2026-05-04T10:12:34.633Z</time></trkpt><trkpt lat="40.6482277" lon="-4.0068225"><ele>881.0</ele><time>2026-05-04T10:12:35.633Z</time></trkpt><trkpt lat="40.6483144" lon="-4.0068433"><ele>881.0</ele><time>2026-05-04T10:12:36.633Z</time></trkpt><trkpt lat="40.6483957" lon="-4.0068637"><ele>881.0000000000001</ele><time>2026-05-04T10:12:37.633Z</time></trkpt><trkpt lat="40.6484759" lon="-4.0068892"><ele>881.0</ele><time>2026-05-04T10:12:38.633Z</time></trkpt><trkpt lat="40.6485558" lon="-4.0069136"><ele>881.5999999999999</ele><time>2026-05-04T10:12:39.633Z</time></trkpt><trkpt lat="40.6486404" lon="-4.0069507"><ele>882.1999999999999</ele><time>2026-05-04T10:12:40.633Z</time></trkpt><trkpt lat="40.6487253" lon="-4.006986"><ele>882.8000000000001</ele><time>2026-05-04T10:12:41.633Z</time></trkpt><trkpt lat="40.6488161" lon="-4.0070271"><ele>883.4000000000001</ele><time>2026-05-04T10:12:42.633Z</time></trkpt><trkpt lat="40.6489085" lon="-4.0070646"><ele>884.0</ele><time>2026-05-04T10:12:43.633Z</time></trkpt><trkpt lat="40.6490018" lon="-4.0070927"><ele>884.0000000000001</ele><time>2026-05-04T10:12:44.633Z</time></trkpt><trkpt lat="40.6490889" lon="-4.0071126"><ele>884.0</ele><time>2026-05-04T10:12:45.633Z</time></trkpt><trkpt lat="40.6491692" lon="-4.0071267"><ele>884.0</ele><time>2026-05-04T10:12:46.633Z</time></trkpt><trkpt lat="40.6492501" lon="-4.0071297"><ele>884.0</ele><time>2026-05-04T10:12:47.634Z</time></trkpt><trkpt lat="40.6493289" lon="-4.0071375"><ele>884.0000000000001</ele><time>2026-05-04T10:12:48.634Z</time></trkpt><trkpt lat="40.6494102" lon="-4.0071549"><ele>884.0</ele><time>2026-05-04T10:12:49.634Z</time></trkpt><trkpt lat="40.6494873" lon="-4.0071813"><ele>884.3333333333334</ele><time>2026-05-04T10:12:50.633Z</time></trkpt><trkpt lat="40.6495628" lon="-4.0072092"><ele>884.6666666666667</ele><time>2026-05-04T10:12:51.633Z</time></trkpt><trkpt lat="40.6496379" lon="-4.0072434"><ele>885.0</ele><time>2026-05-04T10:12:52.633Z</time></trkpt><trkpt lat="40.6497081" lon="-4.007272"><ele>885.3333333333333</ele><time>2026-05-04T10:12:53.633Z</time></trkpt><trkpt lat="40.6497843" lon="-4.0072986"><ele>885.6666666666666</ele><time>2026-05-04T10:12:54.634Z</time></trkpt><trkpt lat="40.6498623" lon="-4.0073298"><ele>886.0</ele><time>2026-05-04T10:12:55.633Z</time></trkpt><trkpt lat="40.6499412" lon="-4.0073628"><ele>886.0</ele><time>2026-05-04T10:12:56.633Z</time></trkpt><trkpt lat="40.6500147" lon="-4.0073914"><ele>886.0</ele><time>2026-05-04T10:12:57.633Z</time></trkpt><trkpt lat="40.6500861" lon="-4.0074144"><ele>886.0</ele><time>2026-05-04T10:12:58.633Z</time></trkpt><trkpt lat="40.6501517" lon="-4.0074421"><ele>886.0</ele><time>2026-05-04T10:12:59.634Z</time></trkpt><trkpt lat="40.6502205" lon="-4.0074675"><ele>886.0</ele><time>2026-05-04T10:13:00.633Z</time></trkpt><trkpt lat="40.6502935" lon="-4.0074968"><ele>886.0</ele><time>2026-05-04T10:13:01.633Z</time></trkpt><trkpt lat="40.6503705" lon="-4.0075269"><ele>886.0</ele><time>2026-05-04T10:13:02.633Z</time></trkpt><trkpt lat="40.6504422" lon="-4.0075659"><ele>886.8333333333333</ele><time>2026-05-04T10:13:03.633Z</time></trkpt><trkpt lat="40.650515" lon="-4.0076078"><ele>887.6666666666666</ele><time>2026-05-04T10:13:04.633Z</time></trkpt><trkpt lat="40.6505936" lon="-4.0076471"><ele>888.5</ele><time>2026-05-04T10:13:05.633Z</time></trkpt><trkpt lat="40.6506795" lon="-4.0076788"><ele>889.3333333333333</ele><time>2026-05-04T10:13:06.633Z</time></trkpt><trkpt lat="40.6507687" lon="-4.007701"><ele>890.1666666666666</ele><time>2026-05-04T10:13:07.633Z</time></trkpt><trkpt lat="40.6508542" lon="-4.0077187"><ele>891.0</ele><time>2026-05-04T10:13:08.633Z</time></trkpt><trkpt lat="40.6509373" lon="-4.0077382"><ele>891.0</ele><time>2026-05-04T10:13:09.633Z</time></trkpt><trkpt lat="40.6510174" lon="-4.0077575"><ele>891.0</ele><time>2026-05-04T10:13:10.633Z</time></trkpt><trkpt lat="40.6510939" lon="-4.0077684"><ele>891.0</ele><time>2026-05-04T10:13:11.633Z</time></trkpt><trkpt lat="40.6511616" lon="-4.0077628"><ele>891.0</ele><time>2026-05-04T10:13:12.633Z</time></trkpt><trkpt lat="40.6512277" lon="-4.0077309"><ele>891.0</ele><time>2026-05-04T10:13:13.633Z</time></trkpt><trkpt lat="40.6513115" lon="-4.0076556"><ele>891.0</ele><time>2026-05-04T10:13:15.634Z</time></trkpt><trkpt lat="40.6513565" lon="-4.0075153"><ele>891.1666666666666</ele><time>2026-05-04T10:13:17.634Z</time></trkpt><trkpt lat="40.6513601" lon="-4.0074264"><ele>891.3333333333333</ele><time>2026-05-04T10:13:18.633Z</time></trkpt><trkpt lat="40.6513422" lon="-4.0072819"><ele>891.5</ele><time>2026-05-04T10:13:20.634Z</time></trkpt><trkpt lat="40.6513989" lon="-4.0072071"><ele>891.6666666666666</ele><time>2026-05-04T10:13:23.633Z</time></trkpt><trkpt lat="40.6514646" lon="-4.0072536"><ele>891.8333333333333</ele><time>2026-05-04T10:13:26.633Z</time></trkpt><trkpt lat="40.651527" lon="-4.0072762"><ele>892.0</ele><time>2026-05-04T10:13:30.634Z</time></trkpt><trkpt lat="40.6515846" lon="-4.007355"><ele>891.9999999999999</ele><time>2026-05-04T10:13:35.633Z</time></trkpt><trkpt lat="40.6515747" lon="-4.0074459"><ele>892.0</ele><time>2026-05-04T10:13:36.633Z</time></trkpt><trkpt lat="40.6515552" lon="-4.0075276"><ele>892.0</ele><time>2026-05-04T10:13:37.633Z</time></trkpt><trkpt lat="40.6515388" lon="-4.0076477"><ele>892.0</ele><time>2026-05-04T10:13:39.633Z</time></trkpt><trkpt lat="40.6515226" lon="-4.0077662"><ele>891.9999999999999</ele><time>2026-05-04T10:13:41.634Z</time></trkpt><trkpt lat="40.6515363" lon="-4.0078767"><ele>892.0</ele><time>2026-05-04T10:13:44.633Z</time></trkpt><trkpt lat="40.6515488" lon="-4.0079914"><ele>891.8333333333333</ele><time>2026-05-04T10:13:57.633Z</time></trkpt><trkpt lat="40.6515879" lon="-4.0080716"><ele>891.6666666666666</ele><time>2026-05-04T10:13:58.633Z</time></trkpt><trkpt lat="40.6516328" lon="-4.0081457"><ele>891.5</ele><time>2026-05-04T10:13:59.633Z</time></trkpt><trkpt lat="40.651684" lon="-4.0082315"><ele>891.3333333333333</ele><time>2026-05-04T10:14:00.633Z</time></trkpt><trkpt lat="40.6517621" lon="-4.0083184"><ele>891.1666666666666</ele><time>2026-05-04T10:14:01.633Z</time></trkpt><trkpt lat="40.6518554" lon="-4.0083738"><ele>891.0</ele><time>2026-05-04T10:14:02.633Z</time></trkpt><trkpt lat="40.6519648" lon="-4.0083949"><ele>892.0</ele><time>2026-05-04T10:14:03.633Z</time></trkpt><trkpt lat="40.6520899" lon="-4.0084061"><ele>893.0</ele><time>2026-05-04T10:14:04.633Z</time></trkpt><trkpt lat="40.6522156" lon="-4.0084213"><ele>894.0</ele><time>2026-05-04T10:14:05.633Z</time></trkpt><trkpt lat="40.6523371" lon="-4.0084333"><ele>895.0</ele><time>2026-05-04T10:14:06.634Z</time></trkpt><trkpt lat="40.6524575" lon="-4.0084403"><ele>895.0</ele><time>2026-05-04T10:14:07.633Z</time></trkpt><trkpt lat="40.6525833" lon="-4.0084506"><ele>895.0</ele><time>2026-05-04T10:14:08.633Z</time></trkpt><trkpt lat="40.6527129" lon="-4.0084567"><ele>895.0</ele><time>2026-05-04T10:14:09.633Z</time></trkpt><trkpt lat="40.6528372" lon="-4.0084645"><ele>895.0</ele><time>2026-05-04T10:14:10.633Z</time></trkpt><trkpt lat="40.6529602" lon="-4.008484"><ele>895.25</ele><time>2026-05-04T10:14:11.633Z</time></trkpt><trkpt lat="40.653087" lon="-4.008504"><ele>895.5</ele><time>2026-05-04T10:14:12.633Z</time></trkpt><trkpt lat="40.653221" lon="-4.0085295"><ele>895.75</ele><time>2026-05-04T10:14:13.633Z</time></trkpt><trkpt lat="40.6533528" lon="-4.0085708"><ele>896.0</ele><time>2026-05-04T10:14:14.633Z</time></trkpt><trkpt lat="40.6534868" lon="-4.0086257"><ele>896.0</ele><time>2026-05-04T10:14:15.633Z</time></trkpt><trkpt lat="40.6536196" lon="-4.0086893"><ele>896.0</ele><time>2026-05-04T10:14:16.634Z</time></trkpt><trkpt lat="40.6537541" lon="-4.0087651"><ele>896.0</ele><time>2026-05-04T10:14:17.634Z</time></trkpt><trkpt lat="40.6538964" lon="-4.0088457"><ele>896.0</ele><time>2026-05-04T10:14:18.633Z</time></trkpt><trkpt lat="40.6540394" lon="-4.0089201"><ele>898.0</ele><time>2026-05-04T10:14:19.633Z</time></trkpt><trkpt lat="40.6541899" lon="-4.0089841"><ele>900.0</ele><time>2026-05-04T10:14:20.633Z</time></trkpt><trkpt lat="40.6543335" lon="-4.0090443"><ele>902.0</ele><time>2026-05-04T10:14:21.633Z</time></trkpt><trkpt lat="40.6544794" lon="-4.0090955"><ele>901.6666666666667</ele><time>2026-05-04T10:14:22.633Z</time></trkpt><trkpt lat="40.6546315" lon="-4.0091412"><ele>901.3333333333333</ele><time>2026-05-04T10:14:23.633Z</time></trkpt><trkpt lat="40.6547911" lon="-4.0091792"><ele>901.0</ele><time>2026-05-04T10:14:24.633Z</time></trkpt><trkpt lat="40.6549458" lon="-4.0092028"><ele>901.0</ele><time>2026-05-04T10:14:25.633Z</time></trkpt><trkpt lat="40.6550989" lon="-4.0092201"><ele>901.0</ele><time>2026-05-04T10:14:26.633Z</time></trkpt><trkpt lat="40.6552564" lon="-4.0092357"><ele>901.0</ele><time>2026-05-04T10:14:27.633Z</time></trkpt><trkpt lat="40.6554191" lon="-4.0092454"><ele>902.0</ele><time>2026-05-04T10:14:28.633Z</time></trkpt><trkpt lat="40.6555825" lon="-4.0092666"><ele>903.0</ele><time>2026-05-04T10:14:29.633Z</time></trkpt><trkpt lat="40.655737" lon="-4.0092836"><ele>904.0</ele><time>2026-05-04T10:14:30.633Z</time></trkpt><trkpt lat="40.6558879" lon="-4.0093022"><ele>904.0</ele><time>2026-05-04T10:14:31.633Z</time></trkpt><trkpt lat="40.6560341" lon="-4.009323"><ele>904.0</ele><time>2026-05-04T10:14:32.633Z</time></trkpt><trkpt lat="40.6561788" lon="-4.0093416"><ele>904.0</ele><time>2026-05-04T10:14:33.633Z</time></trkpt><trkpt lat="40.6563261" lon="-4.009366"><ele>904.0</ele><time>2026-05-04T10:14:34.634Z</time></trkpt><trkpt lat="40.6564779" lon="-4.0093871"><ele>904.3333333333333</ele><time>2026-05-04T10:14:35.633Z</time></trkpt><trkpt lat="40.65663" lon="-4.0094073"><ele>904.6666666666667</ele><time>2026-05-04T10:14:36.633Z</time></trkpt><trkpt lat="40.6567842" lon="-4.009427"><ele>905.0</ele><time>2026-05-04T10:14:37.633Z</time></trkpt><trkpt lat="40.6569437" lon="-4.0094492"><ele>906.6666666666667</ele><time>2026-05-04T10:14:38.634Z</time></trkpt><trkpt lat="40.6571072" lon="-4.0094815"><ele>908.3333333333333</ele><time>2026-05-04T10:14:39.633Z</time></trkpt><trkpt lat="40.6572712" lon="-4.0095265"><ele>910.0</ele><time>2026-05-04T10:14:40.633Z</time></trkpt><trkpt lat="40.6574275" lon="-4.0095748"><ele>910.0</ele><time>2026-05-04T10:14:41.633Z</time></trkpt><trkpt lat="40.6575863" lon="-4.009632"><ele>910.0</ele><time>2026-05-04T10:14:42.633Z</time></trkpt><trkpt lat="40.6577371" lon="-4.009699"><ele>910.0</ele><time>2026-05-04T10:14:43.633Z</time></trkpt><trkpt lat="40.6578906" lon="-4.0097616"><ele>912.0</ele><time>2026-05-04T10:14:44.633Z</time></trkpt><trkpt lat="40.6580462" lon="-4.0098215"><ele>914.0</ele><time>2026-05-04T10:14:45.633Z</time></trkpt><trkpt lat="40.6582065" lon="-4.0098864"><ele>916.0</ele><time>2026-05-04T10:14:46.633Z</time></trkpt><trkpt lat="40.6583682" lon="-4.0099607"><ele>916.3333333333333</ele><time>2026-05-04T10:14:47.633Z</time></trkpt><trkpt lat="40.6585318" lon="-4.0100302"><ele>916.6666666666667</ele><time>2026-05-04T10:14:48.633Z</time></trkpt><trkpt lat="40.6587028" lon="-4.0100982"><ele>917.0</ele><time>2026-05-04T10:14:49.633Z</time></trkpt><trkpt lat="40.6588764" lon="-4.010165"><ele>917.0</ele><time>2026-05-04T10:14:50.634Z</time></trkpt><trkpt lat="40.6590501" lon="-4.0102331"><ele>917.0</ele><time>2026-05-04T10:14:51.633Z</time></trkpt><trkpt lat="40.6592305" lon="-4.010297"><ele>917.0</ele><time>2026-05-04T10:14:52.633Z</time></trkpt><trkpt lat="40.6594039" lon="-4.0103604"><ele>918.0</ele><time>2026-05-04T10:14:53.633Z</time></trkpt><trkpt lat="40.6595718" lon="-4.0104178"><ele>919.0</ele><time>2026-05-04T10:14:54.634Z</time></trkpt><trkpt lat="40.6597412" lon="-4.0104726"><ele>920.0</ele><time>2026-05-04T10:14:55.633Z</time></trkpt><trkpt lat="40.6599236" lon="-4.0105222"><ele>920.0</ele><time>2026-05-04T10:14:56.634Z</time></trkpt><trkpt lat="40.6601077" lon="-4.0105512"><ele>920.0</ele><time>2026-05-04T10:14:57.633Z</time></trkpt><trkpt lat="40.6602966" lon="-4.0105773"><ele>920.0</ele><time>2026-05-04T10:14:58.633Z</time></trkpt><trkpt lat="40.660493" lon="-4.010596"><ele>921.0</ele><time>2026-05-04T10:14:59.634Z</time></trkpt><trkpt lat="40.6606875" lon="-4.0106195"><ele>922.0</ele><time>2026-05-04T10:15:00.633Z</time></trkpt><trkpt lat="40.6608812" lon="-4.01064"><ele>923.0</ele><time>2026-05-04T10:15:01.633Z</time></trkpt><trkpt lat="40.6610713" lon="-4.0106654"><ele>922.6666666666667</ele><time>2026-05-04T10:15:02.633Z</time></trkpt><trkpt lat="40.6612681" lon="-4.0106931"><ele>922.3333333333333</ele><time>2026-05-04T10:15:03.634Z</time></trkpt><trkpt lat="40.6614609" lon="-4.0107219"><ele>922.0</ele><time>2026-05-04T10:15:04.633Z</time></trkpt><trkpt lat="40.6616506" lon="-4.0107476"><ele>922.0</ele><time>2026-05-04T10:15:05.633Z</time></trkpt><trkpt lat="40.6618334" lon="-4.0107792"><ele>922.0</ele><time>2026-05-04T10:15:06.633Z</time></trkpt><trkpt lat="40.6620182" lon="-4.0108054"><ele>922.0</ele><time>2026-05-04T10:15:07.633Z</time></trkpt><trkpt lat="40.6622" lon="-4.0108262"><ele>921.6666666666666</ele><time>2026-05-04T10:15:08.633Z</time></trkpt><trkpt lat="40.6623871" lon="-4.010847"><ele>921.3333333333333</ele><time>2026-05-04T10:15:09.633Z</time></trkpt><trkpt lat="40.6625732" lon="-4.0108667"><ele>921.0</ele><time>2026-05-04T10:15:10.634Z</time></trkpt><trkpt lat="40.6627563" lon="-4.0108864"><ele>922.3333333333333</ele><time>2026-05-04T10:15:11.634Z</time></trkpt><trkpt lat="40.6629391" lon="-4.0109101"><ele>923.6666666666666</ele><time>2026-05-04T10:15:12.633Z</time></trkpt><trkpt lat="40.6631248" lon="-4.0109402"><ele>925.0</ele><time>2026-05-04T10:15:13.633Z</time></trkpt><trkpt lat="40.6633093" lon="-4.0109605"><ele>925.0</ele><time>2026-05-04T10:15:14.633Z</time></trkpt><trkpt lat="40.6634932" lon="-4.0109788"><ele>925.0</ele><time>2026-05-04T10:15:15.633Z</time></trkpt><trkpt lat="40.6636769" lon="-4.0110061"><ele>925.0</ele><time>2026-05-04T10:15:16.633Z</time></trkpt><trkpt lat="40.6638583" lon="-4.011029"><ele>926.3333333333333</ele><time>2026-05-04T10:15:17.633Z</time></trkpt><trkpt lat="40.6640393" lon="-4.0110445"><ele>927.6666666666667</ele><time>2026-05-04T10:15:18.633Z</time></trkpt><trkpt lat="40.6642148" lon="-4.0110655"><ele>929.0</ele><time>2026-05-04T10:15:19.634Z</time></trkpt><trkpt lat="40.6643954" lon="-4.011087"><ele>930.6666666666667</ele><time>2026-05-04T10:15:20.633Z</time></trkpt><trkpt lat="40.6645771" lon="-4.0111101"><ele>932.3333333333333</ele><time>2026-05-04T10:15:21.634Z</time></trkpt><trkpt lat="40.6647601" lon="-4.0111281"><ele>934.0</ele><time>2026-05-04T10:15:22.633Z</time></trkpt><trkpt lat="40.6649471" lon="-4.0111351"><ele>934.0</ele><time>2026-05-04T10:15:23.633Z</time></trkpt><trkpt lat="40.6651407" lon="-4.0111241"><ele>934.0</ele><time>2026-05-04T10:15:24.633Z</time></trkpt><trkpt lat="40.6653311" lon="-4.0110931"><ele>934.0</ele><time>2026-05-04T10:15:25.633Z</time></trkpt><trkpt lat="40.6655201" lon="-4.011056"><ele>933.6666666666666</ele><time>2026-05-04T10:15:26.633Z</time></trkpt><trkpt lat="40.6657068" lon="-4.0110272"><ele>933.3333333333333</ele><time>2026-05-04T10:15:27.633Z</time></trkpt><trkpt lat="40.6658955" lon="-4.010998"><ele>933.0</ele><time>2026-05-04T10:15:28.634Z</time></trkpt><trkpt lat="40.6660862" lon="-4.0109687"><ele>935.0</ele><time>2026-05-04T10:15:29.634Z</time></trkpt><trkpt lat="40.666272" lon="-4.01094"><ele>937.0</ele><time>2026-05-04T10:15:30.633Z</time></trkpt><trkpt lat="40.6664539" lon="-4.010907"><ele>939.0</ele><time>2026-05-04T10:15:31.633Z</time></trkpt><trkpt lat="40.6666338" lon="-4.010878"><ele>939.0</ele><time>2026-05-04T10:15:32.633Z</time></trkpt><trkpt lat="40.6668125" lon="-4.0108439"><ele>939.0</ele><time>2026-05-04T10:15:33.633Z</time></trkpt><trkpt lat="40.6669902" lon="-4.0108229"><ele>939.0</ele><time>2026-05-04T10:15:34.633Z</time></trkpt><trkpt lat="40.6671615" lon="-4.0107983"><ele>942.3333333333333</ele><time>2026-05-04T10:15:35.634Z</time></trkpt><trkpt lat="40.6673351" lon="-4.0107641"><ele>945.6666666666666</ele><time>2026-05-04T10:15:36.634Z</time></trkpt><trkpt lat="40.6675051" lon="-4.0107382"><ele>949.0</ele><time>2026-05-04T10:15:37.633Z</time></trkpt><trkpt lat="40.6676729" lon="-4.0107123"><ele>951.0</ele><time>2026-05-04T10:15:38.633Z</time></trkpt><trkpt lat="40.6678392" lon="-4.0106927"><ele>953.0</ele><time>2026-05-04T10:15:39.633Z</time></trkpt><trkpt lat="40.6680069" lon="-4.0106848"><ele>955.0</ele><time>2026-05-04T10:15:40.634Z</time></trkpt><trkpt lat="40.6681762" lon="-4.0106817"><ele>955.0</ele><time>2026-05-04T10:15:41.633Z</time></trkpt><trkpt lat="40.6683455" lon="-4.01069"><ele>955.0</ele><time>2026-05-04T10:15:42.634Z</time></trkpt><trkpt lat="40.6685205" lon="-4.0107064"><ele>955.0</ele><time>2026-05-04T10:15:43.633Z</time></trkpt><trkpt lat="40.6686935" lon="-4.0107194"><ele>956.6666666666666</ele><time>2026-05-04T10:15:44.634Z</time></trkpt><trkpt lat="40.6688679" lon="-4.0107335"><ele>958.3333333333333</ele><time>2026-05-04T10:15:45.633Z</time></trkpt><trkpt lat="40.6690407" lon="-4.0107426"><ele>960.0</ele><time>2026-05-04T10:15:46.633Z</time></trkpt><trkpt lat="40.6692182" lon="-4.0107482"><ele>960.0</ele><time>2026-05-04T10:15:47.633Z</time></trkpt><trkpt lat="40.6693979" lon="-4.0107603"><ele>960.0</ele><time>2026-05-04T10:15:48.633Z</time></trkpt><trkpt lat="40.6695773" lon="-4.0107726"><ele>960.0</ele><time>2026-05-04T10:15:49.633Z</time></trkpt><trkpt lat="40.6697555" lon="-4.0107853"><ele>962.3333333333333</ele><time>2026-05-04T10:15:50.633Z</time></trkpt><trkpt lat="40.6699338" lon="-4.0107964"><ele>964.6666666666666</ele><time>2026-05-04T10:15:51.633Z</time></trkpt><trkpt lat="40.6701225" lon="-4.010809"><ele>967.0</ele><time>2026-05-04T10:15:52.633Z</time></trkpt><trkpt lat="40.6703091" lon="-4.0108186"><ele>966.3333333333333</ele><time>2026-05-04T10:15:53.634Z</time></trkpt><trkpt lat="40.6704919" lon="-4.0108323"><ele>965.6666666666667</ele><time>2026-05-04T10:15:54.632Z</time></trkpt><trkpt lat="40.6706748" lon="-4.0108454"><ele>965.0</ele><time>2026-05-04T10:15:55.632Z</time></trkpt><trkpt lat="40.6708572" lon="-4.0108547"><ele>965.0</ele><time>2026-05-04T10:15:56.632Z</time></trkpt><trkpt lat="40.6710374" lon="-4.0108636"><ele>965.0</ele><time>2026-05-04T10:15:57.632Z</time></trkpt><trkpt lat="40.6712084" lon="-4.0108776"><ele>965.0</ele><time>2026-05-04T10:15:58.633Z</time></trkpt><trkpt lat="40.6713887" lon="-4.0108941"><ele>967.0</ele><time>2026-05-04T10:15:59.632Z</time></trkpt><trkpt lat="40.6715728" lon="-4.0109091"><ele>969.0</ele><time>2026-05-04T10:16:00.632Z</time></trkpt><trkpt lat="40.6717559" lon="-4.0109192"><ele>971.0</ele><time>2026-05-04T10:16:01.632Z</time></trkpt><trkpt lat="40.6719385" lon="-4.0109255"><ele>972.6666666666667</ele><time>2026-05-04T10:16:02.632Z</time></trkpt><trkpt lat="40.672119" lon="-4.0109305"><ele>974.3333333333333</ele><time>2026-05-04T10:16:03.632Z</time></trkpt><trkpt lat="40.6723001" lon="-4.0109157"><ele>976.0</ele><time>2026-05-04T10:16:04.632Z</time></trkpt><trkpt lat="40.672481" lon="-4.0108819"><ele>976.0</ele><time>2026-05-04T10:16:05.632Z</time></trkpt><trkpt lat="40.672663" lon="-4.0108355"><ele>976.0</ele><time>2026-05-04T10:16:06.633Z</time></trkpt><trkpt lat="40.6728385" lon="-4.0107719"><ele>976.0</ele><time>2026-05-04T10:16:07.632Z</time></trkpt><trkpt lat="40.6730147" lon="-4.0106874"><ele>979.3333333333333</ele><time>2026-05-04T10:16:08.633Z</time></trkpt><trkpt lat="40.6731737" lon="-4.0106026"><ele>982.6666666666667</ele><time>2026-05-04T10:16:09.632Z</time></trkpt><trkpt lat="40.6733372" lon="-4.010511"><ele>986.0</ele><time>2026-05-04T10:16:10.632Z</time></trkpt><trkpt lat="40.6735012" lon="-4.0104142"><ele>987.0</ele><time>2026-05-04T10:16:11.632Z</time></trkpt><trkpt lat="40.673667" lon="-4.0103183"><ele>988.0</ele><time>2026-05-04T10:16:12.632Z</time></trkpt><trkpt lat="40.6738322" lon="-4.0102236"><ele>989.0</ele><time>2026-05-04T10:16:13.633Z</time></trkpt><trkpt lat="40.6739941" lon="-4.0101371"><ele>989.0</ele><time>2026-05-04T10:16:14.632Z</time></trkpt><trkpt lat="40.6741557" lon="-4.0100678"><ele>989.0</ele><time>2026-05-04T10:16:15.632Z</time></trkpt><trkpt lat="40.6743259" lon="-4.0100187"><ele>989.0</ele><time>2026-05-04T10:16:16.632Z</time></trkpt><trkpt lat="40.6744996" lon="-4.0099825"><ele>994.3333333333334</ele><time>2026-05-04T10:16:17.632Z</time></trkpt><trkpt lat="40.6746783" lon="-4.0099617"><ele>999.6666666666667</ele><time>2026-05-04T10:16:18.632Z</time></trkpt><trkpt lat="40.6748642" lon="-4.0099653"><ele>1005.0</ele><time>2026-05-04T10:16:19.632Z</time></trkpt><trkpt lat="40.675045" lon="-4.0099839"><ele>1004.6666666666667</ele><time>2026-05-04T10:16:20.632Z</time></trkpt><trkpt lat="40.6752272" lon="-4.0100209"><ele>1004.3333333333334</ele><time>2026-05-04T10:16:21.632Z</time></trkpt><trkpt lat="40.6754097" lon="-4.0100767"><ele>1004.0</ele><time>2026-05-04T10:16:22.632Z</time></trkpt><trkpt lat="40.6755843" lon="-4.0101584"><ele>1004.0</ele><time>2026-05-04T10:16:23.632Z</time></trkpt><trkpt lat="40.6757604" lon="-4.0102544"><ele>1004.0</ele><time>2026-05-04T10:16:24.632Z</time></trkpt><trkpt lat="40.6759321" lon="-4.0103636"><ele>1004.0</ele><time>2026-05-04T10:16:25.632Z</time></trkpt><trkpt lat="40.6761008" lon="-4.010486"><ele>1005.3333333333334</ele><time>2026-05-04T10:16:26.633Z</time></trkpt><trkpt lat="40.6762729" lon="-4.0106102"><ele>1006.6666666666667</ele><time>2026-05-04T10:16:27.632Z</time></trkpt><trkpt lat="40.6764423" lon="-4.0107292"><ele>1008.0</ele><time>2026-05-04T10:16:28.633Z</time></trkpt><trkpt lat="40.6766087" lon="-4.0108465"><ele>1008.0</ele><time>2026-05-04T10:16:29.632Z</time></trkpt><trkpt lat="40.6767759" lon="-4.0109671"><ele>1008.0</ele><time>2026-05-04T10:16:30.633Z</time></trkpt><trkpt lat="40.6769469" lon="-4.011089"><ele>1008.0</ele><time>2026-05-04T10:16:31.632Z</time></trkpt><trkpt lat="40.6771229" lon="-4.0112173"><ele>1010.0</ele><time>2026-05-04T10:16:32.632Z</time></trkpt><trkpt lat="40.6773024" lon="-4.0113443"><ele>1012.0</ele><time>2026-05-04T10:16:33.632Z</time></trkpt><trkpt lat="40.6774802" lon="-4.0114664"><ele>1014.0</ele><time>2026-05-04T10:16:34.632Z</time></trkpt><trkpt lat="40.6776591" lon="-4.011588"><ele>1015.3333333333333</ele><time>2026-05-04T10:16:35.632Z</time></trkpt><trkpt lat="40.6778321" lon="-4.0117106"><ele>1016.6666666666666</ele><time>2026-05-04T10:16:36.633Z</time></trkpt><trkpt lat="40.6779988" lon="-4.0118342"><ele>1018.0</ele><time>2026-05-04T10:16:37.632Z</time></trkpt><trkpt lat="40.6781665" lon="-4.0119465"><ele>1018.0</ele><time>2026-05-04T10:16:38.632Z</time></trkpt><trkpt lat="40.6783341" lon="-4.0120632"><ele>1018.0</ele><time>2026-05-04T10:16:39.632Z</time></trkpt><trkpt lat="40.6784996" lon="-4.0121808"><ele>1018.0</ele><time>2026-05-04T10:16:40.632Z</time></trkpt><trkpt lat="40.6786666" lon="-4.0123018"><ele>1019.0</ele><time>2026-05-04T10:16:41.632Z</time></trkpt><trkpt lat="40.6788333" lon="-4.0124203"><ele>1020.0</ele><time>2026-05-04T10:16:42.632Z</time></trkpt><trkpt lat="40.6790015" lon="-4.0125276"><ele>1021.0</ele><time>2026-05-04T10:16:43.633Z</time></trkpt><trkpt lat="40.6791697" lon="-4.0126149"><ele>1021.0</ele><time>2026-05-04T10:16:44.632Z</time></trkpt><trkpt lat="40.6793409" lon="-4.0126755"><ele>1021.0</ele><time>2026-05-04T10:16:45.632Z</time></trkpt><trkpt lat="40.6795119" lon="-4.0127237"><ele>1021.0</ele><time>2026-05-04T10:16:46.632Z</time></trkpt><trkpt lat="40.6796827" lon="-4.0127664"><ele>1022.3333333333333</ele><time>2026-05-04T10:16:47.632Z</time></trkpt><trkpt lat="40.6798518" lon="-4.0128102"><ele>1023.6666666666667</ele><time>2026-05-04T10:16:48.632Z</time></trkpt><trkpt lat="40.6800238" lon="-4.0128573"><ele>1025.0</ele><time>2026-05-04T10:16:49.633Z</time></trkpt><trkpt lat="40.680196" lon="-4.0129019"><ele>1027.0</ele><time>2026-05-04T10:16:50.632Z</time></trkpt><trkpt lat="40.6803712" lon="-4.0129428"><ele>1029.0</ele><time>2026-05-04T10:16:51.632Z</time></trkpt><trkpt lat="40.6805502" lon="-4.0129863"><ele>1031.0</ele><time>2026-05-04T10:16:52.632Z</time></trkpt><trkpt lat="40.680727" lon="-4.0130197"><ele>1031.0</ele><time>2026-05-04T10:16:53.632Z</time></trkpt><trkpt lat="40.6809161" lon="-4.013044"><ele>1031.0</ele><time>2026-05-04T10:16:54.632Z</time></trkpt><trkpt lat="40.6811027" lon="-4.0130697"><ele>1031.0</ele><time>2026-05-04T10:16:55.633Z</time></trkpt><trkpt lat="40.6812906" lon="-4.0130957"><ele>1032.3333333333335</ele><time>2026-05-04T10:16:56.632Z</time></trkpt><trkpt lat="40.6814833" lon="-4.013129"><ele>1033.6666666666667</ele><time>2026-05-04T10:16:57.632Z</time></trkpt><trkpt lat="40.6816751" lon="-4.013165"><ele>1035.0</ele><time>2026-05-04T10:16:58.632Z</time></trkpt><trkpt lat="40.6818558" lon="-4.0131962"><ele>1035.6666666666667</ele><time>2026-05-04T10:16:59.633Z</time></trkpt><trkpt lat="40.6820322" lon="-4.0132268"><ele>1036.3333333333335</ele><time>2026-05-04T10:17:00.632Z</time></trkpt><trkpt lat="40.682216" lon="-4.0132598"><ele>1037.0</ele><time>2026-05-04T10:17:01.632Z</time></trkpt><trkpt lat="40.6824026" lon="-4.013294"><ele>1036.0</ele><time>2026-05-04T10:17:02.632Z</time></trkpt><trkpt lat="40.6825897" lon="-4.0133292"><ele>1035.0</ele><time>2026-05-04T10:17:03.633Z</time></trkpt><trkpt lat="40.6827772" lon="-4.0133649"><ele>1034.0</ele><time>2026-05-04T10:17:04.632Z</time></trkpt><trkpt lat="40.6829619" lon="-4.013402"><ele>1034.0</ele><time>2026-05-04T10:17:05.632Z</time></trkpt><trkpt lat="40.6831462" lon="-4.013432"><ele>1034.0</ele><time>2026-05-04T10:17:06.632Z</time></trkpt><trkpt lat="40.6833346" lon="-4.0134597"><ele>1034.0</ele><time>2026-05-04T10:17:07.632Z</time></trkpt><trkpt lat="40.6835167" lon="-4.013482"><ele>1035.6666666666667</ele><time>2026-05-04T10:17:08.632Z</time></trkpt><trkpt lat="40.6836991" lon="-4.0134952"><ele>1037.3333333333333</ele><time>2026-05-04T10:17:09.632Z</time></trkpt><trkpt lat="40.683875" lon="-4.0135093"><ele>1039.0</ele><time>2026-05-04T10:17:10.632Z</time></trkpt><trkpt lat="40.6840381" lon="-4.013517"><ele>1039.0</ele><time>2026-05-04T10:17:11.632Z</time></trkpt><trkpt lat="40.6841876" lon="-4.0135179"><ele>1039.0</ele><time>2026-05-04T10:17:12.632Z</time></trkpt><trkpt lat="40.6843244" lon="-4.0135173"><ele>1039.0</ele><time>2026-05-04T10:17:13.632Z</time></trkpt><trkpt lat="40.6844473" lon="-4.0135125"><ele>1039.0</ele><time>2026-05-04T10:17:14.632Z</time></trkpt><trkpt lat="40.6845577" lon="-4.0135151"><ele>1040.6000000000001</ele><time>2026-05-04T10:17:15.632Z</time></trkpt><trkpt lat="40.6846619" lon="-4.0135091"><ele>1042.2</ele><time>2026-05-04T10:17:16.632Z</time></trkpt><trkpt lat="40.6847616" lon="-4.0134981"><ele>1043.8000000000002</ele><time>2026-05-04T10:17:17.632Z</time></trkpt><trkpt lat="40.6848556" lon="-4.0134556"><ele>1045.4</ele><time>2026-05-04T10:17:18.633Z</time></trkpt><trkpt lat="40.684948" lon="-4.0133859"><ele>1047.0</ele><time>2026-05-04T10:17:19.632Z</time></trkpt><trkpt lat="40.6850452" lon="-4.0133044"><ele>1048.2</ele><time>2026-05-04T10:17:20.632Z</time></trkpt><trkpt lat="40.6851435" lon="-4.0132392"><ele>1049.4</ele><time>2026-05-04T10:17:21.632Z</time></trkpt><trkpt lat="40.6852442" lon="-4.0131975"><ele>1050.6</ele><time>2026-05-04T10:17:22.632Z</time></trkpt><trkpt lat="40.6853225" lon="-4.0131851"><ele>1051.8</ele><time>2026-05-04T10:17:23.632Z</time></trkpt><trkpt lat="40.6854111" lon="-4.013178"><ele>1053.0</ele><time>2026-05-04T10:17:25.632Z</time></trkpt><trkpt lat="40.6853759" lon="-4.0130902"><ele>1053.0</ele><time>2026-05-04T10:17:29.632Z</time></trkpt><trkpt lat="40.6852757" lon="-4.0131023"><ele>1053.0</ele><time>2026-05-04T10:17:31.632Z</time></trkpt><trkpt lat="40.6851839" lon="-4.0130482"><ele>1053.0</ele><time>2026-05-04T10:17:33.632Z</time></trkpt><trkpt lat="40.685148" lon="-4.0129431"><ele>1053.0</ele><time>2026-05-04T10:17:35.632Z</time></trkpt><trkpt lat="40.6851012" lon="-4.0127913"><ele>1053.0</ele><time>2026-05-04T10:17:37.632Z</time></trkpt><trkpt lat="40.6850575" lon="-4.0126994"><ele>1053.0</ele><time>2026-05-04T10:17:38.633Z</time></trkpt><trkpt lat="40.6849905" lon="-4.0126422"><ele>1053.0</ele><time>2026-05-04T10:17:39.632Z</time></trkpt><trkpt lat="40.6849293" lon="-4.0125873"><ele>1053.0</ele><time>2026-05-04T10:17:40.632Z</time></trkpt><trkpt lat="40.6848819" lon="-4.0125145"><ele>1053.0</ele><time>2026-05-04T10:17:41.632Z</time></trkpt><trkpt lat="40.6848473" lon="-4.0124202"><ele>1053.0</ele><time>2026-05-04T10:17:42.632Z</time></trkpt><trkpt lat="40.6848176" lon="-4.0123083"><ele>1053.0</ele><time>2026-05-04T10:17:43.632Z</time></trkpt><trkpt lat="40.6847903" lon="-4.0121858"><ele>1054.0</ele><time>2026-05-04T10:17:44.632Z</time></trkpt><trkpt lat="40.6847739" lon="-4.0120715"><ele>1055.0</ele><time>2026-05-04T10:17:45.632Z</time></trkpt><trkpt lat="40.6847532" lon="-4.0119642"><ele>1056.0</ele><time>2026-05-04T10:17:46.632Z</time></trkpt><trkpt lat="40.6847198" lon="-4.0118558"><ele>1057.0</ele><time>2026-05-04T10:17:47.632Z</time></trkpt><trkpt lat="40.6846718" lon="-4.0117412"><ele>1058.0</ele><time>2026-05-04T10:17:48.632Z</time></trkpt><trkpt lat="40.6846163" lon="-4.0116316"><ele>1058.4</ele><time>2026-05-04T10:17:49.632Z</time></trkpt><trkpt lat="40.6845505" lon="-4.0115354"><ele>1058.8</ele><time>2026-05-04T10:17:50.632Z</time></trkpt><trkpt lat="40.6844898" lon="-4.0114428"><ele>1059.2</ele><time>2026-05-04T10:17:51.632Z</time></trkpt><trkpt lat="40.6844277" lon="-4.0113565"><ele>1059.6</ele><time>2026-05-04T10:17:52.632Z</time></trkpt><trkpt lat="40.6843616" lon="-4.011271"><ele>1060.0</ele><time>2026-05-04T10:17:53.632Z</time></trkpt><trkpt lat="40.6843017" lon="-4.0111753"><ele>1060.0</ele><time>2026-05-04T10:17:54.632Z</time></trkpt><trkpt lat="40.6842584" lon="-4.0110721"><ele>1060.0</ele><time>2026-05-04T10:17:55.632Z</time></trkpt><trkpt lat="40.6842227" lon="-4.0109614"><ele>1060.0</ele><time>2026-05-04T10:17:56.632Z</time></trkpt><trkpt lat="40.684191" lon="-4.0108404"><ele>1060.0</ele><time>2026-05-04T10:17:57.632Z</time></trkpt><trkpt lat="40.6841371" lon="-4.01072"><ele>1060.0</ele><time>2026-05-04T10:17:58.632Z</time></trkpt><trkpt lat="40.6840775" lon="-4.0106158"><ele>1063.0</ele><time>2026-05-04T10:17:59.632Z</time></trkpt><trkpt lat="40.684015" lon="-4.0105213"><ele>1066.0</ele><time>2026-05-04T10:18:00.632Z</time></trkpt><trkpt lat="40.683951" lon="-4.0104445"><ele>1069.0</ele><time>2026-05-04T10:18:01.632Z</time></trkpt><trkpt lat="40.6838771" lon="-4.0103779"><ele>1072.0</ele><time>2026-05-04T10:18:02.632Z</time></trkpt><trkpt lat="40.6837984" lon="-4.0103176"><ele>1075.0</ele><time>2026-05-04T10:18:03.632Z</time></trkpt><trkpt lat="40.6837189" lon="-4.010256"><ele>1075.0</ele><time>2026-05-04T10:18:04.632Z</time></trkpt><trkpt lat="40.6836358" lon="-4.010216"><ele>1075.0</ele><time>2026-05-04T10:18:05.632Z</time></trkpt><trkpt lat="40.6835535" lon="-4.0102015"><ele>1075.0</ele><time>2026-05-04T10:18:06.632Z</time></trkpt><trkpt lat="40.6834714" lon="-4.0102093"><ele>1075.0</ele><time>2026-05-04T10:18:07.632Z</time></trkpt><trkpt lat="40.6833917" lon="-4.010217"><ele>1075.0</ele><time>2026-05-04T10:18:08.632Z</time></trkpt><trkpt lat="40.6833088" lon="-4.0102016"><ele>1075.0</ele><time>2026-05-04T10:18:09.632Z</time></trkpt><trkpt lat="40.6832417" lon="-4.0101547"><ele>1074.8</ele><time>2026-05-04T10:18:10.632Z</time></trkpt><trkpt lat="40.6831857" lon="-4.0100757"><ele>1074.6</ele><time>2026-05-04T10:18:11.632Z</time></trkpt><trkpt lat="40.6831335" lon="-4.0099706"><ele>1074.4</ele><time>2026-05-04T10:18:12.632Z</time></trkpt><trkpt lat="40.6830859" lon="-4.0098519"><ele>1074.2</ele><time>2026-05-04T10:18:13.633Z</time></trkpt><trkpt lat="40.6830465" lon="-4.0097388"><ele>1074.0</ele><time>2026-05-04T10:18:14.632Z</time></trkpt><trkpt lat="40.6830165" lon="-4.0096321"><ele>1074.6000000000001</ele><time>2026-05-04T10:18:15.633Z</time></trkpt><trkpt lat="40.6830154" lon="-4.0095239"><ele>1075.2</ele><time>2026-05-04T10:18:16.632Z</time></trkpt><trkpt lat="40.6830291" lon="-4.0094038"><ele>1075.8000000000002</ele><time>2026-05-04T10:18:17.632Z</time></trkpt><trkpt lat="40.6830654" lon="-4.0092877"><ele>1076.4</ele><time>2026-05-04T10:18:18.632Z</time></trkpt><trkpt lat="40.6831101" lon="-4.0091651"><ele>1077.0</ele><time>2026-05-04T10:18:19.632Z</time></trkpt><trkpt lat="40.6831495" lon="-4.0090423"><ele>1077.2</ele><time>2026-05-04T10:18:20.633Z</time></trkpt><trkpt lat="40.6831783" lon="-4.0089244"><ele>1077.4</ele><time>2026-05-04T10:18:21.632Z</time></trkpt><trkpt lat="40.6831922" lon="-4.0088003"><ele>1077.6</ele><time>2026-05-04T10:18:22.632Z</time></trkpt><trkpt lat="40.6831989" lon="-4.0086694"><ele>1077.8</ele><time>2026-05-04T10:18:23.632Z</time></trkpt><trkpt lat="40.6832037" lon="-4.0085447"><ele>1078.0</ele><time>2026-05-04T10:18:24.632Z</time></trkpt><trkpt lat="40.6832187" lon="-4.0084352"><ele>1078.0</ele><time>2026-05-04T10:18:25.632Z</time></trkpt><trkpt lat="40.6832408" lon="-4.008344"><ele>1078.0</ele><time>2026-05-04T10:18:26.632Z</time></trkpt><trkpt lat="40.6832716" lon="-4.0082632"><ele>1078.0</ele><time>2026-05-04T10:18:27.632Z</time></trkpt><trkpt lat="40.6833027" lon="-4.0081782"><ele>1078.0</ele><time>2026-05-04T10:18:28.632Z</time></trkpt><trkpt lat="40.6833266" lon="-4.0080846"><ele>1078.0</ele><time>2026-05-04T10:18:29.632Z</time></trkpt><trkpt lat="40.6833348" lon="-4.0079731"><ele>1078.0</ele><time>2026-05-04T10:18:30.633Z</time></trkpt><trkpt lat="40.6833344" lon="-4.0078674"><ele>1078.4285714285713</ele><time>2026-05-04T10:18:31.632Z</time></trkpt><trkpt lat="40.6833201" lon="-4.0077655"><ele>1078.857142857143</ele><time>2026-05-04T10:18:32.632Z</time></trkpt><trkpt lat="40.683313" lon="-4.0076657"><ele>1079.2857142857142</ele><time>2026-05-04T10:18:33.632Z</time></trkpt><trkpt lat="40.6833188" lon="-4.007562"><ele>1079.7142857142858</ele><time>2026-05-04T10:18:34.633Z</time></trkpt><trkpt lat="40.6833257" lon="-4.0074654"><ele>1080.142857142857</ele><time>2026-05-04T10:18:35.632Z</time></trkpt><trkpt lat="40.6833345" lon="-4.0073783"><ele>1080.5714285714284</ele><time>2026-05-04T10:18:36.632Z</time></trkpt><trkpt lat="40.6833461" lon="-4.0072928"><ele>1081.0</ele><time>2026-05-04T10:18:37.632Z</time></trkpt><trkpt lat="40.6833599" lon="-4.0072111"><ele>1081.8333333333333</ele><time>2026-05-04T10:18:38.632Z</time></trkpt><trkpt lat="40.6834056" lon="-4.0070902"><ele>1082.6666666666665</ele><time>2026-05-04T10:18:40.633Z</time></trkpt><trkpt lat="40.6834439" lon="-4.0070155"><ele>1083.5</ele><time>2026-05-04T10:18:42.632Z</time></trkpt><trkpt lat="40.6835018" lon="-4.0069087"><ele>1084.3333333333333</ele><time>2026-05-04T10:18:44.633Z</time></trkpt><trkpt lat="40.6835389" lon="-4.0068332"><ele>1085.1666666666667</ele><time>2026-05-04T10:18:45.632Z</time></trkpt><trkpt lat="40.6835428" lon="-4.0067065"><ele>1086.0</ele><time>2026-05-04T10:18:47.632Z</time></trkpt><trkpt lat="40.6835135" lon="-4.0066269"><ele>1087.1666666666667</ele><time>2026-05-04T10:18:48.632Z</time></trkpt><trkpt lat="40.6834579" lon="-4.0065556"><ele>1088.3333333333333</ele><time>2026-05-04T10:18:49.632Z</time></trkpt><trkpt lat="40.6833872" lon="-4.006504"><ele>1089.5</ele><time>2026-05-04T10:18:50.632Z</time></trkpt><trkpt lat="40.6833235" lon="-4.0064451"><ele>1090.6666666666665</ele><time>2026-05-04T10:18:51.633Z</time></trkpt><trkpt lat="40.6832778" lon="-4.0063715"><ele>1091.8333333333333</ele><time>2026-05-04T10:18:52.632Z</time></trkpt><trkpt lat="40.6832505" lon="-4.0062951"><ele>1093.0</ele><time>2026-05-04T10:18:53.632Z</time></trkpt><trkpt lat="40.6832189" lon="-4.0061585"><ele>1093.0</ele><time>2026-05-04T10:18:55.632Z</time></trkpt><trkpt lat="40.6832074" lon="-4.006074"><ele>1093.0</ele><time>2026-05-04T10:18:58.632Z</time></trkpt><trkpt lat="40.6831962" lon="-4.0059297"><ele>1093.0</ele><time>2026-05-04T10:20:02.632Z</time></trkpt><trkpt lat="40.6831852" lon="-4.0058259"><ele>1093.0</ele><time>2026-05-04T10:20:04.633Z</time></trkpt><trkpt lat="40.683112" lon="-4.0057154"><ele>1093.0</ele><time>2026-05-04T10:20:06.632Z</time></trkpt><trkpt lat="40.6830594" lon="-4.005669"><ele>1093.0</ele><time>2026-05-04T10:20:07.632Z</time></trkpt><trkpt lat="40.6829888" lon="-4.0056414"><ele>1092.8333333333333</ele><time>2026-05-04T10:20:08.632Z</time></trkpt><trkpt lat="40.6829013" lon="-4.0056241"><ele>1092.6666666666665</ele><time>2026-05-04T10:20:09.632Z</time></trkpt><trkpt lat="40.6828216" lon="-4.0056058"><ele>1092.5</ele><time>2026-05-04T10:20:10.632Z</time></trkpt><trkpt lat="40.6827387" lon="-4.0055866"><ele>1092.3333333333333</ele><time>2026-05-04T10:20:11.632Z</time></trkpt><trkpt lat="40.682663" lon="-4.0055389"><ele>1092.1666666666667</ele><time>2026-05-04T10:20:12.632Z</time></trkpt><trkpt lat="40.682589" lon="-4.0054719"><ele>1092.0</ele><time>2026-05-04T10:20:13.632Z</time></trkpt><trkpt lat="40.6825139" lon="-4.0053979"><ele>1092.0</ele><time>2026-05-04T10:20:14.633Z</time></trkpt><trkpt lat="40.6824362" lon="-4.0053369"><ele>1092.0</ele><time>2026-05-04T10:20:15.632Z</time></trkpt><trkpt lat="40.682352" lon="-4.0052943"><ele>1092.0</ele><time>2026-05-04T10:20:16.632Z</time></trkpt><trkpt lat="40.6822592" lon="-4.0052577"><ele>1092.0</ele><time>2026-05-04T10:20:17.632Z</time></trkpt><trkpt lat="40.6821624" lon="-4.0052387"><ele>1092.0</ele><time>2026-05-04T10:20:18.632Z</time></trkpt><trkpt lat="40.6820721" lon="-4.0052245"><ele>1092.0</ele><time>2026-05-04T10:20:19.632Z</time></trkpt><trkpt lat="40.681986" lon="-4.005222"><ele>1092.0</ele><time>2026-05-04T10:20:20.632Z</time></trkpt><trkpt lat="40.6818982" lon="-4.0052073"><ele>1092.0</ele><time>2026-05-04T10:20:21.632Z</time></trkpt><trkpt lat="40.6818166" lon="-4.0051602"><ele>1092.0</ele><time>2026-05-04T10:20:22.633Z</time></trkpt><trkpt lat="40.6817426" lon="-4.0051037"><ele>1092.0</ele><time>2026-05-04T10:20:23.632Z</time></trkpt><trkpt lat="40.6816654" lon="-4.0050199"><ele>1092.0</ele><time>2026-05-04T10:20:24.632Z</time></trkpt><trkpt lat="40.6815874" lon="-4.0049176"><ele>1092.6</ele><time>2026-05-04T10:20:25.632Z</time></trkpt><trkpt lat="40.6815003" lon="-4.0048167"><ele>1093.2</ele><time>2026-05-04T10:20:26.632Z</time></trkpt><trkpt lat="40.6814197" lon="-4.0047147"><ele>1093.8</ele><time>2026-05-04T10:20:27.632Z</time></trkpt><trkpt lat="40.6813489" lon="-4.0046137"><ele>1094.4</ele><time>2026-05-04T10:20:28.632Z</time></trkpt><trkpt lat="40.681287" lon="-4.004525"><ele>1095.0</ele><time>2026-05-04T10:20:29.632Z</time></trkpt><trkpt lat="40.6812239" lon="-4.0044454"><ele>1095.0</ele><time>2026-05-04T10:20:30.633Z</time></trkpt><trkpt lat="40.6811387" lon="-4.0043699"><ele>1095.0</ele><time>2026-05-04T10:20:31.633Z</time></trkpt><trkpt lat="40.6810447" lon="-4.0042895"><ele>1095.0</ele><time>2026-05-04T10:20:32.632Z</time></trkpt><trkpt lat="40.6809449" lon="-4.0042116"><ele>1095.0</ele><time>2026-05-04T10:20:33.632Z</time></trkpt><trkpt lat="40.6808538" lon="-4.0041267"><ele>1095.0</ele><time>2026-05-04T10:20:34.632Z</time></trkpt><trkpt lat="40.6807703" lon="-4.0040436"><ele>1095.0</ele><time>2026-05-04T10:20:35.632Z</time></trkpt><trkpt lat="40.6806904" lon="-4.0039611"><ele>1095.0</ele><time>2026-05-04T10:20:36.632Z</time></trkpt><trkpt lat="40.6806173" lon="-4.0038624"><ele>1095.0</ele><time>2026-05-04T10:20:37.632Z</time></trkpt><trkpt lat="40.6805445" lon="-4.0037582"><ele>1095.0</ele><time>2026-05-04T10:20:38.632Z</time></trkpt><trkpt lat="40.680479" lon="-4.0036584"><ele>1095.0</ele><time>2026-05-04T10:20:39.632Z</time></trkpt><trkpt lat="40.6804135" lon="-4.0035697"><ele>1095.0</ele><time>2026-05-04T10:20:40.632Z</time></trkpt><trkpt lat="40.6803312" lon="-4.0034872"><ele>1095.0</ele><time>2026-05-04T10:20:41.632Z</time></trkpt><trkpt lat="40.680236" lon="-4.0034223"><ele>1095.0</ele><time>2026-05-04T10:20:42.632Z</time></trkpt><trkpt lat="40.6801332" lon="-4.0033626"><ele>1095.0</ele><time>2026-05-04T10:20:43.632Z</time></trkpt><trkpt lat="40.6800358" lon="-4.0032964"><ele>1095.0</ele><time>2026-05-04T10:20:44.633Z</time></trkpt><trkpt lat="40.6799333" lon="-4.0032205"><ele>1096.75</ele><time>2026-05-04T10:20:45.632Z</time></trkpt><trkpt lat="40.6798373" lon="-4.0031163"><ele>1098.5</ele><time>2026-05-04T10:20:46.632Z</time></trkpt><trkpt lat="40.679749" lon="-4.0030059"><ele>1100.25</ele><time>2026-05-04T10:20:47.632Z</time></trkpt><trkpt lat="40.6796462" lon="-4.0028954"><ele>1102.0</ele><time>2026-05-04T10:20:48.632Z</time></trkpt><trkpt lat="40.6795355" lon="-4.0027987"><ele>1104.75</ele><time>2026-05-04T10:20:49.632Z</time></trkpt><trkpt lat="40.6794199" lon="-4.0027233"><ele>1107.5</ele><time>2026-05-04T10:20:50.632Z</time></trkpt><trkpt lat="40.6793025" lon="-4.0026469"><ele>1110.25</ele><time>2026-05-04T10:20:51.632Z</time></trkpt><trkpt lat="40.6791868" lon="-4.0025702"><ele>1113.0</ele><time>2026-05-04T10:20:52.632Z</time></trkpt><trkpt lat="40.6790696" lon="-4.0024867"><ele>1113.0</ele><time>2026-05-04T10:20:53.632Z</time></trkpt><trkpt lat="40.6789538" lon="-4.0024028"><ele>1113.0</ele><time>2026-05-04T10:20:54.632Z</time></trkpt><trkpt lat="40.6788438" lon="-4.0023233"><ele>1113.0</ele><time>2026-05-04T10:20:55.632Z</time></trkpt><trkpt lat="40.6787451" lon="-4.0022464"><ele>1113.0</ele><time>2026-05-04T10:20:56.632Z</time></trkpt><trkpt lat="40.6786547" lon="-4.0021769"><ele>1111.3333333333333</ele><time>2026-05-04T10:20:57.632Z</time></trkpt><trkpt lat="40.6785767" lon="-4.0021126"><ele>1109.6666666666667</ele><time>2026-05-04T10:20:58.632Z</time></trkpt><trkpt lat="40.6785053" lon="-4.002048"><ele>1108.0</ele><time>2026-05-04T10:20:59.633Z</time></trkpt><trkpt lat="40.6784351" lon="-4.0019862"><ele>1106.3333333333335</ele><time>2026-05-04T10:21:00.632Z</time></trkpt><trkpt lat="40.6783566" lon="-4.0019319"><ele>1104.6666666666667</ele><time>2026-05-04T10:21:01.632Z</time></trkpt><trkpt lat="40.6782682" lon="-4.0018795"><ele>1103.0</ele><time>2026-05-04T10:21:02.632Z</time></trkpt><trkpt lat="40.6781737" lon="-4.0018242"><ele>1103.0</ele><time>2026-05-04T10:21:03.631Z</time></trkpt><trkpt lat="40.6780818" lon="-4.0017616"><ele>1103.0</ele><time>2026-05-04T10:21:04.631Z</time></trkpt><trkpt lat="40.6779912" lon="-4.0016921"><ele>1103.0</ele><time>2026-05-04T10:21:05.631Z</time></trkpt><trkpt lat="40.677905" lon="-4.0016243"><ele>1103.0</ele><time>2026-05-04T10:21:06.632Z</time></trkpt><trkpt lat="40.6778243" lon="-4.001572"><ele>1103.0</ele><time>2026-05-04T10:21:07.631Z</time></trkpt><trkpt lat="40.6777438" lon="-4.0015221"><ele>1105.4</ele><time>2026-05-04T10:21:08.631Z</time></trkpt><trkpt lat="40.6776633" lon="-4.0014528"><ele>1107.8</ele><time>2026-05-04T10:21:09.631Z</time></trkpt><trkpt lat="40.6775812" lon="-4.0013671"><ele>1110.2</ele><time>2026-05-04T10:21:10.631Z</time></trkpt><trkpt lat="40.6774984" lon="-4.0012804"><ele>1112.6</ele><time>2026-05-04T10:21:11.631Z</time></trkpt><trkpt lat="40.6774112" lon="-4.0011956"><ele>1115.0</ele><time>2026-05-04T10:21:12.632Z</time></trkpt><trkpt lat="40.6773189" lon="-4.0011025"><ele>1115.0</ele><time>2026-05-04T10:21:13.632Z</time></trkpt><trkpt lat="40.6772284" lon="-4.0010149"><ele>1115.0</ele><time>2026-05-04T10:21:14.632Z</time></trkpt><trkpt lat="40.6771315" lon="-4.0009417"><ele>1115.0</ele><time>2026-05-04T10:21:15.631Z</time></trkpt><trkpt lat="40.6770399" lon="-4.0008613"><ele>1115.0</ele><time>2026-05-04T10:21:16.631Z</time></trkpt><trkpt lat="40.6769453" lon="-4.0007784"><ele>1115.0</ele><time>2026-05-04T10:21:17.631Z</time></trkpt><trkpt lat="40.676856" lon="-4.0007006"><ele>1119.0</ele><time>2026-05-04T10:21:18.631Z</time></trkpt><trkpt lat="40.6767584" lon="-4.0006313"><ele>1123.0</ele><time>2026-05-04T10:21:19.631Z</time></trkpt><trkpt lat="40.6766531" lon="-4.000574"><ele>1127.0</ele><time>2026-05-04T10:21:20.631Z</time></trkpt><trkpt lat="40.6765541" lon="-4.0005189"><ele>1131.0</ele><time>2026-05-04T10:21:21.631Z</time></trkpt><trkpt lat="40.6764494" lon="-4.0004617"><ele>1135.0</ele><time>2026-05-04T10:21:22.631Z</time></trkpt><trkpt lat="40.6763465" lon="-4.000404"><ele>1135.0</ele><time>2026-05-04T10:21:23.631Z</time></trkpt><trkpt lat="40.6762501" lon="-4.0003605"><ele>1135.0</ele><time>2026-05-04T10:21:24.631Z</time></trkpt><trkpt lat="40.6761642" lon="-4.0003254"><ele>1135.0</ele><time>2026-05-04T10:21:25.631Z</time></trkpt><trkpt lat="40.6760885" lon="-4.0002936"><ele>1135.0</ele><time>2026-05-04T10:21:26.632Z</time></trkpt><trkpt lat="40.6759772" lon="-4.0002914"><ele>1135.0</ele><time>2026-05-04T10:21:28.631Z</time></trkpt><trkpt lat="40.6759093" lon="-4.0002987"><ele>1134.3333333333333</ele><time>2026-05-04T10:21:29.631Z</time></trkpt><trkpt lat="40.6758294" lon="-4.0003087"><ele>1133.6666666666665</ele><time>2026-05-04T10:21:30.631Z</time></trkpt><trkpt lat="40.6757538" lon="-4.0002996"><ele>1133.0</ele><time>2026-05-04T10:21:31.631Z</time></trkpt><trkpt lat="40.6756873" lon="-4.0002648"><ele>1132.3333333333333</ele><time>2026-05-04T10:21:32.631Z</time></trkpt><trkpt lat="40.6756253" lon="-4.0002123"><ele>1131.6666666666667</ele><time>2026-05-04T10:21:33.631Z</time></trkpt><trkpt lat="40.6755599" lon="-4.0000943"><ele>1131.0</ele><time>2026-05-04T10:21:35.631Z</time></trkpt><trkpt lat="40.6755772" lon="-3.9999794"><ele>1131.0</ele><time>2026-05-04T10:21:37.631Z</time></trkpt><trkpt lat="40.6756553" lon="-3.9998968"><ele>1131.0</ele><time>2026-05-04T10:21:39.631Z</time></trkpt><trkpt lat="40.6757792" lon="-3.9998509"><ele>1131.0</ele><time>2026-05-04T10:21:41.631Z</time></trkpt><trkpt lat="40.6759047" lon="-3.9998006"><ele>1131.0</ele><time>2026-05-04T10:21:43.631Z</time></trkpt><trkpt lat="40.6760164" lon="-3.9997434"><ele>1131.8</ele><time>2026-05-04T10:21:45.631Z</time></trkpt><trkpt lat="40.6761333" lon="-3.9997014"><ele>1132.6</ele><time>2026-05-04T10:21:47.631Z</time></trkpt><trkpt lat="40.6762391" lon="-3.9996581"><ele>1133.4</ele><time>2026-05-04T10:21:49.631Z</time></trkpt><trkpt lat="40.6763162" lon="-3.9996285"><ele>1134.2</ele><time>2026-05-04T10:21:51.631Z</time></trkpt><trkpt lat="40.6764068" lon="-3.9995845"><ele>1135.0</ele><time>2026-05-04T10:22:03.632Z</time></trkpt><trkpt lat="40.6764757" lon="-3.9995468"><ele>1135.0</ele><time>2026-05-04T10:22:06.631Z</time></trkpt><trkpt lat="40.676568" lon="-3.9995119"><ele>1135.0</ele><time>2026-05-04T10:22:09.631Z</time></trkpt><trkpt lat="40.6766336" lon="-3.9994974"><ele>1135.0</ele><time>2026-05-04T10:22:11.632Z</time></trkpt><trkpt lat="40.6767057" lon="-3.9994945"><ele>1135.0</ele><time>2026-05-04T10:22:13.631Z</time></trkpt><trkpt lat="40.6767877" lon="-3.9994814"><ele>1135.0</ele><time>2026-05-04T10:22:15.631Z</time></trkpt><trkpt lat="40.6768858" lon="-3.9994683"><ele>1135.0</ele><time>2026-05-04T10:22:17.631Z</time></trkpt><trkpt lat="40.6770107" lon="-3.9994694"><ele>1136.0</ele><time>2026-05-04T10:22:19.631Z</time></trkpt><trkpt lat="40.6770825" lon="-3.9994656"><ele>1137.0</ele><time>2026-05-04T10:22:20.631Z</time></trkpt><trkpt lat="40.6771784" lon="-3.9994785"><ele>1138.0</ele><time>2026-05-04T10:22:22.631Z</time></trkpt><trkpt lat="40.6772209" lon="-3.999415"><ele>1139.0</ele><time>2026-05-04T10:22:25.631Z</time></trkpt><trkpt lat="40.6771337" lon="-3.999362"><ele>1140.0</ele><time>2026-05-04T10:22:31.631Z</time></trkpt><trkpt lat="40.6770671" lon="-3.9993559"><ele>1141.0</ele><time>2026-05-04T10:22:32.631Z</time></trkpt><trkpt lat="40.6770016" lon="-3.9993378"><ele>1140.0</ele><time>2026-05-04T10:22:33.632Z</time></trkpt><trkpt lat="40.6769259" lon="-3.9993098"><ele>1139.0</ele><time>2026-05-04T10:22:34.631Z</time></trkpt><trkpt lat="40.6768425" lon="-3.9992664"><ele>1138.0</ele><time>2026-05-04T10:22:35.631Z</time></trkpt><trkpt lat="40.6767633" lon="-3.99922"><ele>1137.0</ele><time>2026-05-04T10:22:36.631Z</time></trkpt><trkpt lat="40.6766879" lon="-3.9991746"><ele>1136.0</ele><time>2026-05-04T10:22:37.631Z</time></trkpt><trkpt lat="40.6766265" lon="-3.9991277"><ele>1135.0</ele><time>2026-05-04T10:22:38.632Z</time></trkpt><trkpt lat="40.6765444" lon="-3.9990517"><ele>1139.8</ele><time>2026-05-04T10:22:40.632Z</time></trkpt><trkpt lat="40.6765991" lon="-3.9989539"><ele>1144.6</ele><time>2026-05-04T10:22:43.631Z</time></trkpt><trkpt lat="40.6766897" lon="-3.9989721"><ele>1149.4</ele><time>2026-05-04T10:22:45.631Z</time></trkpt><trkpt lat="40.6767833" lon="-3.9989962"><ele>1154.2</ele><time>2026-05-04T10:22:47.631Z</time></trkpt><trkpt lat="40.6768827" lon="-3.9990072"><ele>1159.0</ele><time>2026-05-04T10:22:49.631Z</time></trkpt><trkpt lat="40.6769922" lon="-3.9990331"><ele>1159.0</ele><time>2026-05-04T10:22:51.632Z</time></trkpt><trkpt lat="40.6770606" lon="-3.9990212"><ele>1159.0</ele><time>2026-05-04T10:22:53.632Z</time></trkpt><trkpt lat="40.6770568" lon="-3.9989328"><ele>1159.0</ele><time>2026-05-04T10:22:55.631Z</time></trkpt><trkpt lat="40.6769763" lon="-3.9988493"><ele>1159.0</ele><time>2026-05-04T10:22:57.631Z</time></trkpt><trkpt lat="40.6769168" lon="-3.9988108"><ele>1159.0</ele><time>2026-05-04T10:22:58.631Z</time></trkpt><trkpt lat="40.6768565" lon="-3.9987531"><ele>1159.0</ele><time>2026-05-04T10:22:59.631Z</time></trkpt><trkpt lat="40.6767947" lon="-3.9986841"><ele>1159.0</ele><time>2026-05-04T10:23:00.631Z</time></trkpt><trkpt lat="40.6767394" lon="-3.9986144"><ele>1159.0</ele><time>2026-05-04T10:23:01.631Z</time></trkpt><trkpt lat="40.6766971" lon="-3.9985406"><ele>1159.0</ele><time>2026-05-04T10:23:02.631Z</time></trkpt><trkpt lat="40.6766674" lon="-3.9984655"><ele>1159.0</ele><time>2026-05-04T10:23:03.631Z</time></trkpt><trkpt lat="40.6766218" lon="-3.9983347"><ele>1159.0</ele><time>2026-05-04T10:23:05.632Z</time></trkpt><trkpt lat="40.6765625" lon="-3.9982028"><ele>1159.0</ele><time>2026-05-04T10:23:07.632Z</time></trkpt><trkpt lat="40.6765188" lon="-3.99807"><ele>1162.8</ele><time>2026-05-04T10:23:09.631Z</time></trkpt><trkpt lat="40.6765186" lon="-3.9979426"><ele>1166.6000000000001</ele><time>2026-05-04T10:23:11.632Z</time></trkpt><trkpt lat="40.6765649" lon="-3.9978703"><ele>1170.4</ele><time>2026-05-04T10:23:13.631Z</time></trkpt><trkpt lat="40.6766393" lon="-3.9978379"><ele>1174.2</ele><time>2026-05-04T10:23:15.632Z</time></trkpt><trkpt lat="40.6767399" lon="-3.9978031"><ele>1178.0</ele><time>2026-05-04T10:23:17.631Z</time></trkpt><trkpt lat="40.6768644" lon="-3.9977653"><ele>1178.0</ele><time>2026-05-04T10:23:19.631Z</time></trkpt><trkpt lat="40.676935" lon="-3.9977555"><ele>1178.0</ele><time>2026-05-04T10:23:20.631Z</time></trkpt><trkpt lat="40.6769994" lon="-3.9977494"><ele>1178.0</ele><time>2026-05-04T10:23:21.631Z</time></trkpt><trkpt lat="40.6771179" lon="-3.9977936"><ele>1178.0</ele><time>2026-05-04T10:23:23.631Z</time></trkpt><trkpt lat="40.6771707" lon="-3.997839"><ele>1178.0</ele><time>2026-05-04T10:23:24.631Z</time></trkpt><trkpt lat="40.6772317" lon="-3.9978905"><ele>1178.0</ele><time>2026-05-04T10:23:25.631Z</time></trkpt><trkpt lat="40.6772989" lon="-3.997941"><ele>1180.1666666666667</ele><time>2026-05-04T10:23:26.632Z</time></trkpt><trkpt lat="40.6773742" lon="-3.9979862"><ele>1182.3333333333335</ele><time>2026-05-04T10:23:27.631Z</time></trkpt><trkpt lat="40.677458" lon="-3.9980199"><ele>1184.5</ele><time>2026-05-04T10:23:28.631Z</time></trkpt><trkpt lat="40.6775467" lon="-3.9980488"><ele>1186.6666666666667</ele><time>2026-05-04T10:23:29.631Z</time></trkpt><trkpt lat="40.6776353" lon="-3.9980653"><ele>1188.8333333333333</ele><time>2026-05-04T10:23:30.632Z</time></trkpt><trkpt lat="40.677715" lon="-3.998074"><ele>1191.0</ele><time>2026-05-04T10:23:31.631Z</time></trkpt><trkpt lat="40.6777816" lon="-3.998064"><ele>1193.0</ele><time>2026-05-04T10:23:32.631Z</time></trkpt><trkpt lat="40.6778881" lon="-3.9980186"><ele>1195.0</ele><time>2026-05-04T10:23:34.632Z</time></trkpt><trkpt lat="40.6779497" lon="-3.9979355"><ele>1197.0</ele><time>2026-05-04T10:23:36.631Z</time></trkpt><trkpt lat="40.6779627" lon="-3.9978502"><ele>1199.0</ele><time>2026-05-04T10:23:38.631Z</time></trkpt><trkpt lat="40.6779518" lon="-3.997758"><ele>1201.0</ele><time>2026-05-04T10:23:40.631Z</time></trkpt><trkpt lat="40.677902" lon="-3.9976719"><ele>1203.0</ele><time>2026-05-04T10:23:43.632Z</time></trkpt><trkpt lat="40.6778467" lon="-3.9976014"><ele>1203.0</ele><time>2026-05-04T10:23:45.631Z</time></trkpt><trkpt lat="40.6777889" lon="-3.9975075"><ele>1203.0</ele><time>2026-05-04T10:23:47.631Z</time></trkpt><trkpt lat="40.6777413" lon="-3.9974291"><ele>1203.0</ele><time>2026-05-04T10:23:49.631Z</time></trkpt><trkpt lat="40.6777812" lon="-3.9973445"><ele>1203.0</ele><time>2026-05-04T10:23:52.631Z</time></trkpt><trkpt lat="40.6778575" lon="-3.9973255"><ele>1203.0</ele><time>2026-05-04T10:23:54.631Z</time></trkpt><trkpt lat="40.6779404" lon="-3.9972958"><ele>1203.0</ele><time>2026-05-04T10:23:56.631Z</time></trkpt><trkpt lat="40.6780066" lon="-3.9972906"><ele>1205.5</ele><time>2026-05-04T10:23:58.631Z</time></trkpt><trkpt lat="40.6780839" lon="-3.9972597"><ele>1208.0</ele><time>2026-05-04T10:24:01.631Z</time></trkpt><trkpt lat="40.6781597" lon="-3.9972309"><ele>1210.5</ele><time>2026-05-04T10:24:03.631Z</time></trkpt><trkpt lat="40.6782542" lon="-3.9971723"><ele>1213.0</ele><time>2026-05-04T10:24:05.632Z</time></trkpt><trkpt lat="40.67831" lon="-3.9971005"><ele>1215.5</ele><time>2026-05-04T10:24:07.631Z</time></trkpt><trkpt lat="40.6783815" lon="-3.9970341"><ele>1218.0</ele><time>2026-05-04T10:24:09.632Z</time></trkpt><trkpt lat="40.6784968" lon="-3.9970091"><ele>1218.0</ele><time>2026-05-04T10:24:11.631Z</time></trkpt><trkpt lat="40.6785607" lon="-3.9970228"><ele>1218.0</ele><time>2026-05-04T10:24:12.631Z</time></trkpt><trkpt lat="40.6786233" lon="-3.997034"><ele>1218.0</ele><time>2026-05-04T10:24:13.631Z</time></trkpt><trkpt lat="40.6786869" lon="-3.9970502"><ele>1218.0</ele><time>2026-05-04T10:24:14.632Z</time></trkpt><trkpt lat="40.6787977" lon="-3.9970901"><ele>1218.0</ele><time>2026-05-04T10:24:16.632Z</time></trkpt><trkpt lat="40.6788918" lon="-3.997144"><ele>1218.0</ele><time>2026-05-04T10:24:18.631Z</time></trkpt><trkpt lat="40.6789621" lon="-3.9971898"><ele>1220.5714285714287</ele><time>2026-05-04T10:24:20.632Z</time></trkpt><trkpt lat="40.6790335" lon="-3.9972113"><ele>1223.142857142857</ele><time>2026-05-04T10:24:22.631Z</time></trkpt><trkpt lat="40.6791075" lon="-3.9972327"><ele>1225.7142857142858</ele><time>2026-05-04T10:25:05.631Z</time></trkpt><trkpt lat="40.6791693" lon="-3.9972493"><ele>1228.2857142857142</ele><time>2026-05-04T10:25:08.631Z</time></trkpt><trkpt lat="40.6792433" lon="-3.9972865"><ele>1230.857142857143</ele><time>2026-05-04T10:25:10.631Z</time></trkpt><trkpt lat="40.6793191" lon="-3.9973051"><ele>1233.4285714285716</ele><time>2026-05-04T10:25:12.631Z</time></trkpt><trkpt lat="40.6793911" lon="-3.9973247"><ele>1236.0</ele><time>2026-05-04T10:25:14.632Z</time></trkpt><trkpt lat="40.6794695" lon="-3.9973347"><ele>1239.3999999999999</ele><time>2026-05-04T10:25:16.631Z</time></trkpt><trkpt lat="40.6795423" lon="-3.9973503"><ele>1242.8</ele><time>2026-05-04T10:25:18.631Z</time></trkpt><trkpt lat="40.6796168" lon="-3.9973709"><ele>1246.1999999999998</ele><time>2026-05-04T10:25:20.631Z</time></trkpt><trkpt lat="40.6796893" lon="-3.9973854"><ele>1249.6</ele><time>2026-05-04T10:25:22.631Z</time></trkpt><trkpt lat="40.6797616" lon="-3.9973843"><ele>1253.0</ele><time>2026-05-04T10:25:24.631Z</time></trkpt><trkpt lat="40.6825301" lon="-3.9948295"><ele>1261.5</ele><time>2026-05-04T10:26:42.63Z</time></trkpt><trkpt lat="40.6826041" lon="-3.9948207"><ele>1270.0</ele><time>2026-05-04T10:26:43.63Z</time></trkpt><trkpt lat="40.6826762" lon="-3.9948169"><ele>1278.5</ele><time>2026-05-04T10:26:44.63Z</time></trkpt><trkpt lat="40.6827533" lon="-3.9948119"><ele>1287.0</ele><time>2026-05-04T10:26:45.63Z</time></trkpt><trkpt lat="40.6828289" lon="-3.9948028"><ele>1295.5</ele><time>2026-05-04T10:26:46.63Z</time></trkpt><trkpt lat="40.6829076" lon="-3.9947969"><ele>1304.0</ele><time>2026-05-04T10:26:47.63Z</time></trkpt><trkpt lat="40.6829814" lon="-3.9947951"><ele>1305.8000000000002</ele><time>2026-05-04T10:26:48.63Z</time></trkpt><trkpt lat="40.6830991" lon="-3.9947904"><ele>1307.6000000000001</ele><time>2026-05-04T10:26:50.631Z</time></trkpt><trkpt lat="40.6831907" lon="-3.9948058"><ele>1309.4</ele><time>2026-05-04T10:26:52.63Z</time></trkpt><trkpt lat="40.6833202" lon="-3.9948248"><ele>1311.2</ele><time>2026-05-04T10:26:58.63Z</time></trkpt><trkpt lat="40.6833949" lon="-3.9947899"><ele>1313.0</ele><time>2026-05-04T10:27:22.63Z</time></trkpt><trkpt lat="40.6835215" lon="-3.9946979"><ele>1314.1666666666667</ele><time>2026-05-04T10:27:29.63Z</time></trkpt><trkpt lat="40.6835988" lon="-3.9946717"><ele>1315.3333333333335</ele><time>2026-05-04T10:27:32.63Z</time></trkpt><trkpt lat="40.6836789" lon="-3.9946542"><ele>1316.5</ele><time>2026-05-04T10:27:35.631Z</time></trkpt><trkpt lat="40.6837502" lon="-3.9946384"><ele>1317.6666666666667</ele><time>2026-05-04T10:27:38.63Z</time></trkpt><trkpt lat="40.6838377" lon="-3.9946115"><ele>1318.8333333333333</ele><time>2026-05-04T10:27:41.63Z</time></trkpt><trkpt lat="40.6839219" lon="-3.9946106"><ele>1320.0</ele><time>2026-05-04T10:27:43.63Z</time></trkpt><trkpt lat="40.684105" lon="-3.9946381"><ele>1320.0</ele><time>2026-05-04T10:27:47.63Z</time></trkpt><trkpt lat="40.6841934" lon="-3.9946872"><ele>1320.0</ele><time>2026-05-04T10:27:49.63Z</time></trkpt><trkpt lat="40.6842669" lon="-3.99473"><ele>1320.0</ele><time>2026-05-04T10:27:51.63Z</time></trkpt><trkpt lat="40.6843388" lon="-3.9947637"><ele>1320.0</ele><time>2026-05-04T10:27:53.63Z</time></trkpt><trkpt lat="40.6844222" lon="-3.9947893"><ele>1320.0</ele><time>2026-05-04T10:27:55.63Z</time></trkpt><trkpt lat="40.6844983" lon="-3.9948177"><ele>1320.0</ele><time>2026-05-04T10:27:57.63Z</time></trkpt><trkpt lat="40.6845527" lon="-3.9948757"><ele>1320.0</ele><time>2026-05-04T10:27:59.63Z</time></trkpt><trkpt lat="40.6845129" lon="-3.9949733"><ele>1320.0</ele><time>2026-05-04T10:28:02.63Z</time></trkpt><trkpt lat="40.6844145" lon="-3.9950585"><ele>1320.0</ele><time>2026-05-04T10:28:04.63Z</time></trkpt><trkpt lat="40.6842332" lon="-3.9954708"><ele>1320.0</ele><time>2026-05-04T10:31:08.629Z</time></trkpt><trkpt lat="40.6843224" lon="-3.9954199"><ele>1320.0</ele><time>2026-05-04T10:31:11.629Z</time></trkpt><trkpt lat="40.6843916" lon="-3.9953751"><ele>1320.0</ele><time>2026-05-04T10:31:13.629Z</time></trkpt><trkpt lat="40.6844692" lon="-3.9953303"><ele>1320.0</ele><time>2026-05-04T10:31:15.629Z</time></trkpt><trkpt lat="40.6845488" lon="-3.9952734"><ele>1320.0</ele><time>2026-05-04T10:31:17.629Z</time></trkpt><trkpt lat="40.6846006" lon="-3.9952106"><ele>1320.0</ele><time>2026-05-04T10:31:19.629Z</time></trkpt><trkpt lat="40.6846417" lon="-3.9951197"><ele>1320.8333333333333</ele><time>2026-05-04T10:31:21.63Z</time></trkpt><trkpt lat="40.6846885" lon="-3.9950097"><ele>1321.6666666666667</ele><time>2026-05-04T10:31:23.629Z</time></trkpt><trkpt lat="40.6847601" lon="-3.995003"><ele>1322.5</ele><time>2026-05-04T10:31:25.629Z</time></trkpt><trkpt lat="40.6848248" lon="-3.9950402"><ele>1323.3333333333335</ele><time>2026-05-04T10:31:27.629Z</time></trkpt><trkpt lat="40.6849015" lon="-3.9950672"><ele>1324.1666666666667</ele><time>2026-05-04T10:31:29.629Z</time></trkpt><trkpt lat="40.6849812" lon="-3.9950524"><ele>1325.0</ele><time>2026-05-04T10:31:31.629Z</time></trkpt><trkpt lat="40.685089" lon="-3.9951103"><ele>1325.0</ele><time>2026-05-04T10:31:33.63Z</time></trkpt><trkpt lat="40.6851478" lon="-3.99516"><ele>1325.0</ele><time>2026-05-04T10:31:34.629Z</time></trkpt><trkpt lat="40.6852114" lon="-3.9952197"><ele>1325.0</ele><time>2026-05-04T10:31:35.629Z</time></trkpt><trkpt lat="40.6852738" lon="-3.9952684"><ele>1325.0</ele><time>2026-05-04T10:31:36.629Z</time></trkpt><trkpt lat="40.6853702" lon="-3.9953424"><ele>1325.0</ele><time>2026-05-04T10:31:38.63Z</time></trkpt><trkpt lat="40.685479" lon="-3.9953594"><ele>1325.0</ele><time>2026-05-04T10:31:40.629Z</time></trkpt><trkpt lat="40.6855493" lon="-3.9953563"><ele>1325.0</ele><time>2026-05-04T10:31:41.629Z</time></trkpt><trkpt lat="40.6856259" lon="-3.9953601"><ele>1325.0</ele><time>2026-05-04T10:31:42.63Z</time></trkpt><trkpt lat="40.6857159" lon="-3.9953625"><ele>1325.0</ele><time>2026-05-04T10:31:43.629Z</time></trkpt><trkpt lat="40.6858099" lon="-3.9953574"><ele>1325.0</ele><time>2026-05-04T10:31:44.629Z</time></trkpt><trkpt lat="40.6858995" lon="-3.9953644"><ele>1325.0</ele><time>2026-05-04T10:31:45.629Z</time></trkpt><trkpt lat="40.685992" lon="-3.9953669"><ele>1325.0</ele><time>2026-05-04T10:31:46.629Z</time></trkpt><trkpt lat="40.6860794" lon="-3.9953697"><ele>1324.6666666666667</ele><time>2026-05-04T10:31:47.629Z</time></trkpt><trkpt lat="40.6861634" lon="-3.9953768"><ele>1324.3333333333335</ele><time>2026-05-04T10:31:48.629Z</time></trkpt><trkpt lat="40.6862405" lon="-3.9953875"><ele>1324.0</ele><time>2026-05-04T10:31:49.629Z</time></trkpt><trkpt lat="40.6863064" lon="-3.9953936"><ele>1323.6666666666667</ele><time>2026-05-04T10:31:50.629Z</time></trkpt><trkpt lat="40.6863797" lon="-3.9953931"><ele>1323.3333333333333</ele><time>2026-05-04T10:31:51.629Z</time></trkpt><trkpt lat="40.686456" lon="-3.9953927"><ele>1323.0</ele><time>2026-05-04T10:31:52.629Z</time></trkpt><trkpt lat="40.6865378" lon="-3.9953926"><ele>1323.0</ele><time>2026-05-04T10:31:53.629Z</time></trkpt><trkpt lat="40.6866245" lon="-3.9953926"><ele>1323.0</ele><time>2026-05-04T10:31:54.629Z</time></trkpt><trkpt lat="40.6867146" lon="-3.9953899"><ele>1323.0</ele><time>2026-05-04T10:31:55.629Z</time></trkpt><trkpt lat="40.6868058" lon="-3.995388"><ele>1323.0</ele><time>2026-05-04T10:31:56.629Z</time></trkpt><trkpt lat="40.6869024" lon="-3.9953838"><ele>1323.0</ele><time>2026-05-04T10:31:57.629Z</time></trkpt><trkpt lat="40.6869981" lon="-3.9953683"><ele>1322.2</ele><time>2026-05-04T10:31:58.629Z</time></trkpt><trkpt lat="40.6870901" lon="-3.9953496"><ele>1321.4</ele><time>2026-05-04T10:31:59.629Z</time></trkpt><trkpt lat="40.6871726" lon="-3.9953484"><ele>1320.6000000000001</ele><time>2026-05-04T10:32:00.629Z</time></trkpt><trkpt lat="40.6872897" lon="-3.9953299"><ele>1319.8000000000002</ele><time>2026-05-04T10:32:02.63Z</time></trkpt><trkpt lat="40.6873823" lon="-3.9953034"><ele>1319.0</ele><time>2026-05-04T10:32:04.629Z</time></trkpt><trkpt lat="40.6874694" lon="-3.9952745"><ele>1319.0</ele><time>2026-05-04T10:32:06.629Z</time></trkpt><trkpt lat="40.6875684" lon="-3.9952459"><ele>1319.0</ele><time>2026-05-04T10:32:08.629Z</time></trkpt><trkpt lat="40.687703" lon="-3.9952121"><ele>1319.0</ele><time>2026-05-04T10:32:10.629Z</time></trkpt><trkpt lat="40.6877826" lon="-3.995196"><ele>1319.0</ele><time>2026-05-04T10:32:11.629Z</time></trkpt><trkpt lat="40.6878652" lon="-3.9951694"><ele>1319.0</ele><time>2026-05-04T10:32:12.629Z</time></trkpt><trkpt lat="40.687958" lon="-3.9951432"><ele>1318.3333333333335</ele><time>2026-05-04T10:32:13.629Z</time></trkpt><trkpt lat="40.688039" lon="-3.995142"><ele>1317.6666666666667</ele><time>2026-05-04T10:32:14.629Z</time></trkpt><trkpt lat="40.6881297" lon="-3.995143"><ele>1317.0</ele><time>2026-05-04T10:32:15.629Z</time></trkpt><trkpt lat="40.6882222" lon="-3.995151"><ele>1316.3333333333333</ele><time>2026-05-04T10:32:16.63Z</time></trkpt><trkpt lat="40.6883091" lon="-3.9951538"><ele>1315.6666666666665</ele><time>2026-05-04T10:32:17.629Z</time></trkpt><trkpt lat="40.6883883" lon="-3.995157"><ele>1315.0</ele><time>2026-05-04T10:32:18.629Z</time></trkpt><trkpt lat="40.6884753" lon="-3.9951667"><ele>1315.0</ele><time>2026-05-04T10:32:19.629Z</time></trkpt><trkpt lat="40.6885617" lon="-3.9951801"><ele>1315.0</ele><time>2026-05-04T10:32:20.629Z</time></trkpt><trkpt lat="40.6886413" lon="-3.9951953"><ele>1315.0</ele><time>2026-05-04T10:32:21.629Z</time></trkpt><trkpt lat="40.6887184" lon="-3.9952181"><ele>1315.0</ele><time>2026-05-04T10:32:22.629Z</time></trkpt><trkpt lat="40.6887886" lon="-3.9952528"><ele>1315.0</ele><time>2026-05-04T10:32:23.629Z</time></trkpt><trkpt lat="40.6888616" lon="-3.9952973"><ele>1315.0</ele><time>2026-05-04T10:32:24.629Z</time></trkpt><trkpt lat="40.6889332" lon="-3.9953469"><ele>1313.0</ele><time>2026-05-04T10:32:25.629Z</time></trkpt><trkpt lat="40.6889971" lon="-3.995402"><ele>1311.0</ele><time>2026-05-04T10:32:26.629Z</time></trkpt><trkpt lat="40.689059" lon="-3.9954584"><ele>1309.0</ele><time>2026-05-04T10:32:27.629Z</time></trkpt><trkpt lat="40.6891148" lon="-3.9955258"><ele>1307.0</ele><time>2026-05-04T10:32:28.629Z</time></trkpt><trkpt lat="40.689174" lon="-3.9956082"><ele>1305.0</ele><time>2026-05-04T10:32:29.629Z</time></trkpt><trkpt lat="40.6892377" lon="-3.9957103"><ele>1303.0</ele><time>2026-05-04T10:32:30.629Z</time></trkpt><trkpt lat="40.6893017" lon="-3.9958224"><ele>1302.8000000000002</ele><time>2026-05-04T10:32:31.629Z</time></trkpt><trkpt lat="40.6893643" lon="-3.9959343"><ele>1302.6</ele><time>2026-05-04T10:32:32.629Z</time></trkpt><trkpt lat="40.6894287" lon="-3.996052"><ele>1302.4</ele><time>2026-05-04T10:32:33.629Z</time></trkpt><trkpt lat="40.6894794" lon="-3.9961538"><ele>1302.1999999999998</ele><time>2026-05-04T10:32:34.629Z</time></trkpt><trkpt lat="40.6895216" lon="-3.9962426"><ele>1302.0</ele><time>2026-05-04T10:32:35.63Z</time></trkpt><trkpt lat="40.6895479" lon="-3.9963264"><ele>1300.1999999999998</ele><time>2026-05-04T10:32:36.629Z</time></trkpt><trkpt lat="40.6895888" lon="-3.9964677"><ele>1298.4</ele><time>2026-05-04T10:32:38.629Z</time></trkpt><trkpt lat="40.6896372" lon="-3.9966073"><ele>1296.6</ele><time>2026-05-04T10:32:40.629Z</time></trkpt><trkpt lat="40.6896445" lon="-3.9967421"><ele>1294.8000000000002</ele><time>2026-05-04T10:32:42.629Z</time></trkpt><trkpt lat="40.6896643" lon="-3.9968486"><ele>1293.0</ele><time>2026-05-04T10:32:45.629Z</time></trkpt><trkpt lat="40.6896113" lon="-3.9969936"><ele>1293.0</ele><time>2026-05-04T10:32:47.629Z</time></trkpt><trkpt lat="40.6895799" lon="-3.9970787"><ele>1293.0</ele><time>2026-05-04T10:32:48.63Z</time></trkpt><trkpt lat="40.6895432" lon="-3.9971666"><ele>1293.0</ele><time>2026-05-04T10:32:49.629Z</time></trkpt><trkpt lat="40.6895083" lon="-3.997247"><ele>1293.0</ele><time>2026-05-04T10:32:50.629Z</time></trkpt><trkpt lat="40.6894737" lon="-3.9973733"><ele>1293.0</ele><time>2026-05-04T10:32:52.629Z</time></trkpt><trkpt lat="40.6894897" lon="-3.9974616"><ele>1293.0</ele><time>2026-05-04T10:32:54.629Z</time></trkpt><trkpt lat="40.6895757" lon="-3.9975038"><ele>1293.0</ele><time>2026-05-04T10:32:56.629Z</time></trkpt><trkpt lat="40.6896822" lon="-3.997453"><ele>1293.0</ele><time>2026-05-04T10:32:58.629Z</time></trkpt><trkpt lat="40.6897425" lon="-3.9974108"><ele>1293.0</ele><time>2026-05-04T10:32:59.629Z</time></trkpt><trkpt lat="40.6898125" lon="-3.9973594"><ele>1293.0</ele><time>2026-05-04T10:33:00.629Z</time></trkpt><trkpt lat="40.6898797" lon="-3.9973127"><ele>1293.0</ele><time>2026-05-04T10:33:01.63Z</time></trkpt><trkpt lat="40.6899307" lon="-3.9972574"><ele>1293.0</ele><time>2026-05-04T10:33:02.629Z</time></trkpt><trkpt lat="40.689976" lon="-3.9971979"><ele>1293.0</ele><time>2026-05-04T10:33:03.629Z</time></trkpt><trkpt lat="40.6900122" lon="-3.9971247"><ele>1293.0</ele><time>2026-05-04T10:33:04.629Z</time></trkpt><trkpt lat="40.6900662" lon="-3.9969973"><ele>1293.0</ele><time>2026-05-04T10:33:06.629Z</time></trkpt><trkpt lat="40.6900997" lon="-3.9968638"><ele>1293.0</ele><time>2026-05-04T10:33:08.629Z</time></trkpt><trkpt lat="40.6901211" lon="-3.9967184"><ele>1293.0</ele><time>2026-05-04T10:33:10.629Z</time></trkpt><trkpt lat="40.6901348" lon="-3.9966168"><ele>1292.8000000000002</ele><time>2026-05-04T10:33:11.629Z</time></trkpt><trkpt lat="40.6901449" lon="-3.9965126"><ele>1292.6</ele><time>2026-05-04T10:33:12.629Z</time></trkpt><trkpt lat="40.6901512" lon="-3.9963967"><ele>1292.4</ele><time>2026-05-04T10:33:13.629Z</time></trkpt><trkpt lat="40.6901474" lon="-3.996272"><ele>1292.1999999999998</ele><time>2026-05-04T10:33:14.629Z</time></trkpt><trkpt lat="40.6901367" lon="-3.9961417"><ele>1292.0</ele><time>2026-05-04T10:33:15.629Z</time></trkpt><trkpt lat="40.6901234" lon="-3.9960045"><ele>1292.0</ele><time>2026-05-04T10:33:16.629Z</time></trkpt><trkpt lat="40.690119" lon="-3.9958637"><ele>1292.0</ele><time>2026-05-04T10:33:17.63Z</time></trkpt><trkpt lat="40.6901063" lon="-3.9957193"><ele>1292.0</ele><time>2026-05-04T10:33:18.629Z</time></trkpt><trkpt lat="40.6901009" lon="-3.9955626"><ele>1292.0</ele><time>2026-05-04T10:33:19.63Z</time></trkpt><trkpt lat="40.6900901" lon="-3.9954015"><ele>1291.8</ele><time>2026-05-04T10:33:20.629Z</time></trkpt><trkpt lat="40.6900836" lon="-3.9952563"><ele>1291.6</ele><time>2026-05-04T10:33:21.629Z</time></trkpt><trkpt lat="40.6900815" lon="-3.9951263"><ele>1291.3999999999999</ele><time>2026-05-04T10:33:22.629Z</time></trkpt><trkpt lat="40.6900773" lon="-3.9950114"><ele>1291.1999999999998</ele><time>2026-05-04T10:33:23.629Z</time></trkpt><trkpt lat="40.6900634" lon="-3.9949058"><ele>1291.0</ele><time>2026-05-04T10:33:24.629Z</time></trkpt><trkpt lat="40.6900449" lon="-3.9947934"><ele>1290.1999999999998</ele><time>2026-05-04T10:33:25.629Z</time></trkpt><trkpt lat="40.690019" lon="-3.9946591"><ele>1289.3999999999999</ele><time>2026-05-04T10:33:26.629Z</time></trkpt><trkpt lat="40.6899933" lon="-3.994526"><ele>1288.6</ele><time>2026-05-04T10:33:27.629Z</time></trkpt><trkpt lat="40.6899719" lon="-3.9943813"><ele>1287.8</ele><time>2026-05-04T10:33:28.629Z</time></trkpt><trkpt lat="40.6899481" lon="-3.9942254"><ele>1287.0</ele><time>2026-05-04T10:33:29.629Z</time></trkpt><trkpt lat="40.689927" lon="-3.9940769"><ele>1285.8</ele><time>2026-05-04T10:33:30.629Z</time></trkpt><trkpt lat="40.6899046" lon="-3.9939271"><ele>1284.6</ele><time>2026-05-04T10:33:31.629Z</time></trkpt><trkpt lat="40.6898805" lon="-3.9937827"><ele>1283.3999999999999</ele><time>2026-05-04T10:33:32.629Z</time></trkpt><trkpt lat="40.6898517" lon="-3.9936437"><ele>1282.1999999999998</ele><time>2026-05-04T10:33:33.629Z</time></trkpt><trkpt lat="40.6898126" lon="-3.9935096"><ele>1281.0</ele><time>2026-05-04T10:33:34.629Z</time></trkpt><trkpt lat="40.6897598" lon="-3.9933829"><ele>1279.25</ele><time>2026-05-04T10:33:35.629Z</time></trkpt><trkpt lat="40.689692" lon="-3.9932587"><ele>1277.5</ele><time>2026-05-04T10:33:36.63Z</time></trkpt><trkpt lat="40.6896217" lon="-3.9931376"><ele>1275.75</ele><time>2026-05-04T10:33:37.629Z</time></trkpt><trkpt lat="40.6895535" lon="-3.9930188"><ele>1274.0</ele><time>2026-05-04T10:33:38.63Z</time></trkpt><trkpt lat="40.6894949" lon="-3.9929032"><ele>1274.0</ele><time>2026-05-04T10:33:39.629Z</time></trkpt><trkpt lat="40.6894406" lon="-3.9927958"><ele>1274.0</ele><time>2026-05-04T10:33:40.63Z</time></trkpt><trkpt lat="40.6893944" lon="-3.9926867"><ele>1274.0</ele><time>2026-05-04T10:33:41.629Z</time></trkpt><trkpt lat="40.6893658" lon="-3.9925879"><ele>1274.0</ele><time>2026-05-04T10:33:42.629Z</time></trkpt><trkpt lat="40.6893416" lon="-3.9925027"><ele>1274.0</ele><time>2026-05-04T10:33:43.629Z</time></trkpt><trkpt lat="40.6893005" lon="-3.9924231"><ele>1274.0</ele><time>2026-05-04T10:33:44.629Z</time></trkpt><trkpt lat="40.6892486" lon="-3.9923348"><ele>1274.0</ele><time>2026-05-04T10:33:45.629Z</time></trkpt><trkpt lat="40.6891841" lon="-3.9922622"><ele>1274.0</ele><time>2026-05-04T10:33:46.629Z</time></trkpt><trkpt lat="40.6891093" lon="-3.9921924"><ele>1274.0</ele><time>2026-05-04T10:33:47.629Z</time></trkpt><trkpt lat="40.689026" lon="-3.9921489"><ele>1274.0</ele><time>2026-05-04T10:33:48.629Z</time></trkpt><trkpt lat="40.6889464" lon="-3.9921104"><ele>1274.0</ele><time>2026-05-04T10:33:49.629Z</time></trkpt><trkpt lat="40.688865" lon="-3.9920745"><ele>1274.0</ele><time>2026-05-04T10:33:50.629Z</time></trkpt><trkpt lat="40.6887821" lon="-3.9920485"><ele>1274.0</ele><time>2026-05-04T10:33:51.629Z</time></trkpt><trkpt lat="40.6886943" lon="-3.9919989"><ele>1274.0</ele><time>2026-05-04T10:33:52.629Z</time></trkpt><trkpt lat="40.6886158" lon="-3.9919501"><ele>1274.0</ele><time>2026-05-04T10:33:53.629Z</time></trkpt><trkpt lat="40.6885462" lon="-3.9918754"><ele>1274.0</ele><time>2026-05-04T10:33:54.63Z</time></trkpt><trkpt lat="40.6884854" lon="-3.9917838"><ele>1274.0</ele><time>2026-05-04T10:33:55.629Z</time></trkpt><trkpt lat="40.6884496" lon="-3.9916685"><ele>1273.4</ele><time>2026-05-04T10:33:56.629Z</time></trkpt><trkpt lat="40.6884243" lon="-3.991536"><ele>1272.8000000000002</ele><time>2026-05-04T10:33:57.63Z</time></trkpt><trkpt lat="40.6884099" lon="-3.9913979"><ele>1272.1999999999998</ele><time>2026-05-04T10:33:58.629Z</time></trkpt><trkpt lat="40.688389" lon="-3.9912589"><ele>1271.6</ele><time>2026-05-04T10:33:59.629Z</time></trkpt><trkpt lat="40.6883475" lon="-3.9911233"><ele>1271.0</ele><time>2026-05-04T10:34:00.629Z</time></trkpt><trkpt lat="40.6882948" lon="-3.9910015"><ele>1271.0</ele><time>2026-05-04T10:34:01.63Z</time></trkpt><trkpt lat="40.68823" lon="-3.9908774"><ele>1271.0</ele><time>2026-05-04T10:34:02.629Z</time></trkpt><trkpt lat="40.6881514" lon="-3.9907575"><ele>1271.0</ele><time>2026-05-04T10:34:03.629Z</time></trkpt><trkpt lat="40.6880657" lon="-3.9906342"><ele>1271.0</ele><time>2026-05-04T10:34:04.629Z</time></trkpt><trkpt lat="40.6879817" lon="-3.9905078"><ele>1271.25</ele><time>2026-05-04T10:34:05.629Z</time></trkpt><trkpt lat="40.6879037" lon="-3.9903727"><ele>1271.5</ele><time>2026-05-04T10:34:06.63Z</time></trkpt><trkpt lat="40.6878225" lon="-3.9902498"><ele>1271.75</ele><time>2026-05-04T10:34:07.63Z</time></trkpt><trkpt lat="40.6877352" lon="-3.9901398"><ele>1272.0</ele><time>2026-05-04T10:34:08.629Z</time></trkpt><trkpt lat="40.6876445" lon="-3.9900389"><ele>1267.75</ele><time>2026-05-04T10:34:09.629Z</time></trkpt><trkpt lat="40.6875537" lon="-3.989934"><ele>1263.5</ele><time>2026-05-04T10:34:10.63Z</time></trkpt><trkpt lat="40.6874648" lon="-3.9898236"><ele>1259.25</ele><time>2026-05-04T10:34:11.629Z</time></trkpt><trkpt lat="40.6873767" lon="-3.9897054"><ele>1255.0</ele><time>2026-05-04T10:34:12.629Z</time></trkpt><trkpt lat="40.6872898" lon="-3.9895894"><ele>1255.0</ele><time>2026-05-04T10:34:13.629Z</time></trkpt><trkpt lat="40.6872012" lon="-3.989473"><ele>1255.0</ele><time>2026-05-04T10:34:14.629Z</time></trkpt><trkpt lat="40.6871123" lon="-3.9893587"><ele>1255.0</ele><time>2026-05-04T10:34:15.629Z</time></trkpt><trkpt lat="40.6870229" lon="-3.9892412"><ele>1255.0</ele><time>2026-05-04T10:34:16.629Z</time></trkpt><trkpt lat="40.6869336" lon="-3.9891231"><ele>1254.25</ele><time>2026-05-04T10:34:17.629Z</time></trkpt><trkpt lat="40.6868446" lon="-3.9890118"><ele>1253.5</ele><time>2026-05-04T10:34:18.629Z</time></trkpt><trkpt lat="40.6867587" lon="-3.9889016"><ele>1252.75</ele><time>2026-05-04T10:34:19.629Z</time></trkpt><trkpt lat="40.6866714" lon="-3.9887962"><ele>1252.0</ele><time>2026-05-04T10:34:20.629Z</time></trkpt><trkpt lat="40.6865851" lon="-3.9886896"><ele>1252.0</ele><time>2026-05-04T10:34:21.629Z</time></trkpt><trkpt lat="40.6864995" lon="-3.9885846"><ele>1252.0</ele><time>2026-05-04T10:34:22.629Z</time></trkpt><trkpt lat="40.6864103" lon="-3.9884944"><ele>1252.0</ele><time>2026-05-04T10:34:23.629Z</time></trkpt><trkpt lat="40.6863144" lon="-3.9884083"><ele>1252.0</ele><time>2026-05-04T10:34:24.629Z</time></trkpt><trkpt lat="40.686217" lon="-3.9883197"><ele>1250.8</ele><time>2026-05-04T10:34:25.629Z</time></trkpt><trkpt lat="40.6861258" lon="-3.9882303"><ele>1249.6</ele><time>2026-05-04T10:34:26.629Z</time></trkpt><trkpt lat="40.686043" lon="-3.9881479"><ele>1248.3999999999999</ele><time>2026-05-04T10:34:27.63Z</time></trkpt><trkpt lat="40.6859678" lon="-3.9880794"><ele>1247.2</ele><time>2026-05-04T10:34:28.629Z</time></trkpt><trkpt lat="40.6859003" lon="-3.9880094"><ele>1246.0</ele><time>2026-05-04T10:34:29.629Z</time></trkpt><trkpt lat="40.6858339" lon="-3.9879436"><ele>1246.0</ele><time>2026-05-04T10:34:30.629Z</time></trkpt><trkpt lat="40.6857734" lon="-3.9878746"><ele>1246.0</ele><time>2026-05-04T10:34:31.63Z</time></trkpt><trkpt lat="40.68571" lon="-3.9878022"><ele>1246.0</ele><time>2026-05-04T10:34:32.629Z</time></trkpt><trkpt lat="40.6856502" lon="-3.9877393"><ele>1246.0</ele><time>2026-05-04T10:34:33.629Z</time></trkpt><trkpt lat="40.6855969" lon="-3.9876757"><ele>1246.0</ele><time>2026-05-04T10:34:34.629Z</time></trkpt><trkpt lat="40.6855415" lon="-3.9876141"><ele>1246.0</ele><time>2026-05-04T10:34:35.629Z</time></trkpt><trkpt lat="40.6854927" lon="-3.9875543"><ele>1246.0</ele><time>2026-05-04T10:34:36.629Z</time></trkpt><trkpt lat="40.6853762" lon="-3.9875329"><ele>1246.0</ele><time>2026-05-04T10:34:38.629Z</time></trkpt><trkpt lat="40.6853129" lon="-3.9875508"><ele>1246.0</ele><time>2026-05-04T10:34:39.629Z</time></trkpt><trkpt lat="40.6852461" lon="-3.987586"><ele>1246.0</ele><time>2026-05-04T10:34:40.629Z</time></trkpt><trkpt lat="40.6851815" lon="-3.987627"><ele>1246.0</ele><time>2026-05-04T10:34:41.629Z</time></trkpt><trkpt lat="40.6851141" lon="-3.9876615"><ele>1246.0</ele><time>2026-05-04T10:34:42.629Z</time></trkpt><trkpt lat="40.6850195" lon="-3.9876448"><ele>1244.8</ele><time>2026-05-04T10:34:44.629Z</time></trkpt><trkpt lat="40.6849359" lon="-3.987542"><ele>1243.6</ele><time>2026-05-04T10:34:46.629Z</time></trkpt><trkpt lat="40.6849074" lon="-3.9874101"><ele>1242.4</ele><time>2026-05-04T10:34:48.63Z</time></trkpt><trkpt lat="40.6849129" lon="-3.9872853"><ele>1241.2</ele><time>2026-05-04T10:34:50.629Z</time></trkpt><trkpt lat="40.6849641" lon="-3.9871968"><ele>1240.0</ele><time>2026-05-04T10:34:52.629Z</time></trkpt><trkpt lat="40.6850685" lon="-3.9871372"><ele>1238.3333333333333</ele><time>2026-05-04T10:34:54.63Z</time></trkpt><trkpt lat="40.6851302" lon="-3.9870867"><ele>1236.6666666666665</ele><time>2026-05-04T10:34:55.629Z</time></trkpt><trkpt lat="40.6851993" lon="-3.9870192"><ele>1235.0</ele><time>2026-05-04T10:34:56.629Z</time></trkpt><trkpt lat="40.6852626" lon="-3.986957"><ele>1233.3333333333333</ele><time>2026-05-04T10:34:57.629Z</time></trkpt><trkpt lat="40.6853211" lon="-3.9868905"><ele>1231.6666666666667</ele><time>2026-05-04T10:34:58.629Z</time></trkpt><trkpt lat="40.6853794" lon="-3.9868412"><ele>1230.0</ele><time>2026-05-04T10:34:59.63Z</time></trkpt><trkpt lat="40.6854424" lon="-3.9868134"><ele>1230.0</ele><time>2026-05-04T10:35:00.629Z</time></trkpt><trkpt lat="40.6855152" lon="-3.9867913"><ele>1230.0</ele><time>2026-05-04T10:35:01.629Z</time></trkpt><trkpt lat="40.6855956" lon="-3.9868097"><ele>1230.0</ele><time>2026-05-04T10:35:02.629Z</time></trkpt><trkpt lat="40.6856701" lon="-3.9868475"><ele>1230.0</ele><time>2026-05-04T10:35:03.629Z</time></trkpt><trkpt lat="40.6857533" lon="-3.9868904"><ele>1230.0</ele><time>2026-05-04T10:35:04.629Z</time></trkpt><trkpt lat="40.6858495" lon="-3.9869265"><ele>1230.0</ele><time>2026-05-04T10:35:05.629Z</time></trkpt><trkpt lat="40.6859469" lon="-3.9869561"><ele>1230.0</ele><time>2026-05-04T10:35:06.629Z</time></trkpt><trkpt lat="40.686055" lon="-3.9869677"><ele>1230.0</ele><time>2026-05-04T10:35:07.629Z</time></trkpt><trkpt lat="40.6861632" lon="-3.9869772"><ele>1230.0</ele><time>2026-05-04T10:35:08.629Z</time></trkpt><trkpt lat="40.6862637" lon="-3.9869856"><ele>1230.0</ele><time>2026-05-04T10:35:09.629Z</time></trkpt><trkpt lat="40.6863615" lon="-3.9869899"><ele>1230.0</ele><time>2026-05-04T10:35:10.629Z</time></trkpt><trkpt lat="40.6864484" lon="-3.9870021"><ele>1227.6</ele><time>2026-05-04T10:35:11.63Z</time></trkpt><trkpt lat="40.6865378" lon="-3.9870235"><ele>1225.2</ele><time>2026-05-04T10:35:12.63Z</time></trkpt><trkpt lat="40.686628" lon="-3.9870523"><ele>1222.8</ele><time>2026-05-04T10:35:13.629Z</time></trkpt><trkpt lat="40.6867195" lon="-3.9870819"><ele>1220.4</ele><time>2026-05-04T10:35:14.629Z</time></trkpt><trkpt lat="40.6868088" lon="-3.9871216"><ele>1218.0</ele><time>2026-05-04T10:35:15.628Z</time></trkpt><trkpt lat="40.6868924" lon="-3.9871625"><ele>1214.6</ele><time>2026-05-04T10:35:16.629Z</time></trkpt><trkpt lat="40.6869626" lon="-3.9871978"><ele>1211.1999999999998</ele><time>2026-05-04T10:35:17.628Z</time></trkpt><trkpt lat="40.6870258" lon="-3.9872459"><ele>1207.8</ele><time>2026-05-04T10:35:18.628Z</time></trkpt><trkpt lat="40.6870877" lon="-3.9872894"><ele>1204.3999999999999</ele><time>2026-05-04T10:35:19.628Z</time></trkpt><trkpt lat="40.6871941" lon="-3.9873798"><ele>1201.0</ele><time>2026-05-04T10:35:21.629Z</time></trkpt><trkpt lat="40.6872957" lon="-3.9874698"><ele>1204.0000000000002</ele><time>2026-05-04T10:35:23.628Z</time></trkpt><trkpt lat="40.6873587" lon="-3.9875244"><ele>1207.0</ele><time>2026-05-04T10:35:24.628Z</time></trkpt><trkpt lat="40.6874241" lon="-3.9875775"><ele>1210.0</ele><time>2026-05-04T10:35:25.628Z</time></trkpt><trkpt lat="40.6874872" lon="-3.98763"><ele>1213.0</ele><time>2026-05-04T10:35:26.629Z</time></trkpt><trkpt lat="40.6875521" lon="-3.9876824"><ele>1216.0</ele><time>2026-05-04T10:35:27.628Z</time></trkpt><trkpt lat="40.6876133" lon="-3.987731"><ele>1219.0000000000002</ele><time>2026-05-04T10:35:28.628Z</time></trkpt><trkpt lat="40.6876785" lon="-3.9877782"><ele>1222.0</ele><time>2026-05-04T10:35:29.628Z</time></trkpt><trkpt lat="40.6877561" lon="-3.9878224"><ele>1218.0</ele><time>2026-05-04T10:35:30.628Z</time></trkpt><trkpt lat="40.6878432" lon="-3.9878599"><ele>1214.0</ele><time>2026-05-04T10:35:31.628Z</time></trkpt><trkpt lat="40.6879395" lon="-3.9879059"><ele>1210.0</ele><time>2026-05-04T10:35:32.628Z</time></trkpt><trkpt lat="40.6880391" lon="-3.9879483"><ele>1206.0</ele><time>2026-05-04T10:35:33.628Z</time></trkpt><trkpt lat="40.6881419" lon="-3.9880019"><ele>1202.0</ele><time>2026-05-04T10:35:34.628Z</time></trkpt><trkpt lat="40.6882426" lon="-3.9880626"><ele>1202.0</ele><time>2026-05-04T10:35:35.629Z</time></trkpt><trkpt lat="40.6883371" lon="-3.9881187"><ele>1202.0</ele><time>2026-05-04T10:35:36.628Z</time></trkpt><trkpt lat="40.6884266" lon="-3.9881822"><ele>1202.0</ele><time>2026-05-04T10:35:37.629Z</time></trkpt><trkpt lat="40.6885209" lon="-3.9882498"><ele>1202.0</ele><time>2026-05-04T10:35:38.628Z</time></trkpt><trkpt lat="40.6886149" lon="-3.9883221"><ele>1202.0</ele><time>2026-05-04T10:35:39.628Z</time></trkpt><trkpt lat="40.6887125" lon="-3.9883967"><ele>1202.2</ele><time>2026-05-04T10:35:40.629Z</time></trkpt><trkpt lat="40.6888062" lon="-3.9884825"><ele>1202.4</ele><time>2026-05-04T10:35:41.628Z</time></trkpt><trkpt lat="40.6889023" lon="-3.9885637"><ele>1202.6</ele><time>2026-05-04T10:35:42.628Z</time></trkpt><trkpt lat="40.688997" lon="-3.9886412"><ele>1202.8</ele><time>2026-05-04T10:35:43.628Z</time></trkpt><trkpt lat="40.6890882" lon="-3.9887146"><ele>1203.0</ele><time>2026-05-04T10:35:44.628Z</time></trkpt><trkpt lat="40.6891795" lon="-3.988788"><ele>1203.0</ele><time>2026-05-04T10:35:45.628Z</time></trkpt><trkpt lat="40.6892677" lon="-3.9888507"><ele>1203.0</ele><time>2026-05-04T10:35:46.628Z</time></trkpt><trkpt lat="40.6893572" lon="-3.9889132"><ele>1203.0</ele><time>2026-05-04T10:35:47.628Z</time></trkpt><trkpt lat="40.6894434" lon="-3.9889727"><ele>1203.0</ele><time>2026-05-04T10:35:48.628Z</time></trkpt><trkpt lat="40.689525" lon="-3.9890234"><ele>1203.0</ele><time>2026-05-04T10:35:49.628Z</time></trkpt><trkpt lat="40.6896088" lon="-3.9890733"><ele>1202.8333333333333</ele><time>2026-05-04T10:35:50.628Z</time></trkpt><trkpt lat="40.6896876" lon="-3.9891308"><ele>1202.6666666666667</ele><time>2026-05-04T10:35:51.628Z</time></trkpt><trkpt lat="40.6897589" lon="-3.9891851"><ele>1202.5</ele><time>2026-05-04T10:35:52.628Z</time></trkpt><trkpt lat="40.689831" lon="-3.9892351"><ele>1202.3333333333335</ele><time>2026-05-04T10:35:53.628Z</time></trkpt><trkpt lat="40.6899033" lon="-3.9892829"><ele>1202.1666666666667</ele><time>2026-05-04T10:35:54.628Z</time></trkpt><trkpt lat="40.6899892" lon="-3.9893267"><ele>1202.0</ele><time>2026-05-04T10:35:55.628Z</time></trkpt><trkpt lat="40.6900919" lon="-3.9893704"><ele>1202.0</ele><time>2026-05-04T10:35:56.628Z</time></trkpt><trkpt lat="40.6901846" lon="-3.989424"><ele>1202.0</ele><time>2026-05-04T10:35:57.628Z</time></trkpt><trkpt lat="40.6902847" lon="-3.989478"><ele>1202.0</ele><time>2026-05-04T10:35:58.629Z</time></trkpt><trkpt lat="40.6903776" lon="-3.9895358"><ele>1202.0</ele><time>2026-05-04T10:35:59.628Z</time></trkpt><trkpt lat="40.6904661" lon="-3.9896038"><ele>1202.0</ele><time>2026-05-04T10:36:00.628Z</time></trkpt><trkpt lat="40.6905507" lon="-3.9896669"><ele>1198.6</ele><time>2026-05-04T10:36:01.628Z</time></trkpt><trkpt lat="40.6906327" lon="-3.9897143"><ele>1195.2</ele><time>2026-05-04T10:36:02.628Z</time></trkpt><trkpt lat="40.690727" lon="-3.9897696"><ele>1191.8</ele><time>2026-05-04T10:36:03.628Z</time></trkpt><trkpt lat="40.6908276" lon="-3.9898133"><ele>1188.4</ele><time>2026-05-04T10:36:04.628Z</time></trkpt><trkpt lat="40.6909337" lon="-3.9898525"><ele>1185.0</ele><time>2026-05-04T10:36:05.628Z</time></trkpt><trkpt lat="40.6910466" lon="-3.9898938"><ele>1185.5</ele><time>2026-05-04T10:36:06.628Z</time></trkpt><trkpt lat="40.6911585" lon="-3.9899396"><ele>1186.0</ele><time>2026-05-04T10:36:07.629Z</time></trkpt><trkpt lat="40.6912749" lon="-3.989987"><ele>1186.5</ele><time>2026-05-04T10:36:08.628Z</time></trkpt><trkpt lat="40.6913984" lon="-3.990037"><ele>1187.0</ele><time>2026-05-04T10:36:09.628Z</time></trkpt><trkpt lat="40.6915196" lon="-3.9900925"><ele>1187.0</ele><time>2026-05-04T10:36:10.628Z</time></trkpt><trkpt lat="40.6916321" lon="-3.9901442"><ele>1187.0</ele><time>2026-05-04T10:36:11.628Z</time></trkpt><trkpt lat="40.6917346" lon="-3.9901945"><ele>1187.0</ele><time>2026-05-04T10:36:12.628Z</time></trkpt><trkpt lat="40.6918221" lon="-3.9902398"><ele>1187.0</ele><time>2026-05-04T10:36:13.628Z</time></trkpt><trkpt lat="40.6919019" lon="-3.9902729"><ele>1187.0</ele><time>2026-05-04T10:36:14.628Z</time></trkpt><trkpt lat="40.6919761" lon="-3.9902878"><ele>1187.5</ele><time>2026-05-04T10:36:15.628Z</time></trkpt><trkpt lat="40.6920528" lon="-3.9902861"><ele>1188.0</ele><time>2026-05-04T10:36:16.628Z</time></trkpt><trkpt lat="40.6921243" lon="-3.9902466"><ele>1188.5</ele><time>2026-05-04T10:36:17.628Z</time></trkpt><trkpt lat="40.6921896" lon="-3.9901871"><ele>1189.0</ele><time>2026-05-04T10:36:18.628Z</time></trkpt><trkpt lat="40.6922763" lon="-3.9901034"><ele>1189.5</ele><time>2026-05-04T10:36:19.628Z</time></trkpt><trkpt lat="40.6923603" lon="-3.9900226"><ele>1190.0</ele><time>2026-05-04T10:36:20.628Z</time></trkpt><trkpt lat="40.6924428" lon="-3.9899382"><ele>1188.2</ele><time>2026-05-04T10:36:21.629Z</time></trkpt><trkpt lat="40.6925189" lon="-3.9898366"><ele>1186.4</ele><time>2026-05-04T10:36:22.628Z</time></trkpt><trkpt lat="40.6925901" lon="-3.9897426"><ele>1184.6</ele><time>2026-05-04T10:36:23.629Z</time></trkpt><trkpt lat="40.6926628" lon="-3.9896572"><ele>1182.8</ele><time>2026-05-04T10:36:24.628Z</time></trkpt><trkpt lat="40.6927419" lon="-3.9895823"><ele>1181.0</ele><time>2026-05-04T10:36:25.628Z</time></trkpt><trkpt lat="40.6928235" lon="-3.9895132"><ele>1181.0</ele><time>2026-05-04T10:36:26.628Z</time></trkpt><trkpt lat="40.6929165" lon="-3.98945"><ele>1181.0</ele><time>2026-05-04T10:36:27.628Z</time></trkpt><trkpt lat="40.6930071" lon="-3.9893973"><ele>1181.0</ele><time>2026-05-04T10:36:28.628Z</time></trkpt><trkpt lat="40.6930894" lon="-3.9893493"><ele>1181.0</ele><time>2026-05-04T10:36:29.628Z</time></trkpt><trkpt lat="40.6931549" lon="-3.9893104"><ele>1181.0</ele><time>2026-05-04T10:36:30.628Z</time></trkpt><trkpt lat="40.6932582" lon="-3.9892392"><ele>1177.6</ele><time>2026-05-04T10:36:32.628Z</time></trkpt><trkpt lat="40.6932679" lon="-3.9891299"><ele>1174.1999999999998</ele><time>2026-05-04T10:36:34.628Z</time></trkpt><trkpt lat="40.6932012" lon="-3.9890424"><ele>1170.8000000000002</ele><time>2026-05-04T10:36:36.628Z</time></trkpt><trkpt lat="40.6931004" lon="-3.9889773"><ele>1167.4</ele><time>2026-05-04T10:36:38.629Z</time></trkpt><trkpt lat="40.6930704" lon="-3.9888693"><ele>1164.0</ele><time>2026-05-04T10:36:40.628Z</time></trkpt><trkpt lat="40.6931406" lon="-3.9888035"><ele>1164.0</ele><time>2026-05-04T10:36:42.629Z</time></trkpt><trkpt lat="40.6932009" lon="-3.9887795"><ele>1164.0</ele><time>2026-05-04T10:36:43.628Z</time></trkpt><trkpt lat="40.6932749" lon="-3.9887686"><ele>1164.0</ele><time>2026-05-04T10:36:44.628Z</time></trkpt><trkpt lat="40.6933491" lon="-3.9887545"><ele>1164.0</ele><time>2026-05-04T10:36:45.628Z</time></trkpt><trkpt lat="40.6934258" lon="-3.9887492"><ele>1164.0</ele><time>2026-05-04T10:36:46.628Z</time></trkpt><trkpt lat="40.6935067" lon="-3.9887374"><ele>1164.0</ele><time>2026-05-04T10:36:47.628Z</time></trkpt><trkpt lat="40.6935785" lon="-3.9887343"><ele>1164.0</ele><time>2026-05-04T10:36:48.628Z</time></trkpt><trkpt lat="40.6936842" lon="-3.9886883"><ele>1164.0</ele><time>2026-05-04T10:36:50.628Z</time></trkpt><trkpt lat="40.6937128" lon="-3.9885734"><ele>1164.0</ele><time>2026-05-04T10:36:52.628Z</time></trkpt><trkpt lat="40.6936782" lon="-3.9884839"><ele>1164.0</ele><time>2026-05-04T10:36:54.628Z</time></trkpt><trkpt lat="40.6935857" lon="-3.9884284"><ele>1164.0</ele><time>2026-05-04T10:36:56.628Z</time></trkpt><trkpt lat="40.6934701" lon="-3.9883695"><ele>1164.0</ele><time>2026-05-04T10:36:58.628Z</time></trkpt><trkpt lat="40.6933951" lon="-3.9882933"><ele>1161.6666666666667</ele><time>2026-05-04T10:37:00.628Z</time></trkpt><trkpt lat="40.6933891" lon="-3.9881933"><ele>1159.3333333333333</ele><time>2026-05-04T10:37:02.628Z</time></trkpt><trkpt lat="40.6934542" lon="-3.9881105"><ele>1157.0</ele><time>2026-05-04T10:37:04.629Z</time></trkpt><trkpt lat="40.6935745" lon="-3.9880668"><ele>1154.6666666666665</ele><time>2026-05-04T10:37:06.628Z</time></trkpt><trkpt lat="40.6936605" lon="-3.9880421"><ele>1152.3333333333333</ele><time>2026-05-04T10:37:08.628Z</time></trkpt><trkpt lat="40.693724" lon="-3.9880251"><ele>1150.0</ele><time>2026-05-04T10:37:10.628Z</time></trkpt><trkpt lat="40.6937936" lon="-3.9880172"><ele>1149.8</ele><time>2026-05-04T10:37:13.628Z</time></trkpt><trkpt lat="40.6938837" lon="-3.9879503"><ele>1149.6</ele><time>2026-05-04T10:37:23.628Z</time></trkpt><trkpt lat="40.6938687" lon="-3.9878413"><ele>1149.4</ele><time>2026-05-04T10:37:25.628Z</time></trkpt><trkpt lat="40.6937924" lon="-3.9877116"><ele>1149.2</ele><time>2026-05-04T10:37:27.628Z</time></trkpt><trkpt lat="40.6937355" lon="-3.9876474"><ele>1149.0</ele><time>2026-05-04T10:37:28.628Z</time></trkpt><trkpt lat="40.6936764" lon="-3.9875799"><ele>1149.0</ele><time>2026-05-04T10:37:29.628Z</time></trkpt><trkpt lat="40.6936037" lon="-3.9875211"><ele>1149.0</ele><time>2026-05-04T10:37:30.628Z</time></trkpt><trkpt lat="40.6935289" lon="-3.9874732"><ele>1149.0</ele><time>2026-05-04T10:37:31.628Z</time></trkpt><trkpt lat="40.6934414" lon="-3.9874292"><ele>1149.0</ele><time>2026-05-04T10:37:32.628Z</time></trkpt><trkpt lat="40.6933489" lon="-3.9873769"><ele>1149.0</ele><time>2026-05-04T10:37:33.629Z</time></trkpt><trkpt lat="40.693259" lon="-3.9873023"><ele>1147.25</ele><time>2026-05-04T10:37:34.628Z</time></trkpt><trkpt lat="40.6931675" lon="-3.9872136"><ele>1145.5</ele><time>2026-05-04T10:37:35.628Z</time></trkpt><trkpt lat="40.6930702" lon="-3.9871356"><ele>1143.75</ele><time>2026-05-04T10:37:36.628Z</time></trkpt><trkpt lat="40.6929744" lon="-3.9870506"><ele>1142.0</ele><time>2026-05-04T10:37:37.628Z</time></trkpt><trkpt lat="40.6928794" lon="-3.9869748"><ele>1142.0</ele><time>2026-05-04T10:37:38.628Z</time></trkpt><trkpt lat="40.6927819" lon="-3.9868978"><ele>1142.0</ele><time>2026-05-04T10:37:39.628Z</time></trkpt><trkpt lat="40.6926811" lon="-3.9868253"><ele>1142.0</ele><time>2026-05-04T10:37:40.628Z</time></trkpt><trkpt lat="40.692581" lon="-3.9867512"><ele>1142.0</ele><time>2026-05-04T10:37:41.628Z</time></trkpt><trkpt lat="40.6924801" lon="-3.9866771"><ele>1140.0</ele><time>2026-05-04T10:37:42.628Z</time></trkpt><trkpt lat="40.6923823" lon="-3.986594"><ele>1138.0</ele><time>2026-05-04T10:37:43.628Z</time></trkpt><trkpt lat="40.6922875" lon="-3.9865114"><ele>1136.0</ele><time>2026-05-04T10:37:44.628Z</time></trkpt><trkpt lat="40.692194" lon="-3.9864301"><ele>1134.0</ele><time>2026-05-04T10:37:45.628Z</time></trkpt><trkpt lat="40.6920937" lon="-3.9863482"><ele>1134.0</ele><time>2026-05-04T10:37:46.628Z</time></trkpt><trkpt lat="40.6919946" lon="-3.9862777"><ele>1134.0</ele><time>2026-05-04T10:37:47.629Z</time></trkpt><trkpt lat="40.6918955" lon="-3.9862047"><ele>1134.0</ele><time>2026-05-04T10:37:48.628Z</time></trkpt><trkpt lat="40.6917966" lon="-3.986139"><ele>1134.0</ele><time>2026-05-04T10:37:49.628Z</time></trkpt><trkpt lat="40.6917078" lon="-3.9860753"><ele>1134.0</ele><time>2026-05-04T10:37:50.628Z</time></trkpt><trkpt lat="40.6916244" lon="-3.9860104"><ele>1133.6000000000001</ele><time>2026-05-04T10:37:51.628Z</time></trkpt><trkpt lat="40.6915419" lon="-3.9859314"><ele>1133.2</ele><time>2026-05-04T10:37:52.628Z</time></trkpt><trkpt lat="40.6914678" lon="-3.985853"><ele>1132.8000000000002</ele><time>2026-05-04T10:37:53.628Z</time></trkpt><trkpt lat="40.691395" lon="-3.9857866"><ele>1132.4</ele><time>2026-05-04T10:37:54.628Z</time></trkpt><trkpt lat="40.6913227" lon="-3.9857164"><ele>1132.0</ele><time>2026-05-04T10:37:55.628Z</time></trkpt><trkpt lat="40.6912484" lon="-3.9856421"><ele>1130.8</ele><time>2026-05-04T10:37:56.628Z</time></trkpt><trkpt lat="40.691171" lon="-3.9855587"><ele>1129.6</ele><time>2026-05-04T10:37:57.628Z</time></trkpt><trkpt lat="40.6910875" lon="-3.9854696"><ele>1128.3999999999999</ele><time>2026-05-04T10:37:58.628Z</time></trkpt><trkpt lat="40.6910028" lon="-3.9853852"><ele>1127.2</ele><time>2026-05-04T10:37:59.628Z</time></trkpt><trkpt lat="40.6909203" lon="-3.985304"><ele>1126.0</ele><time>2026-05-04T10:38:00.628Z</time></trkpt><trkpt lat="40.6908457" lon="-3.9852121"><ele>1126.0</ele><time>2026-05-04T10:38:01.629Z</time></trkpt><trkpt lat="40.6907722" lon="-3.9851058"><ele>1126.0</ele><time>2026-05-04T10:38:02.628Z</time></trkpt><trkpt lat="40.6907109" lon="-3.9849992"><ele>1126.0</ele><time>2026-05-04T10:38:03.628Z</time></trkpt><trkpt lat="40.690648" lon="-3.9849032"><ele>1126.0</ele><time>2026-05-04T10:38:04.629Z</time></trkpt><trkpt lat="40.6905806" lon="-3.9848221"><ele>1126.0</ele><time>2026-05-04T10:38:05.628Z</time></trkpt><trkpt lat="40.6904994" lon="-3.9847605"><ele>1125.1666666666665</ele><time>2026-05-04T10:38:06.629Z</time></trkpt><trkpt lat="40.69042" lon="-3.9847272"><ele>1124.3333333333333</ele><time>2026-05-04T10:38:07.628Z</time></trkpt><trkpt lat="40.6903378" lon="-3.9847143"><ele>1123.5</ele><time>2026-05-04T10:38:08.628Z</time></trkpt><trkpt lat="40.6902554" lon="-3.9847124"><ele>1122.6666666666667</ele><time>2026-05-04T10:38:09.628Z</time></trkpt><trkpt lat="40.6901722" lon="-3.9847049"><ele>1121.8333333333335</ele><time>2026-05-04T10:38:10.629Z</time></trkpt><trkpt lat="40.6900907" lon="-3.9846858"><ele>1121.0</ele><time>2026-05-04T10:38:11.628Z</time></trkpt><trkpt lat="40.69001" lon="-3.9846605"><ele>1120.6</ele><time>2026-05-04T10:38:12.628Z</time></trkpt><trkpt lat="40.6899311" lon="-3.984619"><ele>1120.1999999999998</ele><time>2026-05-04T10:38:13.628Z</time></trkpt><trkpt lat="40.6898585" lon="-3.9845616"><ele>1119.8000000000002</ele><time>2026-05-04T10:38:14.628Z</time></trkpt><trkpt lat="40.6897839" lon="-3.9844847"><ele>1119.4</ele><time>2026-05-04T10:38:15.628Z</time></trkpt><trkpt lat="40.6897089" lon="-3.9843925"><ele>1119.0</ele><time>2026-05-04T10:38:16.628Z</time></trkpt><trkpt lat="40.6896262" lon="-3.9842982"><ele>1119.0</ele><time>2026-05-04T10:38:17.628Z</time></trkpt><trkpt lat="40.6895437" lon="-3.9842053"><ele>1119.0</ele><time>2026-05-04T10:38:18.628Z</time></trkpt><trkpt lat="40.6894571" lon="-3.9841127"><ele>1119.0</ele><time>2026-05-04T10:38:19.628Z</time></trkpt><trkpt lat="40.6893746" lon="-3.9840127"><ele>1119.0</ele><time>2026-05-04T10:38:20.628Z</time></trkpt><trkpt lat="40.6892906" lon="-3.9839062"><ele>1119.0</ele><time>2026-05-04T10:38:21.628Z</time></trkpt><trkpt lat="40.6892108" lon="-3.983805"><ele>1117.25</ele><time>2026-05-04T10:38:22.628Z</time></trkpt><trkpt lat="40.6891267" lon="-3.98371"><ele>1115.5</ele><time>2026-05-04T10:38:23.628Z</time></trkpt><trkpt lat="40.6890359" lon="-3.9836135"><ele>1113.75</ele><time>2026-05-04T10:38:24.629Z</time></trkpt><trkpt lat="40.6889512" lon="-3.9835094"><ele>1112.0</ele><time>2026-05-04T10:38:25.628Z</time></trkpt><trkpt lat="40.6888746" lon="-3.9833785"><ele>1109.25</ele><time>2026-05-04T10:38:26.629Z</time></trkpt><trkpt lat="40.6888134" lon="-3.9832362"><ele>1106.5</ele><time>2026-05-04T10:38:27.628Z</time></trkpt><trkpt lat="40.6887637" lon="-3.9830696"><ele>1103.75</ele><time>2026-05-04T10:38:28.628Z</time></trkpt><trkpt lat="40.6887199" lon="-3.982898"><ele>1101.0</ele><time>2026-05-04T10:38:29.628Z</time></trkpt><trkpt lat="40.6886794" lon="-3.9827161"><ele>1101.0</ele><time>2026-05-04T10:38:30.629Z</time></trkpt><trkpt lat="40.6886475" lon="-3.9825444"><ele>1101.0</ele><time>2026-05-04T10:38:31.628Z</time></trkpt><trkpt lat="40.6886145" lon="-3.9823737"><ele>1101.0</ele><time>2026-05-04T10:38:32.628Z</time></trkpt><trkpt lat="40.6885803" lon="-3.9822172"><ele>1101.0</ele><time>2026-05-04T10:38:33.628Z</time></trkpt><trkpt lat="40.6885543" lon="-3.9820594"><ele>1101.25</ele><time>2026-05-04T10:38:34.628Z</time></trkpt><trkpt lat="40.6885301" lon="-3.9819102"><ele>1101.5</ele><time>2026-05-04T10:38:35.628Z</time></trkpt><trkpt lat="40.6885081" lon="-3.9817618"><ele>1101.75</ele><time>2026-05-04T10:38:36.629Z</time></trkpt><trkpt lat="40.6884876" lon="-3.9816145"><ele>1102.0</ele><time>2026-05-04T10:38:37.628Z</time></trkpt><trkpt lat="40.6884661" lon="-3.9814726"><ele>1100.4</ele><time>2026-05-04T10:38:38.628Z</time></trkpt><trkpt lat="40.6884407" lon="-3.9813327"><ele>1098.8000000000002</ele><time>2026-05-04T10:38:39.628Z</time></trkpt><trkpt lat="40.6884172" lon="-3.9811965"><ele>1097.2</ele><time>2026-05-04T10:38:40.628Z</time></trkpt><trkpt lat="40.6883844" lon="-3.9810712"><ele>1095.6000000000001</ele><time>2026-05-04T10:38:41.628Z</time></trkpt><trkpt lat="40.6883451" lon="-3.9809624"><ele>1094.0</ele><time>2026-05-04T10:38:42.628Z</time></trkpt><trkpt lat="40.6882891" lon="-3.9808816"><ele>1092.6666666666667</ele><time>2026-05-04T10:38:43.628Z</time></trkpt><trkpt lat="40.6882177" lon="-3.9808261"><ele>1091.3333333333335</ele><time>2026-05-04T10:38:44.628Z</time></trkpt><trkpt lat="40.688144" lon="-3.980773"><ele>1090.0</ele><time>2026-05-04T10:38:45.628Z</time></trkpt><trkpt lat="40.6880761" lon="-3.9807214"><ele>1088.6666666666667</ele><time>2026-05-04T10:38:46.628Z</time></trkpt><trkpt lat="40.688012" lon="-3.9806694"><ele>1087.3333333333333</ele><time>2026-05-04T10:38:47.628Z</time></trkpt><trkpt lat="40.6879454" lon="-3.9806168"><ele>1086.0</ele><time>2026-05-04T10:38:48.628Z</time></trkpt><trkpt lat="40.687894" lon="-3.9805525"><ele>1086.0</ele><time>2026-05-04T10:38:49.628Z</time></trkpt><trkpt lat="40.6878504" lon="-3.9804877"><ele>1086.0</ele><time>2026-05-04T10:38:50.628Z</time></trkpt><trkpt lat="40.6877938" lon="-3.9804021"><ele>1086.0</ele><time>2026-05-04T10:38:52.628Z</time></trkpt><trkpt lat="40.6877531" lon="-3.9803237"><ele>1086.0</ele><time>2026-05-04T10:38:54.629Z</time></trkpt><trkpt lat="40.6877074" lon="-3.9802371"><ele>1086.0</ele><time>2026-05-04T10:38:56.628Z</time></trkpt><trkpt lat="40.6876522" lon="-3.9801625"><ele>1086.0</ele><time>2026-05-04T10:38:59.628Z</time></trkpt><trkpt lat="40.6876087" lon="-3.980087"><ele>1084.2</ele><time>2026-05-04T10:39:02.629Z</time></trkpt><trkpt lat="40.6875558" lon="-3.9800118"><ele>1082.3999999999999</ele><time>2026-05-04T10:39:04.628Z</time></trkpt><trkpt lat="40.6874831" lon="-3.9799347"><ele>1080.6</ele><time>2026-05-04T10:39:06.628Z</time></trkpt><trkpt lat="40.6874011" lon="-3.979848"><ele>1078.8</ele><time>2026-05-04T10:39:08.629Z</time></trkpt><trkpt lat="40.6873203" lon="-3.9797628"><ele>1077.0</ele><time>2026-05-04T10:39:10.628Z</time></trkpt><trkpt lat="40.6872412" lon="-3.9796884"><ele>1077.0</ele><time>2026-05-04T10:39:12.628Z</time></trkpt><trkpt lat="40.6871562" lon="-3.979631"><ele>1077.0</ele><time>2026-05-04T10:39:14.628Z</time></trkpt><trkpt lat="40.6870739" lon="-3.9795725"><ele>1077.0</ele><time>2026-05-04T10:39:16.628Z</time></trkpt><trkpt lat="40.6870441" lon="-3.9794723"><ele>1077.0</ele><time>2026-05-04T10:39:19.629Z</time></trkpt><trkpt lat="40.687123" lon="-3.9794206"><ele>1077.0</ele><time>2026-05-04T10:39:22.628Z</time></trkpt><trkpt lat="40.6871978" lon="-3.9794466"><ele>1077.0</ele><time>2026-05-04T10:39:24.628Z</time></trkpt><trkpt lat="40.6873005" lon="-3.9794666"><ele>1077.0</ele><time>2026-05-04T10:39:26.628Z</time></trkpt><trkpt lat="40.6873721" lon="-3.9794866"><ele>1077.0</ele><time>2026-05-04T10:39:28.628Z</time></trkpt><trkpt lat="40.6874767" lon="-3.9795081"><ele>1077.0</ele><time>2026-05-04T10:39:30.628Z</time></trkpt><trkpt lat="40.6875866" lon="-3.979524"><ele>1077.0</ele><time>2026-05-04T10:39:32.628Z</time></trkpt><trkpt lat="40.6876939" lon="-3.9795485"><ele>1077.0</ele><time>2026-05-04T10:39:34.628Z</time></trkpt><trkpt lat="40.6878044" lon="-3.9795711"><ele>1077.2</ele><time>2026-05-04T10:39:36.628Z</time></trkpt><trkpt lat="40.6879258" lon="-3.9795845"><ele>1077.4</ele><time>2026-05-04T10:39:38.628Z</time></trkpt><trkpt lat="40.6880441" lon="-3.9796098"><ele>1077.6</ele><time>2026-05-04T10:39:40.629Z</time></trkpt><trkpt lat="40.688158" lon="-3.9796277"><ele>1077.8</ele><time>2026-05-04T10:39:42.628Z</time></trkpt><trkpt lat="40.688222" lon="-3.9796368"><ele>1078.0</ele><time>2026-05-04T10:39:43.628Z</time></trkpt><trkpt lat="40.6882954" lon="-3.9796463"><ele>1078.0</ele><time>2026-05-04T10:39:44.628Z</time></trkpt><trkpt lat="40.6883769" lon="-3.9796492"><ele>1078.0</ele><time>2026-05-04T10:39:45.628Z</time></trkpt><trkpt lat="40.6884641" lon="-3.9796484"><ele>1078.0</ele><time>2026-05-04T10:39:46.628Z</time></trkpt><trkpt lat="40.688553" lon="-3.9796503"><ele>1078.0</ele><time>2026-05-04T10:39:47.628Z</time></trkpt><trkpt lat="40.6886525" lon="-3.9796355"><ele>1078.0</ele><time>2026-05-04T10:39:48.628Z</time></trkpt><trkpt lat="40.6887531" lon="-3.9796298"><ele>1078.4</ele><time>2026-05-04T10:39:49.629Z</time></trkpt><trkpt lat="40.688852" lon="-3.9796307"><ele>1078.8</ele><time>2026-05-04T10:39:50.628Z</time></trkpt><trkpt lat="40.6889439" lon="-3.9796433"><ele>1079.2</ele><time>2026-05-04T10:39:51.628Z</time></trkpt><trkpt lat="40.6890381" lon="-3.9796632"><ele>1079.6</ele><time>2026-05-04T10:39:52.628Z</time></trkpt><trkpt lat="40.6891314" lon="-3.979699"><ele>1080.0</ele><time>2026-05-04T10:39:53.628Z</time></trkpt><trkpt lat="40.6892224" lon="-3.9797188"><ele>1080.0</ele><time>2026-05-04T10:39:54.628Z</time></trkpt><trkpt lat="40.6893074" lon="-3.9797291"><ele>1080.0</ele><time>2026-05-04T10:39:55.628Z</time></trkpt><trkpt lat="40.689399" lon="-3.9797417"><ele>1080.0</ele><time>2026-05-04T10:39:56.628Z</time></trkpt><trkpt lat="40.6895045" lon="-3.9797537"><ele>1080.0</ele><time>2026-05-04T10:39:57.628Z</time></trkpt><trkpt lat="40.6896144" lon="-3.9797653"><ele>1080.0</ele><time>2026-05-04T10:39:58.628Z</time></trkpt><trkpt lat="40.6897199" lon="-3.9797745"><ele>1079.6</ele><time>2026-05-04T10:39:59.629Z</time></trkpt><trkpt lat="40.6898218" lon="-3.9797783"><ele>1079.2</ele><time>2026-05-04T10:40:00.628Z</time></trkpt><trkpt lat="40.6899173" lon="-3.9797751"><ele>1078.8</ele><time>2026-05-04T10:40:01.628Z</time></trkpt><trkpt lat="40.6900072" lon="-3.9797716"><ele>1078.4</ele><time>2026-05-04T10:40:02.628Z</time></trkpt><trkpt lat="40.6900945" lon="-3.9797855"><ele>1078.0</ele><time>2026-05-04T10:40:03.628Z</time></trkpt><trkpt lat="40.6901735" lon="-3.9797991"><ele>1078.0</ele><time>2026-05-04T10:40:04.628Z</time></trkpt><trkpt lat="40.6902476" lon="-3.9797864"><ele>1078.0</ele><time>2026-05-04T10:40:05.628Z</time></trkpt><trkpt lat="40.6903085" lon="-3.9797613"><ele>1078.0</ele><time>2026-05-04T10:40:06.628Z</time></trkpt><trkpt lat="40.6903691" lon="-3.97971"><ele>1078.0</ele><time>2026-05-04T10:40:07.629Z</time></trkpt><trkpt lat="40.6904308" lon="-3.9796374"><ele>1078.0</ele><time>2026-05-04T10:40:08.629Z</time></trkpt><trkpt lat="40.6904947" lon="-3.9795863"><ele>1078.0</ele><time>2026-05-04T10:40:09.628Z</time></trkpt><trkpt lat="40.6905651" lon="-3.979543"><ele>1078.0</ele><time>2026-05-04T10:40:10.628Z</time></trkpt><trkpt lat="40.6906329" lon="-3.9795098"><ele>1078.3333333333333</ele><time>2026-05-04T10:40:11.628Z</time></trkpt><trkpt lat="40.6906982" lon="-3.9794649"><ele>1078.6666666666665</ele><time>2026-05-04T10:40:12.628Z</time></trkpt><trkpt lat="40.690759" lon="-3.9794016"><ele>1079.0</ele><time>2026-05-04T10:40:13.628Z</time></trkpt><trkpt lat="40.6908193" lon="-3.9793231"><ele>1079.3333333333333</ele><time>2026-05-04T10:40:14.629Z</time></trkpt><trkpt lat="40.6908785" lon="-3.9792305"><ele>1079.6666666666667</ele><time>2026-05-04T10:40:15.628Z</time></trkpt><trkpt lat="40.6909504" lon="-3.9791558"><ele>1080.0</ele><time>2026-05-04T10:40:16.628Z</time></trkpt><trkpt lat="40.6910348" lon="-3.9791044"><ele>1076.5</ele><time>2026-05-04T10:40:17.628Z</time></trkpt><trkpt lat="40.6911388" lon="-3.9790655"><ele>1073.0</ele><time>2026-05-04T10:40:18.629Z</time></trkpt><trkpt lat="40.6912525" lon="-3.9790234"><ele>1069.5</ele><time>2026-05-04T10:40:19.628Z</time></trkpt><trkpt lat="40.6913644" lon="-3.9789977"><ele>1066.0</ele><time>2026-05-04T10:40:20.628Z</time></trkpt><trkpt lat="40.6914757" lon="-3.9789611"><ele>1066.0</ele><time>2026-05-04T10:40:21.628Z</time></trkpt><trkpt lat="40.6915705" lon="-3.9789062"><ele>1066.0</ele><time>2026-05-04T10:40:22.629Z</time></trkpt><trkpt lat="40.691655" lon="-3.9788223"><ele>1066.0</ele><time>2026-05-04T10:40:23.628Z</time></trkpt><trkpt lat="40.6917442" lon="-3.9787433"><ele>1066.0</ele><time>2026-05-04T10:40:24.628Z</time></trkpt><trkpt lat="40.6918295" lon="-3.9786624"><ele>1066.0</ele><time>2026-05-04T10:40:25.628Z</time></trkpt><trkpt lat="40.6919103" lon="-3.9785637"><ele>1066.5</ele><time>2026-05-04T10:40:26.628Z</time></trkpt><trkpt lat="40.6919979" lon="-3.9784458"><ele>1067.0</ele><time>2026-05-04T10:40:27.628Z</time></trkpt><trkpt lat="40.6920878" lon="-3.9783331"><ele>1067.5</ele><time>2026-05-04T10:40:28.628Z</time></trkpt><trkpt lat="40.6921779" lon="-3.978225"><ele>1068.0</ele><time>2026-05-04T10:40:29.628Z</time></trkpt><trkpt lat="40.6922614" lon="-3.9781157"><ele>1066.8</ele><time>2026-05-04T10:40:30.629Z</time></trkpt><trkpt lat="40.6923395" lon="-3.9780071"><ele>1065.6</ele><time>2026-05-04T10:40:31.628Z</time></trkpt><trkpt lat="40.6924153" lon="-3.9778945"><ele>1064.4</ele><time>2026-05-04T10:40:32.629Z</time></trkpt><trkpt lat="40.6924873" lon="-3.9777796"><ele>1063.2</ele><time>2026-05-04T10:40:33.628Z</time></trkpt><trkpt lat="40.6925659" lon="-3.9776865"><ele>1062.0</ele><time>2026-05-04T10:40:34.628Z</time></trkpt><trkpt lat="40.6926491" lon="-3.9776099"><ele>1062.0</ele><time>2026-05-04T10:40:35.628Z</time></trkpt><trkpt lat="40.6927436" lon="-3.9775277"><ele>1062.0</ele><time>2026-05-04T10:40:36.628Z</time></trkpt><trkpt lat="40.6928426" lon="-3.9774398"><ele>1062.0</ele><time>2026-05-04T10:40:37.628Z</time></trkpt><trkpt lat="40.6929407" lon="-3.9773414"><ele>1062.0</ele><time>2026-05-04T10:40:38.628Z</time></trkpt><trkpt lat="40.6930312" lon="-3.9772512"><ele>1061.2</ele><time>2026-05-04T10:40:39.628Z</time></trkpt><trkpt lat="40.6931071" lon="-3.9771514"><ele>1060.4</ele><time>2026-05-04T10:40:40.629Z</time></trkpt><trkpt lat="40.693173" lon="-3.9770421"><ele>1059.6</ele><time>2026-05-04T10:40:41.629Z</time></trkpt><trkpt lat="40.6932376" lon="-3.97694"><ele>1058.8</ele><time>2026-05-04T10:40:42.628Z</time></trkpt><trkpt lat="40.693305" lon="-3.976848"><ele>1058.0</ele><time>2026-05-04T10:40:43.629Z</time></trkpt><trkpt lat="40.6933602" lon="-3.9767715"><ele>1058.0</ele><time>2026-05-04T10:40:44.628Z</time></trkpt><trkpt lat="40.6934047" lon="-3.9767067"><ele>1058.0</ele><time>2026-05-04T10:40:45.628Z</time></trkpt><trkpt lat="40.6934224" lon="-3.976589"><ele>1058.0</ele><time>2026-05-04T10:40:47.628Z</time></trkpt><trkpt lat="40.6933717" lon="-3.9764704"><ele>1058.0</ele><time>2026-05-04T10:40:49.628Z</time></trkpt><trkpt lat="40.693248" lon="-3.9764133"><ele>1058.0</ele><time>2026-05-04T10:40:51.628Z</time></trkpt><trkpt lat="40.6931592" lon="-3.9764162"><ele>1056.3333333333335</ele><time>2026-05-04T10:40:52.628Z</time></trkpt><trkpt lat="40.6930899" lon="-3.9763948"><ele>1054.6666666666667</ele><time>2026-05-04T10:40:53.628Z</time></trkpt><trkpt lat="40.6930305" lon="-3.9763601"><ele>1053.0</ele><time>2026-05-04T10:40:54.628Z</time></trkpt><trkpt lat="40.6930121" lon="-3.9761955"><ele>1051.3333333333333</ele><time>2026-05-04T10:40:56.628Z</time></trkpt><trkpt lat="40.6930376" lon="-3.9761066"><ele>1049.6666666666665</ele><time>2026-05-04T10:40:57.628Z</time></trkpt><trkpt lat="40.6930858" lon="-3.9760141"><ele>1048.0</ele><time>2026-05-04T10:40:58.629Z</time></trkpt><trkpt lat="40.6931433" lon="-3.9759266"><ele>1046.6</ele><time>2026-05-04T10:40:59.628Z</time></trkpt><trkpt lat="40.6931999" lon="-3.975831"><ele>1045.1999999999998</ele><time>2026-05-04T10:41:00.628Z</time></trkpt><trkpt lat="40.6932326" lon="-3.9757482"><ele>1043.8</ele><time>2026-05-04T10:41:01.629Z</time></trkpt><trkpt lat="40.6932717" lon="-3.9756246"><ele>1042.3999999999999</ele><time>2026-05-04T10:41:03.628Z</time></trkpt><trkpt lat="40.69333" lon="-3.9755218"><ele>1041.0</ele><time>2026-05-04T10:41:05.628Z</time></trkpt><trkpt lat="40.6934308" lon="-3.9754161"><ele>1041.0</ele><time>2026-05-04T10:41:07.628Z</time></trkpt><trkpt lat="40.6934858" lon="-3.9753623"><ele>1041.0</ele><time>2026-05-04T10:41:08.628Z</time></trkpt><trkpt lat="40.6935307" lon="-3.975289"><ele>1041.0</ele><time>2026-05-04T10:41:09.628Z</time></trkpt><trkpt lat="40.6935591" lon="-3.9751891"><ele>1041.0</ele><time>2026-05-04T10:41:10.628Z</time></trkpt><trkpt lat="40.6935786" lon="-3.9750737"><ele>1041.0</ele><time>2026-05-04T10:41:11.628Z</time></trkpt><trkpt lat="40.6935987" lon="-3.974953"><ele>1041.0</ele><time>2026-05-04T10:41:12.628Z</time></trkpt><trkpt lat="40.693634" lon="-3.9748383"><ele>1039.8333333333333</ele><time>2026-05-04T10:41:13.629Z</time></trkpt><trkpt lat="40.6936658" lon="-3.9747223"><ele>1038.6666666666667</ele><time>2026-05-04T10:41:14.628Z</time></trkpt><trkpt lat="40.6937055" lon="-3.9746065"><ele>1037.5</ele><time>2026-05-04T10:41:15.628Z</time></trkpt><trkpt lat="40.6937428" lon="-3.9745003"><ele>1036.3333333333335</ele><time>2026-05-04T10:41:16.628Z</time></trkpt><trkpt lat="40.6937855" lon="-3.9743999"><ele>1035.1666666666667</ele><time>2026-05-04T10:41:17.628Z</time></trkpt><trkpt lat="40.6938292" lon="-3.9743152"><ele>1034.0</ele><time>2026-05-04T10:41:18.628Z</time></trkpt><trkpt lat="40.6938762" lon="-3.9742413"><ele>1032.6666666666667</ele><time>2026-05-04T10:41:19.628Z</time></trkpt><trkpt lat="40.6939329" lon="-3.9741465"><ele>1031.3333333333335</ele><time>2026-05-04T10:41:21.629Z</time></trkpt><trkpt lat="40.6939891" lon="-3.9740693"><ele>1030.0</ele><time>2026-05-04T10:41:24.628Z</time></trkpt><trkpt lat="40.694035" lon="-3.9740002"><ele>1028.6666666666667</ele><time>2026-05-04T10:41:31.628Z</time></trkpt><trkpt lat="40.6940668" lon="-3.9738979"><ele>1027.3333333333333</ele><time>2026-05-04T10:41:33.628Z</time></trkpt><trkpt lat="40.6941236" lon="-3.973801"><ele>1026.0</ele><time>2026-05-04T10:41:35.628Z</time></trkpt><trkpt lat="40.6941874" lon="-3.97372"><ele>1026.0</ele><time>2026-05-04T10:41:37.628Z</time></trkpt><trkpt lat="40.6942753" lon="-3.9735927"><ele>1026.0</ele><time>2026-05-04T10:41:39.628Z</time></trkpt><trkpt lat="40.6943282" lon="-3.9735052"><ele>1026.0</ele><time>2026-05-04T10:41:40.628Z</time></trkpt><trkpt lat="40.6943832" lon="-3.9734123"><ele>1026.0</ele><time>2026-05-04T10:41:41.629Z</time></trkpt><trkpt lat="40.6944308" lon="-3.9733126"><ele>1026.0</ele><time>2026-05-04T10:41:42.628Z</time></trkpt><trkpt lat="40.6944815" lon="-3.9732092"><ele>1026.0</ele><time>2026-05-04T10:41:43.629Z</time></trkpt><trkpt lat="40.6945458" lon="-3.9730902"><ele>1026.0</ele><time>2026-05-04T10:41:44.628Z</time></trkpt><trkpt lat="40.6946157" lon="-3.9729653"><ele>1026.0</ele><time>2026-05-04T10:41:45.628Z</time></trkpt><trkpt lat="40.6946857" lon="-3.9728473"><ele>1026.0</ele><time>2026-05-04T10:41:46.628Z</time></trkpt><trkpt lat="40.6947509" lon="-3.9727222"><ele>1026.0</ele><time>2026-05-04T10:41:47.628Z</time></trkpt><trkpt lat="40.6948094" lon="-3.9725875"><ele>1026.0</ele><time>2026-05-04T10:41:48.629Z</time></trkpt><trkpt lat="40.6948652" lon="-3.9724596"><ele>1026.0</ele><time>2026-05-04T10:41:49.628Z</time></trkpt><trkpt lat="40.6949185" lon="-3.9723253"><ele>1026.0</ele><time>2026-05-04T10:41:50.628Z</time></trkpt><trkpt lat="40.6949748" lon="-3.9721886"><ele>1024.75</ele><time>2026-05-04T10:41:51.629Z</time></trkpt><trkpt lat="40.6950263" lon="-3.972046"><ele>1023.5</ele><time>2026-05-04T10:41:52.628Z</time></trkpt><trkpt lat="40.6950731" lon="-3.9719069"><ele>1022.25</ele><time>2026-05-04T10:41:53.628Z</time></trkpt><trkpt lat="40.6951083" lon="-3.9717728"><ele>1021.0</ele><time>2026-05-04T10:41:54.628Z</time></trkpt><trkpt lat="40.6951409" lon="-3.9716351"><ele>1020.5</ele><time>2026-05-04T10:41:55.628Z</time></trkpt><trkpt lat="40.6951637" lon="-3.9714832"><ele>1020.0</ele><time>2026-05-04T10:41:56.628Z</time></trkpt><trkpt lat="40.6951817" lon="-3.9713296"><ele>1019.5</ele><time>2026-05-04T10:41:57.628Z</time></trkpt><trkpt lat="40.6952066" lon="-3.9711757"><ele>1019.0</ele><time>2026-05-04T10:41:58.628Z</time></trkpt><trkpt lat="40.6952575" lon="-3.971026"><ele>1019.0</ele><time>2026-05-04T10:41:59.628Z</time></trkpt><trkpt lat="40.6953311" lon="-3.9709023"><ele>1019.0000000000001</ele><time>2026-05-04T10:42:00.628Z</time></trkpt><trkpt lat="40.6954142" lon="-3.9707934"><ele>1019.0000000000001</ele><time>2026-05-04T10:42:01.628Z</time></trkpt><trkpt lat="40.6954922" lon="-3.970687"><ele>1019.0</ele><time>2026-05-04T10:42:02.628Z</time></trkpt><trkpt lat="40.6955613" lon="-3.9705934"><ele>1019.0</ele><time>2026-05-04T10:42:03.629Z</time></trkpt><trkpt lat="40.695619" lon="-3.970506"><ele>1018.857142857143</ele><time>2026-05-04T10:42:04.629Z</time></trkpt><trkpt lat="40.6956791" lon="-3.970429"><ele>1018.7142857142858</ele><time>2026-05-04T10:42:05.628Z</time></trkpt><trkpt lat="40.6957368" lon="-3.9703598"><ele>1018.5714285714286</ele><time>2026-05-04T10:42:06.628Z</time></trkpt><trkpt lat="40.6957866" lon="-3.9702918"><ele>1018.4285714285714</ele><time>2026-05-04T10:42:07.628Z</time></trkpt><trkpt lat="40.6958326" lon="-3.9702209"><ele>1018.2857142857142</ele><time>2026-05-04T10:42:08.628Z</time></trkpt><trkpt lat="40.6958698" lon="-3.9701475"><ele>1018.142857142857</ele><time>2026-05-04T10:42:09.628Z</time></trkpt><trkpt lat="40.6959027" lon="-3.9700698"><ele>1017.9999999999999</ele><time>2026-05-04T10:42:10.628Z</time></trkpt><trkpt lat="40.6959335" lon="-3.9699928"><ele>1017.8333333333333</ele><time>2026-05-04T10:42:11.628Z</time></trkpt><trkpt lat="40.6959698" lon="-3.9699137"><ele>1017.6666666666666</ele><time>2026-05-04T10:42:12.628Z</time></trkpt><trkpt lat="40.6960126" lon="-3.969838"><ele>1017.5</ele><time>2026-05-04T10:42:13.628Z</time></trkpt><trkpt lat="40.6960603" lon="-3.9697589"><ele>1017.3333333333333</ele><time>2026-05-04T10:42:14.628Z</time></trkpt><trkpt lat="40.6961065" lon="-3.9696743"><ele>1017.1666666666666</ele><time>2026-05-04T10:42:15.628Z</time></trkpt><trkpt lat="40.6961499" lon="-3.9695743"><ele>1017.0</ele><time>2026-05-04T10:42:16.628Z</time></trkpt><trkpt lat="40.6961887" lon="-3.9694699"><ele>1016.8</ele><time>2026-05-04T10:42:17.628Z</time></trkpt><trkpt lat="40.696221" lon="-3.9693632"><ele>1016.6</ele><time>2026-05-04T10:42:18.628Z</time></trkpt><trkpt lat="40.6962527" lon="-3.9692494"><ele>1016.3999999999999</ele><time>2026-05-04T10:42:19.628Z</time></trkpt><trkpt lat="40.6962778" lon="-3.9691305"><ele>1016.1999999999999</ele><time>2026-05-04T10:42:20.628Z</time></trkpt><trkpt lat="40.696296" lon="-3.9689972"><ele>1016.0</ele><time>2026-05-04T10:42:21.628Z</time></trkpt><trkpt lat="40.696309" lon="-3.9688457"><ele>1015.25</ele><time>2026-05-04T10:42:22.628Z</time></trkpt><trkpt lat="40.6963121" lon="-3.9686975"><ele>1014.5</ele><time>2026-05-04T10:42:23.628Z</time></trkpt><trkpt lat="40.6963179" lon="-3.968545"><ele>1013.75</ele><time>2026-05-04T10:42:24.628Z</time></trkpt><trkpt lat="40.6963299" lon="-3.9683917"><ele>1013.0</ele><time>2026-05-04T10:42:25.628Z</time></trkpt><trkpt lat="40.6963416" lon="-3.9682509"><ele>1012.4</ele><time>2026-05-04T10:42:26.628Z</time></trkpt><trkpt lat="40.6963454" lon="-3.9681091"><ele>1011.8</ele><time>2026-05-04T10:42:27.628Z</time></trkpt><trkpt lat="40.6963324" lon="-3.9679675"><ele>1011.2</ele><time>2026-05-04T10:42:28.628Z</time></trkpt><trkpt lat="40.6963179" lon="-3.9678196"><ele>1010.6</ele><time>2026-05-04T10:42:29.628Z</time></trkpt><trkpt lat="40.6963124" lon="-3.9676725"><ele>1010.0</ele><time>2026-05-04T10:42:30.628Z</time></trkpt><trkpt lat="40.6963178" lon="-3.9675146"><ele>1010.0</ele><time>2026-05-04T10:42:31.628Z</time></trkpt><trkpt lat="40.696341" lon="-3.967362"><ele>1010.0</ele><time>2026-05-04T10:42:32.628Z</time></trkpt><trkpt lat="40.6963708" lon="-3.9672082"><ele>1010.0</ele><time>2026-05-04T10:42:33.628Z</time></trkpt><trkpt lat="40.6963935" lon="-3.9670532"><ele>1010.0</ele><time>2026-05-04T10:42:34.628Z</time></trkpt><trkpt lat="40.6964142" lon="-3.9668972"><ele>1010.0</ele><time>2026-05-04T10:42:35.628Z</time></trkpt><trkpt lat="40.6964339" lon="-3.9667433"><ele>1010.0</ele><time>2026-05-04T10:42:36.628Z</time></trkpt><trkpt lat="40.6964534" lon="-3.9665959"><ele>1010.0</ele><time>2026-05-04T10:42:37.628Z</time></trkpt><trkpt lat="40.6964749" lon="-3.9664626"><ele>1010.0</ele><time>2026-05-04T10:42:38.629Z</time></trkpt><trkpt lat="40.6965076" lon="-3.9663254"><ele>1010.0</ele><time>2026-05-04T10:42:39.628Z</time></trkpt><trkpt lat="40.6965393" lon="-3.9661884"><ele>1009.6</ele><time>2026-05-04T10:42:40.628Z</time></trkpt><trkpt lat="40.6965682" lon="-3.9660489"><ele>1009.2</ele><time>2026-05-04T10:42:41.628Z</time></trkpt><trkpt lat="40.6965944" lon="-3.9659106"><ele>1008.8</ele><time>2026-05-04T10:42:42.628Z</time></trkpt><trkpt lat="40.696615" lon="-3.9657694"><ele>1008.4</ele><time>2026-05-04T10:42:43.629Z</time></trkpt><trkpt lat="40.6966457" lon="-3.9656366"><ele>1008.0</ele><time>2026-05-04T10:42:44.628Z</time></trkpt><trkpt lat="40.6966761" lon="-3.9654957"><ele>1007.8</ele><time>2026-05-04T10:42:45.628Z</time></trkpt><trkpt lat="40.6967099" lon="-3.965352"><ele>1007.5999999999999</ele><time>2026-05-04T10:42:46.628Z</time></trkpt><trkpt lat="40.6967463" lon="-3.9652172"><ele>1007.4000000000001</ele><time>2026-05-04T10:42:47.628Z</time></trkpt><trkpt lat="40.6967901" lon="-3.9650951"><ele>1007.2</ele><time>2026-05-04T10:42:48.628Z</time></trkpt><trkpt lat="40.6968338" lon="-3.964971"><ele>1007.0</ele><time>2026-05-04T10:42:49.628Z</time></trkpt><trkpt lat="40.6968733" lon="-3.9648639"><ele>1006.8</ele><time>2026-05-04T10:42:50.628Z</time></trkpt><trkpt lat="40.6969098" lon="-3.9647544"><ele>1006.6</ele><time>2026-05-04T10:42:51.628Z</time></trkpt><trkpt lat="40.6969271" lon="-3.9646571"><ele>1006.3999999999999</ele><time>2026-05-04T10:42:52.628Z</time></trkpt><trkpt lat="40.6969223" lon="-3.9645051"><ele>1006.1999999999999</ele><time>2026-05-04T10:42:54.628Z</time></trkpt><trkpt lat="40.696877" lon="-3.964377"><ele>1006.0</ele><time>2026-05-04T10:42:56.628Z</time></trkpt><trkpt lat="40.6968392" lon="-3.9642509"><ele>1005.5999999999999</ele><time>2026-05-04T10:42:58.628Z</time></trkpt><trkpt lat="40.6968335" lon="-3.9641005"><ele>1005.1999999999999</ele><time>2026-05-04T10:43:00.628Z</time></trkpt><trkpt lat="40.6968772" lon="-3.96395"><ele>1004.8000000000001</ele><time>2026-05-04T10:43:02.628Z</time></trkpt><trkpt lat="40.6969272" lon="-3.9638788"><ele>1004.4000000000001</ele><time>2026-05-04T10:43:03.628Z</time></trkpt><trkpt lat="40.6969911" lon="-3.9638091"><ele>1004.0</ele><time>2026-05-04T10:43:04.628Z</time></trkpt><trkpt lat="40.697059" lon="-3.9637285"><ele>1004.0</ele><time>2026-05-04T10:43:05.628Z</time></trkpt><trkpt lat="40.697123" lon="-3.9636437"><ele>1004.0000000000001</ele><time>2026-05-04T10:43:06.628Z</time></trkpt><trkpt lat="40.6971779" lon="-3.9635531"><ele>1004.0000000000001</ele><time>2026-05-04T10:43:07.629Z</time></trkpt><trkpt lat="40.6972257" lon="-3.9634566"><ele>1004.0</ele><time>2026-05-04T10:43:08.628Z</time></trkpt><trkpt lat="40.6972753" lon="-3.9633548"><ele>1004.0</ele><time>2026-05-04T10:43:09.628Z</time></trkpt><trkpt lat="40.6973218" lon="-3.9632444"><ele>1002.8333333333334</ele><time>2026-05-04T10:43:10.629Z</time></trkpt><trkpt lat="40.6973764" lon="-3.9631315"><ele>1001.6666666666667</ele><time>2026-05-04T10:43:11.629Z</time></trkpt><trkpt lat="40.6974314" lon="-3.9630268"><ele>1000.5</ele><time>2026-05-04T10:43:12.629Z</time></trkpt><trkpt lat="40.6974727" lon="-3.9629324"><ele>999.3333333333333</ele><time>2026-05-04T10:43:13.628Z</time></trkpt><trkpt lat="40.6975003" lon="-3.9628451"><ele>998.1666666666666</ele><time>2026-05-04T10:43:14.628Z</time></trkpt><trkpt lat="40.6975089" lon="-3.9627542"><ele>997.0</ele><time>2026-05-04T10:43:15.628Z</time></trkpt><trkpt lat="40.6975007" lon="-3.9626687"><ele>996.2</ele><time>2026-05-04T10:43:16.628Z</time></trkpt><trkpt lat="40.697484" lon="-3.9625161"><ele>995.4000000000001</ele><time>2026-05-04T10:43:18.628Z</time></trkpt><trkpt lat="40.6974421" lon="-3.9623969"><ele>994.5999999999999</ele><time>2026-05-04T10:43:20.628Z</time></trkpt><trkpt lat="40.6973885" lon="-3.9622811"><ele>993.8</ele><time>2026-05-04T10:43:22.628Z</time></trkpt><trkpt lat="40.6972864" lon="-3.9621876"><ele>993.0</ele><time>2026-05-04T10:43:24.628Z</time></trkpt><trkpt lat="40.6972121" lon="-3.962155"><ele>993.0</ele><time>2026-05-04T10:43:25.628Z</time></trkpt><trkpt lat="40.6971376" lon="-3.962118"><ele>993.0</ele><time>2026-05-04T10:43:26.628Z</time></trkpt><trkpt lat="40.697068" lon="-3.9620732"><ele>993.0</ele><time>2026-05-04T10:43:27.628Z</time></trkpt><trkpt lat="40.6970016" lon="-3.9620317"><ele>993.0</ele><time>2026-05-04T10:43:28.628Z</time></trkpt><trkpt lat="40.6969392" lon="-3.9619989"><ele>993.0</ele><time>2026-05-04T10:43:29.628Z</time></trkpt><trkpt lat="40.6968387" lon="-3.9619529"><ele>993.0</ele><time>2026-05-04T10:43:31.628Z</time></trkpt><trkpt lat="40.6967621" lon="-3.9619222"><ele>992.3333333333334</ele><time>2026-05-04T10:43:33.628Z</time></trkpt><trkpt lat="40.6967222" lon="-3.9618116"><ele>991.6666666666667</ele><time>2026-05-04T10:43:41.629Z</time></trkpt><trkpt lat="40.6967691" lon="-3.9617499"><ele>991.0</ele><time>2026-05-04T10:43:42.628Z</time></trkpt><trkpt lat="40.6968363" lon="-3.9617006"><ele>990.3333333333334</ele><time>2026-05-04T10:43:43.629Z</time></trkpt><trkpt lat="40.6969055" lon="-3.9616526"><ele>989.6666666666667</ele><time>2026-05-04T10:43:44.629Z</time></trkpt><trkpt lat="40.6969853" lon="-3.9615872"><ele>989.0</ele><time>2026-05-04T10:43:45.628Z</time></trkpt><trkpt lat="40.6970734" lon="-3.9615148"><ele>988.8000000000001</ele><time>2026-05-04T10:43:46.628Z</time></trkpt><trkpt lat="40.6971552" lon="-3.9614467"><ele>988.6000000000001</ele><time>2026-05-04T10:43:47.629Z</time></trkpt><trkpt lat="40.6972364" lon="-3.9613838"><ele>988.4</ele><time>2026-05-04T10:43:48.628Z</time></trkpt><trkpt lat="40.6973293" lon="-3.9613146"><ele>988.2</ele><time>2026-05-04T10:43:49.628Z</time></trkpt><trkpt lat="40.6974335" lon="-3.9612384"><ele>988.0</ele><time>2026-05-04T10:43:50.628Z</time></trkpt><trkpt lat="40.6975448" lon="-3.9611615"><ele>988.0</ele><time>2026-05-04T10:43:51.628Z</time></trkpt><trkpt lat="40.6976611" lon="-3.9610937"><ele>988.0</ele><time>2026-05-04T10:43:52.628Z</time></trkpt><trkpt lat="40.6977802" lon="-3.9610448"><ele>988.0</ele><time>2026-05-04T10:43:53.628Z</time></trkpt><trkpt lat="40.6979059" lon="-3.9610007"><ele>988.0</ele><time>2026-05-04T10:43:54.629Z</time></trkpt><trkpt lat="40.6980344" lon="-3.9609603"><ele>987.75</ele><time>2026-05-04T10:43:55.629Z</time></trkpt><trkpt lat="40.6981669" lon="-3.9609217"><ele>987.5</ele><time>2026-05-04T10:43:56.628Z</time></trkpt><trkpt lat="40.6982974" lon="-3.9608839"><ele>987.25</ele><time>2026-05-04T10:43:57.628Z</time></trkpt><trkpt lat="40.6984348" lon="-3.9608413"><ele>987.0</ele><time>2026-05-04T10:43:58.629Z</time></trkpt><trkpt lat="40.6985755" lon="-3.9607951"><ele>987.5</ele><time>2026-05-04T10:43:59.628Z</time></trkpt><trkpt lat="40.6987101" lon="-3.9607488"><ele>988.0</ele><time>2026-05-04T10:44:00.628Z</time></trkpt><trkpt lat="40.6988376" lon="-3.9606892"><ele>988.5</ele><time>2026-05-04T10:44:01.628Z</time></trkpt><trkpt lat="40.6989581" lon="-3.9606103"><ele>989.0</ele><time>2026-05-04T10:44:02.628Z</time></trkpt><trkpt lat="40.6990681" lon="-3.9605223"><ele>989.0</ele><time>2026-05-04T10:44:03.629Z</time></trkpt><trkpt lat="40.6991781" lon="-3.9604207"><ele>989.0</ele><time>2026-05-04T10:44:04.628Z</time></trkpt><trkpt lat="40.6992833" lon="-3.9603055"><ele>989.0</ele><time>2026-05-04T10:44:05.628Z</time></trkpt><trkpt lat="40.6993886" lon="-3.9601841"><ele>989.0</ele><time>2026-05-04T10:44:06.628Z</time></trkpt><trkpt lat="40.6994995" lon="-3.9600668"><ele>989.0</ele><time>2026-05-04T10:44:07.628Z</time></trkpt><trkpt lat="40.6996171" lon="-3.959956"><ele>989.0</ele><time>2026-05-04T10:44:08.628Z</time></trkpt><trkpt lat="40.6997401" lon="-3.9598526"><ele>989.0</ele><time>2026-05-04T10:44:09.628Z</time></trkpt><trkpt lat="40.6998632" lon="-3.9597606"><ele>989.0</ele><time>2026-05-04T10:44:10.628Z</time></trkpt><trkpt lat="40.6999845" lon="-3.9596789"><ele>989.0</ele><time>2026-05-04T10:44:11.629Z</time></trkpt><trkpt lat="40.7001098" lon="-3.9596038"><ele>989.0</ele><time>2026-05-04T10:44:12.629Z</time></trkpt><trkpt lat="40.7002363" lon="-3.959531"><ele>989.0</ele><time>2026-05-04T10:44:13.628Z</time></trkpt><trkpt lat="40.700365" lon="-3.9594619"><ele>989.0</ele><time>2026-05-04T10:44:14.628Z</time></trkpt><trkpt lat="40.7004984" lon="-3.9593956"><ele>989.0</ele><time>2026-05-04T10:44:15.628Z</time></trkpt><trkpt lat="40.7006392" lon="-3.9593277"><ele>989.0</ele><time>2026-05-04T10:44:16.628Z</time></trkpt><trkpt lat="40.7007808" lon="-3.9592612"><ele>989.0</ele><time>2026-05-04T10:44:17.628Z</time></trkpt><trkpt lat="40.7009204" lon="-3.9592003"><ele>989.0</ele><time>2026-05-04T10:44:18.629Z</time></trkpt><trkpt lat="40.7010557" lon="-3.959141"><ele>989.0</ele><time>2026-05-04T10:44:19.628Z</time></trkpt><trkpt lat="40.7011881" lon="-3.9590839"><ele>989.0</ele><time>2026-05-04T10:44:20.628Z</time></trkpt><trkpt lat="40.7013242" lon="-3.959023"><ele>989.0</ele><time>2026-05-04T10:44:21.628Z</time></trkpt><trkpt lat="40.7014607" lon="-3.9589634"><ele>989.0</ele><time>2026-05-04T10:44:22.628Z</time></trkpt><trkpt lat="40.7016044" lon="-3.9589032"><ele>989.0</ele><time>2026-05-04T10:44:23.628Z</time></trkpt><trkpt lat="40.7017506" lon="-3.958841"><ele>989.0</ele><time>2026-05-04T10:44:24.628Z</time></trkpt><trkpt lat="40.7018854" lon="-3.9587682"><ele>989.0</ele><time>2026-05-04T10:44:25.628Z</time></trkpt><trkpt lat="40.7020048" lon="-3.9586818"><ele>989.0</ele><time>2026-05-04T10:44:26.629Z</time></trkpt><trkpt lat="40.70211" lon="-3.9585668"><ele>989.25</ele><time>2026-05-04T10:44:27.629Z</time></trkpt><trkpt lat="40.7022043" lon="-3.9584219"><ele>989.5</ele><time>2026-05-04T10:44:28.628Z</time></trkpt><trkpt lat="40.702282" lon="-3.9582501"><ele>989.75</ele><time>2026-05-04T10:44:29.629Z</time></trkpt><trkpt lat="40.7023487" lon="-3.9580752"><ele>990.0</ele><time>2026-05-04T10:44:30.628Z</time></trkpt><trkpt lat="40.7024091" lon="-3.9579074"><ele>989.75</ele><time>2026-05-04T10:44:31.628Z</time></trkpt><trkpt lat="40.7024739" lon="-3.9577417"><ele>989.5</ele><time>2026-05-04T10:44:32.628Z</time></trkpt><trkpt lat="40.7025672" lon="-3.9575862"><ele>989.25</ele><time>2026-05-04T10:44:33.628Z</time></trkpt><trkpt lat="40.7026811" lon="-3.9574529"><ele>989.0</ele><time>2026-05-04T10:44:34.628Z</time></trkpt><trkpt lat="40.702807" lon="-3.9573329"><ele>989.0</ele><time>2026-05-04T10:44:35.628Z</time></trkpt><trkpt lat="40.7029434" lon="-3.9572229"><ele>989.0</ele><time>2026-05-04T10:44:36.629Z</time></trkpt><trkpt lat="40.7030813" lon="-3.9571185"><ele>989.0</ele><time>2026-05-04T10:44:37.628Z</time></trkpt><trkpt lat="40.7032134" lon="-3.9570002"><ele>989.0</ele><time>2026-05-04T10:44:38.629Z</time></trkpt><trkpt lat="40.7033332" lon="-3.9568667"><ele>989.0</ele><time>2026-05-04T10:44:39.628Z</time></trkpt><trkpt lat="40.7034494" lon="-3.9567267"><ele>989.0</ele><time>2026-05-04T10:44:40.628Z</time></trkpt><trkpt lat="40.7035614" lon="-3.9565815"><ele>987.6666666666667</ele><time>2026-05-04T10:44:41.629Z</time></trkpt><trkpt lat="40.7036708" lon="-3.9564406"><ele>986.3333333333333</ele><time>2026-05-04T10:44:42.628Z</time></trkpt><trkpt lat="40.7037821" lon="-3.9563031"><ele>985.0</ele><time>2026-05-04T10:44:43.628Z</time></trkpt><trkpt lat="40.7038906" lon="-3.9561677"><ele>985.0</ele><time>2026-05-04T10:44:44.628Z</time></trkpt><trkpt lat="40.7039944" lon="-3.956036"><ele>985.0</ele><time>2026-05-04T10:44:45.628Z</time></trkpt><trkpt lat="40.7040923" lon="-3.9559033"><ele>985.0</ele><time>2026-05-04T10:44:46.628Z</time></trkpt><trkpt lat="40.7041901" lon="-3.9557754"><ele>985.0</ele><time>2026-05-04T10:44:47.629Z</time></trkpt><trkpt lat="40.7042841" lon="-3.9556618"><ele>985.0</ele><time>2026-05-04T10:44:48.628Z</time></trkpt><trkpt lat="40.7043719" lon="-3.9555623"><ele>985.0</ele><time>2026-05-04T10:44:49.628Z</time></trkpt><trkpt lat="40.7044443" lon="-3.9554678"><ele>985.0</ele><time>2026-05-04T10:44:50.628Z</time></trkpt><trkpt lat="40.704508" lon="-3.9553734"><ele>985.0</ele><time>2026-05-04T10:44:51.629Z</time></trkpt><trkpt lat="40.7045553" lon="-3.955282"><ele>985.0</ele><time>2026-05-04T10:44:52.629Z</time></trkpt><trkpt lat="40.7045945" lon="-3.9551843"><ele>984.9999999999999</ele><time>2026-05-04T10:44:53.628Z</time></trkpt><trkpt lat="40.704638" lon="-3.9550981"><ele>985.0</ele><time>2026-05-04T10:44:54.628Z</time></trkpt><trkpt lat="40.7047044" lon="-3.9550525"><ele>985.0</ele><time>2026-05-04T10:44:55.628Z</time></trkpt><trkpt lat="40.7047766" lon="-3.955049"><ele>985.0</ele><time>2026-05-04T10:44:56.628Z</time></trkpt><trkpt lat="40.7048616" lon="-3.9550556"><ele>984.9999999999999</ele><time>2026-05-04T10:44:57.628Z</time></trkpt><trkpt lat="40.7049511" lon="-3.9550634"><ele>985.0</ele><time>2026-05-04T10:44:58.628Z</time></trkpt><trkpt lat="40.705046" lon="-3.9550584"><ele>985.0</ele><time>2026-05-04T10:44:59.629Z</time></trkpt><trkpt lat="40.7051432" lon="-3.9550397"><ele>985.0</ele><time>2026-05-04T10:45:00.629Z</time></trkpt><trkpt lat="40.7052401" lon="-3.955005"><ele>985.0</ele><time>2026-05-04T10:45:01.628Z</time></trkpt><trkpt lat="40.7053386" lon="-3.9549823"><ele>985.0</ele><time>2026-05-04T10:45:02.628Z</time></trkpt><trkpt lat="40.7054391" lon="-3.9549552"><ele>985.0</ele><time>2026-05-04T10:45:03.628Z</time></trkpt><trkpt lat="40.7055377" lon="-3.9549315"><ele>984.4999999999999</ele><time>2026-05-04T10:45:04.628Z</time></trkpt><trkpt lat="40.7056294" lon="-3.9549043"><ele>984.0</ele><time>2026-05-04T10:45:05.627Z</time></trkpt><trkpt lat="40.7057155" lon="-3.954883"><ele>983.5</ele><time>2026-05-04T10:45:06.627Z</time></trkpt><trkpt lat="40.7057915" lon="-3.9548492"><ele>983.0</ele><time>2026-05-04T10:45:07.627Z</time></trkpt><trkpt lat="40.7058591" lon="-3.9548038"><ele>982.4999999999999</ele><time>2026-05-04T10:45:08.627Z</time></trkpt><trkpt lat="40.7059248" lon="-3.9547306"><ele>982.0</ele><time>2026-05-04T10:45:09.627Z</time></trkpt><trkpt lat="40.7059832" lon="-3.9546317"><ele>982.0</ele><time>2026-05-04T10:45:10.627Z</time></trkpt><trkpt lat="40.70604" lon="-3.9545246"><ele>982.0</ele><time>2026-05-04T10:45:11.627Z</time></trkpt><trkpt lat="40.7061097" lon="-3.9544382"><ele>982.0</ele><time>2026-05-04T10:45:12.627Z</time></trkpt><trkpt lat="40.7061944" lon="-3.9543742"><ele>982.0</ele><time>2026-05-04T10:45:13.627Z</time></trkpt><trkpt lat="40.7062904" lon="-3.9543624"><ele>982.0</ele><time>2026-05-04T10:45:14.627Z</time></trkpt><trkpt lat="40.7063811" lon="-3.9543844"><ele>982.6</ele><time>2026-05-04T10:45:15.627Z</time></trkpt><trkpt lat="40.7064744" lon="-3.9544453"><ele>983.2</ele><time>2026-05-04T10:45:16.627Z</time></trkpt><trkpt lat="40.7065699" lon="-3.954503"><ele>983.8</ele><time>2026-05-04T10:45:17.627Z</time></trkpt><trkpt lat="40.7066745" lon="-3.9545383"><ele>984.4</ele><time>2026-05-04T10:45:18.627Z</time></trkpt><trkpt lat="40.7067884" lon="-3.9545396"><ele>985.0</ele><time>2026-05-04T10:45:19.628Z</time></trkpt><trkpt lat="40.7069044" lon="-3.9545299"><ele>985.5</ele><time>2026-05-04T10:45:20.627Z</time></trkpt><trkpt lat="40.7070202" lon="-3.95452"><ele>986.0</ele><time>2026-05-04T10:45:21.628Z</time></trkpt><trkpt lat="40.7071439" lon="-3.9545254"><ele>986.5</ele><time>2026-05-04T10:45:22.627Z</time></trkpt><trkpt lat="40.7072754" lon="-3.9545535"><ele>987.0</ele><time>2026-05-04T10:45:23.627Z</time></trkpt><trkpt lat="40.707411" lon="-3.9546004"><ele>987.0</ele><time>2026-05-04T10:45:24.627Z</time></trkpt><trkpt lat="40.7075444" lon="-3.9546594"><ele>987.0</ele><time>2026-05-04T10:45:25.628Z</time></trkpt><trkpt lat="40.7076746" lon="-3.9547152"><ele>987.0</ele><time>2026-05-04T10:45:26.627Z</time></trkpt><trkpt lat="40.7078038" lon="-3.9547663"><ele>987.0</ele><time>2026-05-04T10:45:27.627Z</time></trkpt><trkpt lat="40.7079408" lon="-3.9548059"><ele>986.25</ele><time>2026-05-04T10:45:28.627Z</time></trkpt><trkpt lat="40.7080826" lon="-3.954828"><ele>985.5</ele><time>2026-05-04T10:45:29.627Z</time></trkpt><trkpt lat="40.7082323" lon="-3.9548249"><ele>984.75</ele><time>2026-05-04T10:45:30.627Z</time></trkpt><trkpt lat="40.7083856" lon="-3.954805"><ele>984.0</ele><time>2026-05-04T10:45:31.628Z</time></trkpt><trkpt lat="40.7085422" lon="-3.9547778"><ele>984.0</ele><time>2026-05-04T10:45:32.627Z</time></trkpt><trkpt lat="40.7087012" lon="-3.954748"><ele>984.0</ele><time>2026-05-04T10:45:33.627Z</time></trkpt><trkpt lat="40.708857" lon="-3.954719"><ele>984.0</ele><time>2026-05-04T10:45:34.627Z</time></trkpt><trkpt lat="40.7090049" lon="-3.9546962"><ele>984.0</ele><time>2026-05-04T10:45:35.627Z</time></trkpt><trkpt lat="40.7091552" lon="-3.9546702"><ele>984.0</ele><time>2026-05-04T10:45:36.628Z</time></trkpt><trkpt lat="40.7092987" lon="-3.9546481"><ele>984.0</ele><time>2026-05-04T10:45:37.627Z</time></trkpt><trkpt lat="40.7094385" lon="-3.9546183"><ele>984.0</ele><time>2026-05-04T10:45:38.627Z</time></trkpt><trkpt lat="40.7095782" lon="-3.9545906"><ele>984.25</ele><time>2026-05-04T10:45:39.627Z</time></trkpt><trkpt lat="40.7097175" lon="-3.9545641"><ele>984.5</ele><time>2026-05-04T10:45:40.627Z</time></trkpt><trkpt lat="40.7098496" lon="-3.9545282"><ele>984.75</ele><time>2026-05-04T10:45:41.627Z</time></trkpt><trkpt lat="40.709978" lon="-3.9544885"><ele>985.0</ele><time>2026-05-04T10:45:42.627Z</time></trkpt><trkpt lat="40.7101056" lon="-3.9544412"><ele>985.0</ele><time>2026-05-04T10:45:43.628Z</time></trkpt><trkpt lat="40.7102294" lon="-3.9543883"><ele>985.0</ele><time>2026-05-04T10:45:44.627Z</time></trkpt><trkpt lat="40.7103622" lon="-3.9543324"><ele>985.0</ele><time>2026-05-04T10:45:45.627Z</time></trkpt><trkpt lat="40.7104981" lon="-3.9542737"><ele>985.0</ele><time>2026-05-04T10:45:46.627Z</time></trkpt><trkpt lat="40.7106385" lon="-3.9542138"><ele>984.6666666666666</ele><time>2026-05-04T10:45:47.627Z</time></trkpt><trkpt lat="40.71078" lon="-3.9541573"><ele>984.3333333333333</ele><time>2026-05-04T10:45:48.628Z</time></trkpt><trkpt lat="40.7109241" lon="-3.9540996"><ele>984.0</ele><time>2026-05-04T10:45:49.627Z</time></trkpt><trkpt lat="40.7110697" lon="-3.9540382"><ele>984.3333333333333</ele><time>2026-05-04T10:45:50.627Z</time></trkpt><trkpt lat="40.7112142" lon="-3.9539763"><ele>984.6666666666666</ele><time>2026-05-04T10:45:51.628Z</time></trkpt><trkpt lat="40.7113533" lon="-3.9539148"><ele>985.0</ele><time>2026-05-04T10:45:52.627Z</time></trkpt><trkpt lat="40.7115006" lon="-3.9538496"><ele>985.0</ele><time>2026-05-04T10:45:53.627Z</time></trkpt><trkpt lat="40.7116612" lon="-3.9537887"><ele>985.0</ele><time>2026-05-04T10:45:54.627Z</time></trkpt><trkpt lat="40.711826" lon="-3.953724"><ele>985.0</ele><time>2026-05-04T10:45:55.627Z</time></trkpt><trkpt lat="40.7119902" lon="-3.9536514"><ele>985.3333333333333</ele><time>2026-05-04T10:45:56.627Z</time></trkpt><trkpt lat="40.7121597" lon="-3.9535793"><ele>985.6666666666667</ele><time>2026-05-04T10:45:57.627Z</time></trkpt><trkpt lat="40.7123286" lon="-3.9535095"><ele>986.0</ele><time>2026-05-04T10:45:58.627Z</time></trkpt><trkpt lat="40.7124905" lon="-3.9534427"><ele>986.0</ele><time>2026-05-04T10:45:59.627Z</time></trkpt><trkpt lat="40.712645" lon="-3.9533792"><ele>986.0</ele><time>2026-05-04T10:46:00.627Z</time></trkpt><trkpt lat="40.7127957" lon="-3.953315"><ele>986.0</ele><time>2026-05-04T10:46:01.627Z</time></trkpt><trkpt lat="40.7129478" lon="-3.9532468"><ele>985.0</ele><time>2026-05-04T10:46:02.628Z</time></trkpt><trkpt lat="40.7131032" lon="-3.9531828"><ele>984.0</ele><time>2026-05-04T10:46:03.627Z</time></trkpt><trkpt lat="40.7132546" lon="-3.9531131"><ele>983.0</ele><time>2026-05-04T10:46:04.627Z</time></trkpt><trkpt lat="40.7134099" lon="-3.9530444"><ele>983.0</ele><time>2026-05-04T10:46:05.627Z</time></trkpt><trkpt lat="40.7135569" lon="-3.9529795"><ele>983.0</ele><time>2026-05-04T10:46:06.627Z</time></trkpt><trkpt lat="40.7136987" lon="-3.9529257"><ele>983.0</ele><time>2026-05-04T10:46:07.627Z</time></trkpt><trkpt lat="40.7139814" lon="-3.9528233"><ele>984.3333333333334</ele><time>2026-05-04T10:46:09.627Z</time></trkpt><trkpt lat="40.7141251" lon="-3.9527695"><ele>985.6666666666667</ele><time>2026-05-04T10:46:10.627Z</time></trkpt><trkpt lat="40.7142716" lon="-3.9527218"><ele>987.0</ele><time>2026-05-04T10:46:11.627Z</time></trkpt><trkpt lat="40.7144207" lon="-3.952671"><ele>988.3333333333333</ele><time>2026-05-04T10:46:12.628Z</time></trkpt><trkpt lat="40.7145701" lon="-3.9526144"><ele>989.6666666666666</ele><time>2026-05-04T10:46:13.627Z</time></trkpt><trkpt lat="40.7147193" lon="-3.9525577"><ele>991.0</ele><time>2026-05-04T10:46:14.627Z</time></trkpt><trkpt lat="40.7148678" lon="-3.9525057"><ele>991.0</ele><time>2026-05-04T10:46:15.627Z</time></trkpt><trkpt lat="40.7150195" lon="-3.952455"><ele>991.0</ele><time>2026-05-04T10:46:16.627Z</time></trkpt><trkpt lat="40.7151705" lon="-3.9524066"><ele>991.0</ele><time>2026-05-04T10:46:17.628Z</time></trkpt><trkpt lat="40.7153206" lon="-3.9523618"><ele>992.6666666666666</ele><time>2026-05-04T10:46:18.628Z</time></trkpt><trkpt lat="40.7154701" lon="-3.9523182"><ele>994.3333333333333</ele><time>2026-05-04T10:46:19.627Z</time></trkpt><trkpt lat="40.715621" lon="-3.9522788"><ele>996.0</ele><time>2026-05-04T10:46:20.627Z</time></trkpt><trkpt lat="40.7157745" lon="-3.9522374"><ele>996.0</ele><time>2026-05-04T10:46:21.627Z</time></trkpt><trkpt lat="40.7159267" lon="-3.9521967"><ele>996.0</ele><time>2026-05-04T10:46:22.627Z</time></trkpt><trkpt lat="40.716072" lon="-3.9521553"><ele>996.0</ele><time>2026-05-04T10:46:23.627Z</time></trkpt><trkpt lat="40.716216" lon="-3.9521136"><ele>997.25</ele><time>2026-05-04T10:46:24.627Z</time></trkpt><trkpt lat="40.7163555" lon="-3.9520719"><ele>998.5</ele><time>2026-05-04T10:46:25.627Z</time></trkpt><trkpt lat="40.7164961" lon="-3.9520317"><ele>999.75</ele><time>2026-05-04T10:46:26.627Z</time></trkpt><trkpt lat="40.7166348" lon="-3.9519955"><ele>1001.0</ele><time>2026-05-04T10:46:27.627Z</time></trkpt><trkpt lat="40.7167665" lon="-3.9519605"><ele>1001.0</ele><time>2026-05-04T10:46:28.627Z</time></trkpt><trkpt lat="40.7168894" lon="-3.9519214"><ele>1001.0</ele><time>2026-05-04T10:46:29.627Z</time></trkpt><trkpt lat="40.7170018" lon="-3.9518823"><ele>1001.0</ele><time>2026-05-04T10:46:30.627Z</time></trkpt><trkpt lat="40.7171181" lon="-3.9518372"><ele>1001.0</ele><time>2026-05-04T10:46:31.627Z</time></trkpt><trkpt lat="40.7172418" lon="-3.9517881"><ele>1002.0</ele><time>2026-05-04T10:46:32.627Z</time></trkpt><trkpt lat="40.7173736" lon="-3.9517415"><ele>1003.0</ele><time>2026-05-04T10:46:33.628Z</time></trkpt><trkpt lat="40.7175092" lon="-3.9516952"><ele>1004.0</ele><time>2026-05-04T10:46:34.627Z</time></trkpt><trkpt lat="40.7176511" lon="-3.9516512"><ele>1005.0</ele><time>2026-05-04T10:46:35.627Z</time></trkpt><trkpt lat="40.7177943" lon="-3.9516058"><ele>1006.5</ele><time>2026-05-04T10:46:36.627Z</time></trkpt><trkpt lat="40.7179386" lon="-3.9515524"><ele>1008.0</ele><time>2026-05-04T10:46:37.627Z</time></trkpt><trkpt lat="40.7180766" lon="-3.9515013"><ele>1009.5</ele><time>2026-05-04T10:46:38.627Z</time></trkpt><trkpt lat="40.718218" lon="-3.9514524"><ele>1011.0</ele><time>2026-05-04T10:46:39.627Z</time></trkpt><trkpt lat="40.7183567" lon="-3.9513974"><ele>1011.0</ele><time>2026-05-04T10:46:40.627Z</time></trkpt><trkpt lat="40.7184912" lon="-3.9513453"><ele>1011.0</ele><time>2026-05-04T10:46:41.627Z</time></trkpt><trkpt lat="40.7186231" lon="-3.9512923"><ele>1011.0</ele><time>2026-05-04T10:46:42.627Z</time></trkpt><trkpt lat="40.7187555" lon="-3.9512363"><ele>1011.0</ele><time>2026-05-04T10:46:43.627Z</time></trkpt><trkpt lat="40.7188843" lon="-3.9511696"><ele>1012.5</ele><time>2026-05-04T10:46:44.627Z</time></trkpt><trkpt lat="40.7190085" lon="-3.9510867"><ele>1014.0</ele><time>2026-05-04T10:46:45.627Z</time></trkpt><trkpt lat="40.719129" lon="-3.9510038"><ele>1015.5</ele><time>2026-05-04T10:46:46.627Z</time></trkpt><trkpt lat="40.7192568" lon="-3.9509327"><ele>1017.0</ele><time>2026-05-04T10:46:47.627Z</time></trkpt><trkpt lat="40.7193898" lon="-3.9508904"><ele>1017.0</ele><time>2026-05-04T10:46:48.627Z</time></trkpt><trkpt lat="40.719538" lon="-3.9508645"><ele>1017.0</ele><time>2026-05-04T10:46:49.627Z</time></trkpt><trkpt lat="40.7196848" lon="-3.9508535"><ele>1017.0</ele><time>2026-05-04T10:46:50.627Z</time></trkpt><trkpt lat="40.7198198" lon="-3.9508669"><ele>1017.0</ele><time>2026-05-04T10:46:51.627Z</time></trkpt><trkpt lat="40.7199515" lon="-3.9509094"><ele>1018.25</ele><time>2026-05-04T10:46:52.627Z</time></trkpt><trkpt lat="40.7200826" lon="-3.9509433"><ele>1019.5</ele><time>2026-05-04T10:46:53.628Z</time></trkpt><trkpt lat="40.7202111" lon="-3.9509754"><ele>1020.75</ele><time>2026-05-04T10:46:54.627Z</time></trkpt><trkpt lat="40.7203465" lon="-3.9510097"><ele>1022.0</ele><time>2026-05-04T10:46:55.627Z</time></trkpt><trkpt lat="40.7204726" lon="-3.9510431"><ele>1023.25</ele><time>2026-05-04T10:46:56.628Z</time></trkpt><trkpt lat="40.7206014" lon="-3.9510692"><ele>1024.5</ele><time>2026-05-04T10:46:57.627Z</time></trkpt><trkpt lat="40.7207289" lon="-3.9510955"><ele>1025.75</ele><time>2026-05-04T10:46:58.627Z</time></trkpt><trkpt lat="40.7208616" lon="-3.9511241"><ele>1027.0</ele><time>2026-05-04T10:46:59.627Z</time></trkpt><trkpt lat="40.7209929" lon="-3.951152"><ele>1028.75</ele><time>2026-05-04T10:47:00.627Z</time></trkpt><trkpt lat="40.7211253" lon="-3.9511816"><ele>1030.5</ele><time>2026-05-04T10:47:01.627Z</time></trkpt><trkpt lat="40.7212572" lon="-3.951211"><ele>1032.25</ele><time>2026-05-04T10:47:02.628Z</time></trkpt><trkpt lat="40.7213876" lon="-3.9512416"><ele>1034.0</ele><time>2026-05-04T10:47:03.627Z</time></trkpt><trkpt lat="40.7215186" lon="-3.9512715"><ele>1034.0</ele><time>2026-05-04T10:47:04.627Z</time></trkpt><trkpt lat="40.7216535" lon="-3.9513025"><ele>1034.0</ele><time>2026-05-04T10:47:05.627Z</time></trkpt><trkpt lat="40.7217833" lon="-3.9513402"><ele>1034.0</ele><time>2026-05-04T10:47:06.627Z</time></trkpt><trkpt lat="40.7219108" lon="-3.9513602"><ele>1034.0</ele><time>2026-05-04T10:47:07.627Z</time></trkpt><trkpt lat="40.7220401" lon="-3.9513747"><ele>1035.25</ele><time>2026-05-04T10:47:08.627Z</time></trkpt><trkpt lat="40.7221712" lon="-3.9513912"><ele>1036.5</ele><time>2026-05-04T10:47:09.628Z</time></trkpt><trkpt lat="40.7223064" lon="-3.9514044"><ele>1037.75</ele><time>2026-05-04T10:47:10.627Z</time></trkpt><trkpt lat="40.722439" lon="-3.9514173"><ele>1039.0</ele><time>2026-05-04T10:47:11.627Z</time></trkpt><trkpt lat="40.7225758" lon="-3.9514279"><ele>1039.0</ele><time>2026-05-04T10:47:12.627Z</time></trkpt><trkpt lat="40.7227178" lon="-3.9514451"><ele>1039.0</ele><time>2026-05-04T10:47:13.627Z</time></trkpt><trkpt lat="40.7228596" lon="-3.9514607"><ele>1039.0</ele><time>2026-05-04T10:47:14.627Z</time></trkpt><trkpt lat="40.7230006" lon="-3.9514715"><ele>1039.0</ele><time>2026-05-04T10:47:15.627Z</time></trkpt><trkpt lat="40.7231455" lon="-3.951484"><ele>1039.5</ele><time>2026-05-04T10:47:16.627Z</time></trkpt><trkpt lat="40.7232921" lon="-3.9514965"><ele>1040.0</ele><time>2026-05-04T10:47:17.627Z</time></trkpt><trkpt lat="40.723439" lon="-3.9515046"><ele>1040.5</ele><time>2026-05-04T10:47:18.627Z</time></trkpt><trkpt lat="40.7235812" lon="-3.9515133"><ele>1041.0</ele><time>2026-05-04T10:47:19.627Z</time></trkpt><trkpt lat="40.723729" lon="-3.951527"><ele>1042.6666666666667</ele><time>2026-05-04T10:47:20.627Z</time></trkpt><trkpt lat="40.723881" lon="-3.9515414"><ele>1044.3333333333335</ele><time>2026-05-04T10:47:21.627Z</time></trkpt><trkpt lat="40.7240368" lon="-3.951556"><ele>1046.0</ele><time>2026-05-04T10:47:22.627Z</time></trkpt><trkpt lat="40.724195" lon="-3.9515785"><ele>1046.0</ele><time>2026-05-04T10:47:23.627Z</time></trkpt><trkpt lat="40.7243517" lon="-3.9515985"><ele>1046.0</ele><time>2026-05-04T10:47:24.627Z</time></trkpt><trkpt lat="40.724504" lon="-3.9516187"><ele>1046.0</ele><time>2026-05-04T10:47:25.627Z</time></trkpt><trkpt lat="40.7246555" lon="-3.9516312"><ele>1046.75</ele><time>2026-05-04T10:47:26.627Z</time></trkpt><trkpt lat="40.7247996" lon="-3.9516403"><ele>1047.5</ele><time>2026-05-04T10:47:27.627Z</time></trkpt><trkpt lat="40.724941" lon="-3.9516504"><ele>1048.25</ele><time>2026-05-04T10:47:28.628Z</time></trkpt><trkpt lat="40.7250866" lon="-3.9516622"><ele>1049.0</ele><time>2026-05-04T10:47:29.627Z</time></trkpt><trkpt lat="40.7252302" lon="-3.9516752"><ele>1050.25</ele><time>2026-05-04T10:47:30.627Z</time></trkpt><trkpt lat="40.7253756" lon="-3.9516892"><ele>1051.5</ele><time>2026-05-04T10:47:31.628Z</time></trkpt><trkpt lat="40.7255219" lon="-3.9517021"><ele>1052.75</ele><time>2026-05-04T10:47:32.628Z</time></trkpt><trkpt lat="40.7256636" lon="-3.951712"><ele>1054.0</ele><time>2026-05-04T10:47:33.627Z</time></trkpt><trkpt lat="40.7258097" lon="-3.9517285"><ele>1055.0</ele><time>2026-05-04T10:47:34.627Z</time></trkpt><trkpt lat="40.7259506" lon="-3.9517439"><ele>1056.0</ele><time>2026-05-04T10:47:35.627Z</time></trkpt><trkpt lat="40.7260888" lon="-3.9517533"><ele>1057.0</ele><time>2026-05-04T10:47:36.627Z</time></trkpt><trkpt lat="40.7262283" lon="-3.9517678"><ele>1058.0</ele><time>2026-05-04T10:47:37.627Z</time></trkpt><trkpt lat="40.7263718" lon="-3.9517784"><ele>1059.5</ele><time>2026-05-04T10:47:38.627Z</time></trkpt><trkpt lat="40.7265108" lon="-3.9517951"><ele>1061.0</ele><time>2026-05-04T10:47:39.627Z</time></trkpt><trkpt lat="40.7266451" lon="-3.9518148"><ele>1062.5</ele><time>2026-05-04T10:47:40.628Z</time></trkpt><trkpt lat="40.7267765" lon="-3.9518359"><ele>1064.0</ele><time>2026-05-04T10:47:41.627Z</time></trkpt><trkpt lat="40.7269091" lon="-3.9518586"><ele>1065.75</ele><time>2026-05-04T10:47:42.627Z</time></trkpt><trkpt lat="40.7270392" lon="-3.9518777"><ele>1067.5</ele><time>2026-05-04T10:47:43.627Z</time></trkpt><trkpt lat="40.7271718" lon="-3.9518996"><ele>1069.25</ele><time>2026-05-04T10:47:44.627Z</time></trkpt><trkpt lat="40.7273034" lon="-3.951925"><ele>1071.0</ele><time>2026-05-04T10:47:45.627Z</time></trkpt><trkpt lat="40.727432" lon="-3.9519476"><ele>1071.0</ele><time>2026-05-04T10:47:46.627Z</time></trkpt><trkpt lat="40.7275577" lon="-3.951967"><ele>1071.0</ele><time>2026-05-04T10:47:47.627Z</time></trkpt><trkpt lat="40.7276765" lon="-3.9519825"><ele>1071.0</ele><time>2026-05-04T10:47:48.627Z</time></trkpt><trkpt lat="40.7277897" lon="-3.9520042"><ele>1071.0</ele><time>2026-05-04T10:47:49.627Z</time></trkpt><trkpt lat="40.7279026" lon="-3.9520183"><ele>1071.75</ele><time>2026-05-04T10:47:50.627Z</time></trkpt><trkpt lat="40.7280189" lon="-3.9520317"><ele>1072.5</ele><time>2026-05-04T10:47:51.627Z</time></trkpt><trkpt lat="40.7281375" lon="-3.952038"><ele>1073.25</ele><time>2026-05-04T10:47:52.627Z</time></trkpt><trkpt lat="40.7282575" lon="-3.9520376"><ele>1074.0</ele><time>2026-05-04T10:47:53.627Z</time></trkpt><trkpt lat="40.7283754" lon="-3.9520129"><ele>1074.0</ele><time>2026-05-04T10:47:54.627Z</time></trkpt><trkpt lat="40.7284899" lon="-3.9519706"><ele>1074.0</ele><time>2026-05-04T10:47:55.627Z</time></trkpt><trkpt lat="40.7285896" lon="-3.951929"><ele>1074.0</ele><time>2026-05-04T10:47:56.627Z</time></trkpt><trkpt lat="40.7286753" lon="-3.9518855"><ele>1074.0</ele><time>2026-05-04T10:47:57.627Z</time></trkpt><trkpt lat="40.7287616" lon="-3.9518398"><ele>1074.0</ele><time>2026-05-04T10:47:58.627Z</time></trkpt><trkpt lat="40.728847" lon="-3.9517914"><ele>1074.1666666666667</ele><time>2026-05-04T10:47:59.627Z</time></trkpt><trkpt lat="40.7289253" lon="-3.9517491"><ele>1074.3333333333333</ele><time>2026-05-04T10:48:00.628Z</time></trkpt><trkpt lat="40.7290045" lon="-3.9517042"><ele>1074.5</ele><time>2026-05-04T10:48:01.627Z</time></trkpt><trkpt lat="40.7290833" lon="-3.9516546"><ele>1074.6666666666665</ele><time>2026-05-04T10:48:02.627Z</time></trkpt><trkpt lat="40.7291555" lon="-3.9516099"><ele>1074.8333333333333</ele><time>2026-05-04T10:48:03.627Z</time></trkpt><trkpt lat="40.7292245" lon="-3.9515651"><ele>1075.0</ele><time>2026-05-04T10:48:04.627Z</time></trkpt><trkpt lat="40.7293006" lon="-3.9515201"><ele>1075.0</ele><time>2026-05-04T10:48:05.627Z</time></trkpt><trkpt lat="40.7293866" lon="-3.9514716"><ele>1075.0</ele><time>2026-05-04T10:48:06.628Z</time></trkpt><trkpt lat="40.729471" lon="-3.9514188"><ele>1075.0</ele><time>2026-05-04T10:48:07.628Z</time></trkpt><trkpt lat="40.7295514" lon="-3.9513711"><ele>1075.0</ele><time>2026-05-04T10:48:08.628Z</time></trkpt><trkpt lat="40.7296223" lon="-3.9513229"><ele>1075.0</ele><time>2026-05-04T10:48:09.627Z</time></trkpt><trkpt lat="40.7296845" lon="-3.9512863"><ele>1075.0</ele><time>2026-05-04T10:48:10.627Z</time></trkpt><trkpt lat="40.7297733" lon="-3.9512219"><ele>1075.6</ele><time>2026-05-04T10:48:12.627Z</time></trkpt><trkpt lat="40.7297607" lon="-3.9511206"><ele>1076.2</ele><time>2026-05-04T10:48:14.627Z</time></trkpt><trkpt lat="40.7297074" lon="-3.9510757"><ele>1076.8</ele><time>2026-05-04T10:48:15.627Z</time></trkpt><trkpt lat="40.7296005" lon="-3.950951"><ele>1077.4</ele><time>2026-05-04T10:48:17.627Z</time></trkpt><trkpt lat="40.7295558" lon="-3.9508497"><ele>1078.0</ele><time>2026-05-04T10:48:18.627Z</time></trkpt><trkpt lat="40.7295143" lon="-3.9507471"><ele>1078.0</ele><time>2026-05-04T10:48:19.627Z</time></trkpt><trkpt lat="40.7294607" lon="-3.9506241"><ele>1078.0</ele><time>2026-05-04T10:48:20.627Z</time></trkpt><trkpt lat="40.7294197" lon="-3.9504927"><ele>1078.0</ele><time>2026-05-04T10:48:21.627Z</time></trkpt><trkpt lat="40.729383" lon="-3.9503682"><ele>1078.0</ele><time>2026-05-04T10:48:22.627Z</time></trkpt><trkpt lat="40.7293519" lon="-3.9502393"><ele>1078.0</ele><time>2026-05-04T10:48:23.627Z</time></trkpt><trkpt lat="40.7293304" lon="-3.9501014"><ele>1076.0</ele><time>2026-05-04T10:48:24.627Z</time></trkpt><trkpt lat="40.7293204" lon="-3.9499535"><ele>1074.0</ele><time>2026-05-04T10:48:25.627Z</time></trkpt><trkpt lat="40.7293188" lon="-3.9497944"><ele>1072.0</ele><time>2026-05-04T10:48:26.628Z</time></trkpt><trkpt lat="40.7293219" lon="-3.9496285"><ele>1070.0</ele><time>2026-05-04T10:48:27.627Z</time></trkpt><trkpt lat="40.7293241" lon="-3.9494606"><ele>1070.0</ele><time>2026-05-04T10:48:28.627Z</time></trkpt><trkpt lat="40.7293223" lon="-3.9492892"><ele>1070.0</ele><time>2026-05-04T10:48:29.627Z</time></trkpt><trkpt lat="40.7293271" lon="-3.9491167"><ele>1070.0</ele><time>2026-05-04T10:48:30.627Z</time></trkpt><trkpt lat="40.7293294" lon="-3.9489516"><ele>1070.0</ele><time>2026-05-04T10:48:31.627Z</time></trkpt><trkpt lat="40.7293324" lon="-3.9487927"><ele>1069.0</ele><time>2026-05-04T10:48:32.627Z</time></trkpt><trkpt lat="40.7293366" lon="-3.9486366"><ele>1068.0</ele><time>2026-05-04T10:48:33.627Z</time></trkpt><trkpt lat="40.7293353" lon="-3.9484774"><ele>1067.0</ele><time>2026-05-04T10:48:34.627Z</time></trkpt><trkpt lat="40.7293405" lon="-3.9483191"><ele>1066.0</ele><time>2026-05-04T10:48:35.627Z</time></trkpt><trkpt lat="40.7293417" lon="-3.9481593"><ele>1065.0</ele><time>2026-05-04T10:48:36.628Z</time></trkpt><trkpt lat="40.7293362" lon="-3.9480015"><ele>1064.0</ele><time>2026-05-04T10:48:37.627Z</time></trkpt><trkpt lat="40.7293281" lon="-3.9478496"><ele>1063.0</ele><time>2026-05-04T10:48:38.627Z</time></trkpt><trkpt lat="40.7293215" lon="-3.9477048"><ele>1062.0</ele><time>2026-05-04T10:48:39.627Z</time></trkpt><trkpt lat="40.7293172" lon="-3.9475677"><ele>1061.0</ele><time>2026-05-04T10:48:40.627Z</time></trkpt><trkpt lat="40.7293145" lon="-3.9474433"><ele>1060.3999999999999</ele><time>2026-05-04T10:48:41.627Z</time></trkpt><trkpt lat="40.7293073" lon="-3.9473446"><ele>1059.8</ele><time>2026-05-04T10:48:42.627Z</time></trkpt><trkpt lat="40.7292845" lon="-3.9471955"><ele>1059.1999999999998</ele><time>2026-05-04T10:48:44.627Z</time></trkpt><trkpt lat="40.7292743" lon="-3.9470627"><ele>1058.6</ele><time>2026-05-04T10:48:46.627Z</time></trkpt><trkpt lat="40.7292733" lon="-3.9469228"><ele>1058.0</ele><time>2026-05-04T10:48:48.627Z</time></trkpt><trkpt lat="40.7292819" lon="-3.9468349"><ele>1058.0</ele><time>2026-05-04T10:48:49.627Z</time></trkpt><trkpt lat="40.729293" lon="-3.9467499"><ele>1058.0</ele><time>2026-05-04T10:48:50.627Z</time></trkpt><trkpt lat="40.7293045" lon="-3.9466548"><ele>1058.0</ele><time>2026-05-04T10:48:51.627Z</time></trkpt><trkpt lat="40.7293135" lon="-3.9465601"><ele>1058.0</ele><time>2026-05-04T10:48:52.628Z</time></trkpt><trkpt lat="40.7293243" lon="-3.94645"><ele>1058.0</ele><time>2026-05-04T10:48:53.627Z</time></trkpt><trkpt lat="40.7293391" lon="-3.946345"><ele>1058.0</ele><time>2026-05-04T10:48:54.627Z</time></trkpt><trkpt lat="40.7293415" lon="-3.9462347"><ele>1057.1666666666667</ele><time>2026-05-04T10:48:55.627Z</time></trkpt><trkpt lat="40.7293549" lon="-3.946133"><ele>1056.3333333333335</ele><time>2026-05-04T10:48:56.627Z</time></trkpt><trkpt lat="40.7293672" lon="-3.946038"><ele>1055.5</ele><time>2026-05-04T10:48:57.627Z</time></trkpt><trkpt lat="40.7293888" lon="-3.9459505"><ele>1054.6666666666667</ele><time>2026-05-04T10:48:58.627Z</time></trkpt><trkpt lat="40.7294169" lon="-3.9458507"><ele>1053.8333333333333</ele><time>2026-05-04T10:48:59.627Z</time></trkpt><trkpt lat="40.7294498" lon="-3.9457529"><ele>1053.0</ele><time>2026-05-04T10:49:00.627Z</time></trkpt><trkpt lat="40.729484" lon="-3.9456615"><ele>1052.8571428571427</ele><time>2026-05-04T10:49:01.627Z</time></trkpt><trkpt lat="40.7295179" lon="-3.9455826"><ele>1052.7142857142858</ele><time>2026-05-04T10:49:02.627Z</time></trkpt><trkpt lat="40.729561" lon="-3.9455098"><ele>1052.5714285714284</ele><time>2026-05-04T10:49:03.627Z</time></trkpt><trkpt lat="40.7296044" lon="-3.9454478"><ele>1052.4285714285713</ele><time>2026-05-04T10:49:04.627Z</time></trkpt><trkpt lat="40.7296522" lon="-3.9453859"><ele>1052.2857142857142</ele><time>2026-05-04T10:49:05.627Z</time></trkpt><trkpt lat="40.7297052" lon="-3.9453108"><ele>1052.142857142857</ele><time>2026-05-04T10:49:06.627Z</time></trkpt><trkpt lat="40.7297481" lon="-3.945232"><ele>1052.0</ele><time>2026-05-04T10:49:07.627Z</time></trkpt><trkpt lat="40.7297835" lon="-3.9451545"><ele>1051.0</ele><time>2026-05-04T10:49:08.627Z</time></trkpt><trkpt lat="40.7298246" lon="-3.9450029"><ele>1050.0</ele><time>2026-05-04T10:49:10.627Z</time></trkpt><trkpt lat="40.729837" lon="-3.9449124"><ele>1049.0</ele><time>2026-05-04T10:49:11.627Z</time></trkpt><trkpt lat="40.7298348" lon="-3.9447528"><ele>1048.0</ele><time>2026-05-04T10:49:13.627Z</time></trkpt><trkpt lat="40.7298148" lon="-3.9445849"><ele>1047.0</ele><time>2026-05-04T10:49:15.627Z</time></trkpt><trkpt lat="40.7297953" lon="-3.9445017"><ele>1047.0</ele><time>2026-05-04T10:49:16.627Z</time></trkpt><trkpt lat="40.7297363" lon="-3.9443753"><ele>1047.0</ele><time>2026-05-04T10:49:18.627Z</time></trkpt><trkpt lat="40.7296431" lon="-3.9443004"><ele>1047.0</ele><time>2026-05-04T10:49:20.627Z</time></trkpt><trkpt lat="40.7295835" lon="-3.9442529"><ele>1047.0</ele><time>2026-05-04T10:49:21.627Z</time></trkpt><trkpt lat="40.7295275" lon="-3.944195"><ele>1047.0</ele><time>2026-05-04T10:49:22.627Z</time></trkpt><trkpt lat="40.7294769" lon="-3.944135"><ele>1047.0</ele><time>2026-05-04T10:49:23.628Z</time></trkpt><trkpt lat="40.7294189" lon="-3.9440699"><ele>1046.3333333333333</ele><time>2026-05-04T10:49:24.628Z</time></trkpt><trkpt lat="40.7293609" lon="-3.9439965"><ele>1045.6666666666667</ele><time>2026-05-04T10:49:25.627Z</time></trkpt><trkpt lat="40.729298" lon="-3.9439123"><ele>1045.0</ele><time>2026-05-04T10:49:26.627Z</time></trkpt><trkpt lat="40.7292364" lon="-3.9438249"><ele>1044.3333333333335</ele><time>2026-05-04T10:49:27.628Z</time></trkpt><trkpt lat="40.7291812" lon="-3.9437372"><ele>1043.6666666666667</ele><time>2026-05-04T10:49:28.627Z</time></trkpt><trkpt lat="40.7291255" lon="-3.9436483"><ele>1043.0</ele><time>2026-05-04T10:49:29.627Z</time></trkpt><trkpt lat="40.7290758" lon="-3.9435575"><ele>1043.0</ele><time>2026-05-04T10:49:30.627Z</time></trkpt><trkpt lat="40.7290346" lon="-3.9434657"><ele>1043.0</ele><time>2026-05-04T10:49:31.627Z</time></trkpt><trkpt lat="40.7289963" lon="-3.9433794"><ele>1043.0</ele><time>2026-05-04T10:49:32.627Z</time></trkpt><trkpt lat="40.7289642" lon="-3.9432917"><ele>1043.0</ele><time>2026-05-04T10:49:33.628Z</time></trkpt><trkpt lat="40.7289376" lon="-3.9432005"><ele>1043.0</ele><time>2026-05-04T10:49:34.627Z</time></trkpt><trkpt lat="40.7289149" lon="-3.9431094"><ele>1043.0</ele><time>2026-05-04T10:49:35.628Z</time></trkpt><trkpt lat="40.7288885" lon="-3.9430239"><ele>1043.0</ele><time>2026-05-04T10:49:36.627Z</time></trkpt><trkpt lat="40.7288644" lon="-3.9429387"><ele>1042.3333333333335</ele><time>2026-05-04T10:49:37.627Z</time></trkpt><trkpt lat="40.7288441" lon="-3.9428554"><ele>1041.6666666666667</ele><time>2026-05-04T10:49:38.628Z</time></trkpt><trkpt lat="40.7288182" lon="-3.942779"><ele>1041.0</ele><time>2026-05-04T10:49:39.627Z</time></trkpt><trkpt lat="40.7287767" lon="-3.9426404"><ele>1040.3333333333333</ele><time>2026-05-04T10:49:41.627Z</time></trkpt><trkpt lat="40.7287459" lon="-3.9425329"><ele>1039.6666666666665</ele><time>2026-05-04T10:49:43.627Z</time></trkpt><trkpt lat="40.728722" lon="-3.9424226"><ele>1039.0</ele><time>2026-05-04T10:49:45.627Z</time></trkpt><trkpt lat="40.7287034" lon="-3.942289"><ele>1037.8333333333333</ele><time>2026-05-04T10:49:47.628Z</time></trkpt><trkpt lat="40.7287018" lon="-3.9422008"><ele>1036.6666666666665</ele><time>2026-05-04T10:49:48.627Z</time></trkpt><trkpt lat="40.728698" lon="-3.9421055"><ele>1035.5</ele><time>2026-05-04T10:49:49.627Z</time></trkpt><trkpt lat="40.7286922" lon="-3.9420121"><ele>1034.3333333333333</ele><time>2026-05-04T10:49:50.627Z</time></trkpt><trkpt lat="40.728689" lon="-3.9419098"><ele>1033.1666666666667</ele><time>2026-05-04T10:49:51.627Z</time></trkpt><trkpt lat="40.7286883" lon="-3.9418009"><ele>1032.0</ele><time>2026-05-04T10:49:52.627Z</time></trkpt><trkpt lat="40.7286852" lon="-3.9416836"><ele>1031.3333333333333</ele><time>2026-05-04T10:49:53.627Z</time></trkpt><trkpt lat="40.728683" lon="-3.9415685"><ele>1030.6666666666667</ele><time>2026-05-04T10:49:54.627Z</time></trkpt><trkpt lat="40.7286842" lon="-3.94146"><ele>1030.0</ele><time>2026-05-04T10:49:55.627Z</time></trkpt><trkpt lat="40.7286891" lon="-3.9413544"><ele>1029.3333333333335</ele><time>2026-05-04T10:49:56.627Z</time></trkpt><trkpt lat="40.7286914" lon="-3.9412494"><ele>1028.6666666666667</ele><time>2026-05-04T10:49:57.627Z</time></trkpt><trkpt lat="40.7286949" lon="-3.9411447"><ele>1028.0</ele><time>2026-05-04T10:49:58.627Z</time></trkpt><trkpt lat="40.7286958" lon="-3.9410516"><ele>1028.0</ele><time>2026-05-04T10:49:59.627Z</time></trkpt><trkpt lat="40.7286924" lon="-3.940967"><ele>1028.0</ele><time>2026-05-04T10:50:00.627Z</time></trkpt><trkpt lat="40.7286945" lon="-3.940819"><ele>1028.0</ele><time>2026-05-04T10:50:02.627Z</time></trkpt><trkpt lat="40.7287285" lon="-3.9406923"><ele>1028.0</ele><time>2026-05-04T10:50:04.628Z</time></trkpt><trkpt lat="40.7287798" lon="-3.9405963"><ele>1028.0</ele><time>2026-05-04T10:50:06.627Z</time></trkpt><trkpt lat="40.7288297" lon="-3.9405281"><ele>1028.0</ele><time>2026-05-04T10:50:08.627Z</time></trkpt><trkpt lat="40.7289007" lon="-3.9404678"><ele>1027.4</ele><time>2026-05-04T10:50:11.627Z</time></trkpt><trkpt lat="40.7290039" lon="-3.940458"><ele>1026.8</ele><time>2026-05-04T10:50:14.627Z</time></trkpt><trkpt lat="40.7291453" lon="-3.9404681"><ele>1026.2</ele><time>2026-05-04T10:50:16.627Z</time></trkpt><trkpt lat="40.7292091" lon="-3.9404702"><ele>1025.6</ele><time>2026-05-04T10:50:17.627Z</time></trkpt><trkpt lat="40.7292774" lon="-3.9404728"><ele>1025.0</ele><time>2026-05-04T10:50:18.627Z</time></trkpt><trkpt lat="40.7293493" lon="-3.9404869"><ele>1025.2</ele><time>2026-05-04T10:50:19.627Z</time></trkpt><trkpt lat="40.7294316" lon="-3.940524"><ele>1025.4</ele><time>2026-05-04T10:50:20.627Z</time></trkpt><trkpt lat="40.7295234" lon="-3.9405842"><ele>1025.6</ele><time>2026-05-04T10:50:21.627Z</time></trkpt><trkpt lat="40.7296272" lon="-3.9406443"><ele>1025.8</ele><time>2026-05-04T10:50:22.627Z</time></trkpt><trkpt lat="40.7297248" lon="-3.94071"><ele>1026.0</ele><time>2026-05-04T10:50:23.627Z</time></trkpt><trkpt lat="40.729817" lon="-3.9407685"><ele>1026.0</ele><time>2026-05-04T10:50:24.627Z</time></trkpt><trkpt lat="40.7298959" lon="-3.9408356"><ele>1026.0</ele><time>2026-05-04T10:50:25.627Z</time></trkpt><trkpt lat="40.7299623" lon="-3.9409166"><ele>1026.0</ele><time>2026-05-04T10:50:26.627Z</time></trkpt><trkpt lat="40.7300238" lon="-3.9410011"><ele>1026.0</ele><time>2026-05-04T10:50:27.627Z</time></trkpt><trkpt lat="40.7300832" lon="-3.9410853"><ele>1026.0</ele><time>2026-05-04T10:50:28.628Z</time></trkpt><trkpt lat="40.7301436" lon="-3.9411661"><ele>1026.0</ele><time>2026-05-04T10:50:29.627Z</time></trkpt><trkpt lat="40.7302085" lon="-3.9412402"><ele>1027.0</ele><time>2026-05-04T10:50:30.627Z</time></trkpt><trkpt lat="40.7302831" lon="-3.9413048"><ele>1028.0</ele><time>2026-05-04T10:50:31.628Z</time></trkpt><trkpt lat="40.7303578" lon="-3.9413629"><ele>1029.0</ele><time>2026-05-04T10:50:32.627Z</time></trkpt><trkpt lat="40.7304356" lon="-3.9414147"><ele>1030.0</ele><time>2026-05-04T10:50:33.627Z</time></trkpt><trkpt lat="40.7305079" lon="-3.9414598"><ele>1031.0</ele><time>2026-05-04T10:50:34.627Z</time></trkpt><trkpt lat="40.7305754" lon="-3.9415096"><ele>1032.0</ele><time>2026-05-04T10:50:35.628Z</time></trkpt><trkpt lat="40.7306402" lon="-3.9415746"><ele>1032.0</ele><time>2026-05-04T10:50:36.628Z</time></trkpt><trkpt lat="40.7307005" lon="-3.9416538"><ele>1032.0</ele><time>2026-05-04T10:50:37.628Z</time></trkpt><trkpt lat="40.7307637" lon="-3.9417341"><ele>1032.0</ele><time>2026-05-04T10:50:38.627Z</time></trkpt><trkpt lat="40.7308218" lon="-3.9418055"><ele>1032.0</ele><time>2026-05-04T10:50:39.627Z</time></trkpt><trkpt lat="40.730876" lon="-3.9418697"><ele>1032.0</ele><time>2026-05-04T10:50:40.627Z</time></trkpt><trkpt lat="40.7309309" lon="-3.9419333"><ele>1032.0</ele><time>2026-05-04T10:50:41.627Z</time></trkpt><trkpt lat="40.7309869" lon="-3.9419908"><ele>1032.6666666666667</ele><time>2026-05-04T10:50:42.627Z</time></trkpt><trkpt lat="40.7310372" lon="-3.9420423"><ele>1033.3333333333333</ele><time>2026-05-04T10:50:43.627Z</time></trkpt><trkpt lat="40.7310868" lon="-3.9420941"><ele>1034.0</ele><time>2026-05-04T10:50:44.627Z</time></trkpt><trkpt lat="40.7311719" lon="-3.9421959"><ele>1034.6666666666665</ele><time>2026-05-04T10:50:46.628Z</time></trkpt><trkpt lat="40.7312489" lon="-3.9423049"><ele>1035.3333333333333</ele><time>2026-05-04T10:50:48.627Z</time></trkpt><trkpt lat="40.7312948" lon="-3.9423702"><ele>1036.0</ele><time>2026-05-04T10:50:49.627Z</time></trkpt><trkpt lat="40.7313801" lon="-3.9424707"><ele>1037.2</ele><time>2026-05-04T10:50:51.627Z</time></trkpt><trkpt lat="40.7314716" lon="-3.9425778"><ele>1038.3999999999999</ele><time>2026-05-04T10:50:53.627Z</time></trkpt><trkpt lat="40.7315262" lon="-3.9426413"><ele>1039.6</ele><time>2026-05-04T10:50:54.628Z</time></trkpt><trkpt lat="40.731578" lon="-3.9427025"><ele>1040.8</ele><time>2026-05-04T10:50:55.628Z</time></trkpt><trkpt lat="40.7316635" lon="-3.9428032"><ele>1042.0</ele><time>2026-05-04T10:50:57.627Z</time></trkpt><trkpt lat="40.7317303" lon="-3.9428891"><ele>1042.0</ele><time>2026-05-04T10:50:59.627Z</time></trkpt><trkpt lat="40.7318107" lon="-3.9429792"><ele>1042.0</ele><time>2026-05-04T10:51:01.627Z</time></trkpt><trkpt lat="40.7318816" lon="-3.94294"><ele>1042.0</ele><time>2026-05-04T10:51:05.628Z</time></trkpt><trkpt lat="40.7318452" lon="-3.9428163"><ele>1042.0</ele><time>2026-05-04T10:51:08.628Z</time></trkpt><trkpt lat="40.731791" lon="-3.9427606"><ele>1042.0</ele><time>2026-05-04T10:51:09.627Z</time></trkpt><trkpt lat="40.7317177" lon="-3.9426893"><ele>1042.0</ele><time>2026-05-04T10:51:10.627Z</time></trkpt><trkpt lat="40.7316353" lon="-3.9426093"><ele>1041.2</ele><time>2026-05-04T10:51:11.627Z</time></trkpt><trkpt lat="40.7315532" lon="-3.9425177"><ele>1040.4</ele><time>2026-05-04T10:51:12.627Z</time></trkpt><trkpt lat="40.7314691" lon="-3.9424234"><ele>1039.6</ele><time>2026-05-04T10:51:13.627Z</time></trkpt><trkpt lat="40.7313929" lon="-3.9423201"><ele>1038.8</ele><time>2026-05-04T10:51:14.627Z</time></trkpt><trkpt lat="40.7313331" lon="-3.9422124"><ele>1038.0</ele><time>2026-05-04T10:51:15.627Z</time></trkpt><trkpt lat="40.7312975" lon="-3.9420946"><ele>1038.0</ele><time>2026-05-04T10:51:16.627Z</time></trkpt><trkpt lat="40.7312671" lon="-3.9419807"><ele>1038.0</ele><time>2026-05-04T10:51:17.627Z</time></trkpt><trkpt lat="40.7312359" lon="-3.941875"><ele>1038.0</ele><time>2026-05-04T10:51:18.627Z</time></trkpt><trkpt lat="40.7312011" lon="-3.9417882"><ele>1038.0</ele><time>2026-05-04T10:51:19.628Z</time></trkpt><trkpt lat="40.7311649" lon="-3.9416573"><ele>1038.0</ele><time>2026-05-04T10:51:21.627Z</time></trkpt><trkpt lat="40.7311999" lon="-3.9415191"><ele>1037.0</ele><time>2026-05-04T10:51:23.627Z</time></trkpt><trkpt lat="40.7312215" lon="-3.9414361"><ele>1036.0</ele><time>2026-05-04T10:51:24.627Z</time></trkpt><trkpt lat="40.7312379" lon="-3.9413412"><ele>1035.0</ele><time>2026-05-04T10:51:25.627Z</time></trkpt><trkpt lat="40.7312687" lon="-3.9412398"><ele>1034.0</ele><time>2026-05-04T10:51:26.627Z</time></trkpt><trkpt lat="40.7313108" lon="-3.9411497"><ele>1033.0</ele><time>2026-05-04T10:51:27.627Z</time></trkpt><trkpt lat="40.7313685" lon="-3.9410645"><ele>1032.0</ele><time>2026-05-04T10:51:28.627Z</time></trkpt><trkpt lat="40.7314246" lon="-3.9410065"><ele>1032.0</ele><time>2026-05-04T10:51:29.627Z</time></trkpt><trkpt lat="40.7315223" lon="-3.9409793"><ele>1032.0</ele><time>2026-05-04T10:51:31.627Z</time></trkpt><trkpt lat="40.7315963" lon="-3.9409854"><ele>1032.0</ele><time>2026-05-04T10:51:32.628Z</time></trkpt><trkpt lat="40.7316811" lon="-3.9410133"><ele>1032.0</ele><time>2026-05-04T10:51:33.627Z</time></trkpt><trkpt lat="40.7317645" lon="-3.9410549"><ele>1032.0</ele><time>2026-05-04T10:51:34.627Z</time></trkpt><trkpt lat="40.7318428" lon="-3.9411213"><ele>1032.0</ele><time>2026-05-04T10:51:35.627Z</time></trkpt><trkpt lat="40.7319084" lon="-3.9411973"><ele>1032.5</ele><time>2026-05-04T10:51:36.627Z</time></trkpt><trkpt lat="40.7319641" lon="-3.9412929"><ele>1033.0</ele><time>2026-05-04T10:51:37.627Z</time></trkpt><trkpt lat="40.7320188" lon="-3.9414014"><ele>1033.5</ele><time>2026-05-04T10:51:38.627Z</time></trkpt><trkpt lat="40.7320699" lon="-3.9414881"><ele>1034.0</ele><time>2026-05-04T10:51:39.627Z</time></trkpt><trkpt lat="40.7321207" lon="-3.9415585"><ele>1034.5</ele><time>2026-05-04T10:51:40.628Z</time></trkpt><trkpt lat="40.732168" lon="-3.9416161"><ele>1035.0</ele><time>2026-05-04T10:51:41.627Z</time></trkpt><trkpt lat="40.7322775" lon="-3.9416678"><ele>1035.0</ele><time>2026-05-04T10:51:43.627Z</time></trkpt><trkpt lat="40.7323778" lon="-3.9416456"><ele>1035.0</ele><time>2026-05-04T10:51:45.627Z</time></trkpt><trkpt lat="40.7324249" lon="-3.9415188"><ele>1035.0</ele><time>2026-05-04T10:51:47.627Z</time></trkpt><trkpt lat="40.7324332" lon="-3.9414286"><ele>1035.0</ele><time>2026-05-04T10:51:48.628Z</time></trkpt><trkpt lat="40.7324465" lon="-3.9413228"><ele>1035.0</ele><time>2026-05-04T10:51:49.627Z</time></trkpt><trkpt lat="40.7324656" lon="-3.9412033"><ele>1035.0</ele><time>2026-05-04T10:51:50.627Z</time></trkpt><trkpt lat="40.7324974" lon="-3.9410668"><ele>1035.0</ele><time>2026-05-04T10:51:51.627Z</time></trkpt><trkpt lat="40.7325234" lon="-3.9409252"><ele>1035.0</ele><time>2026-05-04T10:51:52.627Z</time></trkpt><trkpt lat="40.7325514" lon="-3.9407843"><ele>1035.0</ele><time>2026-05-04T10:51:53.627Z</time></trkpt><trkpt lat="40.7325793" lon="-3.9406327"><ele>1035.0</ele><time>2026-05-04T10:51:54.627Z</time></trkpt><trkpt lat="40.7326031" lon="-3.9404748"><ele>1034.25</ele><time>2026-05-04T10:51:55.627Z</time></trkpt><trkpt lat="40.7326204" lon="-3.9403064"><ele>1033.5</ele><time>2026-05-04T10:51:56.628Z</time></trkpt><trkpt lat="40.7326326" lon="-3.940132"><ele>1032.75</ele><time>2026-05-04T10:51:57.628Z</time></trkpt><trkpt lat="40.7326375" lon="-3.9399491"><ele>1032.0</ele><time>2026-05-04T10:51:58.627Z</time></trkpt><trkpt lat="40.7326366" lon="-3.9397627"><ele>1031.5</ele><time>2026-05-04T10:51:59.627Z</time></trkpt><trkpt lat="40.7326301" lon="-3.939571"><ele>1031.0</ele><time>2026-05-04T10:52:00.627Z</time></trkpt><trkpt lat="40.7326176" lon="-3.9393693"><ele>1030.5</ele><time>2026-05-04T10:52:01.627Z</time></trkpt><trkpt lat="40.7326026" lon="-3.9391805"><ele>1030.0</ele><time>2026-05-04T10:52:02.628Z</time></trkpt><trkpt lat="40.7325925" lon="-3.9389906"><ele>1028.75</ele><time>2026-05-04T10:52:03.627Z</time></trkpt><trkpt lat="40.7325739" lon="-3.9388021"><ele>1027.5</ele><time>2026-05-04T10:52:04.627Z</time></trkpt><trkpt lat="40.7325589" lon="-3.9386074"><ele>1026.25</ele><time>2026-05-04T10:52:05.627Z</time></trkpt><trkpt lat="40.7325481" lon="-3.9384037"><ele>1025.0</ele><time>2026-05-04T10:52:06.628Z</time></trkpt><trkpt lat="40.7325422" lon="-3.9381851"><ele>1023.6666666666667</ele><time>2026-05-04T10:52:07.627Z</time></trkpt><trkpt lat="40.732541" lon="-3.937962"><ele>1022.3333333333333</ele><time>2026-05-04T10:52:08.627Z</time></trkpt><trkpt lat="40.7325414" lon="-3.9377349"><ele>1021.0</ele><time>2026-05-04T10:52:09.627Z</time></trkpt><trkpt lat="40.7325478" lon="-3.9375211"><ele>1019.6666666666666</ele><time>2026-05-04T10:52:10.627Z</time></trkpt><trkpt lat="40.732557" lon="-3.9373208"><ele>1018.3333333333333</ele><time>2026-05-04T10:52:11.627Z</time></trkpt><trkpt lat="40.7325741" lon="-3.937122"><ele>1017.0</ele><time>2026-05-04T10:52:12.627Z</time></trkpt><trkpt lat="40.7325979" lon="-3.9369209"><ele>1015.3333333333333</ele><time>2026-05-04T10:52:13.627Z</time></trkpt><trkpt lat="40.732621" lon="-3.9367124"><ele>1013.6666666666666</ele><time>2026-05-04T10:52:14.627Z</time></trkpt><trkpt lat="40.7326532" lon="-3.9364975"><ele>1012.0</ele><time>2026-05-04T10:52:15.627Z</time></trkpt><trkpt lat="40.7326959" lon="-3.9362773"><ele>1011.6666666666666</ele><time>2026-05-04T10:52:16.628Z</time></trkpt><trkpt lat="40.732736" lon="-3.9360608"><ele>1011.3333333333333</ele><time>2026-05-04T10:52:17.627Z</time></trkpt><trkpt lat="40.7327735" lon="-3.9358484"><ele>1011.0</ele><time>2026-05-04T10:52:18.627Z</time></trkpt><trkpt lat="40.7327998" lon="-3.9356489"><ele>1011.0</ele><time>2026-05-04T10:52:19.627Z</time></trkpt><trkpt lat="40.7328187" lon="-3.9354564"><ele>1011.0</ele><time>2026-05-04T10:52:20.627Z</time></trkpt><trkpt lat="40.73283" lon="-3.9352632"><ele>1011.0</ele><time>2026-05-04T10:52:21.627Z</time></trkpt><trkpt lat="40.7328338" lon="-3.9350722"><ele>1011.0</ele><time>2026-05-04T10:52:22.628Z</time></trkpt><trkpt lat="40.7328225" lon="-3.9348788"><ele>1009.0</ele><time>2026-05-04T10:52:23.627Z</time></trkpt><trkpt lat="40.7328032" lon="-3.9346777"><ele>1007.0</ele><time>2026-05-04T10:52:24.627Z</time></trkpt><trkpt lat="40.7327819" lon="-3.9344736"><ele>1005.0</ele><time>2026-05-04T10:52:25.627Z</time></trkpt><trkpt lat="40.7327646" lon="-3.9342646"><ele>1004.75</ele><time>2026-05-04T10:52:26.627Z</time></trkpt><trkpt lat="40.7327511" lon="-3.9340639"><ele>1004.5</ele><time>2026-05-04T10:52:27.627Z</time></trkpt><trkpt lat="40.7327436" lon="-3.9338696"><ele>1004.25</ele><time>2026-05-04T10:52:28.627Z</time></trkpt><trkpt lat="40.7327195" lon="-3.9336841"><ele>1004.0</ele><time>2026-05-04T10:52:29.627Z</time></trkpt><trkpt lat="40.7326881" lon="-3.9335101"><ele>1003.6666666666667</ele><time>2026-05-04T10:52:30.627Z</time></trkpt><trkpt lat="40.7326532" lon="-3.9333572"><ele>1003.3333333333334</ele><time>2026-05-04T10:52:31.627Z</time></trkpt><trkpt lat="40.7326251" lon="-3.9332356"><ele>1003.0</ele><time>2026-05-04T10:52:32.627Z</time></trkpt><trkpt lat="40.7326107" lon="-3.9331272"><ele>1002.6666666666667</ele><time>2026-05-04T10:52:33.627Z</time></trkpt><trkpt lat="40.732605" lon="-3.9330358"><ele>1002.3333333333334</ele><time>2026-05-04T10:52:34.627Z</time></trkpt><trkpt lat="40.7326224" lon="-3.9329374"><ele>1002.0</ele><time>2026-05-04T10:52:35.627Z</time></trkpt><trkpt lat="40.732665" lon="-3.9328329"><ele>1001.0</ele><time>2026-05-04T10:52:36.628Z</time></trkpt><trkpt lat="40.7327234" lon="-3.9327208"><ele>1000.0</ele><time>2026-05-04T10:52:37.628Z</time></trkpt><trkpt lat="40.7327791" lon="-3.9325885"><ele>999.0</ele><time>2026-05-04T10:52:38.627Z</time></trkpt><trkpt lat="40.7328177" lon="-3.9324539"><ele>998.0</ele><time>2026-05-04T10:52:39.627Z</time></trkpt><trkpt lat="40.7328349" lon="-3.932317"><ele>997.0</ele><time>2026-05-04T10:52:40.627Z</time></trkpt><trkpt lat="40.7328342" lon="-3.9321717"><ele>996.75</ele><time>2026-05-04T10:52:41.627Z</time></trkpt><trkpt lat="40.7328155" lon="-3.932011"><ele>996.5</ele><time>2026-05-04T10:52:42.627Z</time></trkpt><trkpt lat="40.7327792" lon="-3.9318541"><ele>996.25</ele><time>2026-05-04T10:52:43.627Z</time></trkpt><trkpt lat="40.7327309" lon="-3.9316844"><ele>996.0</ele><time>2026-05-04T10:52:44.627Z</time></trkpt><trkpt lat="40.7326726" lon="-3.9315216"><ele>995.5</ele><time>2026-05-04T10:52:45.627Z</time></trkpt><trkpt lat="40.7326029" lon="-3.9313717"><ele>995.0</ele><time>2026-05-04T10:52:46.628Z</time></trkpt><trkpt lat="40.7325345" lon="-3.9312386"><ele>994.5</ele><time>2026-05-04T10:52:47.627Z</time></trkpt><trkpt lat="40.7324715" lon="-3.9310977"><ele>994.0</ele><time>2026-05-04T10:52:48.627Z</time></trkpt><trkpt lat="40.732417" lon="-3.9309622"><ele>993.25</ele><time>2026-05-04T10:52:49.627Z</time></trkpt><trkpt lat="40.7323764" lon="-3.9308102"><ele>992.5</ele><time>2026-05-04T10:52:50.628Z</time></trkpt><trkpt lat="40.7323433" lon="-3.9306419"><ele>991.75</ele><time>2026-05-04T10:52:51.627Z</time></trkpt><trkpt lat="40.7323208" lon="-3.9304717"><ele>991.0</ele><time>2026-05-04T10:52:52.627Z</time></trkpt><trkpt lat="40.7323162" lon="-3.9302964"><ele>991.0</ele><time>2026-05-04T10:52:53.627Z</time></trkpt><trkpt lat="40.7323157" lon="-3.930131"><ele>991.0</ele><time>2026-05-04T10:52:54.628Z</time></trkpt><trkpt lat="40.7323229" lon="-3.92997"><ele>991.0</ele><time>2026-05-04T10:52:55.627Z</time></trkpt><trkpt lat="40.7323362" lon="-3.9298302"><ele>991.0</ele><time>2026-05-04T10:52:56.627Z</time></trkpt><trkpt lat="40.7323577" lon="-3.9296976"><ele>990.0</ele><time>2026-05-04T10:52:57.627Z</time></trkpt><trkpt lat="40.7323685" lon="-3.9295763"><ele>988.9999999999999</ele><time>2026-05-04T10:52:58.628Z</time></trkpt><trkpt lat="40.7323618" lon="-3.9294531"><ele>987.9999999999999</ele><time>2026-05-04T10:52:59.627Z</time></trkpt><trkpt lat="40.7323297" lon="-3.9293367"><ele>987.0</ele><time>2026-05-04T10:53:00.627Z</time></trkpt><trkpt lat="40.7322835" lon="-3.929219"><ele>986.0</ele><time>2026-05-04T10:53:01.627Z</time></trkpt><trkpt lat="40.7322249" lon="-3.9290968"><ele>984.5</ele><time>2026-05-04T10:53:02.628Z</time></trkpt><trkpt lat="40.7321597" lon="-3.9289517"><ele>983.0</ele><time>2026-05-04T10:53:03.627Z</time></trkpt><trkpt lat="40.7320859" lon="-3.9287995"><ele>981.5</ele><time>2026-05-04T10:53:04.627Z</time></trkpt><trkpt lat="40.7320128" lon="-3.9286412"><ele>980.0</ele><time>2026-05-04T10:53:05.627Z</time></trkpt><trkpt lat="40.7319357" lon="-3.9284853"><ele>978.25</ele><time>2026-05-04T10:53:06.627Z</time></trkpt><trkpt lat="40.731857" lon="-3.9283224"><ele>976.5</ele><time>2026-05-04T10:53:07.627Z</time></trkpt><trkpt lat="40.7317853" lon="-3.928169"><ele>974.75</ele><time>2026-05-04T10:53:08.627Z</time></trkpt><trkpt lat="40.7317199" lon="-3.9280171"><ele>973.0</ele><time>2026-05-04T10:53:09.627Z</time></trkpt><trkpt lat="40.7316582" lon="-3.9278622"><ele>973.0</ele><time>2026-05-04T10:53:10.627Z</time></trkpt><trkpt lat="40.7315926" lon="-3.9276849"><ele>973.0</ele><time>2026-05-04T10:53:11.627Z</time></trkpt><trkpt lat="40.7315301" lon="-3.9275027"><ele>973.0</ele><time>2026-05-04T10:53:12.627Z</time></trkpt><trkpt lat="40.731474" lon="-3.927314"><ele>972.5</ele><time>2026-05-04T10:53:13.627Z</time></trkpt><trkpt lat="40.7314266" lon="-3.9271453"><ele>972.0</ele><time>2026-05-04T10:53:14.627Z</time></trkpt><trkpt lat="40.7313829" lon="-3.9269921"><ele>971.5</ele><time>2026-05-04T10:53:15.627Z</time></trkpt><trkpt lat="40.7313414" lon="-3.9268513"><ele>971.0</ele><time>2026-05-04T10:53:16.627Z</time></trkpt><trkpt lat="40.7312999" lon="-3.9267133"><ele>971.0</ele><time>2026-05-04T10:53:17.627Z</time></trkpt><trkpt lat="40.7312416" lon="-3.9265904"><ele>971.0</ele><time>2026-05-04T10:53:18.627Z</time></trkpt><trkpt lat="40.7311784" lon="-3.9264631"><ele>971.0</ele><time>2026-05-04T10:53:19.627Z</time></trkpt><trkpt lat="40.7311284" lon="-3.9263235"><ele>971.0</ele><time>2026-05-04T10:53:20.627Z</time></trkpt><trkpt lat="40.7310805" lon="-3.9261907"><ele>970.5</ele><time>2026-05-04T10:53:21.627Z</time></trkpt><trkpt lat="40.7310386" lon="-3.9260637"><ele>970.0</ele><time>2026-05-04T10:53:22.627Z</time></trkpt><trkpt lat="40.7309902" lon="-3.9259316"><ele>969.5</ele><time>2026-05-04T10:53:23.627Z</time></trkpt><trkpt lat="40.7309411" lon="-3.9257715"><ele>969.0</ele><time>2026-05-04T10:53:24.627Z</time></trkpt><trkpt lat="40.7308891" lon="-3.9256028"><ele>968.25</ele><time>2026-05-04T10:53:25.627Z</time></trkpt><trkpt lat="40.7308341" lon="-3.9254442"><ele>967.5</ele><time>2026-05-04T10:53:26.627Z</time></trkpt><trkpt lat="40.7307808" lon="-3.9252748"><ele>966.75</ele><time>2026-05-04T10:53:27.627Z</time></trkpt><trkpt lat="40.7307226" lon="-3.9250989"><ele>966.0</ele><time>2026-05-04T10:53:28.627Z</time></trkpt><trkpt lat="40.7306606" lon="-3.9249303"><ele>965.5</ele><time>2026-05-04T10:53:29.627Z</time></trkpt><trkpt lat="40.7305983" lon="-3.9247556"><ele>965.0</ele><time>2026-05-04T10:53:30.627Z</time></trkpt><trkpt lat="40.730542" lon="-3.924575"><ele>964.5</ele><time>2026-05-04T10:53:31.628Z</time></trkpt><trkpt lat="40.7304906" lon="-3.9243875"><ele>964.0</ele><time>2026-05-04T10:53:32.627Z</time></trkpt><trkpt lat="40.7304503" lon="-3.9241934"><ele>963.75</ele><time>2026-05-04T10:53:33.627Z</time></trkpt><trkpt lat="40.7304146" lon="-3.9240078"><ele>963.5</ele><time>2026-05-04T10:53:34.627Z</time></trkpt><trkpt lat="40.7303707" lon="-3.9238212"><ele>963.25</ele><time>2026-05-04T10:53:35.627Z</time></trkpt><trkpt lat="40.7303189" lon="-3.9236339"><ele>963.0</ele><time>2026-05-04T10:53:36.627Z</time></trkpt><trkpt lat="40.730267" lon="-3.9234528"><ele>962.25</ele><time>2026-05-04T10:53:37.627Z</time></trkpt><trkpt lat="40.7302213" lon="-3.9232867"><ele>961.5</ele><time>2026-05-04T10:53:38.628Z</time></trkpt><trkpt lat="40.7301936" lon="-3.9231138"><ele>960.75</ele><time>2026-05-04T10:53:39.628Z</time></trkpt><trkpt lat="40.7301841" lon="-3.9229347"><ele>960.0</ele><time>2026-05-04T10:53:40.627Z</time></trkpt><trkpt lat="40.730178" lon="-3.9227454"><ele>959.0</ele><time>2026-05-04T10:53:41.627Z</time></trkpt><trkpt lat="40.7301739" lon="-3.9225613"><ele>958.0</ele><time>2026-05-04T10:53:42.628Z</time></trkpt><trkpt lat="40.7301645" lon="-3.9223818"><ele>957.0</ele><time>2026-05-04T10:53:43.627Z</time></trkpt><trkpt lat="40.7301543" lon="-3.9222057"><ele>956.0</ele><time>2026-05-04T10:53:44.627Z</time></trkpt><trkpt lat="40.7301374" lon="-3.92204"><ele>956.0</ele><time>2026-05-04T10:53:45.626Z</time></trkpt><trkpt lat="40.7301159" lon="-3.9218695"><ele>956.0</ele><time>2026-05-04T10:53:46.627Z</time></trkpt><trkpt lat="40.7300746" lon="-3.9216964"><ele>956.0</ele><time>2026-05-04T10:53:47.626Z</time></trkpt><trkpt lat="40.7300101" lon="-3.9215168"><ele>956.0</ele><time>2026-05-04T10:53:48.626Z</time></trkpt><trkpt lat="40.7299452" lon="-3.9213374"><ele>955.0</ele><time>2026-05-04T10:53:49.626Z</time></trkpt><trkpt lat="40.7298808" lon="-3.9211437"><ele>954.0</ele><time>2026-05-04T10:53:50.627Z</time></trkpt><trkpt lat="40.7298184" lon="-3.9209505"><ele>953.0</ele><time>2026-05-04T10:53:51.626Z</time></trkpt><trkpt lat="40.7297608" lon="-3.9207575"><ele>953.0</ele><time>2026-05-04T10:53:52.626Z</time></trkpt><trkpt lat="40.7297044" lon="-3.9205661"><ele>953.0</ele><time>2026-05-04T10:53:53.627Z</time></trkpt><trkpt lat="40.7296418" lon="-3.9203716"><ele>953.0</ele><time>2026-05-04T10:53:54.626Z</time></trkpt><trkpt lat="40.7295715" lon="-3.9201782"><ele>952.6666666666667</ele><time>2026-05-04T10:53:55.626Z</time></trkpt><trkpt lat="40.729503" lon="-3.9199768"><ele>952.3333333333333</ele><time>2026-05-04T10:53:56.626Z</time></trkpt><trkpt lat="40.7294358" lon="-3.9197751"><ele>952.0</ele><time>2026-05-04T10:53:57.626Z</time></trkpt><trkpt lat="40.7293708" lon="-3.9195752"><ele>950.0</ele><time>2026-05-04T10:53:58.626Z</time></trkpt><trkpt lat="40.7293071" lon="-3.9193693"><ele>948.0</ele><time>2026-05-04T10:53:59.626Z</time></trkpt><trkpt lat="40.7292439" lon="-3.9191566"><ele>946.0</ele><time>2026-05-04T10:54:00.626Z</time></trkpt><trkpt lat="40.7291769" lon="-3.9189414"><ele>945.6666666666666</ele><time>2026-05-04T10:54:01.626Z</time></trkpt><trkpt lat="40.7291048" lon="-3.9187344"><ele>945.3333333333333</ele><time>2026-05-04T10:54:02.626Z</time></trkpt><trkpt lat="40.7290354" lon="-3.9185267"><ele>945.0</ele><time>2026-05-04T10:54:03.626Z</time></trkpt><trkpt lat="40.7289665" lon="-3.918316"><ele>945.6666666666667</ele><time>2026-05-04T10:54:04.626Z</time></trkpt><trkpt lat="40.7288976" lon="-3.9181046"><ele>946.3333333333334</ele><time>2026-05-04T10:54:05.627Z</time></trkpt><trkpt lat="40.7288299" lon="-3.9178985"><ele>947.0</ele><time>2026-05-04T10:54:06.626Z</time></trkpt><trkpt lat="40.7287651" lon="-3.9176943"><ele>947.6666666666667</ele><time>2026-05-04T10:54:07.626Z</time></trkpt><trkpt lat="40.7287015" lon="-3.9174854"><ele>948.3333333333333</ele><time>2026-05-04T10:54:08.626Z</time></trkpt><trkpt lat="40.7286342" lon="-3.9172704"><ele>949.0</ele><time>2026-05-04T10:54:09.626Z</time></trkpt><trkpt lat="40.72857" lon="-3.9170555"><ele>947.3333333333333</ele><time>2026-05-04T10:54:10.626Z</time></trkpt><trkpt lat="40.728506" lon="-3.9168425"><ele>945.6666666666667</ele><time>2026-05-04T10:54:11.627Z</time></trkpt><trkpt lat="40.728443" lon="-3.9166392"><ele>944.0</ele><time>2026-05-04T10:54:12.626Z</time></trkpt><trkpt lat="40.7283784" lon="-3.9164456"><ele>944.0</ele><time>2026-05-04T10:54:13.626Z</time></trkpt><trkpt lat="40.7283117" lon="-3.91626"><ele>944.0</ele><time>2026-05-04T10:54:14.626Z</time></trkpt><trkpt lat="40.7282433" lon="-3.9160722"><ele>944.0</ele><time>2026-05-04T10:54:15.626Z</time></trkpt><trkpt lat="40.7281664" lon="-3.9158944"><ele>944.0</ele><time>2026-05-04T10:54:16.626Z</time></trkpt><trkpt lat="40.7280775" lon="-3.9157326"><ele>944.0</ele><time>2026-05-04T10:54:17.626Z</time></trkpt><trkpt lat="40.7279866" lon="-3.9155761"><ele>944.0</ele><time>2026-05-04T10:54:18.627Z</time></trkpt><trkpt lat="40.7279003" lon="-3.9154181"><ele>944.0</ele><time>2026-05-04T10:54:19.626Z</time></trkpt><trkpt lat="40.7278199" lon="-3.9152739"><ele>944.0</ele><time>2026-05-04T10:54:20.627Z</time></trkpt><trkpt lat="40.7277362" lon="-3.9151446"><ele>944.0</ele><time>2026-05-04T10:54:21.626Z</time></trkpt><trkpt lat="40.7276487" lon="-3.9150183"><ele>944.0</ele><time>2026-05-04T10:54:22.626Z</time></trkpt><trkpt lat="40.7275542" lon="-3.9148915"><ele>944.0</ele><time>2026-05-04T10:54:23.626Z</time></trkpt><trkpt lat="40.7274593" lon="-3.9147527"><ele>943.25</ele><time>2026-05-04T10:54:24.626Z</time></trkpt><trkpt lat="40.7273663" lon="-3.9146158"><ele>942.5</ele><time>2026-05-04T10:54:25.626Z</time></trkpt><trkpt lat="40.7272829" lon="-3.9144876"><ele>941.75</ele><time>2026-05-04T10:54:26.627Z</time></trkpt><trkpt lat="40.7272042" lon="-3.9143486"><ele>941.0</ele><time>2026-05-04T10:54:27.627Z</time></trkpt><trkpt lat="40.7271287" lon="-3.9142093"><ele>941.0</ele><time>2026-05-04T10:54:28.626Z</time></trkpt><trkpt lat="40.72705" lon="-3.9140724"><ele>941.0</ele><time>2026-05-04T10:54:29.626Z</time></trkpt><trkpt lat="40.7269601" lon="-3.9139415"><ele>941.0</ele><time>2026-05-04T10:54:30.626Z</time></trkpt><trkpt lat="40.7268699" lon="-3.9138078"><ele>941.0</ele><time>2026-05-04T10:54:31.626Z</time></trkpt><trkpt lat="40.7267727" lon="-3.9136775"><ele>939.75</ele><time>2026-05-04T10:54:32.626Z</time></trkpt><trkpt lat="40.7266661" lon="-3.9135437"><ele>938.5</ele><time>2026-05-04T10:54:33.626Z</time></trkpt><trkpt lat="40.7265593" lon="-3.9134031"><ele>937.25</ele><time>2026-05-04T10:54:34.626Z</time></trkpt><trkpt lat="40.7264582" lon="-3.9132592"><ele>936.0</ele><time>2026-05-04T10:54:35.626Z</time></trkpt><trkpt lat="40.726368" lon="-3.9131152"><ele>936.0</ele><time>2026-05-04T10:54:36.626Z</time></trkpt><trkpt lat="40.7262836" lon="-3.9129727"><ele>936.0</ele><time>2026-05-04T10:54:37.626Z</time></trkpt><trkpt lat="40.7262063" lon="-3.9128236"><ele>936.0</ele><time>2026-05-04T10:54:38.626Z</time></trkpt><trkpt lat="40.7261314" lon="-3.9126667"><ele>936.0</ele><time>2026-05-04T10:54:39.626Z</time></trkpt><trkpt lat="40.7260539" lon="-3.9125077"><ele>935.5</ele><time>2026-05-04T10:54:40.626Z</time></trkpt><trkpt lat="40.7259684" lon="-3.91235"><ele>935.0</ele><time>2026-05-04T10:54:41.626Z</time></trkpt><trkpt lat="40.7258747" lon="-3.9121919"><ele>934.5</ele><time>2026-05-04T10:54:42.626Z</time></trkpt><trkpt lat="40.7257854" lon="-3.9120356"><ele>934.0</ele><time>2026-05-04T10:54:43.626Z</time></trkpt><trkpt lat="40.7256938" lon="-3.9118773"><ele>935.0</ele><time>2026-05-04T10:54:44.627Z</time></trkpt><trkpt lat="40.7256012" lon="-3.9117144"><ele>936.0</ele><time>2026-05-04T10:54:45.626Z</time></trkpt><trkpt lat="40.7255107" lon="-3.9115552"><ele>937.0</ele><time>2026-05-04T10:54:46.626Z</time></trkpt><trkpt lat="40.7254281" lon="-3.9114004"><ele>938.0</ele><time>2026-05-04T10:54:47.626Z</time></trkpt><trkpt lat="40.7253438" lon="-3.9112427"><ele>938.0</ele><time>2026-05-04T10:54:48.626Z</time></trkpt><trkpt lat="40.7252643" lon="-3.9110886"><ele>938.0</ele><time>2026-05-04T10:54:49.626Z</time></trkpt><trkpt lat="40.7251909" lon="-3.9109291"><ele>938.0</ele><time>2026-05-04T10:54:50.626Z</time></trkpt><trkpt lat="40.7251238" lon="-3.9107847"><ele>938.0</ele><time>2026-05-04T10:54:51.626Z</time></trkpt><trkpt lat="40.7250612" lon="-3.9106535"><ele>938.2</ele><time>2026-05-04T10:54:52.626Z</time></trkpt><trkpt lat="40.7250031" lon="-3.9105415"><ele>938.4</ele><time>2026-05-04T10:54:53.626Z</time></trkpt><trkpt lat="40.724931" lon="-3.910439"><ele>938.6000000000001</ele><time>2026-05-04T10:54:54.626Z</time></trkpt><trkpt lat="40.7248402" lon="-3.9103637"><ele>938.8000000000001</ele><time>2026-05-04T10:54:55.626Z</time></trkpt><trkpt lat="40.7247404" lon="-3.9102923"><ele>939.0</ele><time>2026-05-04T10:54:56.626Z</time></trkpt><trkpt lat="40.724635" lon="-3.9102327"><ele>939.0</ele><time>2026-05-04T10:54:57.626Z</time></trkpt><trkpt lat="40.724534" lon="-3.9101601"><ele>939.0</ele><time>2026-05-04T10:54:58.626Z</time></trkpt><trkpt lat="40.7244409" lon="-3.9100674"><ele>939.0</ele><time>2026-05-04T10:54:59.626Z</time></trkpt><trkpt lat="40.724344" lon="-3.9099466"><ele>939.0</ele><time>2026-05-04T10:55:00.626Z</time></trkpt><trkpt lat="40.724249" lon="-3.9098133"><ele>939.5</ele><time>2026-05-04T10:55:01.626Z</time></trkpt><trkpt lat="40.7241479" lon="-3.9096791"><ele>940.0</ele><time>2026-05-04T10:55:02.626Z</time></trkpt><trkpt lat="40.724043" lon="-3.909546"><ele>940.5</ele><time>2026-05-04T10:55:03.626Z</time></trkpt><trkpt lat="40.7239387" lon="-3.9094185"><ele>941.0</ele><time>2026-05-04T10:55:04.626Z</time></trkpt><trkpt lat="40.7238371" lon="-3.9092885"><ele>941.75</ele><time>2026-05-04T10:55:05.627Z</time></trkpt><trkpt lat="40.7237362" lon="-3.9091544"><ele>942.5</ele><time>2026-05-04T10:55:06.626Z</time></trkpt><trkpt lat="40.7236322" lon="-3.9090217"><ele>943.25</ele><time>2026-05-04T10:55:07.627Z</time></trkpt><trkpt lat="40.7235259" lon="-3.9088868"><ele>944.0</ele><time>2026-05-04T10:55:08.626Z</time></trkpt><trkpt lat="40.7234262" lon="-3.9087384"><ele>943.3333333333334</ele><time>2026-05-04T10:55:09.626Z</time></trkpt><trkpt lat="40.7233332" lon="-3.908574"><ele>942.6666666666667</ele><time>2026-05-04T10:55:10.626Z</time></trkpt><trkpt lat="40.7232644" lon="-3.9083953"><ele>942.0</ele><time>2026-05-04T10:55:11.626Z</time></trkpt><trkpt lat="40.7231979" lon="-3.9082093"><ele>942.0</ele><time>2026-05-04T10:55:12.626Z</time></trkpt><trkpt lat="40.723138" lon="-3.9080092"><ele>942.0</ele><time>2026-05-04T10:55:13.626Z</time></trkpt><trkpt lat="40.7230824" lon="-3.9078054"><ele>942.0</ele><time>2026-05-04T10:55:14.626Z</time></trkpt><trkpt lat="40.7230297" lon="-3.9076029"><ele>943.6666666666667</ele><time>2026-05-04T10:55:15.626Z</time></trkpt><trkpt lat="40.7229837" lon="-3.9074097"><ele>945.3333333333334</ele><time>2026-05-04T10:55:16.626Z</time></trkpt><trkpt lat="40.7229458" lon="-3.9072202"><ele>947.0</ele><time>2026-05-04T10:55:17.626Z</time></trkpt><trkpt lat="40.7229244" lon="-3.9070268"><ele>947.0</ele><time>2026-05-04T10:55:18.626Z</time></trkpt><trkpt lat="40.7229273" lon="-3.9068425"><ele>947.0</ele><time>2026-05-04T10:55:19.626Z</time></trkpt><trkpt lat="40.72295" lon="-3.9066441"><ele>947.0</ele><time>2026-05-04T10:55:20.626Z</time></trkpt><trkpt lat="40.7229713" lon="-3.9064389"><ele>947.0</ele><time>2026-05-04T10:55:21.626Z</time></trkpt><trkpt lat="40.7229878" lon="-3.9062329"><ele>949.3333333333334</ele><time>2026-05-04T10:55:22.626Z</time></trkpt><trkpt lat="40.7229882" lon="-3.9060218"><ele>951.6666666666667</ele><time>2026-05-04T10:55:23.626Z</time></trkpt><trkpt lat="40.7229742" lon="-3.9058037"><ele>954.0</ele><time>2026-05-04T10:55:24.626Z</time></trkpt><trkpt lat="40.722944" lon="-3.905565"><ele>953.0</ele><time>2026-05-04T10:55:25.626Z</time></trkpt><trkpt lat="40.7229166" lon="-3.9053133"><ele>952.0</ele><time>2026-05-04T10:55:26.626Z</time></trkpt><trkpt lat="40.7228976" lon="-3.9050605"><ele>951.0</ele><time>2026-05-04T10:55:27.626Z</time></trkpt><trkpt lat="40.7228836" lon="-3.9048117"><ele>951.0</ele><time>2026-05-04T10:55:28.626Z</time></trkpt><trkpt lat="40.7228794" lon="-3.9045699"><ele>951.0</ele><time>2026-05-04T10:55:29.627Z</time></trkpt><trkpt lat="40.722879" lon="-3.904327"><ele>951.0</ele><time>2026-05-04T10:55:30.626Z</time></trkpt><trkpt lat="40.7228793" lon="-3.9040652"><ele>949.6666666666667</ele><time>2026-05-04T10:55:31.626Z</time></trkpt><trkpt lat="40.7228726" lon="-3.9037984"><ele>948.3333333333334</ele><time>2026-05-04T10:55:32.626Z</time></trkpt><trkpt lat="40.7228662" lon="-3.9035329"><ele>947.0</ele><time>2026-05-04T10:55:33.626Z</time></trkpt><trkpt lat="40.7228554" lon="-3.9032747"><ele>947.0</ele><time>2026-05-04T10:55:34.626Z</time></trkpt><trkpt lat="40.7228558" lon="-3.9030268"><ele>947.0</ele><time>2026-05-04T10:55:35.626Z</time></trkpt><trkpt lat="40.7228511" lon="-3.9027807"><ele>947.0</ele><time>2026-05-04T10:55:36.627Z</time></trkpt><trkpt lat="40.7228478" lon="-3.9025367"><ele>946.6666666666667</ele><time>2026-05-04T10:55:37.626Z</time></trkpt><trkpt lat="40.7228475" lon="-3.9022894"><ele>946.3333333333333</ele><time>2026-05-04T10:55:38.627Z</time></trkpt><trkpt lat="40.7228543" lon="-3.9020385"><ele>946.0</ele><time>2026-05-04T10:55:39.626Z</time></trkpt><trkpt lat="40.7228671" lon="-3.9017862"><ele>946.0</ele><time>2026-05-04T10:55:40.626Z</time></trkpt><trkpt lat="40.7228817" lon="-3.9015393"><ele>946.0</ele><time>2026-05-04T10:55:41.626Z</time></trkpt><trkpt lat="40.7228945" lon="-3.9013015"><ele>946.0</ele><time>2026-05-04T10:55:42.627Z</time></trkpt><trkpt lat="40.7229061" lon="-3.9010676"><ele>945.0</ele><time>2026-05-04T10:55:43.626Z</time></trkpt><trkpt lat="40.7229153" lon="-3.9008253"><ele>944.0</ele><time>2026-05-04T10:55:44.626Z</time></trkpt><trkpt lat="40.7229337" lon="-3.9005794"><ele>943.0</ele><time>2026-05-04T10:55:45.627Z</time></trkpt><trkpt lat="40.7229511" lon="-3.9003394"><ele>943.0</ele><time>2026-05-04T10:55:46.626Z</time></trkpt><trkpt lat="40.7229679" lon="-3.9001137"><ele>943.0</ele><time>2026-05-04T10:55:47.626Z</time></trkpt><trkpt lat="40.7229923" lon="-3.8999"><ele>943.0</ele><time>2026-05-04T10:55:48.626Z</time></trkpt><trkpt lat="40.7230104" lon="-3.8997177"><ele>942.4999999999999</ele><time>2026-05-04T10:55:49.626Z</time></trkpt><trkpt lat="40.7230324" lon="-3.8995733"><ele>942.0</ele><time>2026-05-04T10:55:50.626Z</time></trkpt><trkpt lat="40.7230562" lon="-3.8994482"><ele>941.5</ele><time>2026-05-04T10:55:51.626Z</time></trkpt><trkpt lat="40.7230822" lon="-3.8993491"><ele>941.0</ele><time>2026-05-04T10:55:52.627Z</time></trkpt><trkpt lat="40.7231055" lon="-3.8992568"><ele>940.4999999999999</ele><time>2026-05-04T10:55:53.626Z</time></trkpt><trkpt lat="40.7231333" lon="-3.899171"><ele>940.0</ele><time>2026-05-04T10:55:54.627Z</time></trkpt><trkpt lat="40.7231617" lon="-3.8990845"><ele>939.8571428571428</ele><time>2026-05-04T10:55:55.626Z</time></trkpt><trkpt lat="40.7231828" lon="-3.8990003"><ele>939.7142857142856</ele><time>2026-05-04T10:55:56.626Z</time></trkpt><trkpt lat="40.723207" lon="-3.898916"><ele>939.5714285714286</ele><time>2026-05-04T10:55:57.626Z</time></trkpt><trkpt lat="40.7232421" lon="-3.8988405"><ele>939.4285714285713</ele><time>2026-05-04T10:55:58.626Z</time></trkpt><trkpt lat="40.7232875" lon="-3.8987719"><ele>939.2857142857142</ele><time>2026-05-04T10:55:59.626Z</time></trkpt><trkpt lat="40.7233334" lon="-3.8987022"><ele>939.1428571428571</ele><time>2026-05-04T10:56:00.626Z</time></trkpt><trkpt lat="40.7233766" lon="-3.898632"><ele>939.0</ele><time>2026-05-04T10:56:01.626Z</time></trkpt><trkpt lat="40.7234061" lon="-3.898557"><ele>939.2</ele><time>2026-05-04T10:56:02.627Z</time></trkpt><trkpt lat="40.723427" lon="-3.8984057"><ele>939.4000000000001</ele><time>2026-05-04T10:56:04.627Z</time></trkpt><trkpt lat="40.7233997" lon="-3.898244"><ele>939.6</ele><time>2026-05-04T10:56:06.626Z</time></trkpt><trkpt lat="40.7233738" lon="-3.8981314"><ele>939.8</ele><time>2026-05-04T10:56:07.626Z</time></trkpt><trkpt lat="40.7233512" lon="-3.8980197"><ele>940.0</ele><time>2026-05-04T10:56:08.626Z</time></trkpt><trkpt lat="40.7233341" lon="-3.8978922"><ele>940.0</ele><time>2026-05-04T10:56:09.626Z</time></trkpt><trkpt lat="40.7233125" lon="-3.8977444"><ele>940.0</ele><time>2026-05-04T10:56:10.626Z</time></trkpt><trkpt lat="40.7232969" lon="-3.8975839"><ele>940.0</ele><time>2026-05-04T10:56:11.627Z</time></trkpt><trkpt lat="40.7232949" lon="-3.8974285"><ele>940.0</ele><time>2026-05-04T10:56:12.626Z</time></trkpt><trkpt lat="40.7233003" lon="-3.8972738"><ele>941.75</ele><time>2026-05-04T10:56:13.626Z</time></trkpt><trkpt lat="40.7233074" lon="-3.8971095"><ele>943.5</ele><time>2026-05-04T10:56:14.626Z</time></trkpt><trkpt lat="40.7233198" lon="-3.8969302"><ele>945.25</ele><time>2026-05-04T10:56:15.626Z</time></trkpt><trkpt lat="40.7233316" lon="-3.8967402"><ele>947.0</ele><time>2026-05-04T10:56:16.627Z</time></trkpt><trkpt lat="40.7233384" lon="-3.8965551"><ele>947.0</ele><time>2026-05-04T10:56:17.627Z</time></trkpt><trkpt lat="40.7233448" lon="-3.8963767"><ele>947.0</ele><time>2026-05-04T10:56:18.626Z</time></trkpt><trkpt lat="40.7233559" lon="-3.8962038"><ele>947.0</ele><time>2026-05-04T10:56:19.626Z</time></trkpt><trkpt lat="40.7233686" lon="-3.896018"><ele>947.0</ele><time>2026-05-04T10:56:20.626Z</time></trkpt><trkpt lat="40.7233804" lon="-3.8958241"><ele>948.3333333333334</ele><time>2026-05-04T10:56:21.626Z</time></trkpt><trkpt lat="40.7233906" lon="-3.8956111"><ele>949.6666666666667</ele><time>2026-05-04T10:56:22.626Z</time></trkpt><trkpt lat="40.7233944" lon="-3.895401"><ele>951.0</ele><time>2026-05-04T10:56:23.626Z</time></trkpt><trkpt lat="40.723402" lon="-3.8951995"><ele>951.25</ele><time>2026-05-04T10:56:24.626Z</time></trkpt><trkpt lat="40.7234097" lon="-3.895001"><ele>951.5</ele><time>2026-05-04T10:56:25.627Z</time></trkpt><trkpt lat="40.7234193" lon="-3.8948033"><ele>951.75</ele><time>2026-05-04T10:56:26.626Z</time></trkpt><trkpt lat="40.7234346" lon="-3.8946159"><ele>952.0</ele><time>2026-05-04T10:56:27.626Z</time></trkpt><trkpt lat="40.7234462" lon="-3.8944404"><ele>952.0</ele><time>2026-05-04T10:56:28.626Z</time></trkpt><trkpt lat="40.7234612" lon="-3.8942714"><ele>952.0</ele><time>2026-05-04T10:56:29.626Z</time></trkpt><trkpt lat="40.7234735" lon="-3.8941003"><ele>952.0</ele><time>2026-05-04T10:56:30.626Z</time></trkpt><trkpt lat="40.7234871" lon="-3.8939449"><ele>952.0</ele><time>2026-05-04T10:56:31.627Z</time></trkpt><trkpt lat="40.7235066" lon="-3.8937881"><ele>952.25</ele><time>2026-05-04T10:56:32.626Z</time></trkpt><trkpt lat="40.7235216" lon="-3.893627"><ele>952.5</ele><time>2026-05-04T10:56:33.626Z</time></trkpt><trkpt lat="40.7235381" lon="-3.8934707"><ele>952.75</ele><time>2026-05-04T10:56:34.626Z</time></trkpt><trkpt lat="40.7235555" lon="-3.8933158"><ele>953.0</ele><time>2026-05-04T10:56:35.626Z</time></trkpt><trkpt lat="40.7235787" lon="-3.8931515"><ele>952.5</ele><time>2026-05-04T10:56:36.627Z</time></trkpt><trkpt lat="40.7236059" lon="-3.892979"><ele>952.0</ele><time>2026-05-04T10:56:37.626Z</time></trkpt><trkpt lat="40.7236404" lon="-3.8928056"><ele>951.5</ele><time>2026-05-04T10:56:38.626Z</time></trkpt><trkpt lat="40.7236814" lon="-3.8926352"><ele>951.0</ele><time>2026-05-04T10:56:39.626Z</time></trkpt><trkpt lat="40.7237253" lon="-3.8924663"><ele>951.0</ele><time>2026-05-04T10:56:40.626Z</time></trkpt><trkpt lat="40.7237681" lon="-3.8922917"><ele>951.0</ele><time>2026-05-04T10:56:41.626Z</time></trkpt><trkpt lat="40.7238093" lon="-3.8921148"><ele>951.0</ele><time>2026-05-04T10:56:42.627Z</time></trkpt><trkpt lat="40.7238442" lon="-3.8919393"><ele>951.0</ele><time>2026-05-04T10:56:43.626Z</time></trkpt><trkpt lat="40.7238756" lon="-3.8917617"><ele>949.75</ele><time>2026-05-04T10:56:44.626Z</time></trkpt><trkpt lat="40.7239042" lon="-3.8915819"><ele>948.5</ele><time>2026-05-04T10:56:45.626Z</time></trkpt><trkpt lat="40.7239268" lon="-3.891398"><ele>947.25</ele><time>2026-05-04T10:56:46.626Z</time></trkpt><trkpt lat="40.7239394" lon="-3.8912056"><ele>946.0</ele><time>2026-05-04T10:56:47.626Z</time></trkpt><trkpt lat="40.7239367" lon="-3.8910055"><ele>945.25</ele><time>2026-05-04T10:56:48.626Z</time></trkpt><trkpt lat="40.7239233" lon="-3.8908042"><ele>944.5</ele><time>2026-05-04T10:56:49.626Z</time></trkpt><trkpt lat="40.723912" lon="-3.8906106"><ele>943.75</ele><time>2026-05-04T10:56:50.626Z</time></trkpt><trkpt lat="40.7239105" lon="-3.8904226"><ele>943.0</ele><time>2026-05-04T10:56:51.626Z</time></trkpt><trkpt lat="40.7239153" lon="-3.8902454"><ele>942.5</ele><time>2026-05-04T10:56:52.626Z</time></trkpt><trkpt lat="40.7239319" lon="-3.8900699"><ele>942.0</ele><time>2026-05-04T10:56:53.626Z</time></trkpt><trkpt lat="40.7239581" lon="-3.8898949"><ele>941.5</ele><time>2026-05-04T10:56:54.626Z</time></trkpt><trkpt lat="40.7240009" lon="-3.8897233"><ele>941.0</ele><time>2026-05-04T10:56:55.626Z</time></trkpt><trkpt lat="40.7240515" lon="-3.889559"><ele>941.0</ele><time>2026-05-04T10:56:56.626Z</time></trkpt><trkpt lat="40.7241094" lon="-3.8894094"><ele>941.0</ele><time>2026-05-04T10:56:57.627Z</time></trkpt><trkpt lat="40.7241664" lon="-3.8892653"><ele>941.0</ele><time>2026-05-04T10:56:58.626Z</time></trkpt><trkpt lat="40.7242236" lon="-3.889127"><ele>941.0</ele><time>2026-05-04T10:56:59.627Z</time></trkpt><trkpt lat="40.7242745" lon="-3.8889877"><ele>939.5999999999999</ele><time>2026-05-04T10:57:00.626Z</time></trkpt><trkpt lat="40.7243252" lon="-3.8888587"><ele>938.1999999999999</ele><time>2026-05-04T10:57:01.626Z</time></trkpt><trkpt lat="40.7243785" lon="-3.8887369"><ele>936.8000000000001</ele><time>2026-05-04T10:57:02.626Z</time></trkpt><trkpt lat="40.724432" lon="-3.8886173"><ele>935.4000000000001</ele><time>2026-05-04T10:57:03.626Z</time></trkpt><trkpt lat="40.7244884" lon="-3.8885033"><ele>934.0</ele><time>2026-05-04T10:57:04.626Z</time></trkpt><trkpt lat="40.7245399" lon="-3.8883941"><ele>932.8333333333333</ele><time>2026-05-04T10:57:05.626Z</time></trkpt><trkpt lat="40.7245837" lon="-3.8882943"><ele>931.6666666666666</ele><time>2026-05-04T10:57:06.626Z</time></trkpt><trkpt lat="40.7246253" lon="-3.888206"><ele>930.5</ele><time>2026-05-04T10:57:07.626Z</time></trkpt><trkpt lat="40.7246664" lon="-3.8881239"><ele>929.3333333333333</ele><time>2026-05-04T10:57:08.626Z</time></trkpt><trkpt lat="40.7247035" lon="-3.8880496"><ele>928.1666666666666</ele><time>2026-05-04T10:57:09.626Z</time></trkpt><trkpt lat="40.7247883" lon="-3.8879423"><ele>927.0</ele><time>2026-05-04T10:57:11.626Z</time></trkpt><trkpt lat="40.7248642" lon="-3.8878698"><ele>927.0</ele><time>2026-05-04T10:57:13.626Z</time></trkpt><trkpt lat="40.7248961" lon="-3.8877266"><ele>927.0</ele><time>2026-05-04T10:57:15.626Z</time></trkpt><trkpt lat="40.7249143" lon="-3.8876427"><ele>927.0</ele><time>2026-05-04T10:57:16.626Z</time></trkpt><trkpt lat="40.7249341" lon="-3.8875544"><ele>927.0</ele><time>2026-05-04T10:57:17.626Z</time></trkpt><trkpt lat="40.7249466" lon="-3.887471"><ele>927.0</ele><time>2026-05-04T10:57:18.627Z</time></trkpt><trkpt lat="40.7249719" lon="-3.8873098"><ele>927.0</ele><time>2026-05-04T10:57:20.626Z</time></trkpt><trkpt lat="40.7250047" lon="-3.8872296"><ele>927.6666666666666</ele><time>2026-05-04T10:57:21.627Z</time></trkpt><trkpt lat="40.7250539" lon="-3.8871586"><ele>928.3333333333333</ele><time>2026-05-04T10:57:22.626Z</time></trkpt><trkpt lat="40.725103" lon="-3.8871032"><ele>929.0</ele><time>2026-05-04T10:57:23.627Z</time></trkpt><trkpt lat="40.7251774" lon="-3.8870088"><ele>929.6666666666666</ele><time>2026-05-04T10:57:25.626Z</time></trkpt><trkpt lat="40.7252251" lon="-3.8868878"><ele>930.3333333333333</ele><time>2026-05-04T10:57:27.626Z</time></trkpt><trkpt lat="40.7252304" lon="-3.8867847"><ele>931.0</ele><time>2026-05-04T10:57:28.626Z</time></trkpt><trkpt lat="40.7252181" lon="-3.8866617"><ele>928.25</ele><time>2026-05-04T10:57:29.626Z</time></trkpt><trkpt lat="40.725204" lon="-3.8865178"><ele>925.5</ele><time>2026-05-04T10:57:30.626Z</time></trkpt><trkpt lat="40.7251916" lon="-3.8863697"><ele>922.75</ele><time>2026-05-04T10:57:31.626Z</time></trkpt><trkpt lat="40.7251939" lon="-3.8862205"><ele>920.0</ele><time>2026-05-04T10:57:32.626Z</time></trkpt><trkpt lat="40.7252058" lon="-3.8860615"><ele>919.5</ele><time>2026-05-04T10:57:33.626Z</time></trkpt><trkpt lat="40.7252223" lon="-3.8858952"><ele>919.0</ele><time>2026-05-04T10:57:34.626Z</time></trkpt><trkpt lat="40.725239" lon="-3.8857294"><ele>918.5</ele><time>2026-05-04T10:57:35.626Z</time></trkpt><trkpt lat="40.7252536" lon="-3.8855657"><ele>918.0</ele><time>2026-05-04T10:57:36.626Z</time></trkpt><trkpt lat="40.7252709" lon="-3.8853982"><ele>919.75</ele><time>2026-05-04T10:57:37.626Z</time></trkpt><trkpt lat="40.7252907" lon="-3.8852331"><ele>921.5</ele><time>2026-05-04T10:57:38.627Z</time></trkpt><trkpt lat="40.7253145" lon="-3.8850663"><ele>923.25</ele><time>2026-05-04T10:57:39.626Z</time></trkpt><trkpt lat="40.725343" lon="-3.8848991"><ele>925.0</ele><time>2026-05-04T10:57:40.626Z</time></trkpt><trkpt lat="40.7253706" lon="-3.8847296"><ele>925.0</ele><time>2026-05-04T10:57:41.627Z</time></trkpt><trkpt lat="40.725393" lon="-3.8845615"><ele>925.0</ele><time>2026-05-04T10:57:42.626Z</time></trkpt><trkpt lat="40.7254157" lon="-3.8843905"><ele>925.0</ele><time>2026-05-04T10:57:43.627Z</time></trkpt><trkpt lat="40.7254385" lon="-3.8842194"><ele>925.0</ele><time>2026-05-04T10:57:44.627Z</time></trkpt><trkpt lat="40.7254621" lon="-3.8840455"><ele>924.25</ele><time>2026-05-04T10:57:45.626Z</time></trkpt><trkpt lat="40.7254797" lon="-3.8838713"><ele>923.5</ele><time>2026-05-04T10:57:46.626Z</time></trkpt><trkpt lat="40.7255019" lon="-3.8836864"><ele>922.75</ele><time>2026-05-04T10:57:47.626Z</time></trkpt><trkpt lat="40.7255333" lon="-3.8834989"><ele>922.0</ele><time>2026-05-04T10:57:48.627Z</time></trkpt><trkpt lat="40.725569" lon="-3.8833093"><ele>921.3333333333333</ele><time>2026-05-04T10:57:49.626Z</time></trkpt><trkpt lat="40.7256123" lon="-3.8831144"><ele>920.6666666666667</ele><time>2026-05-04T10:57:50.626Z</time></trkpt><trkpt lat="40.7256647" lon="-3.8829111"><ele>920.0</ele><time>2026-05-04T10:57:51.626Z</time></trkpt><trkpt lat="40.7257195" lon="-3.8827084"><ele>920.0</ele><time>2026-05-04T10:57:52.626Z</time></trkpt><trkpt lat="40.7257728" lon="-3.882515"><ele>920.0</ele><time>2026-05-04T10:57:53.626Z</time></trkpt><trkpt lat="40.725825" lon="-3.8823207"><ele>920.0</ele><time>2026-05-04T10:57:54.626Z</time></trkpt><trkpt lat="40.7258758" lon="-3.8821294"><ele>920.0</ele><time>2026-05-04T10:57:55.626Z</time></trkpt><trkpt lat="40.7259275" lon="-3.8819349"><ele>920.0</ele><time>2026-05-04T10:57:56.626Z</time></trkpt><trkpt lat="40.7259798" lon="-3.8817475"><ele>920.0</ele><time>2026-05-04T10:57:57.626Z</time></trkpt><trkpt lat="40.7260343" lon="-3.8815657"><ele>921.5</ele><time>2026-05-04T10:57:58.626Z</time></trkpt><trkpt lat="40.7260894" lon="-3.8813885"><ele>923.0</ele><time>2026-05-04T10:57:59.626Z</time></trkpt><trkpt lat="40.7261425" lon="-3.8812163"><ele>924.5</ele><time>2026-05-04T10:58:00.626Z</time></trkpt><trkpt lat="40.7261949" lon="-3.88104"><ele>926.0</ele><time>2026-05-04T10:58:01.626Z</time></trkpt><trkpt lat="40.7262451" lon="-3.8808563"><ele>926.5</ele><time>2026-05-04T10:58:02.626Z</time></trkpt><trkpt lat="40.7262898" lon="-3.8806681"><ele>927.0</ele><time>2026-05-04T10:58:03.626Z</time></trkpt><trkpt lat="40.7263313" lon="-3.8804796"><ele>927.5</ele><time>2026-05-04T10:58:04.626Z</time></trkpt><trkpt lat="40.7263718" lon="-3.8802952"><ele>928.0</ele><time>2026-05-04T10:58:05.626Z</time></trkpt><trkpt lat="40.7264158" lon="-3.8801129"><ele>928.25</ele><time>2026-05-04T10:58:06.626Z</time></trkpt><trkpt lat="40.7264489" lon="-3.8799448"><ele>928.5</ele><time>2026-05-04T10:58:07.626Z</time></trkpt><trkpt lat="40.7264717" lon="-3.8797766"><ele>928.75</ele><time>2026-05-04T10:58:08.626Z</time></trkpt><trkpt lat="40.726484" lon="-3.8795941"><ele>929.0</ele><time>2026-05-04T10:58:09.626Z</time></trkpt><trkpt lat="40.7264856" lon="-3.8793976"><ele>928.75</ele><time>2026-05-04T10:58:10.626Z</time></trkpt><trkpt lat="40.7264845" lon="-3.8791983"><ele>928.5</ele><time>2026-05-04T10:58:11.626Z</time></trkpt><trkpt lat="40.7264844" lon="-3.8790072"><ele>928.25</ele><time>2026-05-04T10:58:12.626Z</time></trkpt><trkpt lat="40.7264848" lon="-3.8788164"><ele>928.0</ele><time>2026-05-04T10:58:13.627Z</time></trkpt><trkpt lat="40.7264885" lon="-3.8786236"><ele>928.0</ele><time>2026-05-04T10:58:14.626Z</time></trkpt><trkpt lat="40.7264938" lon="-3.8784392"><ele>928.0</ele><time>2026-05-04T10:58:15.627Z</time></trkpt><trkpt lat="40.7264945" lon="-3.8782643"><ele>928.0</ele><time>2026-05-04T10:58:16.627Z</time></trkpt><trkpt lat="40.7264929" lon="-3.878092"><ele>928.0</ele><time>2026-05-04T10:58:17.627Z</time></trkpt><trkpt lat="40.7264973" lon="-3.8779219"><ele>926.75</ele><time>2026-05-04T10:58:18.626Z</time></trkpt><trkpt lat="40.7265026" lon="-3.8777504"><ele>925.5</ele><time>2026-05-04T10:58:19.626Z</time></trkpt><trkpt lat="40.7265028" lon="-3.8775884"><ele>924.25</ele><time>2026-05-04T10:58:20.626Z</time></trkpt><trkpt lat="40.7265049" lon="-3.8774322"><ele>923.0</ele><time>2026-05-04T10:58:21.626Z</time></trkpt><trkpt lat="40.726506" lon="-3.8772743"><ele>923.0</ele><time>2026-05-04T10:58:22.626Z</time></trkpt><trkpt lat="40.7265069" lon="-3.8771207"><ele>923.0</ele><time>2026-05-04T10:58:23.626Z</time></trkpt><trkpt lat="40.7265077" lon="-3.876978"><ele>923.0</ele><time>2026-05-04T10:58:24.627Z</time></trkpt><trkpt lat="40.7265083" lon="-3.8768416"><ele>923.0</ele><time>2026-05-04T10:58:25.626Z</time></trkpt><trkpt lat="40.7265028" lon="-3.8767193"><ele>923.0</ele><time>2026-05-04T10:58:26.626Z</time></trkpt><trkpt lat="40.7264943" lon="-3.8766169"><ele>923.1666666666667</ele><time>2026-05-04T10:58:27.626Z</time></trkpt><trkpt lat="40.7264858" lon="-3.8765228"><ele>923.3333333333334</ele><time>2026-05-04T10:58:28.626Z</time></trkpt><trkpt lat="40.7264763" lon="-3.8764405"><ele>923.5</ele><time>2026-05-04T10:58:29.626Z</time></trkpt><trkpt lat="40.7264467" lon="-3.8763118"><ele>923.6666666666667</ele><time>2026-05-04T10:58:31.626Z</time></trkpt><trkpt lat="40.7264391" lon="-3.8762063"><ele>923.8333333333334</ele><time>2026-05-04T10:58:33.626Z</time></trkpt><trkpt lat="40.7264789" lon="-3.8760698"><ele>924.0</ele><time>2026-05-04T10:58:35.626Z</time></trkpt><trkpt lat="40.7265127" lon="-3.8759784"><ele>924.3333333333334</ele><time>2026-05-04T10:58:36.626Z</time></trkpt><trkpt lat="40.7265427" lon="-3.8758699"><ele>924.6666666666667</ele><time>2026-05-04T10:58:37.626Z</time></trkpt><trkpt lat="40.7265564" lon="-3.8757683"><ele>925.0</ele><time>2026-05-04T10:58:38.626Z</time></trkpt><trkpt lat="40.7265654" lon="-3.8756608"><ele>925.3333333333334</ele><time>2026-05-04T10:58:39.626Z</time></trkpt><trkpt lat="40.7265725" lon="-3.875549"><ele>925.6666666666667</ele><time>2026-05-04T10:58:40.626Z</time></trkpt><trkpt lat="40.7265857" lon="-3.8754447"><ele>926.0</ele><time>2026-05-04T10:58:41.626Z</time></trkpt><trkpt lat="40.726597" lon="-3.8753461"><ele>926.0000000000001</ele><time>2026-05-04T10:58:42.626Z</time></trkpt><trkpt lat="40.7266099" lon="-3.8752477"><ele>926.0</ele><time>2026-05-04T10:58:43.626Z</time></trkpt><trkpt lat="40.7266183" lon="-3.8751388"><ele>926.0</ele><time>2026-05-04T10:58:44.626Z</time></trkpt><trkpt lat="40.7266244" lon="-3.8750278"><ele>926.0</ele><time>2026-05-04T10:58:45.626Z</time></trkpt><trkpt lat="40.7266345" lon="-3.8749103"><ele>926.0000000000001</ele><time>2026-05-04T10:58:46.626Z</time></trkpt><trkpt lat="40.7266451" lon="-3.8747905"><ele>926.0</ele><time>2026-05-04T10:58:47.626Z</time></trkpt><trkpt lat="40.7266529" lon="-3.8746691"><ele>926.5999999999999</ele><time>2026-05-04T10:58:48.626Z</time></trkpt><trkpt lat="40.7266591" lon="-3.8745417"><ele>927.1999999999999</ele><time>2026-05-04T10:58:49.626Z</time></trkpt><trkpt lat="40.7266637" lon="-3.8744112"><ele>927.8000000000001</ele><time>2026-05-04T10:58:50.626Z</time></trkpt><trkpt lat="40.7266605" lon="-3.8742808"><ele>928.4000000000001</ele><time>2026-05-04T10:58:51.627Z</time></trkpt><trkpt lat="40.7266433" lon="-3.874157"><ele>929.0</ele><time>2026-05-04T10:58:52.626Z</time></trkpt><trkpt lat="40.7266129" lon="-3.8740365"><ele>929.0</ele><time>2026-05-04T10:58:53.626Z</time></trkpt><trkpt lat="40.7265687" lon="-3.8739173"><ele>929.0000000000001</ele><time>2026-05-04T10:58:54.626Z</time></trkpt><trkpt lat="40.7265197" lon="-3.8738033"><ele>929.0000000000001</ele><time>2026-05-04T10:58:55.627Z</time></trkpt><trkpt lat="40.7264718" lon="-3.8737023"><ele>929.0</ele><time>2026-05-04T10:58:56.626Z</time></trkpt><trkpt lat="40.726423" lon="-3.8736021"><ele>929.0</ele><time>2026-05-04T10:58:57.626Z</time></trkpt><trkpt lat="40.7263806" lon="-3.8735088"><ele>928.1666666666667</ele><time>2026-05-04T10:58:58.626Z</time></trkpt><trkpt lat="40.7263437" lon="-3.8734084"><ele>927.3333333333334</ele><time>2026-05-04T10:58:59.626Z</time></trkpt><trkpt lat="40.7263171" lon="-3.8733057"><ele>926.5</ele><time>2026-05-04T10:59:00.626Z</time></trkpt><trkpt lat="40.726305" lon="-3.8731994"><ele>925.6666666666667</ele><time>2026-05-04T10:59:01.626Z</time></trkpt><trkpt lat="40.7262967" lon="-3.8730852"><ele>924.8333333333334</ele><time>2026-05-04T10:59:02.627Z</time></trkpt><trkpt lat="40.726287" lon="-3.8729736"><ele>924.0</ele><time>2026-05-04T10:59:03.626Z</time></trkpt><trkpt lat="40.7262717" lon="-3.8728668"><ele>924.0</ele><time>2026-05-04T10:59:04.626Z</time></trkpt><trkpt lat="40.7262555" lon="-3.872763"><ele>924.0</ele><time>2026-05-04T10:59:05.626Z</time></trkpt><trkpt lat="40.7262371" lon="-3.872656"><ele>924.0</ele><time>2026-05-04T10:59:06.626Z</time></trkpt><trkpt lat="40.7262165" lon="-3.8725521"><ele>924.0</ele><time>2026-05-04T10:59:07.626Z</time></trkpt><trkpt lat="40.7261901" lon="-3.8724489"><ele>924.0</ele><time>2026-05-04T10:59:08.627Z</time></trkpt><trkpt lat="40.7261494" lon="-3.872352"><ele>924.0</ele><time>2026-05-04T10:59:09.626Z</time></trkpt><trkpt lat="40.7261037" lon="-3.8722529"><ele>923.6</ele><time>2026-05-04T10:59:10.626Z</time></trkpt><trkpt lat="40.726058" lon="-3.8721495"><ele>923.2</ele><time>2026-05-04T10:59:11.627Z</time></trkpt><trkpt lat="40.7260071" lon="-3.87205"><ele>922.8000000000001</ele><time>2026-05-04T10:59:12.626Z</time></trkpt><trkpt lat="40.7259559" lon="-3.8719431"><ele>922.4000000000001</ele><time>2026-05-04T10:59:13.626Z</time></trkpt><trkpt lat="40.7259039" lon="-3.8718394"><ele>922.0</ele><time>2026-05-04T10:59:14.627Z</time></trkpt><trkpt lat="40.7258556" lon="-3.8717355"><ele>921.6</ele><time>2026-05-04T10:59:15.626Z</time></trkpt><trkpt lat="40.725806" lon="-3.8716268"><ele>921.2</ele><time>2026-05-04T10:59:16.626Z</time></trkpt><trkpt lat="40.7257672" lon="-3.8715085"><ele>920.8</ele><time>2026-05-04T10:59:17.627Z</time></trkpt><trkpt lat="40.7257367" lon="-3.8713793"><ele>920.4</ele><time>2026-05-04T10:59:18.626Z</time></trkpt><trkpt lat="40.7257077" lon="-3.8712481"><ele>920.0</ele><time>2026-05-04T10:59:19.626Z</time></trkpt><trkpt lat="40.7256884" lon="-3.8711169"><ele>920.0</ele><time>2026-05-04T10:59:20.626Z</time></trkpt><trkpt lat="40.7256772" lon="-3.8709885"><ele>920.0</ele><time>2026-05-04T10:59:21.626Z</time></trkpt><trkpt lat="40.7256685" lon="-3.8708584"><ele>920.0</ele><time>2026-05-04T10:59:22.626Z</time></trkpt><trkpt lat="40.7256613" lon="-3.8707251"><ele>920.0</ele><time>2026-05-04T10:59:23.626Z</time></trkpt><trkpt lat="40.7256554" lon="-3.8705887"><ele>920.0</ele><time>2026-05-04T10:59:24.627Z</time></trkpt><trkpt lat="40.7256539" lon="-3.8704522"><ele>919.6</ele><time>2026-05-04T10:59:25.626Z</time></trkpt><trkpt lat="40.7256592" lon="-3.8703219"><ele>919.2</ele><time>2026-05-04T10:59:26.627Z</time></trkpt><trkpt lat="40.7256748" lon="-3.8702003"><ele>918.8</ele><time>2026-05-04T10:59:27.626Z</time></trkpt><trkpt lat="40.7256953" lon="-3.8700871"><ele>918.4</ele><time>2026-05-04T10:59:28.627Z</time></trkpt><trkpt lat="40.7257173" lon="-3.8699788"><ele>918.0</ele><time>2026-05-04T10:59:29.626Z</time></trkpt><trkpt lat="40.7257326" lon="-3.8698663"><ele>917.8</ele><time>2026-05-04T10:59:30.626Z</time></trkpt><trkpt lat="40.7257472" lon="-3.8697468"><ele>917.5999999999999</ele><time>2026-05-04T10:59:31.626Z</time></trkpt><trkpt lat="40.725759" lon="-3.869613"><ele>917.4000000000001</ele><time>2026-05-04T10:59:32.626Z</time></trkpt><trkpt lat="40.7257654" lon="-3.8694725"><ele>917.2</ele><time>2026-05-04T10:59:33.626Z</time></trkpt><trkpt lat="40.7257628" lon="-3.8693401"><ele>917.0</ele><time>2026-05-04T10:59:34.626Z</time></trkpt><trkpt lat="40.7257574" lon="-3.8692107"><ele>916.4000000000001</ele><time>2026-05-04T10:59:35.626Z</time></trkpt><trkpt lat="40.7257565" lon="-3.8690867"><ele>915.8000000000001</ele><time>2026-05-04T10:59:36.626Z</time></trkpt><trkpt lat="40.7257594" lon="-3.8689555"><ele>915.2</ele><time>2026-05-04T10:59:37.627Z</time></trkpt><trkpt lat="40.7257642" lon="-3.8688249"><ele>914.6</ele><time>2026-05-04T10:59:38.626Z</time></trkpt><trkpt lat="40.7257722" lon="-3.8686977"><ele>914.0</ele><time>2026-05-04T10:59:39.626Z</time></trkpt><trkpt lat="40.7257727" lon="-3.8685825"><ele>914.0000000000001</ele><time>2026-05-04T10:59:40.627Z</time></trkpt><trkpt lat="40.7257703" lon="-3.8684763"><ele>914.0</ele><time>2026-05-04T10:59:41.627Z</time></trkpt><trkpt lat="40.7257538" lon="-3.8683801"><ele>914.0</ele><time>2026-05-04T10:59:42.626Z</time></trkpt><trkpt lat="40.7257347" lon="-3.8682955"><ele>914.0</ele><time>2026-05-04T10:59:43.627Z</time></trkpt><trkpt lat="40.7257198" lon="-3.8681699"><ele>914.0000000000001</ele><time>2026-05-04T10:59:45.627Z</time></trkpt><trkpt lat="40.7257154" lon="-3.8680808"><ele>914.0</ele><time>2026-05-04T10:59:47.626Z</time></trkpt><trkpt lat="40.7256567" lon="-3.8680284"><ele>913.5000000000001</ele><time>2026-05-04T10:59:51.626Z</time></trkpt><trkpt lat="40.7255937" lon="-3.8680568"><ele>913.0</ele><time>2026-05-04T10:59:55.626Z</time></trkpt><trkpt lat="40.7255321" lon="-3.8680793"><ele>912.5</ele><time>2026-05-04T10:59:56.626Z</time></trkpt><trkpt lat="40.7254308" lon="-3.8681485"><ele>912.0</ele><time>2026-05-04T10:59:58.627Z</time></trkpt><trkpt lat="40.7253492" lon="-3.8682538"><ele>911.5000000000001</ele><time>2026-05-04T11:00:00.626Z</time></trkpt><trkpt lat="40.7253097" lon="-3.8683413"><ele>911.0</ele><time>2026-05-04T11:00:01.626Z</time></trkpt><trkpt lat="40.7252603" lon="-3.8684299"><ele>911.0</ele><time>2026-05-04T11:00:02.626Z</time></trkpt><trkpt lat="40.7251985" lon="-3.8684933"><ele>911.0</ele><time>2026-05-04T11:00:03.626Z</time></trkpt><trkpt lat="40.725122" lon="-3.8685217"><ele>911.0</ele><time>2026-05-04T11:00:04.626Z</time></trkpt><trkpt lat="40.7250497" lon="-3.8685041"><ele>911.0</ele><time>2026-05-04T11:00:05.626Z</time></trkpt><trkpt lat="40.7249881" lon="-3.8684628"><ele>911.0</ele><time>2026-05-04T11:00:06.627Z</time></trkpt><trkpt lat="40.7249376" lon="-3.8683996"><ele>911.0</ele><time>2026-05-04T11:00:07.626Z</time></trkpt><trkpt lat="40.7249042" lon="-3.8683134"><ele>911.0</ele><time>2026-05-04T11:00:08.626Z</time></trkpt><trkpt lat="40.7248928" lon="-3.8681539"><ele>910.5000000000001</ele><time>2026-05-04T11:00:10.626Z</time></trkpt><trkpt lat="40.7249555" lon="-3.8680091"><ele>910.0</ele><time>2026-05-04T11:00:12.626Z</time></trkpt><trkpt lat="40.7249944" lon="-3.867931"><ele>909.5</ele><time>2026-05-04T11:00:13.626Z</time></trkpt><trkpt lat="40.7250299" lon="-3.8678432"><ele>909.0</ele><time>2026-05-04T11:00:14.626Z</time></trkpt><trkpt lat="40.7250535" lon="-3.8677436"><ele>908.5000000000001</ele><time>2026-05-04T11:00:15.627Z</time></trkpt><trkpt lat="40.7250666" lon="-3.8676332"><ele>908.0</ele><time>2026-05-04T11:00:16.627Z</time></trkpt><trkpt lat="40.7250811" lon="-3.867513"><ele>907.4</ele><time>2026-05-04T11:00:17.627Z</time></trkpt><trkpt lat="40.7250932" lon="-3.8673865"><ele>906.8</ele><time>2026-05-04T11:00:18.626Z</time></trkpt><trkpt lat="40.7251003" lon="-3.8672599"><ele>906.2</ele><time>2026-05-04T11:00:19.626Z</time></trkpt><trkpt lat="40.7251059" lon="-3.8671205"><ele>905.6</ele><time>2026-05-04T11:00:20.626Z</time></trkpt><trkpt lat="40.7251098" lon="-3.8669772"><ele>905.0</ele><time>2026-05-04T11:00:21.626Z</time></trkpt><trkpt lat="40.7251126" lon="-3.8668375"><ele>904.5</ele><time>2026-05-04T11:00:22.626Z</time></trkpt><trkpt lat="40.7251138" lon="-3.8666939"><ele>904.0</ele><time>2026-05-04T11:00:23.627Z</time></trkpt><trkpt lat="40.725113" lon="-3.8665389"><ele>903.5</ele><time>2026-05-04T11:00:24.626Z</time></trkpt><trkpt lat="40.7251124" lon="-3.8663743"><ele>903.0</ele><time>2026-05-04T11:00:25.626Z</time></trkpt><trkpt lat="40.725111" lon="-3.8661994"><ele>903.0</ele><time>2026-05-04T11:00:26.626Z</time></trkpt><trkpt lat="40.7251122" lon="-3.8660131"><ele>903.0</ele><time>2026-05-04T11:00:27.627Z</time></trkpt><trkpt lat="40.7251167" lon="-3.8658249"><ele>903.0</ele><time>2026-05-04T11:00:28.626Z</time></trkpt><trkpt lat="40.7251122" lon="-3.8656482"><ele>903.0</ele><time>2026-05-04T11:00:29.626Z</time></trkpt><trkpt lat="40.7251112" lon="-3.8654778"><ele>902.75</ele><time>2026-05-04T11:00:30.626Z</time></trkpt><trkpt lat="40.7251133" lon="-3.8653059"><ele>902.5</ele><time>2026-05-04T11:00:31.626Z</time></trkpt><trkpt lat="40.7251147" lon="-3.8651385"><ele>902.25</ele><time>2026-05-04T11:00:32.627Z</time></trkpt><trkpt lat="40.7251136" lon="-3.8649728"><ele>902.0</ele><time>2026-05-04T11:00:33.626Z</time></trkpt><trkpt lat="40.7251141" lon="-3.8648054"><ele>902.0</ele><time>2026-05-04T11:00:34.626Z</time></trkpt><trkpt lat="40.7251165" lon="-3.8646401"><ele>902.0</ele><time>2026-05-04T11:00:35.627Z</time></trkpt><trkpt lat="40.7251138" lon="-3.8644865"><ele>902.0</ele><time>2026-05-04T11:00:36.627Z</time></trkpt><trkpt lat="40.7251139" lon="-3.8643298"><ele>902.0</ele><time>2026-05-04T11:00:37.626Z</time></trkpt><trkpt lat="40.7251146" lon="-3.8641695"><ele>901.75</ele><time>2026-05-04T11:00:38.626Z</time></trkpt><trkpt lat="40.7251177" lon="-3.8640089"><ele>901.5</ele><time>2026-05-04T11:00:39.626Z</time></trkpt><trkpt lat="40.7251224" lon="-3.8638428"><ele>901.25</ele><time>2026-05-04T11:00:40.626Z</time></trkpt><trkpt lat="40.725131" lon="-3.8636701"><ele>901.0</ele><time>2026-05-04T11:00:41.626Z</time></trkpt><trkpt lat="40.7251511" lon="-3.8635021"><ele>901.0</ele><time>2026-05-04T11:00:42.626Z</time></trkpt><trkpt lat="40.7251806" lon="-3.8633286"><ele>901.0</ele><time>2026-05-04T11:00:43.626Z</time></trkpt><trkpt lat="40.7252158" lon="-3.8631569"><ele>901.0</ele><time>2026-05-04T11:00:44.626Z</time></trkpt><trkpt lat="40.7252568" lon="-3.8629818"><ele>901.0</ele><time>2026-05-04T11:00:45.626Z</time></trkpt><trkpt lat="40.7253044" lon="-3.862802"><ele>901.3333333333333</ele><time>2026-05-04T11:00:46.626Z</time></trkpt><trkpt lat="40.7253591" lon="-3.8626174"><ele>901.6666666666667</ele><time>2026-05-04T11:00:47.626Z</time></trkpt><trkpt lat="40.7254253" lon="-3.8624433"><ele>902.0</ele><time>2026-05-04T11:00:48.626Z</time></trkpt><trkpt lat="40.725502" lon="-3.8622518"><ele>902.0</ele><time>2026-05-04T11:00:49.626Z</time></trkpt><trkpt lat="40.7255882" lon="-3.8620675"><ele>902.0</ele><time>2026-05-04T11:00:50.626Z</time></trkpt><trkpt lat="40.7256826" lon="-3.861907"><ele>902.0</ele><time>2026-05-04T11:00:51.627Z</time></trkpt><trkpt lat="40.7257813" lon="-3.8617629"><ele>902.3333333333334</ele><time>2026-05-04T11:00:52.626Z</time></trkpt><trkpt lat="40.725884" lon="-3.8616208"><ele>902.6666666666667</ele><time>2026-05-04T11:00:53.626Z</time></trkpt><trkpt lat="40.7259901" lon="-3.861476"><ele>903.0</ele><time>2026-05-04T11:00:54.626Z</time></trkpt><trkpt lat="40.7261026" lon="-3.8613481"><ele>906.0</ele><time>2026-05-04T11:00:55.627Z</time></trkpt><trkpt lat="40.7262209" lon="-3.861224"><ele>909.0</ele><time>2026-05-04T11:00:56.626Z</time></trkpt><trkpt lat="40.7263509" lon="-3.8611117"><ele>912.0</ele><time>2026-05-04T11:00:57.626Z</time></trkpt><trkpt lat="40.726476" lon="-3.8610047"><ele>911.75</ele><time>2026-05-04T11:00:58.626Z</time></trkpt><trkpt lat="40.726601" lon="-3.8609084"><ele>911.5</ele><time>2026-05-04T11:00:59.626Z</time></trkpt><trkpt lat="40.7267162" lon="-3.8608238"><ele>911.25</ele><time>2026-05-04T11:01:00.626Z</time></trkpt><trkpt lat="40.7268281" lon="-3.8607322"><ele>911.0</ele><time>2026-05-04T11:01:01.626Z</time></trkpt><trkpt lat="40.7269411" lon="-3.8606286"><ele>911.0</ele><time>2026-05-04T11:01:02.626Z</time></trkpt><trkpt lat="40.7270535" lon="-3.8605224"><ele>911.0</ele><time>2026-05-04T11:01:03.626Z</time></trkpt><trkpt lat="40.7271582" lon="-3.8604106"><ele>911.0</ele><time>2026-05-04T11:01:04.626Z</time></trkpt><trkpt lat="40.727249" lon="-3.8603037"><ele>911.0</ele><time>2026-05-04T11:01:05.626Z</time></trkpt><trkpt lat="40.7273168" lon="-3.8602164"><ele>911.0000000000001</ele><time>2026-05-04T11:01:06.626Z</time></trkpt><trkpt lat="40.7273815" lon="-3.8601271"><ele>911.0</ele><time>2026-05-04T11:01:07.626Z</time></trkpt><trkpt lat="40.7274375" lon="-3.8600428"><ele>911.0</ele><time>2026-05-04T11:01:08.627Z</time></trkpt><trkpt lat="40.7274808" lon="-3.859974"><ele>911.0</ele><time>2026-05-04T11:01:09.626Z</time></trkpt><trkpt lat="40.7275401" lon="-3.8598885"><ele>911.0000000000001</ele><time>2026-05-04T11:01:11.626Z</time></trkpt><trkpt lat="40.7276082" lon="-3.8597952"><ele>911.0</ele><time>2026-05-04T11:01:44.626Z</time></trkpt><trkpt lat="40.7276753" lon="-3.8596889"><ele>910.6666666666667</ele><time>2026-05-04T11:01:46.626Z</time></trkpt><trkpt lat="40.7277183" lon="-3.8596199"><ele>910.3333333333334</ele><time>2026-05-04T11:01:47.626Z</time></trkpt><trkpt lat="40.7277578" lon="-3.8595409"><ele>910.0</ele><time>2026-05-04T11:01:48.626Z</time></trkpt><trkpt lat="40.7278126" lon="-3.8594611"><ele>909.6666666666667</ele><time>2026-05-04T11:01:49.626Z</time></trkpt><trkpt lat="40.727868" lon="-3.8593772"><ele>909.3333333333334</ele><time>2026-05-04T11:01:50.627Z</time></trkpt><trkpt lat="40.7279223" lon="-3.8592948"><ele>909.0</ele><time>2026-05-04T11:01:51.626Z</time></trkpt><trkpt lat="40.7279792" lon="-3.8592108"><ele>907.8000000000001</ele><time>2026-05-04T11:01:52.626Z</time></trkpt><trkpt lat="40.7280386" lon="-3.8591199"><ele>906.6000000000001</ele><time>2026-05-04T11:01:53.626Z</time></trkpt><trkpt lat="40.7280967" lon="-3.8590234"><ele>905.4</ele><time>2026-05-04T11:01:54.626Z</time></trkpt><trkpt lat="40.7281632" lon="-3.8589267"><ele>904.2</ele><time>2026-05-04T11:01:55.626Z</time></trkpt><trkpt lat="40.7282324" lon="-3.8588176"><ele>903.0</ele><time>2026-05-04T11:01:56.626Z</time></trkpt><trkpt lat="40.7282801" lon="-3.8586948"><ele>903.0</ele><time>2026-05-04T11:01:57.627Z</time></trkpt><trkpt lat="40.7283166" lon="-3.8585702"><ele>903.0</ele><time>2026-05-04T11:01:58.626Z</time></trkpt><trkpt lat="40.7283541" lon="-3.8584484"><ele>903.0</ele><time>2026-05-04T11:01:59.626Z</time></trkpt><trkpt lat="40.7283919" lon="-3.8583206"><ele>903.0</ele><time>2026-05-04T11:02:00.626Z</time></trkpt><trkpt lat="40.7284208" lon="-3.8582039"><ele>903.0</ele><time>2026-05-04T11:02:01.627Z</time></trkpt><trkpt lat="40.7284448" lon="-3.8581025"><ele>902.8333333333334</ele><time>2026-05-04T11:02:02.626Z</time></trkpt><trkpt lat="40.7284529" lon="-3.8580071"><ele>902.6666666666667</ele><time>2026-05-04T11:02:03.626Z</time></trkpt><trkpt lat="40.7284351" lon="-3.857915"><ele>902.5</ele><time>2026-05-04T11:02:04.626Z</time></trkpt><trkpt lat="40.7284005" lon="-3.857842"><ele>902.3333333333334</ele><time>2026-05-04T11:02:05.626Z</time></trkpt><trkpt lat="40.7283236" lon="-3.8577281"><ele>902.1666666666667</ele><time>2026-05-04T11:02:07.626Z</time></trkpt><trkpt lat="40.7282714" lon="-3.8576047"><ele>902.0</ele><time>2026-05-04T11:02:09.626Z</time></trkpt><trkpt lat="40.7282808" lon="-3.8574713"><ele>901.6</ele><time>2026-05-04T11:02:11.626Z</time></trkpt><trkpt lat="40.7283127" lon="-3.8573456"><ele>901.2</ele><time>2026-05-04T11:02:13.626Z</time></trkpt><trkpt lat="40.7283548" lon="-3.8572332"><ele>900.8</ele><time>2026-05-04T11:02:15.626Z</time></trkpt><trkpt lat="40.7283967" lon="-3.8571015"><ele>900.4</ele><time>2026-05-04T11:02:17.626Z</time></trkpt><trkpt lat="40.7284257" lon="-3.8570139"><ele>900.0</ele><time>2026-05-04T11:02:19.626Z</time></trkpt><trkpt lat="40.728496" lon="-3.856887"><ele>899.8333333333334</ele><time>2026-05-04T11:02:57.626Z</time></trkpt><trkpt lat="40.728551" lon="-3.8567457"><ele>899.6666666666667</ele><time>2026-05-04T11:02:59.626Z</time></trkpt><trkpt lat="40.7285804" lon="-3.8566563"><ele>899.5</ele><time>2026-05-04T11:03:00.626Z</time></trkpt><trkpt lat="40.728607" lon="-3.8565696"><ele>899.3333333333334</ele><time>2026-05-04T11:03:01.627Z</time></trkpt><trkpt lat="40.7286383" lon="-3.8564815"><ele>899.1666666666667</ele><time>2026-05-04T11:03:02.626Z</time></trkpt><trkpt lat="40.7286666" lon="-3.8563833"><ele>899.0</ele><time>2026-05-04T11:03:03.626Z</time></trkpt><trkpt lat="40.7286946" lon="-3.8562785"><ele>899.6666666666667</ele><time>2026-05-04T11:03:04.626Z</time></trkpt><trkpt lat="40.7287306" lon="-3.8561769"><ele>900.3333333333334</ele><time>2026-05-04T11:03:05.627Z</time></trkpt><trkpt lat="40.7287691" lon="-3.856079"><ele>901.0</ele><time>2026-05-04T11:03:06.626Z</time></trkpt><trkpt lat="40.7288065" lon="-3.8559899"><ele>901.6666666666667</ele><time>2026-05-04T11:03:07.627Z</time></trkpt><trkpt lat="40.7288385" lon="-3.8558989"><ele>902.3333333333334</ele><time>2026-05-04T11:03:08.627Z</time></trkpt><trkpt lat="40.7288637" lon="-3.8557935"><ele>903.0</ele><time>2026-05-04T11:03:09.626Z</time></trkpt><trkpt lat="40.7288838" lon="-3.8556837"><ele>903.0</ele><time>2026-05-04T11:03:10.627Z</time></trkpt><trkpt lat="40.7289057" lon="-3.8555713"><ele>903.0</ele><time>2026-05-04T11:03:11.626Z</time></trkpt><trkpt lat="40.7289336" lon="-3.8554595"><ele>903.0</ele><time>2026-05-04T11:03:12.627Z</time></trkpt><trkpt lat="40.7289701" lon="-3.8553594"><ele>903.0</ele><time>2026-05-04T11:03:13.627Z</time></trkpt><trkpt lat="40.7290198" lon="-3.8552639"><ele>903.0</ele><time>2026-05-04T11:03:14.626Z</time></trkpt><trkpt lat="40.7290682" lon="-3.8551629"><ele>903.0</ele><time>2026-05-04T11:03:15.626Z</time></trkpt><trkpt lat="40.729108" lon="-3.8550708"><ele>902.4</ele><time>2026-05-04T11:03:16.627Z</time></trkpt><trkpt lat="40.7291502" lon="-3.8549715"><ele>901.8</ele><time>2026-05-04T11:03:17.626Z</time></trkpt><trkpt lat="40.7292005" lon="-3.8548625"><ele>901.2</ele><time>2026-05-04T11:03:18.626Z</time></trkpt><trkpt lat="40.7292561" lon="-3.8547472"><ele>900.6</ele><time>2026-05-04T11:03:19.626Z</time></trkpt><trkpt lat="40.7293106" lon="-3.8546322"><ele>900.0</ele><time>2026-05-04T11:03:20.627Z</time></trkpt><trkpt lat="40.7293686" lon="-3.8545172"><ele>900.8</ele><time>2026-05-04T11:03:21.626Z</time></trkpt><trkpt lat="40.7294328" lon="-3.8544033"><ele>901.6</ele><time>2026-05-04T11:03:22.627Z</time></trkpt><trkpt lat="40.7295029" lon="-3.8542851"><ele>902.4000000000001</ele><time>2026-05-04T11:03:23.626Z</time></trkpt><trkpt lat="40.7295645" lon="-3.8541773"><ele>903.2</ele><time>2026-05-04T11:03:24.626Z</time></trkpt><trkpt lat="40.7296295" lon="-3.8540662"><ele>904.0</ele><time>2026-05-04T11:03:25.626Z</time></trkpt><trkpt lat="40.7297" lon="-3.8539514"><ele>904.0</ele><time>2026-05-04T11:03:26.626Z</time></trkpt><trkpt lat="40.7297681" lon="-3.8538403"><ele>904.0000000000001</ele><time>2026-05-04T11:03:27.626Z</time></trkpt><trkpt lat="40.7298322" lon="-3.8537297"><ele>904.0000000000001</ele><time>2026-05-04T11:03:28.627Z</time></trkpt><trkpt lat="40.7298976" lon="-3.8536254"><ele>904.0</ele><time>2026-05-04T11:03:29.626Z</time></trkpt><trkpt lat="40.7299576" lon="-3.8535286"><ele>904.0</ele><time>2026-05-04T11:03:30.626Z</time></trkpt><trkpt lat="40.7300137" lon="-3.8534387"><ele>903.8333333333333</ele><time>2026-05-04T11:03:31.626Z</time></trkpt><trkpt lat="40.7300697" lon="-3.8533575"><ele>903.6666666666666</ele><time>2026-05-04T11:03:32.627Z</time></trkpt><trkpt lat="40.7301201" lon="-3.8532854"><ele>903.5</ele><time>2026-05-04T11:03:33.627Z</time></trkpt><trkpt lat="40.7301709" lon="-3.8532108"><ele>903.3333333333333</ele><time>2026-05-04T11:03:34.627Z</time></trkpt><trkpt lat="40.7302193" lon="-3.8531558"><ele>903.1666666666666</ele><time>2026-05-04T11:03:35.626Z</time></trkpt><trkpt lat="40.7302769" lon="-3.8531143"><ele>903.0</ele><time>2026-05-04T11:03:36.626Z</time></trkpt><trkpt lat="40.7304003" lon="-3.8530849"><ele>903.0</ele><time>2026-05-04T11:03:38.627Z</time></trkpt><trkpt lat="40.7304588" lon="-3.8530432"><ele>903.0</ele><time>2026-05-04T11:03:39.626Z</time></trkpt><trkpt lat="40.7305174" lon="-3.8529701"><ele>903.0</ele><time>2026-05-04T11:03:40.626Z</time></trkpt><trkpt lat="40.7305744" lon="-3.8528816"><ele>903.0</ele><time>2026-05-04T11:03:41.627Z</time></trkpt><trkpt lat="40.7306403" lon="-3.8527803"><ele>903.0</ele><time>2026-05-04T11:03:42.626Z</time></trkpt><trkpt lat="40.7307126" lon="-3.8526799"><ele>903.0</ele><time>2026-05-04T11:03:43.626Z</time></trkpt><trkpt lat="40.7307882" lon="-3.8525757"><ele>904.25</ele><time>2026-05-04T11:03:44.626Z</time></trkpt><trkpt lat="40.7308648" lon="-3.8524742"><ele>905.5</ele><time>2026-05-04T11:03:45.626Z</time></trkpt><trkpt lat="40.730944" lon="-3.8523635"><ele>906.75</ele><time>2026-05-04T11:03:46.626Z</time></trkpt><trkpt lat="40.7310209" lon="-3.852252"><ele>908.0</ele><time>2026-05-04T11:03:47.627Z</time></trkpt><trkpt lat="40.7311011" lon="-3.8521327"><ele>908.0</ele><time>2026-05-04T11:03:48.626Z</time></trkpt><trkpt lat="40.7311929" lon="-3.8520162"><ele>908.0</ele><time>2026-05-04T11:03:49.626Z</time></trkpt><trkpt lat="40.7312796" lon="-3.8519034"><ele>908.0</ele><time>2026-05-04T11:03:50.626Z</time></trkpt><trkpt lat="40.731363" lon="-3.851802"><ele>908.0</ele><time>2026-05-04T11:03:51.626Z</time></trkpt><trkpt lat="40.7314456" lon="-3.8517061"><ele>906.5000000000001</ele><time>2026-05-04T11:03:52.626Z</time></trkpt><trkpt lat="40.731522" lon="-3.851621"><ele>905.0</ele><time>2026-05-04T11:03:53.626Z</time></trkpt><trkpt lat="40.7315946" lon="-3.8515496"><ele>903.5</ele><time>2026-05-04T11:03:54.627Z</time></trkpt><trkpt lat="40.7316663" lon="-3.8514864"><ele>902.0</ele><time>2026-05-04T11:03:55.626Z</time></trkpt><trkpt lat="40.7317356" lon="-3.851431"><ele>900.5000000000001</ele><time>2026-05-04T11:03:56.626Z</time></trkpt><trkpt lat="40.7317836" lon="-3.8513754"><ele>899.0</ele><time>2026-05-04T11:03:57.626Z</time></trkpt><trkpt lat="40.7318245" lon="-3.8513088"><ele>898.9999999999999</ele><time>2026-05-04T11:03:58.626Z</time></trkpt><trkpt lat="40.7318668" lon="-3.851241"><ele>899.0</ele><time>2026-05-04T11:03:59.626Z</time></trkpt><trkpt lat="40.7319204" lon="-3.8511765"><ele>898.9999999999999</ele><time>2026-05-04T11:04:00.626Z</time></trkpt><trkpt lat="40.7319778" lon="-3.8511103"><ele>898.9999999999999</ele><time>2026-05-04T11:04:01.626Z</time></trkpt><trkpt lat="40.7320387" lon="-3.8510445"><ele>899.0</ele><time>2026-05-04T11:04:02.626Z</time></trkpt><trkpt lat="40.7320889" lon="-3.8509777"><ele>898.9999999999999</ele><time>2026-05-04T11:04:03.627Z</time></trkpt><trkpt lat="40.7321421" lon="-3.8509072"><ele>898.9999999999999</ele><time>2026-05-04T11:04:04.627Z</time></trkpt><trkpt lat="40.7321842" lon="-3.850831"><ele>899.4285714285713</ele><time>2026-05-04T11:04:05.626Z</time></trkpt><trkpt lat="40.7322215" lon="-3.8507524"><ele>899.8571428571429</ele><time>2026-05-04T11:04:06.626Z</time></trkpt><trkpt lat="40.7322477" lon="-3.8506614"><ele>900.2857142857142</ele><time>2026-05-04T11:04:07.626Z</time></trkpt><trkpt lat="40.7322739" lon="-3.8505633"><ele>900.7142857142857</ele><time>2026-05-04T11:04:08.627Z</time></trkpt><trkpt lat="40.7323118" lon="-3.8504915"><ele>901.1428571428571</ele><time>2026-05-04T11:04:09.626Z</time></trkpt><trkpt lat="40.7323628" lon="-3.8504242"><ele>901.5714285714286</ele><time>2026-05-04T11:04:10.626Z</time></trkpt><trkpt lat="40.7324198" lon="-3.8503423"><ele>902.0</ele><time>2026-05-04T11:04:11.626Z</time></trkpt><trkpt lat="40.7324713" lon="-3.850253"><ele>902.0000000000001</ele><time>2026-05-04T11:04:12.627Z</time></trkpt><trkpt lat="40.732506" lon="-3.8501775"><ele>902.0</ele><time>2026-05-04T11:04:13.626Z</time></trkpt><trkpt lat="40.7325586" lon="-3.8500633"><ele>902.0</ele><time>2026-05-04T11:04:15.626Z</time></trkpt><trkpt lat="40.7326321" lon="-3.8500045"><ele>902.0</ele><time>2026-05-04T11:04:17.626Z</time></trkpt><trkpt lat="40.732712" lon="-3.8499235"><ele>902.0000000000001</ele><time>2026-05-04T11:04:19.626Z</time></trkpt><trkpt lat="40.7327643" lon="-3.849868"><ele>902.0</ele><time>2026-05-04T11:04:20.626Z</time></trkpt><trkpt lat="40.7328228" lon="-3.8498127"><ele>902.8333333333334</ele><time>2026-05-04T11:04:21.626Z</time></trkpt><trkpt lat="40.7328904" lon="-3.8497644"><ele>903.6666666666667</ele><time>2026-05-04T11:04:22.626Z</time></trkpt><trkpt lat="40.7329573" lon="-3.8497246"><ele>904.5</ele><time>2026-05-04T11:04:23.626Z</time></trkpt><trkpt lat="40.7330254" lon="-3.8496814"><ele>905.3333333333333</ele><time>2026-05-04T11:04:24.626Z</time></trkpt><trkpt lat="40.7330929" lon="-3.8496347"><ele>906.1666666666666</ele><time>2026-05-04T11:04:25.626Z</time></trkpt><trkpt lat="40.7331611" lon="-3.8495897"><ele>907.0</ele><time>2026-05-04T11:04:26.626Z</time></trkpt><trkpt lat="40.7332334" lon="-3.8495384"><ele>906.9999999999999</ele><time>2026-05-04T11:04:27.627Z</time></trkpt><trkpt lat="40.7333093" lon="-3.8495006"><ele>907.0</ele><time>2026-05-04T11:04:28.626Z</time></trkpt><trkpt lat="40.7333874" lon="-3.8494687"><ele>907.0</ele><time>2026-05-04T11:04:29.626Z</time></trkpt><trkpt lat="40.7334697" lon="-3.8494342"><ele>907.0</ele><time>2026-05-04T11:04:30.626Z</time></trkpt><trkpt lat="40.7335483" lon="-3.8493973"><ele>906.9999999999999</ele><time>2026-05-04T11:04:31.626Z</time></trkpt><trkpt lat="40.7336174" lon="-3.8493641"><ele>907.0</ele><time>2026-05-04T11:04:32.626Z</time></trkpt><trkpt lat="40.7336815" lon="-3.8493312"><ele>905.6666666666666</ele><time>2026-05-04T11:04:33.626Z</time></trkpt><trkpt lat="40.7337325" lon="-3.8492806"><ele>904.3333333333333</ele><time>2026-05-04T11:04:34.626Z</time></trkpt><trkpt lat="40.7337804" lon="-3.8492179"><ele>903.0</ele><time>2026-05-04T11:04:35.626Z</time></trkpt><trkpt lat="40.7338249" lon="-3.8491402"><ele>901.6666666666667</ele><time>2026-05-04T11:04:36.626Z</time></trkpt><trkpt lat="40.7338725" lon="-3.8490575"><ele>900.3333333333334</ele><time>2026-05-04T11:04:37.626Z</time></trkpt><trkpt lat="40.7339228" lon="-3.8489696"><ele>899.0</ele><time>2026-05-04T11:04:38.626Z</time></trkpt><trkpt lat="40.7339795" lon="-3.8488758"><ele>899.0000000000001</ele><time>2026-05-04T11:04:39.626Z</time></trkpt><trkpt lat="40.7340362" lon="-3.8487916"><ele>899.0</ele><time>2026-05-04T11:04:40.626Z</time></trkpt><trkpt lat="40.734091" lon="-3.8487228"><ele>899.0</ele><time>2026-05-04T11:04:41.626Z</time></trkpt><trkpt lat="40.7341484" lon="-3.8486629"><ele>899.0</ele><time>2026-05-04T11:04:42.626Z</time></trkpt><trkpt lat="40.7342024" lon="-3.8486024"><ele>899.0000000000001</ele><time>2026-05-04T11:04:43.626Z</time></trkpt><trkpt lat="40.7342564" lon="-3.8485533"><ele>899.0</ele><time>2026-05-04T11:04:44.626Z</time></trkpt><trkpt lat="40.7343649" lon="-3.8485045"><ele>899.5714285714284</ele><time>2026-05-04T11:04:46.626Z</time></trkpt><trkpt lat="40.7344361" lon="-3.8485035"><ele>900.1428571428571</ele><time>2026-05-04T11:04:47.626Z</time></trkpt><trkpt lat="40.7345065" lon="-3.8485242"><ele>900.7142857142857</ele><time>2026-05-04T11:04:48.626Z</time></trkpt><trkpt lat="40.7345786" lon="-3.8485344"><ele>901.2857142857142</ele><time>2026-05-04T11:04:49.626Z</time></trkpt><trkpt lat="40.7346485" lon="-3.848529"><ele>901.8571428571429</ele><time>2026-05-04T11:04:50.627Z</time></trkpt><trkpt lat="40.7347141" lon="-3.8485135"><ele>902.4285714285714</ele><time>2026-05-04T11:04:51.627Z</time></trkpt><trkpt lat="40.7347884" lon="-3.8484912"><ele>903.0</ele><time>2026-05-04T11:04:52.626Z</time></trkpt><trkpt lat="40.7348635" lon="-3.8484597"><ele>902.0</ele><time>2026-05-04T11:04:53.626Z</time></trkpt><trkpt lat="40.7349393" lon="-3.8484095"><ele>901.0</ele><time>2026-05-04T11:04:54.626Z</time></trkpt><trkpt lat="40.7350065" lon="-3.8483487"><ele>900.0</ele><time>2026-05-04T11:04:55.626Z</time></trkpt><trkpt lat="40.7350759" lon="-3.8482706"><ele>899.0</ele><time>2026-05-04T11:04:56.626Z</time></trkpt><trkpt lat="40.7351405" lon="-3.8481944"><ele>898.0</ele><time>2026-05-04T11:04:57.626Z</time></trkpt><trkpt lat="40.7351935" lon="-3.8481086"><ele>897.0</ele><time>2026-05-04T11:04:58.627Z</time></trkpt><trkpt lat="40.7352376" lon="-3.8480048"><ele>898.2</ele><time>2026-05-04T11:04:59.626Z</time></trkpt><trkpt lat="40.7352882" lon="-3.8478936"><ele>899.4000000000001</ele><time>2026-05-04T11:05:00.626Z</time></trkpt><trkpt lat="40.7353532" lon="-3.8477775"><ele>900.5999999999999</ele><time>2026-05-04T11:05:01.626Z</time></trkpt><trkpt lat="40.7354194" lon="-3.8476539"><ele>901.8</ele><time>2026-05-04T11:05:02.626Z</time></trkpt><trkpt lat="40.7354797" lon="-3.8475345"><ele>903.0</ele><time>2026-05-04T11:05:03.626Z</time></trkpt><trkpt lat="40.7355366" lon="-3.8474241"><ele>903.0</ele><time>2026-05-04T11:05:04.626Z</time></trkpt><trkpt lat="40.7355852" lon="-3.8473136"><ele>903.0</ele><time>2026-05-04T11:05:05.627Z</time></trkpt><trkpt lat="40.7356317" lon="-3.8472129"><ele>903.0</ele><time>2026-05-04T11:05:06.627Z</time></trkpt><trkpt lat="40.7356772" lon="-3.8471246"><ele>903.0</ele><time>2026-05-04T11:05:07.626Z</time></trkpt><trkpt lat="40.7357329" lon="-3.8470615"><ele>903.0</ele><time>2026-05-04T11:05:08.626Z</time></trkpt><trkpt lat="40.735792" lon="-3.8470145"><ele>903.0</ele><time>2026-05-04T11:05:09.626Z</time></trkpt><trkpt lat="40.7358409" lon="-3.8469547"><ele>903.0</ele><time>2026-05-04T11:05:10.626Z</time></trkpt><trkpt lat="40.7358889" lon="-3.8468812"><ele>903.0</ele><time>2026-05-04T11:05:11.626Z</time></trkpt><trkpt lat="40.7359447" lon="-3.8467889"><ele>903.0</ele><time>2026-05-04T11:05:12.626Z</time></trkpt><trkpt lat="40.7359988" lon="-3.8466892"><ele>903.0</ele><time>2026-05-04T11:05:13.626Z</time></trkpt><trkpt lat="40.7360522" lon="-3.8466005"><ele>903.0</ele><time>2026-05-04T11:05:14.627Z</time></trkpt><trkpt lat="40.7360997" lon="-3.846515"><ele>903.0</ele><time>2026-05-04T11:05:15.627Z</time></trkpt><trkpt lat="40.7361517" lon="-3.8464256"><ele>903.0</ele><time>2026-05-04T11:05:16.626Z</time></trkpt><trkpt lat="40.7362163" lon="-3.8463435"><ele>903.0</ele><time>2026-05-04T11:05:17.627Z</time></trkpt><trkpt lat="40.7362778" lon="-3.8462661"><ele>903.0</ele><time>2026-05-04T11:05:18.627Z</time></trkpt><trkpt lat="40.7363247" lon="-3.8461884"><ele>903.0</ele><time>2026-05-04T11:05:19.626Z</time></trkpt><trkpt lat="40.7363716" lon="-3.8460981"><ele>903.0</ele><time>2026-05-04T11:05:20.627Z</time></trkpt><trkpt lat="40.7364105" lon="-3.8460043"><ele>903.0</ele><time>2026-05-04T11:05:21.626Z</time></trkpt><trkpt lat="40.7364402" lon="-3.8459268"><ele>902.0</ele><time>2026-05-04T11:05:22.626Z</time></trkpt><trkpt lat="40.7365229" lon="-3.8458068"><ele>901.0</ele><time>2026-05-04T11:05:24.626Z</time></trkpt><trkpt lat="40.7365714" lon="-3.8457284"><ele>900.0</ele><time>2026-05-04T11:05:25.626Z</time></trkpt><trkpt lat="40.7366282" lon="-3.845638"><ele>899.0</ele><time>2026-05-04T11:05:26.626Z</time></trkpt><trkpt lat="40.7367003" lon="-3.8455536"><ele>898.0</ele><time>2026-05-04T11:05:27.626Z</time></trkpt><trkpt lat="40.7367652" lon="-3.8454649"><ele>897.9999999999999</ele><time>2026-05-04T11:05:28.626Z</time></trkpt><trkpt lat="40.7368233" lon="-3.8453723"><ele>898.0</ele><time>2026-05-04T11:05:29.626Z</time></trkpt><trkpt lat="40.7368811" lon="-3.8452735"><ele>898.0</ele><time>2026-05-04T11:05:30.626Z</time></trkpt><trkpt lat="40.7369384" lon="-3.8451768"><ele>898.0</ele><time>2026-05-04T11:05:31.626Z</time></trkpt><trkpt lat="40.7369807" lon="-3.8450887"><ele>897.9999999999999</ele><time>2026-05-04T11:05:32.626Z</time></trkpt><trkpt lat="40.737008" lon="-3.8450059"><ele>898.0</ele><time>2026-05-04T11:05:33.627Z</time></trkpt><trkpt lat="40.7370892" lon="-3.8448912"><ele>898.3333333333333</ele><time>2026-05-04T11:05:35.626Z</time></trkpt><trkpt lat="40.7371486" lon="-3.8448397"><ele>898.6666666666666</ele><time>2026-05-04T11:05:36.626Z</time></trkpt><trkpt lat="40.7372079" lon="-3.8447616"><ele>899.0</ele><time>2026-05-04T11:05:37.626Z</time></trkpt><trkpt lat="40.7372636" lon="-3.8446645"><ele>899.3333333333333</ele><time>2026-05-04T11:05:38.627Z</time></trkpt><trkpt lat="40.737336" lon="-3.8445761"><ele>899.6666666666666</ele><time>2026-05-04T11:05:39.626Z</time></trkpt><trkpt lat="40.7374" lon="-3.8444907"><ele>900.0</ele><time>2026-05-04T11:05:40.626Z</time></trkpt><trkpt lat="40.7374715" lon="-3.8444003"><ele>900.0</ele><time>2026-05-04T11:05:41.626Z</time></trkpt><trkpt lat="40.7375483" lon="-3.844314"><ele>900.0</ele><time>2026-05-04T11:05:42.627Z</time></trkpt><trkpt lat="40.7376287" lon="-3.8442321"><ele>900.0</ele><time>2026-05-04T11:05:43.626Z</time></trkpt><trkpt lat="40.7377129" lon="-3.8441591"><ele>900.0</ele><time>2026-05-04T11:05:44.626Z</time></trkpt><trkpt lat="40.7378011" lon="-3.844085"><ele>900.0</ele><time>2026-05-04T11:05:45.626Z</time></trkpt><trkpt lat="40.7378827" lon="-3.8440171"><ele>900.0</ele><time>2026-05-04T11:05:46.625Z</time></trkpt><trkpt lat="40.7379665" lon="-3.8439449"><ele>900.0</ele><time>2026-05-04T11:05:47.625Z</time></trkpt><trkpt lat="40.7380427" lon="-3.8438806"><ele>900.0</ele><time>2026-05-04T11:05:48.625Z</time></trkpt><trkpt lat="40.7381195" lon="-3.843822"><ele>900.0</ele><time>2026-05-04T11:05:49.626Z</time></trkpt><trkpt lat="40.7381953" lon="-3.8437628"><ele>900.0</ele><time>2026-05-04T11:05:50.625Z</time></trkpt><trkpt lat="40.7382737" lon="-3.8437108"><ele>900.0</ele><time>2026-05-04T11:05:51.625Z</time></trkpt><trkpt lat="40.73834" lon="-3.8436481"><ele>900.0</ele><time>2026-05-04T11:05:52.625Z</time></trkpt><trkpt lat="40.7383984" lon="-3.8435872"><ele>900.0</ele><time>2026-05-04T11:05:53.625Z</time></trkpt><trkpt lat="40.7384512" lon="-3.8435204"><ele>900.0</ele><time>2026-05-04T11:05:54.625Z</time></trkpt><trkpt lat="40.7385096" lon="-3.8434564"><ele>900.0</ele><time>2026-05-04T11:05:55.625Z</time></trkpt><trkpt lat="40.7385685" lon="-3.8433914"><ele>900.0</ele><time>2026-05-04T11:05:56.626Z</time></trkpt><trkpt lat="40.738632" lon="-3.843306"><ele>899.6666666666666</ele><time>2026-05-04T11:05:58.625Z</time></trkpt><trkpt lat="40.7387146" lon="-3.8432909"><ele>899.3333333333333</ele><time>2026-05-04T11:06:01.625Z</time></trkpt><trkpt lat="40.7387816" lon="-3.8432718"><ele>899.0</ele><time>2026-05-04T11:06:03.626Z</time></trkpt><trkpt lat="40.7388649" lon="-3.8431873"><ele>898.6666666666666</ele><time>2026-05-04T11:06:05.626Z</time></trkpt><trkpt lat="40.7389351" lon="-3.8431329"><ele>898.3333333333333</ele><time>2026-05-04T11:06:06.625Z</time></trkpt><trkpt lat="40.7390022" lon="-3.8430835"><ele>898.0</ele><time>2026-05-04T11:06:07.625Z</time></trkpt><trkpt lat="40.7390722" lon="-3.8430289"><ele>898.0</ele><time>2026-05-04T11:06:08.625Z</time></trkpt><trkpt lat="40.7391451" lon="-3.842968"><ele>898.0</ele><time>2026-05-04T11:06:09.626Z</time></trkpt><trkpt lat="40.7392254" lon="-3.8429077"><ele>898.0</ele><time>2026-05-04T11:06:10.625Z</time></trkpt><trkpt lat="40.7393105" lon="-3.8428414"><ele>898.0</ele><time>2026-05-04T11:06:11.625Z</time></trkpt><trkpt lat="40.7393894" lon="-3.8427664"><ele>898.0</ele><time>2026-05-04T11:06:12.625Z</time></trkpt><trkpt lat="40.7394637" lon="-3.8426886"><ele>899.0</ele><time>2026-05-04T11:06:13.625Z</time></trkpt><trkpt lat="40.7395297" lon="-3.8426009"><ele>900.0</ele><time>2026-05-04T11:06:14.625Z</time></trkpt><trkpt lat="40.7395964" lon="-3.8425094"><ele>901.0</ele><time>2026-05-04T11:06:15.625Z</time></trkpt><trkpt lat="40.7396588" lon="-3.8424144"><ele>902.0</ele><time>2026-05-04T11:06:16.625Z</time></trkpt><trkpt lat="40.7397196" lon="-3.8423208"><ele>903.0</ele><time>2026-05-04T11:06:17.625Z</time></trkpt><trkpt lat="40.7397634" lon="-3.8422234"><ele>903.0</ele><time>2026-05-04T11:06:18.625Z</time></trkpt><trkpt lat="40.7398116" lon="-3.8421303"><ele>903.0</ele><time>2026-05-04T11:06:19.625Z</time></trkpt><trkpt lat="40.7398601" lon="-3.8420475"><ele>903.0</ele><time>2026-05-04T11:06:20.625Z</time></trkpt><trkpt lat="40.7398989" lon="-3.841949"><ele>903.0</ele><time>2026-05-04T11:06:21.626Z</time></trkpt><trkpt lat="40.7399241" lon="-3.8418338"><ele>903.0</ele><time>2026-05-04T11:06:22.626Z</time></trkpt><trkpt lat="40.7399473" lon="-3.8417023"><ele>903.0</ele><time>2026-05-04T11:06:23.625Z</time></trkpt><trkpt lat="40.7399711" lon="-3.8415687"><ele>903.0</ele><time>2026-05-04T11:06:24.625Z</time></trkpt><trkpt lat="40.740004" lon="-3.8414449"><ele>903.0</ele><time>2026-05-04T11:06:25.625Z</time></trkpt><trkpt lat="40.740048" lon="-3.841338"><ele>903.0</ele><time>2026-05-04T11:06:26.625Z</time></trkpt><trkpt lat="40.7401092" lon="-3.8412185"><ele>903.0</ele><time>2026-05-04T11:06:27.625Z</time></trkpt><trkpt lat="40.7401708" lon="-3.8410842"><ele>903.0</ele><time>2026-05-04T11:06:28.625Z</time></trkpt><trkpt lat="40.7402366" lon="-3.8409446"><ele>903.0</ele><time>2026-05-04T11:06:29.625Z</time></trkpt><trkpt lat="40.7402986" lon="-3.8408158"><ele>903.0</ele><time>2026-05-04T11:06:30.625Z</time></trkpt><trkpt lat="40.7403509" lon="-3.8407097"><ele>903.0</ele><time>2026-05-04T11:06:31.625Z</time></trkpt><trkpt lat="40.7404141" lon="-3.8406216"><ele>903.0</ele><time>2026-05-04T11:06:32.625Z</time></trkpt><trkpt lat="40.7404776" lon="-3.8405445"><ele>903.0</ele><time>2026-05-04T11:06:33.626Z</time></trkpt><trkpt lat="40.740539" lon="-3.8404714"><ele>903.0</ele><time>2026-05-04T11:06:34.625Z</time></trkpt><trkpt lat="40.7405958" lon="-3.8403953"><ele>903.0</ele><time>2026-05-04T11:06:35.625Z</time></trkpt><trkpt lat="40.7406479" lon="-3.8403167"><ele>903.0</ele><time>2026-05-04T11:06:36.626Z</time></trkpt><trkpt lat="40.7406911" lon="-3.8402306"><ele>903.0</ele><time>2026-05-04T11:06:37.625Z</time></trkpt><trkpt lat="40.7407155" lon="-3.8401356"><ele>903.0</ele><time>2026-05-04T11:06:38.625Z</time></trkpt><trkpt lat="40.7407335" lon="-3.8400391"><ele>903.0</ele><time>2026-05-04T11:06:39.626Z</time></trkpt><trkpt lat="40.7407516" lon="-3.8399442"><ele>902.5</ele><time>2026-05-04T11:06:40.625Z</time></trkpt><trkpt lat="40.7408086" lon="-3.8398008"><ele>902.0</ele><time>2026-05-04T11:06:42.625Z</time></trkpt><trkpt lat="40.7408499" lon="-3.8397362"><ele>901.5</ele><time>2026-05-04T11:06:43.626Z</time></trkpt><trkpt lat="40.7408888" lon="-3.8396704"><ele>901.0</ele><time>2026-05-04T11:06:44.625Z</time></trkpt><trkpt lat="40.7409302" lon="-3.839603"><ele>900.5</ele><time>2026-05-04T11:06:45.625Z</time></trkpt><trkpt lat="40.7409934" lon="-3.839466"><ele>900.0</ele><time>2026-05-04T11:06:47.625Z</time></trkpt><trkpt lat="40.7410328" lon="-3.8393555"><ele>900.4</ele><time>2026-05-04T11:06:49.625Z</time></trkpt><trkpt lat="40.7410621" lon="-3.8392676"><ele>900.8</ele><time>2026-05-04T11:06:51.625Z</time></trkpt><trkpt lat="40.7411154" lon="-3.8391173"><ele>901.2</ele><time>2026-05-04T11:06:53.625Z</time></trkpt><trkpt lat="40.7411785" lon="-3.8389814"><ele>901.6</ele><time>2026-05-04T11:06:55.625Z</time></trkpt><trkpt lat="40.7412091" lon="-3.838903"><ele>902.0</ele><time>2026-05-04T11:06:56.625Z</time></trkpt><trkpt lat="40.7412338" lon="-3.8388203"><ele>902.0</ele><time>2026-05-04T11:06:57.625Z</time></trkpt><trkpt lat="40.7412661" lon="-3.8387376"><ele>902.0</ele><time>2026-05-04T11:06:58.625Z</time></trkpt><trkpt lat="40.7412935" lon="-3.8386606"><ele>902.0</ele><time>2026-05-04T11:06:59.625Z</time></trkpt><trkpt lat="40.7413267" lon="-3.8385779"><ele>902.0</ele><time>2026-05-04T11:07:00.625Z</time></trkpt><trkpt lat="40.7413509" lon="-3.8384941"><ele>902.0</ele><time>2026-05-04T11:07:01.626Z</time></trkpt><trkpt lat="40.741369" lon="-3.8384045"><ele>902.0</ele><time>2026-05-04T11:07:02.625Z</time></trkpt><trkpt lat="40.7414014" lon="-3.838299"><ele>902.0</ele><time>2026-05-04T11:07:03.625Z</time></trkpt><trkpt lat="40.7414333" lon="-3.83821"><ele>901.6666666666667</ele><time>2026-05-04T11:07:04.625Z</time></trkpt><trkpt lat="40.7414534" lon="-3.8381217"><ele>901.3333333333334</ele><time>2026-05-04T11:07:05.625Z</time></trkpt><trkpt lat="40.7414614" lon="-3.8380392"><ele>901.0</ele><time>2026-05-04T11:07:06.625Z</time></trkpt><trkpt lat="40.7414866" lon="-3.8379059"><ele>900.6666666666667</ele><time>2026-05-04T11:07:08.625Z</time></trkpt><trkpt lat="40.7415162" lon="-3.8378213"><ele>900.3333333333334</ele><time>2026-05-04T11:07:10.625Z</time></trkpt><trkpt lat="40.7415345" lon="-3.8377391"><ele>900.0</ele><time>2026-05-04T11:07:12.625Z</time></trkpt><trkpt lat="40.7415651" lon="-3.8376296"><ele>899.5</ele><time>2026-05-04T11:07:15.625Z</time></trkpt><trkpt lat="40.7415893" lon="-3.8375492"><ele>899.0</ele><time>2026-05-04T11:07:17.626Z</time></trkpt><trkpt lat="40.741616" lon="-3.8374396"><ele>898.5</ele><time>2026-05-04T11:07:20.626Z</time></trkpt><trkpt lat="40.7416056" lon="-3.837338"><ele>898.0</ele><time>2026-05-04T11:07:23.625Z</time></trkpt><trkpt lat="40.7415631" lon="-3.8372462"><ele>897.5</ele><time>2026-05-04T11:07:27.625Z</time></trkpt><trkpt lat="40.7415372" lon="-3.8371267"><ele>897.0</ele><time>2026-05-04T11:07:29.626Z</time></trkpt><trkpt lat="40.7415396" lon="-3.8370436"><ele>897.0</ele><time>2026-05-04T11:07:30.625Z</time></trkpt><trkpt lat="40.7415477" lon="-3.8369582"><ele>897.0</ele><time>2026-05-04T11:07:31.625Z</time></trkpt><trkpt lat="40.7415576" lon="-3.8368692"><ele>897.0</ele><time>2026-05-04T11:07:32.625Z</time></trkpt><trkpt lat="40.7415673" lon="-3.836749"><ele>897.0</ele><time>2026-05-04T11:07:33.625Z</time></trkpt><trkpt lat="40.7415743" lon="-3.8366283"><ele>897.0</ele><time>2026-05-04T11:07:34.625Z</time></trkpt><trkpt lat="40.7415815" lon="-3.8365177"><ele>897.0</ele><time>2026-05-04T11:07:35.625Z</time></trkpt><trkpt lat="40.7415738" lon="-3.8364019"><ele>897.0</ele><time>2026-05-04T11:07:36.625Z</time></trkpt><trkpt lat="40.7415636" lon="-3.8362803"><ele>897.0</ele><time>2026-05-04T11:07:37.625Z</time></trkpt><trkpt lat="40.741546" lon="-3.8361506"><ele>897.0</ele><time>2026-05-04T11:07:38.625Z</time></trkpt><trkpt lat="40.7415243" lon="-3.8360352"><ele>897.0</ele><time>2026-05-04T11:07:39.625Z</time></trkpt><trkpt lat="40.7415008" lon="-3.835936"><ele>897.0</ele><time>2026-05-04T11:07:40.626Z</time></trkpt><trkpt lat="40.7414667" lon="-3.8358467"><ele>897.0</ele><time>2026-05-04T11:07:41.625Z</time></trkpt><trkpt lat="40.74142" lon="-3.8357886"><ele>897.2</ele><time>2026-05-04T11:07:42.625Z</time></trkpt><trkpt lat="40.7412982" lon="-3.8357655"><ele>897.4000000000001</ele><time>2026-05-04T11:07:44.625Z</time></trkpt><trkpt lat="40.7412348" lon="-3.8357384"><ele>897.5999999999999</ele><time>2026-05-04T11:07:45.625Z</time></trkpt><trkpt lat="40.7411671" lon="-3.8356104"><ele>897.8</ele><time>2026-05-04T11:07:47.626Z</time></trkpt><trkpt lat="40.7411074" lon="-3.8354829"><ele>898.0</ele><time>2026-05-04T11:07:49.625Z</time></trkpt><trkpt lat="40.7410447" lon="-3.8354045"><ele>897.9999999999999</ele><time>2026-05-04T11:07:51.625Z</time></trkpt><trkpt lat="40.7410368" lon="-3.8352852"><ele>898.0</ele><time>2026-05-04T11:07:53.625Z</time></trkpt><trkpt lat="40.7410293" lon="-3.835192"><ele>898.0</ele><time>2026-05-04T11:07:54.625Z</time></trkpt><trkpt lat="40.7410359" lon="-3.8350893"><ele>898.0</ele><time>2026-05-04T11:07:55.625Z</time></trkpt><trkpt lat="40.741067" lon="-3.8349876"><ele>897.9999999999999</ele><time>2026-05-04T11:07:56.625Z</time></trkpt><trkpt lat="40.741106" lon="-3.8348795"><ele>898.0</ele><time>2026-05-04T11:07:57.625Z</time></trkpt><trkpt lat="40.7411462" lon="-3.8347624"><ele>899.0</ele><time>2026-05-04T11:07:58.625Z</time></trkpt><trkpt lat="40.7411807" lon="-3.8346436"><ele>900.0</ele><time>2026-05-04T11:07:59.625Z</time></trkpt><trkpt lat="40.7412011" lon="-3.8345217"><ele>901.0</ele><time>2026-05-04T11:08:00.625Z</time></trkpt><trkpt lat="40.7411972" lon="-3.8343988"><ele>902.0</ele><time>2026-05-04T11:08:01.626Z</time></trkpt><trkpt lat="40.7411862" lon="-3.834258"><ele>903.0</ele><time>2026-05-04T11:08:02.625Z</time></trkpt><trkpt lat="40.7411674" lon="-3.8341092"><ele>903.0</ele><time>2026-05-04T11:08:03.625Z</time></trkpt><trkpt lat="40.7411519" lon="-3.8339662"><ele>903.0</ele><time>2026-05-04T11:08:04.625Z</time></trkpt><trkpt lat="40.7411406" lon="-3.833833"><ele>903.0</ele><time>2026-05-04T11:08:05.625Z</time></trkpt><trkpt lat="40.74113" lon="-3.833696"><ele>903.0</ele><time>2026-05-04T11:08:06.625Z</time></trkpt><trkpt lat="40.7411228" lon="-3.8335633"><ele>903.0</ele><time>2026-05-04T11:08:07.625Z</time></trkpt><trkpt lat="40.741115" lon="-3.83344"><ele>903.0</ele><time>2026-05-04T11:08:08.625Z</time></trkpt><trkpt lat="40.7411095" lon="-3.8333275"><ele>903.0</ele><time>2026-05-04T11:08:09.625Z</time></trkpt><trkpt lat="40.7411107" lon="-3.8332117"><ele>903.0</ele><time>2026-05-04T11:08:10.625Z</time></trkpt><trkpt lat="40.7411211" lon="-3.8331017"><ele>903.0</ele><time>2026-05-04T11:08:11.625Z</time></trkpt><trkpt lat="40.7411517" lon="-3.8330038"><ele>903.0</ele><time>2026-05-04T11:08:12.626Z</time></trkpt><trkpt lat="40.7411806" lon="-3.8329239"><ele>903.0</ele><time>2026-05-04T11:08:13.625Z</time></trkpt><trkpt lat="40.7411757" lon="-3.8328252"><ele>903.0</ele><time>2026-05-04T11:08:14.625Z</time></trkpt><trkpt lat="40.7411547" lon="-3.8327248"><ele>903.0</ele><time>2026-05-04T11:08:15.625Z</time></trkpt><trkpt lat="40.7411414" lon="-3.8326138"><ele>903.0</ele><time>2026-05-04T11:08:16.625Z</time></trkpt><trkpt lat="40.7411496" lon="-3.8325023"><ele>903.0</ele><time>2026-05-04T11:08:17.625Z</time></trkpt><trkpt lat="40.7411717" lon="-3.8323946"><ele>903.0</ele><time>2026-05-04T11:08:18.626Z</time></trkpt><trkpt lat="40.7412024" lon="-3.8322858"><ele>903.0</ele><time>2026-05-04T11:08:19.626Z</time></trkpt><trkpt lat="40.7412314" lon="-3.832172"><ele>902.4</ele><time>2026-05-04T11:08:20.626Z</time></trkpt><trkpt lat="40.7412478" lon="-3.8320481"><ele>901.8</ele><time>2026-05-04T11:08:21.625Z</time></trkpt><trkpt lat="40.7412555" lon="-3.8319217"><ele>901.2</ele><time>2026-05-04T11:08:22.625Z</time></trkpt><trkpt lat="40.7412733" lon="-3.8317889"><ele>900.6</ele><time>2026-05-04T11:08:23.625Z</time></trkpt><trkpt lat="40.741298" lon="-3.8316622"><ele>900.0</ele><time>2026-05-04T11:08:24.625Z</time></trkpt><trkpt lat="40.7413257" lon="-3.8315331"><ele>899.6</ele><time>2026-05-04T11:08:25.625Z</time></trkpt><trkpt lat="40.7413508" lon="-3.8314093"><ele>899.2</ele><time>2026-05-04T11:08:26.625Z</time></trkpt><trkpt lat="40.7413827" lon="-3.8312824"><ele>898.8</ele><time>2026-05-04T11:08:27.625Z</time></trkpt><trkpt lat="40.7414083" lon="-3.8311463"><ele>898.4</ele><time>2026-05-04T11:08:28.626Z</time></trkpt><trkpt lat="40.7414268" lon="-3.8310047"><ele>898.0</ele><time>2026-05-04T11:08:29.625Z</time></trkpt><trkpt lat="40.7414455" lon="-3.8308585"><ele>897.5999999999999</ele><time>2026-05-04T11:08:30.625Z</time></trkpt><trkpt lat="40.7414614" lon="-3.8307028"><ele>897.1999999999999</ele><time>2026-05-04T11:08:31.625Z</time></trkpt><trkpt lat="40.7414849" lon="-3.8305515"><ele>896.8</ele><time>2026-05-04T11:08:32.625Z</time></trkpt><trkpt lat="40.7415066" lon="-3.83041"><ele>896.4</ele><time>2026-05-04T11:08:33.625Z</time></trkpt><trkpt lat="40.7415292" lon="-3.8302785"><ele>896.0</ele><time>2026-05-04T11:08:34.625Z</time></trkpt><trkpt lat="40.74156" lon="-3.830154"><ele>896.0</ele><time>2026-05-04T11:08:35.625Z</time></trkpt><trkpt lat="40.7416038" lon="-3.8300345"><ele>895.9999999999999</ele><time>2026-05-04T11:08:36.625Z</time></trkpt><trkpt lat="40.741635" lon="-3.8299122"><ele>895.9999999999999</ele><time>2026-05-04T11:08:37.625Z</time></trkpt><trkpt lat="40.7416488" lon="-3.8297816"><ele>896.0</ele><time>2026-05-04T11:08:38.625Z</time></trkpt><trkpt lat="40.7416498" lon="-3.8296478"><ele>896.0</ele><time>2026-05-04T11:08:39.625Z</time></trkpt><trkpt lat="40.7416571" lon="-3.8295261"><ele>896.0000000000001</ele><time>2026-05-04T11:08:40.625Z</time></trkpt><trkpt lat="40.7416694" lon="-3.8294162"><ele>896.0</ele><time>2026-05-04T11:08:41.625Z</time></trkpt><trkpt lat="40.7416836" lon="-3.8293171"><ele>896.0</ele><time>2026-05-04T11:08:42.625Z</time></trkpt><trkpt lat="40.7417032" lon="-3.8292228"><ele>896.0</ele><time>2026-05-04T11:08:43.625Z</time></trkpt><trkpt lat="40.7416976" lon="-3.8291366"><ele>896.0000000000001</ele><time>2026-05-04T11:08:44.625Z</time></trkpt><trkpt lat="40.7416975" lon="-3.8290037"><ele>896.0</ele><time>2026-05-04T11:08:46.625Z</time></trkpt><trkpt lat="40.7417392" lon="-3.8288815"><ele>895.8333333333334</ele><time>2026-05-04T11:08:48.625Z</time></trkpt><trkpt lat="40.7417847" lon="-3.8287487"><ele>895.6666666666667</ele><time>2026-05-04T11:08:50.625Z</time></trkpt><trkpt lat="40.7417297" lon="-3.8286299"><ele>895.5</ele><time>2026-05-04T11:08:52.625Z</time></trkpt><trkpt lat="40.7417053" lon="-3.8285407"><ele>895.3333333333333</ele><time>2026-05-04T11:08:53.625Z</time></trkpt><trkpt lat="40.7416846" lon="-3.8284403"><ele>895.1666666666666</ele><time>2026-05-04T11:08:54.626Z</time></trkpt><trkpt lat="40.7416562" lon="-3.8283383"><ele>895.0</ele><time>2026-05-04T11:08:55.625Z</time></trkpt><trkpt lat="40.7416281" lon="-3.8282217"><ele>895.3333333333333</ele><time>2026-05-04T11:08:56.625Z</time></trkpt><trkpt lat="40.7416042" lon="-3.8281101"><ele>895.6666666666666</ele><time>2026-05-04T11:08:57.625Z</time></trkpt><trkpt lat="40.7415776" lon="-3.8280077"><ele>896.0</ele><time>2026-05-04T11:08:58.625Z</time></trkpt><trkpt lat="40.7415504" lon="-3.8279101"><ele>896.3333333333333</ele><time>2026-05-04T11:08:59.625Z</time></trkpt><trkpt lat="40.7415268" lon="-3.8278313"><ele>896.6666666666666</ele><time>2026-05-04T11:09:00.625Z</time></trkpt><trkpt lat="40.741496" lon="-3.8276845"><ele>897.0</ele><time>2026-05-04T11:09:02.625Z</time></trkpt><trkpt lat="40.7415034" lon="-3.8275336"><ele>897.0</ele><time>2026-05-04T11:09:04.625Z</time></trkpt><trkpt lat="40.7415021" lon="-3.8273837"><ele>897.0</ele><time>2026-05-04T11:09:06.625Z</time></trkpt><trkpt lat="40.7414353" lon="-3.8272752"><ele>897.0</ele><time>2026-05-04T11:09:08.625Z</time></trkpt><trkpt lat="40.7413789" lon="-3.8272306"><ele>897.0</ele><time>2026-05-04T11:09:09.625Z</time></trkpt><trkpt lat="40.7413086" lon="-3.8271275"><ele>897.0</ele><time>2026-05-04T11:09:11.625Z</time></trkpt><trkpt lat="40.7412873" lon="-3.8270102"><ele>897.0</ele><time>2026-05-04T11:09:13.625Z</time></trkpt><trkpt lat="40.7412498" lon="-3.8268912"><ele>897.0</ele><time>2026-05-04T11:09:15.625Z</time></trkpt><trkpt lat="40.7411564" lon="-3.8268084"><ele>897.0</ele><time>2026-05-04T11:09:17.625Z</time></trkpt><trkpt lat="40.7411107" lon="-3.8267474"><ele>897.0</ele><time>2026-05-04T11:09:18.625Z</time></trkpt><trkpt lat="40.7410403" lon="-3.8266698"><ele>897.0</ele><time>2026-05-04T11:09:20.625Z</time></trkpt><trkpt lat="40.7409795" lon="-3.8266028"><ele>897.0</ele><time>2026-05-04T11:09:23.625Z</time></trkpt><trkpt lat="40.7409654" lon="-3.826517"><ele>896.8</ele><time>2026-05-04T11:09:32.625Z</time></trkpt><trkpt lat="40.740971" lon="-3.8263885"><ele>896.6</ele><time>2026-05-04T11:09:41.626Z</time></trkpt><trkpt lat="40.7409832" lon="-3.8262878"><ele>896.3999999999999</ele><time>2026-05-04T11:09:43.625Z</time></trkpt><trkpt lat="40.7409419" lon="-3.8261966"><ele>896.1999999999999</ele><time>2026-05-04T11:09:45.625Z</time></trkpt><trkpt lat="40.7408523" lon="-3.8261179"><ele>896.0</ele><time>2026-05-04T11:09:47.625Z</time></trkpt><trkpt lat="40.740774" lon="-3.8260526"><ele>896.0000000000001</ele><time>2026-05-04T11:09:49.625Z</time></trkpt><trkpt lat="40.7406786" lon="-3.8259912"><ele>896.0</ele><time>2026-05-04T11:09:51.625Z</time></trkpt><trkpt lat="40.7406142" lon="-3.8259575"><ele>896.0</ele><time>2026-05-04T11:09:52.625Z</time></trkpt><trkpt lat="40.7405461" lon="-3.8259179"><ele>896.0</ele><time>2026-05-04T11:09:53.625Z</time></trkpt><trkpt lat="40.7404691" lon="-3.8258814"><ele>896.0000000000001</ele><time>2026-05-04T11:09:54.625Z</time></trkpt><trkpt lat="40.7403928" lon="-3.8258427"><ele>896.0</ele><time>2026-05-04T11:09:55.626Z</time></trkpt><trkpt lat="40.7403293" lon="-3.8257721"><ele>896.0000000000001</ele><time>2026-05-04T11:09:56.625Z</time></trkpt><trkpt lat="40.7402707" lon="-3.8256881"><ele>896.0</ele><time>2026-05-04T11:09:57.625Z</time></trkpt><trkpt lat="40.7402167" lon="-3.8255966"><ele>896.0</ele><time>2026-05-04T11:09:58.625Z</time></trkpt><trkpt lat="40.7401589" lon="-3.825503"><ele>896.0</ele><time>2026-05-04T11:09:59.625Z</time></trkpt><trkpt lat="40.7401065" lon="-3.8254138"><ele>896.0000000000001</ele><time>2026-05-04T11:10:00.625Z</time></trkpt><trkpt lat="40.7400598" lon="-3.8253388"><ele>896.0</ele><time>2026-05-04T11:10:01.625Z</time></trkpt><trkpt lat="40.7400097" lon="-3.8252733"><ele>896.0</ele><time>2026-05-04T11:10:02.625Z</time></trkpt><trkpt lat="40.7399506" lon="-3.8252206"><ele>896.0</ele><time>2026-05-04T11:10:03.626Z</time></trkpt><trkpt lat="40.7398834" lon="-3.8251614"><ele>896.0</ele><time>2026-05-04T11:10:04.626Z</time></trkpt><trkpt lat="40.7398144" lon="-3.8250995"><ele>896.0</ele><time>2026-05-04T11:10:05.626Z</time></trkpt><trkpt lat="40.739753" lon="-3.8250456"><ele>896.0</ele><time>2026-05-04T11:10:06.626Z</time></trkpt><trkpt lat="40.7396951" lon="-3.8249976"><ele>896.0</ele><time>2026-05-04T11:10:07.625Z</time></trkpt><trkpt lat="40.739632" lon="-3.8249709"><ele>896.0</ele><time>2026-05-04T11:10:08.626Z</time></trkpt><trkpt lat="40.7395606" lon="-3.8249577"><ele>896.1999999999999</ele><time>2026-05-04T11:10:09.625Z</time></trkpt><trkpt lat="40.7394584" lon="-3.8248852"><ele>896.3999999999999</ele><time>2026-05-04T11:10:11.625Z</time></trkpt><trkpt lat="40.7394022" lon="-3.824804"><ele>896.6</ele><time>2026-05-04T11:10:12.625Z</time></trkpt><trkpt lat="40.7393155" lon="-3.8247162"><ele>896.8</ele><time>2026-05-04T11:10:13.625Z</time></trkpt><trkpt lat="40.7392261" lon="-3.8246271"><ele>897.0</ele><time>2026-05-04T11:10:14.625Z</time></trkpt><trkpt lat="40.739151" lon="-3.8245441"><ele>897.2</ele><time>2026-05-04T11:10:15.625Z</time></trkpt><trkpt lat="40.7390827" lon="-3.8244521"><ele>897.4000000000001</ele><time>2026-05-04T11:10:16.625Z</time></trkpt><trkpt lat="40.7390146" lon="-3.8243563"><ele>897.5999999999999</ele><time>2026-05-04T11:10:17.625Z</time></trkpt><trkpt lat="40.7389431" lon="-3.8242604"><ele>897.8</ele><time>2026-05-04T11:10:18.625Z</time></trkpt><trkpt lat="40.7388812" lon="-3.8241629"><ele>898.0</ele><time>2026-05-04T11:10:19.625Z</time></trkpt><trkpt lat="40.7388268" lon="-3.8240532"><ele>897.5999999999999</ele><time>2026-05-04T11:10:20.625Z</time></trkpt><trkpt lat="40.7387858" lon="-3.8239332"><ele>897.1999999999999</ele><time>2026-05-04T11:10:21.625Z</time></trkpt><trkpt lat="40.7387431" lon="-3.8238213"><ele>896.8</ele><time>2026-05-04T11:10:22.625Z</time></trkpt><trkpt lat="40.738689" lon="-3.8237435"><ele>896.4</ele><time>2026-05-04T11:10:23.625Z</time></trkpt><trkpt lat="40.7386279" lon="-3.8236629"><ele>896.0</ele><time>2026-05-04T11:10:24.625Z</time></trkpt><trkpt lat="40.7385767" lon="-3.8235672"><ele>895.6666666666667</ele><time>2026-05-04T11:10:25.625Z</time></trkpt><trkpt lat="40.7385409" lon="-3.823476"><ele>895.3333333333334</ele><time>2026-05-04T11:10:26.626Z</time></trkpt><trkpt lat="40.7385131" lon="-3.8233777"><ele>895.0</ele><time>2026-05-04T11:10:27.625Z</time></trkpt><trkpt lat="40.7384984" lon="-3.8232963"><ele>894.6666666666667</ele><time>2026-05-04T11:10:28.625Z</time></trkpt><trkpt lat="40.7384474" lon="-3.8231605"><ele>894.3333333333334</ele><time>2026-05-04T11:10:30.625Z</time></trkpt><trkpt lat="40.7383923" lon="-3.8231142"><ele>894.0</ele><time>2026-05-04T11:10:31.625Z</time></trkpt><trkpt lat="40.7383271" lon="-3.8230784"><ele>894.0</ele><time>2026-05-04T11:10:32.625Z</time></trkpt><trkpt lat="40.7382687" lon="-3.8230287"><ele>894.0</ele><time>2026-05-04T11:10:33.625Z</time></trkpt><trkpt lat="40.7382142" lon="-3.8229628"><ele>894.0</ele><time>2026-05-04T11:10:34.625Z</time></trkpt><trkpt lat="40.7381573" lon="-3.8228913"><ele>894.0</ele><time>2026-05-04T11:10:35.626Z</time></trkpt><trkpt lat="40.7381088" lon="-3.8227762"><ele>894.0</ele><time>2026-05-04T11:10:36.625Z</time></trkpt><trkpt lat="40.7380542" lon="-3.8226619"><ele>894.0</ele><time>2026-05-04T11:10:37.625Z</time></trkpt><trkpt lat="40.7379838" lon="-3.8225624"><ele>894.1666666666666</ele><time>2026-05-04T11:10:38.625Z</time></trkpt><trkpt lat="40.7379178" lon="-3.8224576"><ele>894.3333333333333</ele><time>2026-05-04T11:10:39.625Z</time></trkpt><trkpt lat="40.7378668" lon="-3.8223519"><ele>894.5</ele><time>2026-05-04T11:10:40.625Z</time></trkpt><trkpt lat="40.7378221" lon="-3.8222517"><ele>894.6666666666666</ele><time>2026-05-04T11:10:41.625Z</time></trkpt><trkpt lat="40.7377857" lon="-3.8221597"><ele>894.8333333333333</ele><time>2026-05-04T11:10:42.625Z</time></trkpt><trkpt lat="40.7377664" lon="-3.8220792"><ele>895.0</ele><time>2026-05-04T11:10:43.625Z</time></trkpt><trkpt lat="40.7377591" lon="-3.8219324"><ele>894.8333333333333</ele><time>2026-05-04T11:10:45.625Z</time></trkpt><trkpt lat="40.7377416" lon="-3.8217795"><ele>894.6666666666666</ele><time>2026-05-04T11:10:47.625Z</time></trkpt><trkpt lat="40.7377257" lon="-3.8216804"><ele>894.5</ele><time>2026-05-04T11:10:48.625Z</time></trkpt><trkpt lat="40.7376993" lon="-3.8215832"><ele>894.3333333333333</ele><time>2026-05-04T11:10:49.625Z</time></trkpt><trkpt lat="40.7376756" lon="-3.8214818"><ele>894.1666666666666</ele><time>2026-05-04T11:10:50.625Z</time></trkpt><trkpt lat="40.7376534" lon="-3.8213746"><ele>894.0</ele><time>2026-05-04T11:10:51.625Z</time></trkpt><trkpt lat="40.7376363" lon="-3.8212623"><ele>894.1666666666666</ele><time>2026-05-04T11:10:52.625Z</time></trkpt><trkpt lat="40.7376122" lon="-3.8211629"><ele>894.3333333333333</ele><time>2026-05-04T11:10:53.626Z</time></trkpt><trkpt lat="40.7375908" lon="-3.8210612"><ele>894.5</ele><time>2026-05-04T11:10:54.625Z</time></trkpt><trkpt lat="40.7375793" lon="-3.8209538"><ele>894.6666666666666</ele><time>2026-05-04T11:10:55.625Z</time></trkpt><trkpt lat="40.7375678" lon="-3.8208556"><ele>894.8333333333333</ele><time>2026-05-04T11:10:56.625Z</time></trkpt><trkpt lat="40.7375567" lon="-3.8207703"><ele>895.0</ele><time>2026-05-04T11:10:57.625Z</time></trkpt><trkpt lat="40.7375359" lon="-3.820627"><ele>895.0</ele><time>2026-05-04T11:10:59.625Z</time></trkpt><trkpt lat="40.7375654" lon="-3.8204776"><ele>895.0</ele><time>2026-05-04T11:11:01.625Z</time></trkpt><trkpt lat="40.7375574" lon="-3.8203194"><ele>895.0</ele><time>2026-05-04T11:11:03.626Z</time></trkpt><trkpt lat="40.7375173" lon="-3.8201747"><ele>895.0</ele><time>2026-05-04T11:11:05.625Z</time></trkpt><trkpt lat="40.7375079" lon="-3.8200173"><ele>895.1666666666666</ele><time>2026-05-04T11:11:07.625Z</time></trkpt><trkpt lat="40.7375176" lon="-3.8199262"><ele>895.3333333333333</ele><time>2026-05-04T11:11:08.626Z</time></trkpt><trkpt lat="40.7375408" lon="-3.8198302"><ele>895.5</ele><time>2026-05-04T11:11:09.626Z</time></trkpt><trkpt lat="40.737567" lon="-3.8197358"><ele>895.6666666666667</ele><time>2026-05-04T11:11:10.625Z</time></trkpt><trkpt lat="40.7375948" lon="-3.8196401"><ele>895.8333333333334</ele><time>2026-05-04T11:11:11.625Z</time></trkpt><trkpt lat="40.7376312" lon="-3.8195398"><ele>896.0</ele><time>2026-05-04T11:11:12.625Z</time></trkpt><trkpt lat="40.7376793" lon="-3.8194357"><ele>896.1666666666667</ele><time>2026-05-04T11:11:13.625Z</time></trkpt><trkpt lat="40.7377225" lon="-3.8193349"><ele>896.3333333333334</ele><time>2026-05-04T11:11:14.625Z</time></trkpt><trkpt lat="40.7377486" lon="-3.8192556"><ele>896.5</ele><time>2026-05-04T11:11:15.625Z</time></trkpt><trkpt lat="40.7377816" lon="-3.8191485"><ele>896.6666666666667</ele><time>2026-05-04T11:11:17.625Z</time></trkpt><trkpt lat="40.7378102" lon="-3.8190573"><ele>896.8333333333334</ele><time>2026-05-04T11:11:19.625Z</time></trkpt><trkpt lat="40.7378327" lon="-3.8189569"><ele>897.0</ele><time>2026-05-04T11:11:21.626Z</time></trkpt><trkpt lat="40.7378633" lon="-3.8188785"><ele>897.0</ele><time>2026-05-04T11:11:23.625Z</time></trkpt><trkpt lat="40.7378676" lon="-3.8187091"><ele>897.0</ele><time>2026-05-04T11:11:25.625Z</time></trkpt><trkpt lat="40.7378919" lon="-3.8186035"><ele>897.0</ele><time>2026-05-04T11:11:26.625Z</time></trkpt><trkpt lat="40.737912" lon="-3.8185005"><ele>897.0</ele><time>2026-05-04T11:11:27.625Z</time></trkpt><trkpt lat="40.7379197" lon="-3.8183998"><ele>897.0</ele><time>2026-05-04T11:11:28.625Z</time></trkpt><trkpt lat="40.7379329" lon="-3.8183114"><ele>897.0</ele><time>2026-05-04T11:11:29.625Z</time></trkpt><trkpt lat="40.7379358" lon="-3.81822"><ele>897.0</ele><time>2026-05-04T11:11:30.625Z</time></trkpt><trkpt lat="40.7379405" lon="-3.8181221"><ele>897.0</ele><time>2026-05-04T11:11:31.625Z</time></trkpt><trkpt lat="40.7379561" lon="-3.8180203"><ele>897.0</ele><time>2026-05-04T11:11:32.625Z</time></trkpt><trkpt lat="40.7379939" lon="-3.8178929"><ele>897.0</ele><time>2026-05-04T11:11:33.626Z</time></trkpt><trkpt lat="40.7380496" lon="-3.8177553"><ele>897.0</ele><time>2026-05-04T11:11:34.625Z</time></trkpt><trkpt lat="40.73811" lon="-3.8176235"><ele>897.0</ele><time>2026-05-04T11:11:35.625Z</time></trkpt><trkpt lat="40.7381646" lon="-3.8175044"><ele>897.0</ele><time>2026-05-04T11:11:36.625Z</time></trkpt><trkpt lat="40.7382179" lon="-3.8173925"><ele>897.0</ele><time>2026-05-04T11:11:37.626Z</time></trkpt><trkpt lat="40.7382724" lon="-3.8172685"><ele>897.0</ele><time>2026-05-04T11:11:38.625Z</time></trkpt><trkpt lat="40.7383238" lon="-3.8171455"><ele>897.0</ele><time>2026-05-04T11:11:39.626Z</time></trkpt><trkpt lat="40.7383714" lon="-3.8170215"><ele>897.0</ele><time>2026-05-04T11:11:40.625Z</time></trkpt><trkpt lat="40.7384191" lon="-3.8168922"><ele>897.0</ele><time>2026-05-04T11:11:41.625Z</time></trkpt><trkpt lat="40.7384652" lon="-3.8167609"><ele>897.0</ele><time>2026-05-04T11:11:42.626Z</time></trkpt><trkpt lat="40.7385121" lon="-3.8166424"><ele>897.0</ele><time>2026-05-04T11:11:43.625Z</time></trkpt><trkpt lat="40.7385595" lon="-3.8165255"><ele>897.0</ele><time>2026-05-04T11:11:44.625Z</time></trkpt><trkpt lat="40.738608" lon="-3.8164161"><ele>897.0</ele><time>2026-05-04T11:11:45.625Z</time></trkpt><trkpt lat="40.7386551" lon="-3.8163069"><ele>897.0</ele><time>2026-05-04T11:11:46.625Z</time></trkpt><trkpt lat="40.738698" lon="-3.8162035"><ele>897.0</ele><time>2026-05-04T11:11:47.625Z</time></trkpt><trkpt lat="40.7387346" lon="-3.8161094"><ele>897.0</ele><time>2026-05-04T11:11:48.625Z</time></trkpt><trkpt lat="40.7387626" lon="-3.8160266"><ele>897.0</ele><time>2026-05-04T11:11:49.625Z</time></trkpt><trkpt lat="40.7388095" lon="-3.8158937"><ele>897.0</ele><time>2026-05-04T11:11:51.625Z</time></trkpt><trkpt lat="40.7388559" lon="-3.8158148"><ele>897.0</ele><time>2026-05-04T11:11:53.625Z</time></trkpt><trkpt lat="40.7389109" lon="-3.8157458"><ele>897.0</ele><time>2026-05-04T11:11:55.625Z</time></trkpt><trkpt lat="40.7389828" lon="-3.8156297"><ele>897.0</ele><time>2026-05-04T11:11:57.625Z</time></trkpt><trkpt lat="40.7390696" lon="-3.8155491"><ele>897.0</ele><time>2026-05-04T11:11:59.625Z</time></trkpt><trkpt lat="40.7391444" lon="-3.8154737"><ele>897.0</ele><time>2026-05-04T11:12:11.625Z</time></trkpt><trkpt lat="40.7391837" lon="-3.8153328"><ele>897.0</ele><time>2026-05-04T11:12:13.625Z</time></trkpt><trkpt lat="40.7392092" lon="-3.8152564"><ele>897.0</ele><time>2026-05-04T11:12:14.625Z</time></trkpt><trkpt lat="40.7392444" lon="-3.8151713"><ele>897.0</ele><time>2026-05-04T11:12:15.625Z</time></trkpt><trkpt lat="40.7392788" lon="-3.8150806"><ele>897.0</ele><time>2026-05-04T11:12:16.626Z</time></trkpt><trkpt lat="40.7393012" lon="-3.814987"><ele>897.0</ele><time>2026-05-04T11:12:17.625Z</time></trkpt><trkpt lat="40.7393161" lon="-3.814892"><ele>897.0</ele><time>2026-05-04T11:12:18.625Z</time></trkpt><trkpt lat="40.7393172" lon="-3.8147967"><ele>897.0</ele><time>2026-05-04T11:12:19.625Z</time></trkpt><trkpt lat="40.7393022" lon="-3.8146869"><ele>897.0</ele><time>2026-05-04T11:12:20.625Z</time></trkpt><trkpt lat="40.7392793" lon="-3.8145673"><ele>897.0</ele><time>2026-05-04T11:12:21.625Z</time></trkpt><trkpt lat="40.7392858" lon="-3.8144549"><ele>897.0</ele><time>2026-05-04T11:12:22.626Z</time></trkpt><trkpt lat="40.7393247" lon="-3.8143662"><ele>897.0</ele><time>2026-05-04T11:12:23.625Z</time></trkpt><trkpt lat="40.7393908" lon="-3.8142921"><ele>897.0</ele><time>2026-05-04T11:12:24.625Z</time></trkpt><trkpt lat="40.7394639" lon="-3.8142403"><ele>897.0</ele><time>2026-05-04T11:12:25.625Z</time></trkpt><trkpt lat="40.7395406" lon="-3.8141852"><ele>897.0</ele><time>2026-05-04T11:12:26.625Z</time></trkpt><trkpt lat="40.7396158" lon="-3.8141176"><ele>897.0</ele><time>2026-05-04T11:12:27.625Z</time></trkpt><trkpt lat="40.7396747" lon="-3.8140286"><ele>897.0</ele><time>2026-05-04T11:12:28.625Z</time></trkpt><trkpt lat="40.7397256" lon="-3.8139239"><ele>897.0</ele><time>2026-05-04T11:12:29.625Z</time></trkpt><trkpt lat="40.7397697" lon="-3.8138079"><ele>897.0</ele><time>2026-05-04T11:12:30.625Z</time></trkpt><trkpt lat="40.7398136" lon="-3.8136922"><ele>897.0</ele><time>2026-05-04T11:12:31.625Z</time></trkpt><trkpt lat="40.7398548" lon="-3.8135697"><ele>897.0</ele><time>2026-05-04T11:12:32.625Z</time></trkpt><trkpt lat="40.7398987" lon="-3.8134479"><ele>897.0</ele><time>2026-05-04T11:12:33.625Z</time></trkpt><trkpt lat="40.739949" lon="-3.8133229"><ele>897.0</ele><time>2026-05-04T11:12:34.625Z</time></trkpt><trkpt lat="40.7399963" lon="-3.813198"><ele>897.0</ele><time>2026-05-04T11:12:35.625Z</time></trkpt><trkpt lat="40.7400501" lon="-3.813066"><ele>897.25</ele><time>2026-05-04T11:12:36.625Z</time></trkpt><trkpt lat="40.7401084" lon="-3.8129219"><ele>897.5</ele><time>2026-05-04T11:12:37.625Z</time></trkpt><trkpt lat="40.7401754" lon="-3.8127628"><ele>897.75</ele><time>2026-05-04T11:12:38.625Z</time></trkpt><trkpt lat="40.7402479" lon="-3.8126004"><ele>898.0</ele><time>2026-05-04T11:12:39.625Z</time></trkpt><trkpt lat="40.7403255" lon="-3.8124398"><ele>899.0</ele><time>2026-05-04T11:12:40.625Z</time></trkpt><trkpt lat="40.740407" lon="-3.8122784"><ele>900.0</ele><time>2026-05-04T11:12:41.626Z</time></trkpt><trkpt lat="40.7404931" lon="-3.8121093"><ele>901.0</ele><time>2026-05-04T11:12:42.625Z</time></trkpt><trkpt lat="40.7405882" lon="-3.8119272"><ele>901.6666666666666</ele><time>2026-05-04T11:12:43.625Z</time></trkpt><trkpt lat="40.7406839" lon="-3.811742"><ele>902.3333333333333</ele><time>2026-05-04T11:12:44.625Z</time></trkpt><trkpt lat="40.7407774" lon="-3.8115547"><ele>903.0</ele><time>2026-05-04T11:12:45.626Z</time></trkpt><trkpt lat="40.7408761" lon="-3.8113608"><ele>903.0</ele><time>2026-05-04T11:12:46.626Z</time></trkpt><trkpt lat="40.7409799" lon="-3.8111775"><ele>903.0</ele><time>2026-05-04T11:12:47.624Z</time></trkpt><trkpt lat="40.7410801" lon="-3.8109857"><ele>903.0</ele><time>2026-05-04T11:12:48.624Z</time></trkpt><trkpt lat="40.7411852" lon="-3.8107974"><ele>904.3333333333333</ele><time>2026-05-04T11:12:49.624Z</time></trkpt><trkpt lat="40.7412855" lon="-3.8106089"><ele>905.6666666666666</ele><time>2026-05-04T11:12:50.624Z</time></trkpt><trkpt lat="40.7413892" lon="-3.8104185"><ele>907.0</ele><time>2026-05-04T11:12:51.624Z</time></trkpt><trkpt lat="40.7414907" lon="-3.8102243"><ele>907.0</ele><time>2026-05-04T11:12:52.624Z</time></trkpt><trkpt lat="40.7415916" lon="-3.8100218"><ele>907.0</ele><time>2026-05-04T11:12:53.624Z</time></trkpt><trkpt lat="40.7416919" lon="-3.8098239"><ele>907.0</ele><time>2026-05-04T11:12:54.624Z</time></trkpt><trkpt lat="40.7417867" lon="-3.8096315"><ele>907.0</ele><time>2026-05-04T11:12:55.624Z</time></trkpt><trkpt lat="40.741885" lon="-3.8094407"><ele>907.0</ele><time>2026-05-04T11:12:56.624Z</time></trkpt><trkpt lat="40.7419882" lon="-3.8092455"><ele>907.0</ele><time>2026-05-04T11:12:57.624Z</time></trkpt><trkpt lat="40.742096" lon="-3.8090376"><ele>907.0</ele><time>2026-05-04T11:12:58.624Z</time></trkpt><trkpt lat="40.742209" lon="-3.8088166"><ele>907.0</ele><time>2026-05-04T11:12:59.624Z</time></trkpt><trkpt lat="40.7423254" lon="-3.8085894"><ele>907.0</ele><time>2026-05-04T11:13:00.624Z</time></trkpt><trkpt lat="40.7424503" lon="-3.8083605"><ele>906.3333333333333</ele><time>2026-05-04T11:13:01.625Z</time></trkpt><trkpt lat="40.7425706" lon="-3.8081397"><ele>905.6666666666667</ele><time>2026-05-04T11:13:02.624Z</time></trkpt><trkpt lat="40.7426836" lon="-3.8079298"><ele>905.0</ele><time>2026-05-04T11:13:03.624Z</time></trkpt><trkpt lat="40.7427917" lon="-3.8077218"><ele>905.3333333333334</ele><time>2026-05-04T11:13:04.624Z</time></trkpt><trkpt lat="40.7428986" lon="-3.8075156"><ele>905.6666666666667</ele><time>2026-05-04T11:13:05.624Z</time></trkpt><trkpt lat="40.7430027" lon="-3.8073088"><ele>906.0</ele><time>2026-05-04T11:13:06.624Z</time></trkpt><trkpt lat="40.7431103" lon="-3.8071064"><ele>906.0</ele><time>2026-05-04T11:13:07.624Z</time></trkpt><trkpt lat="40.7432193" lon="-3.806898"><ele>906.0</ele><time>2026-05-04T11:13:08.624Z</time></trkpt><trkpt lat="40.7433267" lon="-3.8066933"><ele>906.0</ele><time>2026-05-04T11:13:09.624Z</time></trkpt><trkpt lat="40.7434298" lon="-3.806498"><ele>906.3333333333333</ele><time>2026-05-04T11:13:10.625Z</time></trkpt><trkpt lat="40.7435334" lon="-3.8063024"><ele>906.6666666666666</ele><time>2026-05-04T11:13:11.624Z</time></trkpt><trkpt lat="40.7436337" lon="-3.8061089"><ele>907.0</ele><time>2026-05-04T11:13:12.624Z</time></trkpt><trkpt lat="40.7437321" lon="-3.8059155"><ele>907.6666666666666</ele><time>2026-05-04T11:13:13.624Z</time></trkpt><trkpt lat="40.7438299" lon="-3.8057265"><ele>908.3333333333333</ele><time>2026-05-04T11:13:14.624Z</time></trkpt><trkpt lat="40.74393" lon="-3.8055343"><ele>909.0</ele><time>2026-05-04T11:13:15.624Z</time></trkpt><trkpt lat="40.7440289" lon="-3.805341"><ele>908.3333333333333</ele><time>2026-05-04T11:13:16.624Z</time></trkpt><trkpt lat="40.7441263" lon="-3.8051521"><ele>907.6666666666666</ele><time>2026-05-04T11:13:17.624Z</time></trkpt><trkpt lat="40.744225" lon="-3.8049657"><ele>907.0</ele><time>2026-05-04T11:13:18.624Z</time></trkpt><trkpt lat="40.7443191" lon="-3.8047817"><ele>907.0</ele><time>2026-05-04T11:13:19.624Z</time></trkpt><trkpt lat="40.744409" lon="-3.8046031"><ele>907.0</ele><time>2026-05-04T11:13:20.624Z</time></trkpt><trkpt lat="40.7445031" lon="-3.8044316"><ele>907.0</ele><time>2026-05-04T11:13:21.624Z</time></trkpt><trkpt lat="40.7445956" lon="-3.8042594"><ele>907.0</ele><time>2026-05-04T11:13:22.624Z</time></trkpt><trkpt lat="40.7446863" lon="-3.8040834"><ele>907.0</ele><time>2026-05-04T11:13:23.624Z</time></trkpt><trkpt lat="40.7447764" lon="-3.803909"><ele>907.0</ele><time>2026-05-04T11:13:24.624Z</time></trkpt><trkpt lat="40.7448689" lon="-3.8037339"><ele>907.0</ele><time>2026-05-04T11:13:25.624Z</time></trkpt><trkpt lat="40.7449598" lon="-3.8035569"><ele>907.0</ele><time>2026-05-04T11:13:26.624Z</time></trkpt><trkpt lat="40.7450525" lon="-3.8033794"><ele>907.0</ele><time>2026-05-04T11:13:27.624Z</time></trkpt><trkpt lat="40.7451461" lon="-3.8031997"><ele>908.6666666666666</ele><time>2026-05-04T11:13:28.624Z</time></trkpt><trkpt lat="40.7452421" lon="-3.803017"><ele>910.3333333333333</ele><time>2026-05-04T11:13:29.624Z</time></trkpt><trkpt lat="40.7453391" lon="-3.8028261"><ele>912.0</ele><time>2026-05-04T11:13:30.624Z</time></trkpt><trkpt lat="40.7454311" lon="-3.8026407"><ele>912.0</ele><time>2026-05-04T11:13:31.624Z</time></trkpt><trkpt lat="40.74552" lon="-3.802472"><ele>912.0</ele><time>2026-05-04T11:13:32.624Z</time></trkpt><trkpt lat="40.7456011" lon="-3.8023179"><ele>912.0</ele><time>2026-05-04T11:13:33.624Z</time></trkpt><trkpt lat="40.7456785" lon="-3.802177"><ele>912.0</ele><time>2026-05-04T11:13:34.624Z</time></trkpt><trkpt lat="40.7457495" lon="-3.8020456"><ele>912.0</ele><time>2026-05-04T11:13:35.624Z</time></trkpt><trkpt lat="40.7458175" lon="-3.8019097"><ele>912.0</ele><time>2026-05-04T11:13:36.624Z</time></trkpt><trkpt lat="40.7458884" lon="-3.8017712"><ele>912.0</ele><time>2026-05-04T11:13:37.624Z</time></trkpt><trkpt lat="40.7459568" lon="-3.8016458"><ele>912.0</ele><time>2026-05-04T11:13:38.624Z</time></trkpt><trkpt lat="40.7460222" lon="-3.8015226"><ele>912.5</ele><time>2026-05-04T11:13:39.624Z</time></trkpt><trkpt lat="40.7460903" lon="-3.8014015"><ele>913.0</ele><time>2026-05-04T11:13:40.624Z</time></trkpt><trkpt lat="40.7461561" lon="-3.801276"><ele>913.5</ele><time>2026-05-04T11:13:41.624Z</time></trkpt><trkpt lat="40.7462183" lon="-3.8011505"><ele>914.0</ele><time>2026-05-04T11:13:42.624Z</time></trkpt><trkpt lat="40.7462829" lon="-3.8010239"><ele>914.0</ele><time>2026-05-04T11:13:43.624Z</time></trkpt><trkpt lat="40.746349" lon="-3.8009009"><ele>914.0</ele><time>2026-05-04T11:13:44.624Z</time></trkpt><trkpt lat="40.7464131" lon="-3.8007705"><ele>914.0</ele><time>2026-05-04T11:13:45.624Z</time></trkpt><trkpt lat="40.746477" lon="-3.8006406"><ele>914.0</ele><time>2026-05-04T11:13:46.624Z</time></trkpt><trkpt lat="40.746541" lon="-3.8005116"><ele>914.0</ele><time>2026-05-04T11:13:47.624Z</time></trkpt><trkpt lat="40.7466041" lon="-3.8003861"><ele>914.0</ele><time>2026-05-04T11:13:48.624Z</time></trkpt><trkpt lat="40.7466727" lon="-3.800261"><ele>914.0</ele><time>2026-05-04T11:13:49.624Z</time></trkpt><trkpt lat="40.7467434" lon="-3.8001373"><ele>914.0</ele><time>2026-05-04T11:13:50.625Z</time></trkpt><trkpt lat="40.7468146" lon="-3.8000086"><ele>914.0</ele><time>2026-05-04T11:13:51.624Z</time></trkpt><trkpt lat="40.7468776" lon="-3.7998767"><ele>914.0</ele><time>2026-05-04T11:13:52.624Z</time></trkpt><trkpt lat="40.7469375" lon="-3.7997511"><ele>914.0</ele><time>2026-05-04T11:13:53.624Z</time></trkpt><trkpt lat="40.747" lon="-3.7996263"><ele>914.0</ele><time>2026-05-04T11:13:54.624Z</time></trkpt><trkpt lat="40.7470707" lon="-3.7994941"><ele>914.0</ele><time>2026-05-04T11:13:55.625Z</time></trkpt><trkpt lat="40.747148" lon="-3.7993652"><ele>914.0</ele><time>2026-05-04T11:13:56.624Z</time></trkpt><trkpt lat="40.7472158" lon="-3.7992337"><ele>914.0</ele><time>2026-05-04T11:13:57.624Z</time></trkpt><trkpt lat="40.7472802" lon="-3.7991103"><ele>914.0</ele><time>2026-05-04T11:13:58.624Z</time></trkpt><trkpt lat="40.7473507" lon="-3.7989866"><ele>914.0</ele><time>2026-05-04T11:13:59.624Z</time></trkpt><trkpt lat="40.7474203" lon="-3.7988563"><ele>914.0</ele><time>2026-05-04T11:14:00.624Z</time></trkpt><trkpt lat="40.7474902" lon="-3.7987233"><ele>914.0</ele><time>2026-05-04T11:14:01.624Z</time></trkpt><trkpt lat="40.7475566" lon="-3.79859"><ele>914.0</ele><time>2026-05-04T11:14:02.624Z</time></trkpt><trkpt lat="40.7476242" lon="-3.7984546"><ele>913.75</ele><time>2026-05-04T11:14:03.625Z</time></trkpt><trkpt lat="40.7476938" lon="-3.7983145"><ele>913.5</ele><time>2026-05-04T11:14:04.624Z</time></trkpt><trkpt lat="40.7477647" lon="-3.7981771"><ele>913.25</ele><time>2026-05-04T11:14:05.624Z</time></trkpt><trkpt lat="40.7478327" lon="-3.7980399"><ele>913.0</ele><time>2026-05-04T11:14:06.624Z</time></trkpt><trkpt lat="40.747905" lon="-3.797902"><ele>913.25</ele><time>2026-05-04T11:14:07.624Z</time></trkpt><trkpt lat="40.7479805" lon="-3.7977675"><ele>913.5</ele><time>2026-05-04T11:14:08.625Z</time></trkpt><trkpt lat="40.7480553" lon="-3.7976252"><ele>913.75</ele><time>2026-05-04T11:14:09.624Z</time></trkpt><trkpt lat="40.7481273" lon="-3.7974828"><ele>914.0</ele><time>2026-05-04T11:14:10.625Z</time></trkpt><trkpt lat="40.7481997" lon="-3.7973381"><ele>914.0</ele><time>2026-05-04T11:14:11.624Z</time></trkpt><trkpt lat="40.7482714" lon="-3.7971931"><ele>914.0</ele><time>2026-05-04T11:14:12.625Z</time></trkpt><trkpt lat="40.7483436" lon="-3.7970596"><ele>914.0</ele><time>2026-05-04T11:14:13.624Z</time></trkpt><trkpt lat="40.7484157" lon="-3.7969249"><ele>914.0</ele><time>2026-05-04T11:14:14.624Z</time></trkpt><trkpt lat="40.7484874" lon="-3.7967877"><ele>915.0</ele><time>2026-05-04T11:14:15.624Z</time></trkpt><trkpt lat="40.7485607" lon="-3.7966475"><ele>916.0</ele><time>2026-05-04T11:14:16.624Z</time></trkpt><trkpt lat="40.7486319" lon="-3.7965054"><ele>917.0</ele><time>2026-05-04T11:14:17.624Z</time></trkpt><trkpt lat="40.7487057" lon="-3.7963597"><ele>918.0</ele><time>2026-05-04T11:14:18.624Z</time></trkpt><trkpt lat="40.7487823" lon="-3.7962091"><ele>918.0</ele><time>2026-05-04T11:14:19.624Z</time></trkpt><trkpt lat="40.7488611" lon="-3.796056"><ele>918.0</ele><time>2026-05-04T11:14:20.625Z</time></trkpt><trkpt lat="40.748942" lon="-3.7959072"><ele>918.0</ele><time>2026-05-04T11:14:21.625Z</time></trkpt><trkpt lat="40.7490253" lon="-3.7957531"><ele>918.0</ele><time>2026-05-04T11:14:22.624Z</time></trkpt><trkpt lat="40.7491046" lon="-3.7955993"><ele>917.3333333333333</ele><time>2026-05-04T11:14:23.625Z</time></trkpt><trkpt lat="40.7491881" lon="-3.7954388"><ele>916.6666666666666</ele><time>2026-05-04T11:14:24.624Z</time></trkpt><trkpt lat="40.7492718" lon="-3.7952747"><ele>916.0</ele><time>2026-05-04T11:14:25.624Z</time></trkpt><trkpt lat="40.7493576" lon="-3.795101"><ele>918.0</ele><time>2026-05-04T11:14:26.624Z</time></trkpt><trkpt lat="40.7494464" lon="-3.7949298"><ele>920.0</ele><time>2026-05-04T11:14:27.624Z</time></trkpt><trkpt lat="40.7495325" lon="-3.7947578"><ele>922.0</ele><time>2026-05-04T11:14:28.624Z</time></trkpt><trkpt lat="40.749616" lon="-3.7946003"><ele>922.0</ele><time>2026-05-04T11:14:29.624Z</time></trkpt><trkpt lat="40.7496851" lon="-3.794452"><ele>922.0</ele><time>2026-05-04T11:14:30.625Z</time></trkpt><trkpt lat="40.7497444" lon="-3.7943074"><ele>922.0</ele><time>2026-05-04T11:14:31.625Z</time></trkpt><trkpt lat="40.7497955" lon="-3.7941856"><ele>922.0</ele><time>2026-05-04T11:14:32.624Z</time></trkpt><trkpt lat="40.7498424" lon="-3.7940706"><ele>921.8333333333333</ele><time>2026-05-04T11:14:33.624Z</time></trkpt><trkpt lat="40.7498887" lon="-3.7939622"><ele>921.6666666666666</ele><time>2026-05-04T11:14:34.625Z</time></trkpt><trkpt lat="40.7499293" lon="-3.7938568"><ele>921.5</ele><time>2026-05-04T11:14:35.625Z</time></trkpt><trkpt lat="40.7499673" lon="-3.7937541"><ele>921.3333333333333</ele><time>2026-05-04T11:14:36.624Z</time></trkpt><trkpt lat="40.7500089" lon="-3.7936524"><ele>921.1666666666666</ele><time>2026-05-04T11:14:37.624Z</time></trkpt><trkpt lat="40.7500482" lon="-3.7935477"><ele>921.0</ele><time>2026-05-04T11:14:38.624Z</time></trkpt><trkpt lat="40.7500925" lon="-3.7934423"><ele>920.4</ele><time>2026-05-04T11:14:39.625Z</time></trkpt><trkpt lat="40.7501386" lon="-3.7933351"><ele>919.8</ele><time>2026-05-04T11:14:40.624Z</time></trkpt><trkpt lat="40.7501853" lon="-3.7932284"><ele>919.1999999999999</ele><time>2026-05-04T11:14:41.624Z</time></trkpt><trkpt lat="40.7502294" lon="-3.793118"><ele>918.5999999999999</ele><time>2026-05-04T11:14:42.625Z</time></trkpt><trkpt lat="40.7502734" lon="-3.7930069"><ele>918.0</ele><time>2026-05-04T11:14:43.624Z</time></trkpt><trkpt lat="40.7503204" lon="-3.7928947"><ele>918.0</ele><time>2026-05-04T11:14:44.624Z</time></trkpt><trkpt lat="40.7503639" lon="-3.7927787"><ele>918.0</ele><time>2026-05-04T11:14:45.624Z</time></trkpt><trkpt lat="40.7504142" lon="-3.7926653"><ele>918.0</ele><time>2026-05-04T11:14:46.625Z</time></trkpt><trkpt lat="40.7504636" lon="-3.7925497"><ele>918.0</ele><time>2026-05-04T11:14:47.624Z</time></trkpt><trkpt lat="40.7505086" lon="-3.7924284"><ele>918.0</ele><time>2026-05-04T11:14:48.624Z</time></trkpt><trkpt lat="40.7505491" lon="-3.7922991"><ele>918.0</ele><time>2026-05-04T11:14:49.625Z</time></trkpt><trkpt lat="40.7505905" lon="-3.7921669"><ele>918.0</ele><time>2026-05-04T11:14:50.625Z</time></trkpt><trkpt lat="40.7506296" lon="-3.7920276"><ele>918.0</ele><time>2026-05-04T11:14:51.625Z</time></trkpt><trkpt lat="40.7506616" lon="-3.7918847"><ele>918.0</ele><time>2026-05-04T11:14:52.624Z</time></trkpt><trkpt lat="40.7506889" lon="-3.7917469"><ele>918.0</ele><time>2026-05-04T11:14:53.624Z</time></trkpt><trkpt lat="40.7507123" lon="-3.7915982"><ele>918.0</ele><time>2026-05-04T11:14:54.624Z</time></trkpt><trkpt lat="40.7507335" lon="-3.7914489"><ele>918.0</ele><time>2026-05-04T11:14:55.624Z</time></trkpt><trkpt lat="40.7507519" lon="-3.7912998"><ele>918.0</ele><time>2026-05-04T11:14:56.624Z</time></trkpt><trkpt lat="40.750771" lon="-3.7911428"><ele>918.0</ele><time>2026-05-04T11:14:57.624Z</time></trkpt><trkpt lat="40.7507874" lon="-3.7909844"><ele>918.0</ele><time>2026-05-04T11:14:58.625Z</time></trkpt><trkpt lat="40.7508051" lon="-3.7908204"><ele>918.0</ele><time>2026-05-04T11:14:59.624Z</time></trkpt><trkpt lat="40.7508231" lon="-3.7906555"><ele>918.0</ele><time>2026-05-04T11:15:00.624Z</time></trkpt><trkpt lat="40.7508436" lon="-3.7904902"><ele>918.0</ele><time>2026-05-04T11:15:01.624Z</time></trkpt><trkpt lat="40.750862" lon="-3.7903283"><ele>918.2</ele><time>2026-05-04T11:15:02.624Z</time></trkpt><trkpt lat="40.7508855" lon="-3.7901654"><ele>918.4</ele><time>2026-05-04T11:15:03.624Z</time></trkpt><trkpt lat="40.7508998" lon="-3.7900151"><ele>918.6000000000001</ele><time>2026-05-04T11:15:04.624Z</time></trkpt><trkpt lat="40.75091" lon="-3.7898872"><ele>918.8000000000001</ele><time>2026-05-04T11:15:05.624Z</time></trkpt><trkpt lat="40.7509263" lon="-3.789771"><ele>919.0</ele><time>2026-05-04T11:15:06.624Z</time></trkpt><trkpt lat="40.7509384" lon="-3.7896592"><ele>918.9999999999999</ele><time>2026-05-04T11:15:07.624Z</time></trkpt><trkpt lat="40.7509483" lon="-3.7895563"><ele>919.0</ele><time>2026-05-04T11:15:08.624Z</time></trkpt><trkpt lat="40.7509588" lon="-3.7894531"><ele>919.0</ele><time>2026-05-04T11:15:09.624Z</time></trkpt><trkpt lat="40.7509717" lon="-3.7893486"><ele>919.0</ele><time>2026-05-04T11:15:10.624Z</time></trkpt><trkpt lat="40.7509847" lon="-3.7892396"><ele>918.9999999999999</ele><time>2026-05-04T11:15:11.624Z</time></trkpt><trkpt lat="40.7509964" lon="-3.7891383"><ele>919.0</ele><time>2026-05-04T11:15:12.624Z</time></trkpt><trkpt lat="40.7510049" lon="-3.7890507"><ele>918.8000000000001</ele><time>2026-05-04T11:15:13.624Z</time></trkpt><trkpt lat="40.7510249" lon="-3.7888926"><ele>918.6000000000001</ele><time>2026-05-04T11:15:15.625Z</time></trkpt><trkpt lat="40.7510651" lon="-3.7887319"><ele>918.4</ele><time>2026-05-04T11:15:17.624Z</time></trkpt><trkpt lat="40.7511034" lon="-3.7886356"><ele>918.2</ele><time>2026-05-04T11:15:18.624Z</time></trkpt><trkpt lat="40.7511547" lon="-3.7885291"><ele>918.0</ele><time>2026-05-04T11:15:19.625Z</time></trkpt><trkpt lat="40.7512122" lon="-3.7884282"><ele>918.0</ele><time>2026-05-04T11:15:20.624Z</time></trkpt><trkpt lat="40.7512778" lon="-3.7883363"><ele>918.0</ele><time>2026-05-04T11:15:21.624Z</time></trkpt><trkpt lat="40.7513343" lon="-3.7882421"><ele>918.0</ele><time>2026-05-04T11:15:22.624Z</time></trkpt><trkpt lat="40.751385" lon="-3.7881565"><ele>918.0</ele><time>2026-05-04T11:15:23.624Z</time></trkpt><trkpt lat="40.7514337" lon="-3.7880777"><ele>918.0</ele><time>2026-05-04T11:15:24.624Z</time></trkpt><trkpt lat="40.7514811" lon="-3.7880026"><ele>918.0</ele><time>2026-05-04T11:15:25.624Z</time></trkpt><trkpt lat="40.7515243" lon="-3.7879283"><ele>918.0</ele><time>2026-05-04T11:15:26.624Z</time></trkpt><trkpt lat="40.7515693" lon="-3.7878513"><ele>918.0</ele><time>2026-05-04T11:15:27.624Z</time></trkpt><trkpt lat="40.751607" lon="-3.7877773"><ele>918.0</ele><time>2026-05-04T11:15:28.624Z</time></trkpt><trkpt lat="40.7516485" lon="-3.7877018"><ele>918.0</ele><time>2026-05-04T11:15:29.624Z</time></trkpt><trkpt lat="40.7516918" lon="-3.7876235"><ele>918.0</ele><time>2026-05-04T11:15:30.625Z</time></trkpt><trkpt lat="40.7517364" lon="-3.7875473"><ele>918.0</ele><time>2026-05-04T11:15:31.624Z</time></trkpt><trkpt lat="40.7517843" lon="-3.7874681"><ele>918.0</ele><time>2026-05-04T11:15:32.624Z</time></trkpt><trkpt lat="40.7518392" lon="-3.7873795"><ele>918.1666666666666</ele><time>2026-05-04T11:15:33.624Z</time></trkpt><trkpt lat="40.7518918" lon="-3.7872946"><ele>918.3333333333333</ele><time>2026-05-04T11:15:34.625Z</time></trkpt><trkpt lat="40.7519418" lon="-3.7872075"><ele>918.5</ele><time>2026-05-04T11:15:35.624Z</time></trkpt><trkpt lat="40.7519983" lon="-3.787119"><ele>918.6666666666666</ele><time>2026-05-04T11:15:36.624Z</time></trkpt><trkpt lat="40.752057" lon="-3.7870267"><ele>918.8333333333333</ele><time>2026-05-04T11:15:37.624Z</time></trkpt><trkpt lat="40.7521158" lon="-3.7869296"><ele>919.0</ele><time>2026-05-04T11:15:38.624Z</time></trkpt><trkpt lat="40.7521789" lon="-3.786833"><ele>918.9999999999999</ele><time>2026-05-04T11:15:39.624Z</time></trkpt><trkpt lat="40.7522382" lon="-3.7867393"><ele>919.0</ele><time>2026-05-04T11:15:40.624Z</time></trkpt><trkpt lat="40.7522883" lon="-3.786645"><ele>919.0</ele><time>2026-05-04T11:15:41.625Z</time></trkpt><trkpt lat="40.7523389" lon="-3.7865541"><ele>919.0</ele><time>2026-05-04T11:15:42.624Z</time></trkpt><trkpt lat="40.7523911" lon="-3.7864664"><ele>918.9999999999999</ele><time>2026-05-04T11:15:43.625Z</time></trkpt><trkpt lat="40.7524401" lon="-3.7863895"><ele>919.0</ele><time>2026-05-04T11:15:44.624Z</time></trkpt><trkpt lat="40.7524858" lon="-3.786319"><ele>919.0</ele><time>2026-05-04T11:15:45.624Z</time></trkpt><trkpt lat="40.7525599" lon="-3.786193"><ele>919.0</ele><time>2026-05-04T11:15:47.624Z</time></trkpt><trkpt lat="40.7525914" lon="-3.7860715"><ele>919.0</ele><time>2026-05-04T11:15:49.624Z</time></trkpt><trkpt lat="40.7525233" lon="-3.785954"><ele>919.0</ele><time>2026-05-04T11:15:51.624Z</time></trkpt><trkpt lat="40.7524266" lon="-3.7858586"><ele>918.8333333333333</ele><time>2026-05-04T11:15:53.625Z</time></trkpt><trkpt lat="40.7523751" lon="-3.7857956"><ele>918.6666666666666</ele><time>2026-05-04T11:15:54.624Z</time></trkpt><trkpt lat="40.7523238" lon="-3.7857267"><ele>918.5</ele><time>2026-05-04T11:15:55.624Z</time></trkpt><trkpt lat="40.7522712" lon="-3.785667"><ele>918.3333333333333</ele><time>2026-05-04T11:15:56.625Z</time></trkpt><trkpt lat="40.7522232" lon="-3.7856102"><ele>918.1666666666666</ele><time>2026-05-04T11:15:57.624Z</time></trkpt><trkpt lat="40.7521716" lon="-3.7854983"><ele>918.0</ele><time>2026-05-04T11:15:59.624Z</time></trkpt><trkpt lat="40.7522174" lon="-3.7853562"><ele>918.0</ele><time>2026-05-04T11:16:01.624Z</time></trkpt><trkpt lat="40.7522556" lon="-3.7852866"><ele>918.0</ele><time>2026-05-04T11:16:02.624Z</time></trkpt><trkpt lat="40.7523075" lon="-3.7852142"><ele>918.0</ele><time>2026-05-04T11:16:03.624Z</time></trkpt><trkpt lat="40.7523647" lon="-3.785135"><ele>918.0</ele><time>2026-05-04T11:16:04.624Z</time></trkpt><trkpt lat="40.7524133" lon="-3.7850614"><ele>918.0</ele><time>2026-05-04T11:16:05.624Z</time></trkpt><trkpt lat="40.7524516" lon="-3.7849906"><ele>918.0</ele><time>2026-05-04T11:16:06.624Z</time></trkpt><trkpt lat="40.7525354" lon="-3.7848583"><ele>918.0</ele><time>2026-05-04T11:16:08.624Z</time></trkpt><trkpt lat="40.7525802" lon="-3.7847925"><ele>918.0</ele><time>2026-05-04T11:16:09.625Z</time></trkpt><trkpt lat="40.7526295" lon="-3.784723"><ele>918.0</ele><time>2026-05-04T11:16:10.624Z</time></trkpt><trkpt lat="40.7526723" lon="-3.7846421"><ele>918.0</ele><time>2026-05-04T11:16:11.624Z</time></trkpt><trkpt lat="40.7527143" lon="-3.7845655"><ele>918.0</ele><time>2026-05-04T11:16:12.625Z</time></trkpt><trkpt lat="40.752753" lon="-3.7844919"><ele>918.0</ele><time>2026-05-04T11:16:13.624Z</time></trkpt><trkpt lat="40.752791" lon="-3.7843444"><ele>918.5</ele><time>2026-05-04T11:16:15.624Z</time></trkpt><trkpt lat="40.7527995" lon="-3.7842196"><ele>919.0</ele><time>2026-05-04T11:16:17.624Z</time></trkpt><trkpt lat="40.7528226" lon="-3.78413"><ele>919.5</ele><time>2026-05-04T11:16:19.624Z</time></trkpt><trkpt lat="40.7528991" lon="-3.784148"><ele>920.0</ele><time>2026-05-04T11:17:01.624Z</time></trkpt><trkpt lat="40.7528928" lon="-3.7842471"><ele>920.5</ele><time>2026-05-04T11:17:09.624Z</time></trkpt><trkpt lat="40.7529263" lon="-3.7841696"><ele>921.0</ele><time>2026-05-04T11:18:28.625Z</time></trkpt><trkpt lat="40.7529881" lon="-3.7840886"><ele>921.0</ele><time>2026-05-04T11:18:34.624Z</time></trkpt><trkpt lat="40.7529414" lon="-3.7841552"><ele>921.0</ele><time>2026-05-04T11:18:41.624Z</time></trkpt></trkseg></trk></gpx>